<?xml version='1.0' encoding='UTF-8'?><gpx version="1.1" creator="JPX - https://github.com/jenetics/jpx" xmlns="http://www.topografix.com/GPX/1/1"><trk><trkseg><trkpt lat="44.248763130546216" lon="11.884073564666293"><ele>66.0</ele><time>2026-05-01T14:23:46Z</time></trkpt><trkpt lat="44.24872637401065" lon="11.884185569132221"><ele>66.0</ele><time>2026-05-01T14:23:49Z</time></trkpt><trkpt lat="44.248796953451446" lon="11.88431149996689"><ele>66.0</ele><time>2026-05-01T14:23:51Z</time></trkpt><trkpt lat="44.24885272420649" lon="11.884374902833104"><ele>66.0</ele><time>2026-05-01T14:23:52Z</time></trkpt><trkpt lat="44.24892767117074" lon="11.884450420725083"><ele>66.0</ele><time>2026-05-01T14:23:53Z</time></trkpt><trkpt lat="44.24902122187322" lon="11.884531376383327"><ele>65.75</ele><time>2026-05-01T14:23:54Z</time></trkpt><trkpt lat="44.249116924053965" lon="11.88461688377886"><ele>65.5</ele><time>2026-05-01T14:23:55Z</time></trkpt><trkpt lat="44.24923019430517" lon="11.884720769737665"><ele>65.25</ele><time>2026-05-01T14:23:56Z</time></trkpt><trkpt lat="44.24934419458882" lon="11.884827253961703"><ele>65.0</ele><time>2026-05-01T14:23:57Z</time></trkpt><trkpt lat="44.2494461375214" lon="11.884918919582985"><ele>65.0</ele><time>2026-05-01T14:23:58Z</time></trkpt><trkpt lat="44.2495418630883" lon="11.885006939302256"><ele>65.0</ele><time>2026-05-01T14:23:59Z</time></trkpt><trkpt lat="44.24964695348833" lon="11.885106804415788"><ele>65.0</ele><time>2026-05-01T14:24:00Z</time></trkpt><trkpt lat="44.24975865855917" lon="11.885213692148831"><ele>65.0</ele><time>2026-05-01T14:24:01Z</time></trkpt><trkpt lat="44.249874493890495" lon="11.885324195166294"><ele>64.5</ele><time>2026-05-01T14:24:02Z</time></trkpt><trkpt lat="44.24999529746022" lon="11.885436659069788"><ele>64.0</ele><time>2026-05-01T14:24:03Z</time></trkpt><trkpt lat="44.250105822159995" lon="11.885539683353674"><ele>63.5</ele><time>2026-05-01T14:24:04Z</time></trkpt><trkpt lat="44.25020421141723" lon="11.885636347731372"><ele>63.0</ele><time>2026-05-01T14:24:05Z</time></trkpt><trkpt lat="44.25028576931968" lon="11.885716036470178"><ele>63.0</ele><time>2026-05-01T14:24:06Z</time></trkpt><trkpt lat="44.250360586510304" lon="11.885786819561044"><ele>63.0</ele><time>2026-05-01T14:24:07Z</time></trkpt><trkpt lat="44.25041992940019" lon="11.88583904715634"><ele>63.0</ele><time>2026-05-01T14:24:08Z</time></trkpt><trkpt lat="44.250482084418856" lon="11.88594860599434"><ele>63.0</ele><time>2026-05-01T14:24:10Z</time></trkpt><trkpt lat="44.25042652331107" lon="11.886062504078208"><ele>63.0</ele><time>2026-05-01T14:24:12Z</time></trkpt><trkpt lat="44.25039560819476" lon="11.886142326322176"><ele>63.0</ele><time>2026-05-01T14:24:13Z</time></trkpt><trkpt lat="44.25036538565559" lon="11.886239326297511"><ele>62.833333333333336</ele><time>2026-05-01T14:24:14Z</time></trkpt><trkpt lat="44.25032517083964" lon="11.886341342217579"><ele>62.66666666666667</ele><time>2026-05-01T14:24:15Z</time></trkpt><trkpt lat="44.25028233531538" lon="11.886442147585285"><ele>62.5</ele><time>2026-05-01T14:24:16Z</time></trkpt><trkpt lat="44.25024374987818" lon="11.88654184818314"><ele>62.333333333333336</ele><time>2026-05-01T14:24:17Z</time></trkpt><trkpt lat="44.2502067450658" lon="11.886634750618143"><ele>62.16666666666667</ele><time>2026-05-01T14:24:18Z</time></trkpt><trkpt lat="44.25017279424264" lon="11.886716418659034"><ele>62.0</ele><time>2026-05-01T14:24:19Z</time></trkpt><trkpt lat="44.25011615892919" lon="11.88684019423913"><ele>61.6</ele><time>2026-05-01T14:24:21Z</time></trkpt><trkpt lat="44.25010563691484" lon="11.886970765376299"><ele>61.2</ele><time>2026-05-01T14:24:23Z</time></trkpt><trkpt lat="44.25019375190738" lon="11.88704474073529"><ele>60.8</ele><time>2026-05-01T14:24:24Z</time></trkpt><trkpt lat="44.25023434892736" lon="11.887166746541187"><ele>60.4</ele><time>2026-05-01T14:24:26Z</time></trkpt><trkpt lat="44.25022898006024" lon="11.887317375465386"><ele>60.0</ele><time>2026-05-01T14:24:28Z</time></trkpt><trkpt lat="44.250186714131615" lon="11.887382720763668"><ele>60.0</ele><time>2026-05-01T14:24:29Z</time></trkpt><trkpt lat="44.250143702381756" lon="11.887543494288709"><ele>60.0</ele><time>2026-05-01T14:24:31Z</time></trkpt><trkpt lat="44.25008787327655" lon="11.887695659940247"><ele>60.0</ele><time>2026-05-01T14:24:33Z</time></trkpt><trkpt lat="44.25003123607356" lon="11.887848547065472"><ele>60.0</ele><time>2026-05-01T14:24:35Z</time></trkpt><trkpt lat="44.24997980988254" lon="11.887993879033157"><ele>59.833333333333336</ele><time>2026-05-01T14:24:37Z</time></trkpt><trkpt lat="44.24993997358387" lon="11.888119200925816"><ele>59.66666666666667</ele><time>2026-05-01T14:24:39Z</time></trkpt><trkpt lat="44.249920622641554" lon="11.888224048348125"><ele>59.5</ele><time>2026-05-01T14:24:41Z</time></trkpt><trkpt lat="44.24990189866268" lon="11.888313254036373"><ele>59.333333333333336</ele><time>2026-05-01T14:24:44Z</time></trkpt><trkpt lat="44.249935099718556" lon="11.88821454522265"><ele>59.16666666666667</ele><time>2026-05-01T14:25:42Z</time></trkpt><trkpt lat="44.24993763980188" lon="11.888092790586889"><ele>59.0</ele><time>2026-05-01T14:25:49Z</time></trkpt><trkpt lat="44.24986240476385" lon="11.888189112026312"><ele>59.0</ele><time>2026-05-01T14:25:50Z</time></trkpt><trkpt lat="44.249978036378025" lon="11.887946639083006"><ele>59.0</ele><time>2026-05-01T14:25:51Z</time></trkpt><trkpt lat="44.25004349820127" lon="11.887811491295786"><ele>59.0</ele><time>2026-05-01T14:25:53Z</time></trkpt><trkpt lat="44.25010235775821" lon="11.887648797399143"><ele>59.2</ele><time>2026-05-01T14:25:55Z</time></trkpt><trkpt lat="44.25013294304407" lon="11.887565095751501"><ele>59.400000000000006</ele><time>2026-05-01T14:25:56Z</time></trkpt><trkpt lat="44.250192710234735" lon="11.887418677167146"><ele>59.6</ele><time>2026-05-01T14:25:58Z</time></trkpt><trkpt lat="44.250237828977895" lon="11.887267898293873"><ele>59.8</ele><time>2026-05-01T14:26:00Z</time></trkpt><trkpt lat="44.250245045864254" lon="11.88710865324066"><ele>60.0</ele><time>2026-05-01T14:26:02Z</time></trkpt><trkpt lat="44.25018941500891" lon="11.886970335451526"><ele>60.0</ele><time>2026-05-01T14:26:04Z</time></trkpt><trkpt lat="44.250159257101124" lon="11.886826565038676"><ele>60.0</ele><time>2026-05-01T14:26:06Z</time></trkpt><trkpt lat="44.25021708529078" lon="11.886676794804062"><ele>60.0</ele><time>2026-05-01T14:26:08Z</time></trkpt><trkpt lat="44.25025237048875" lon="11.886594569116358"><ele>60.0</ele><time>2026-05-01T14:26:09Z</time></trkpt><trkpt lat="44.250292641321145" lon="11.886498707650121"><ele>60.0</ele><time>2026-05-01T14:26:10Z</time></trkpt><trkpt lat="44.25031854935049" lon="11.886395168883363"><ele>60.333333333333336</ele><time>2026-05-01T14:26:11Z</time></trkpt><trkpt lat="44.250364900077415" lon="11.886303836158818"><ele>60.66666666666667</ele><time>2026-05-01T14:26:12Z</time></trkpt><trkpt lat="44.25039966478781" lon="11.886210561767047"><ele>61.0</ele><time>2026-05-01T14:26:13Z</time></trkpt><trkpt lat="44.25044134936753" lon="11.88613333848626"><ele>61.333333333333336</ele><time>2026-05-01T14:26:14Z</time></trkpt><trkpt lat="44.250487739618436" lon="11.88602214521289"><ele>61.66666666666667</ele><time>2026-05-01T14:26:16Z</time></trkpt><trkpt lat="44.25051955749944" lon="11.885919952077582"><ele>62.0</ele><time>2026-05-01T14:26:18Z</time></trkpt><trkpt lat="44.25047859449927" lon="11.8858407719244"><ele>62.16666666666667</ele><time>2026-05-01T14:26:19Z</time></trkpt><trkpt lat="44.2503824345356" lon="11.885748947614614"><ele>62.333333333333336</ele><time>2026-05-01T14:26:21Z</time></trkpt><trkpt lat="44.250325734546195" lon="11.885702743585856"><ele>62.5</ele><time>2026-05-01T14:26:22Z</time></trkpt><trkpt lat="44.25026445283036" lon="11.885643696516059"><ele>62.66666666666667</ele><time>2026-05-01T14:26:23Z</time></trkpt><trkpt lat="44.25019787248449" lon="11.885576198048426"><ele>62.833333333333336</ele><time>2026-05-01T14:26:24Z</time></trkpt><trkpt lat="44.250128457798894" lon="11.885508238144574"><ele>63.0</ele><time>2026-05-01T14:26:25Z</time></trkpt><trkpt lat="44.2500523738025" lon="11.885437702225337"><ele>63.0</ele><time>2026-05-01T14:26:26Z</time></trkpt><trkpt lat="44.249975891037714" lon="11.88536614175155"><ele>63.0</ele><time>2026-05-01T14:26:27Z</time></trkpt><trkpt lat="44.249899077657844" lon="11.885292598248725"><ele>63.0</ele><time>2026-05-01T14:26:28Z</time></trkpt><trkpt lat="44.2498198165692" lon="11.885216599172297"><ele>63.0</ele><time>2026-05-01T14:26:29Z</time></trkpt><trkpt lat="44.24974018634145" lon="11.885142683368917"><ele>63.0</ele><time>2026-05-01T14:26:30Z</time></trkpt><trkpt lat="44.24966269124528" lon="11.88506848392976"><ele>63.4</ele><time>2026-05-01T14:26:31Z</time></trkpt><trkpt lat="44.24958430129389" lon="11.884993203149925"><ele>63.8</ele><time>2026-05-01T14:26:32Z</time></trkpt><trkpt lat="44.24950440639509" lon="11.884915597102962"><ele>64.2</ele><time>2026-05-01T14:26:33Z</time></trkpt><trkpt lat="44.24942166232001" lon="11.884837720056955"><ele>64.6</ele><time>2026-05-01T14:26:34Z</time></trkpt><trkpt lat="44.249338462412254" lon="11.884759730094467"><ele>65.0</ele><time>2026-05-01T14:26:35Z</time></trkpt><trkpt lat="44.24925714259516" lon="11.884683706245891"><ele>65.0</ele><time>2026-05-01T14:26:36Z</time></trkpt><trkpt lat="44.24917570989783" lon="11.884609857237738"><ele>65.0</ele><time>2026-05-01T14:26:37Z</time></trkpt><trkpt lat="44.24909591184472" lon="11.884537493372868"><ele>65.0</ele><time>2026-05-01T14:26:38Z</time></trkpt><trkpt lat="44.24902024644377" lon="11.884471594696308"><ele>65.0</ele><time>2026-05-01T14:26:39Z</time></trkpt><trkpt lat="44.24895545719403" lon="11.884411987149907"><ele>65.0</ele><time>2026-05-01T14:26:40Z</time></trkpt><trkpt lat="44.24889778659069" lon="11.884357587399766"><ele>65.0</ele><time>2026-05-01T14:26:41Z</time></trkpt><trkpt lat="44.248823745986336" lon="11.88428335263612"><ele>65.2</ele><time>2026-05-01T14:26:43Z</time></trkpt><trkpt lat="44.248769242166496" lon="11.884202685124954"><ele>65.4</ele><time>2026-05-01T14:26:54Z</time></trkpt><trkpt lat="44.24879515829625" lon="11.88408666106212"><ele>65.6</ele><time>2026-05-01T14:26:56Z</time></trkpt><trkpt lat="44.24881699322068" lon="11.88397253716109"><ele>65.8</ele><time>2026-05-01T14:26:58Z</time></trkpt><trkpt lat="44.24885491689266" lon="11.883881821145195"><ele>66.0</ele><time>2026-05-01T14:27:02Z</time></trkpt><trkpt lat="44.24868766304914" lon="11.883826791440391"><ele>66.0</ele><time>2026-05-01T14:27:06Z</time></trkpt><trkpt lat="44.24860739546203" lon="11.883858576378925"><ele>66.0</ele><time>2026-05-01T14:27:07Z</time></trkpt><trkpt lat="44.248515279050785" lon="11.88388282948552"><ele>66.0</ele><time>2026-05-01T14:27:08Z</time></trkpt><trkpt lat="44.24841663955929" lon="11.8839112976307"><ele>66.0</ele><time>2026-05-01T14:27:09Z</time></trkpt><trkpt lat="44.24830597307131" lon="11.883944732569473"><ele>66.0</ele><time>2026-05-01T14:27:10Z</time></trkpt><trkpt lat="44.24820912413294" lon="11.883975737668859"><ele>66.2</ele><time>2026-05-01T14:27:11Z</time></trkpt><trkpt lat="44.24810540741233" lon="11.884008382424161"><ele>66.39999999999999</ele><time>2026-05-01T14:27:12Z</time></trkpt><trkpt lat="44.24800651240453" lon="11.884041193015538"><ele>66.6</ele><time>2026-05-01T14:27:13Z</time></trkpt><trkpt lat="44.247910961371865" lon="11.88407187186523"><ele>66.8</ele><time>2026-05-01T14:27:14Z</time></trkpt><trkpt lat="44.24781290289916" lon="11.884101375498286"><ele>67.0</ele><time>2026-05-01T14:27:15Z</time></trkpt><trkpt lat="44.247721592861424" lon="11.884126174889776"><ele>67.0</ele><time>2026-05-01T14:27:16Z</time></trkpt><trkpt lat="44.24763713951667" lon="11.88415424745337"><ele>67.0</ele><time>2026-05-01T14:27:17Z</time></trkpt><trkpt lat="44.2475492180732" lon="11.884179099433124"><ele>67.0</ele><time>2026-05-01T14:27:19Z</time></trkpt><trkpt lat="44.24747472984702" lon="11.884192649825618"><ele>67.0</ele><time>2026-05-01T14:27:22.998Z</time></trkpt><trkpt lat="44.24744138352471" lon="11.884417925991023"><ele>67.0</ele><time>2026-05-01T14:27:25.999Z</time></trkpt><trkpt lat="44.24744078219009" lon="11.884523430021115"><ele>66.4</ele><time>2026-05-01T14:27:26.999Z</time></trkpt><trkpt lat="44.24743261918612" lon="11.88465033181643"><ele>65.80000000000001</ele><time>2026-05-01T14:27:27.999Z</time></trkpt><trkpt lat="44.24742279315936" lon="11.884782333643827"><ele>65.2</ele><time>2026-05-01T14:27:28.999Z</time></trkpt><trkpt lat="44.247410679442666" lon="11.884928278180872"><ele>64.60000000000001</ele><time>2026-05-01T14:27:29.999Z</time></trkpt><trkpt lat="44.247394544931545" lon="11.885076748089695"><ele>64.0</ele><time>2026-05-01T14:27:30.999Z</time></trkpt><trkpt lat="44.24737624414954" lon="11.885227303186108"><ele>64.0</ele><time>2026-05-01T14:27:31.999Z</time></trkpt><trkpt lat="44.24735686537034" lon="11.885380786887614"><ele>64.0</ele><time>2026-05-01T14:27:32.999Z</time></trkpt><trkpt lat="44.24733644743878" lon="11.885538446556282"><ele>64.0</ele><time>2026-05-01T14:27:33.999Z</time></trkpt><trkpt lat="44.247315741014496" lon="11.885698876941122"><ele>64.0</ele><time>2026-05-01T14:27:34.999Z</time></trkpt><trkpt lat="44.2472925353689" lon="11.885855799941371"><ele>63.6</ele><time>2026-05-01T14:27:35.999Z</time></trkpt><trkpt lat="44.24726520100951" lon="11.886001237515176"><ele>63.2</ele><time>2026-05-01T14:27:36.999Z</time></trkpt><trkpt lat="44.247227186913435" lon="11.886131331117257"><ele>62.800000000000004</ele><time>2026-05-01T14:27:37.999Z</time></trkpt><trkpt lat="44.247175105212285" lon="11.88624237777538"><ele>62.400000000000006</ele><time>2026-05-01T14:27:38.999Z</time></trkpt><trkpt lat="44.24711030938896" lon="11.88633288278115"><ele>62.0</ele><time>2026-05-01T14:27:39.999Z</time></trkpt><trkpt lat="44.24703492821962" lon="11.88642004800676"><ele>62.0</ele><time>2026-05-01T14:27:40.999Z</time></trkpt><trkpt lat="44.246955935634716" lon="11.886500048330397"><ele>62.0</ele><time>2026-05-01T14:27:41.999Z</time></trkpt><trkpt lat="44.246878301929584" lon="11.8865740722371"><ele>62.0</ele><time>2026-05-01T14:27:42.999Z</time></trkpt><trkpt lat="44.246798504106145" lon="11.886643277419257"><ele>62.0</ele><time>2026-05-01T14:27:43.999Z</time></trkpt><trkpt lat="44.24671765497022" lon="11.886702734814056"><ele>62.0</ele><time>2026-05-01T14:27:44.999Z</time></trkpt><trkpt lat="44.246638512441294" lon="11.886749335203866"><ele>60.8</ele><time>2026-05-01T14:27:45.999Z</time></trkpt><trkpt lat="44.2465561097082" lon="11.886801476099837"><ele>59.6</ele><time>2026-05-01T14:27:46.999Z</time></trkpt><trkpt lat="44.2464732986369" lon="11.886862213634204"><ele>58.39999999999999</ele><time>2026-05-01T14:27:47.999Z</time></trkpt><trkpt lat="44.24639151990343" lon="11.886929912554264"><ele>57.199999999999996</ele><time>2026-05-01T14:27:48.999Z</time></trkpt><trkpt lat="44.24631408769187" lon="11.887010337051061"><ele>56.0</ele><time>2026-05-01T14:27:49.999Z</time></trkpt><trkpt lat="44.24624070698254" lon="11.887104894691477"><ele>55.4</ele><time>2026-05-01T14:27:50.999Z</time></trkpt><trkpt lat="44.24617174427913" lon="11.887210768717061"><ele>54.8</ele><time>2026-05-01T14:27:51.999Z</time></trkpt><trkpt lat="44.24610635975391" lon="11.887323917041114"><ele>54.199999999999996</ele><time>2026-05-01T14:27:52.999Z</time></trkpt><trkpt lat="44.246048028286886" lon="11.88743988048518"><ele>53.599999999999994</ele><time>2026-05-01T14:27:53.999Z</time></trkpt><trkpt lat="44.24599418414562" lon="11.887556069309579"><ele>53.0</ele><time>2026-05-01T14:27:54.999Z</time></trkpt><trkpt lat="44.24594327278532" lon="11.887669353475314"><ele>52.2</ele><time>2026-05-01T14:27:55.999Z</time></trkpt><trkpt lat="44.245901552774136" lon="11.887776953167732"><ele>51.4</ele><time>2026-05-01T14:27:56.999Z</time></trkpt><trkpt lat="44.24586191445526" lon="11.88787410081897"><ele>50.6</ele><time>2026-05-01T14:27:58Z</time></trkpt><trkpt lat="44.24581766995347" lon="11.8879509641536"><ele>49.800000000000004</ele><time>2026-05-01T14:27:59Z</time></trkpt><trkpt lat="44.24572360405243" lon="11.88805650905425"><ele>49.0</ele><time>2026-05-01T14:28:01Z</time></trkpt><trkpt lat="44.24560467475144" lon="11.888094356262823"><ele>48.99999999999999</ele><time>2026-05-01T14:28:03Z</time></trkpt><trkpt lat="44.2455330134335" lon="11.888067975408424"><ele>49.0</ele><time>2026-05-01T14:28:04Z</time></trkpt><trkpt lat="44.2454612049375" lon="11.888047204864996"><ele>49.0</ele><time>2026-05-01T14:28:05Z</time></trkpt><trkpt lat="44.245382357330094" lon="11.88801632874074"><ele>49.0</ele><time>2026-05-01T14:28:06Z</time></trkpt><trkpt lat="44.24529937922345" lon="11.88797692548218"><ele>48.99999999999999</ele><time>2026-05-01T14:28:07Z</time></trkpt><trkpt lat="44.24521286112048" lon="11.887930925550581"><ele>49.0</ele><time>2026-05-01T14:28:08Z</time></trkpt><trkpt lat="44.24513167518596" lon="11.887857873223187"><ele>49.0</ele><time>2026-05-01T14:28:09Z</time></trkpt><trkpt lat="44.245044431055675" lon="11.887779717373139"><ele>49.0</ele><time>2026-05-01T14:28:10Z</time></trkpt><trkpt lat="44.2449619840688" lon="11.887703057336598"><ele>49.0</ele><time>2026-05-01T14:28:11Z</time></trkpt><trkpt lat="44.244876642700575" lon="11.887616082586495"><ele>49.0</ele><time>2026-05-01T14:28:12Z</time></trkpt><trkpt lat="44.24479170597618" lon="11.887523938128407"><ele>49.0</ele><time>2026-05-01T14:28:13Z</time></trkpt><trkpt lat="44.24471608689884" lon="11.887426881244703"><ele>49.2</ele><time>2026-05-01T14:28:14Z</time></trkpt><trkpt lat="44.24464465606231" lon="11.887320934639055"><ele>49.400000000000006</ele><time>2026-05-01T14:28:15Z</time></trkpt><trkpt lat="44.244577286166276" lon="11.887209174466905"><ele>49.6</ele><time>2026-05-01T14:28:16Z</time></trkpt><trkpt lat="44.24451294139412" lon="11.887096037539497"><ele>49.8</ele><time>2026-05-01T14:28:17Z</time></trkpt><trkpt lat="44.244447929088615" lon="11.886986469100616"><ele>50.0</ele><time>2026-05-01T14:28:18Z</time></trkpt><trkpt lat="44.244379035978604" lon="11.886877722719271"><ele>50.0</ele><time>2026-05-01T14:28:19Z</time></trkpt><trkpt lat="44.24430895115777" lon="11.886771419526033"><ele>50.0</ele><time>2026-05-01T14:28:20Z</time></trkpt><trkpt lat="44.24424334185161" lon="11.886675964088225"><ele>50.0</ele><time>2026-05-01T14:28:21Z</time></trkpt><trkpt lat="44.2441770658524" lon="11.886584283630032"><ele>50.0</ele><time>2026-05-01T14:28:22Z</time></trkpt><trkpt lat="44.24411082221852" lon="11.886494834876956"><ele>50.0</ele><time>2026-05-01T14:28:23Z</time></trkpt><trkpt lat="44.2440490256791" lon="11.88641309470947"><ele>50.2</ele><time>2026-05-01T14:28:24Z</time></trkpt><trkpt lat="44.24398442268541" lon="11.8863284207871"><ele>50.4</ele><time>2026-05-01T14:28:25Z</time></trkpt><trkpt lat="44.24391611709898" lon="11.886240606008457"><ele>50.599999999999994</ele><time>2026-05-01T14:28:26Z</time></trkpt><trkpt lat="44.24384469203145" lon="11.886148780735716"><ele>50.8</ele><time>2026-05-01T14:28:27Z</time></trkpt><trkpt lat="44.243772402488005" lon="11.886059084450041"><ele>51.0</ele><time>2026-05-01T14:28:28Z</time></trkpt><trkpt lat="44.243691043576085" lon="11.88598400112647"><ele>50.5</ele><time>2026-05-01T14:28:29Z</time></trkpt><trkpt lat="44.2436198931245" lon="11.885901968964177"><ele>50.0</ele><time>2026-05-01T14:28:30Z</time></trkpt><trkpt lat="44.243553516535464" lon="11.885832647468689"><ele>49.5</ele><time>2026-05-01T14:28:31Z</time></trkpt><trkpt lat="44.24348718066768" lon="11.885778351379813"><ele>49.0</ele><time>2026-05-01T14:28:32Z</time></trkpt><trkpt lat="44.24341893549005" lon="11.88574345219119"><ele>48.5</ele><time>2026-05-01T14:28:33Z</time></trkpt><trkpt lat="44.24334519010431" lon="11.885735935446474"><ele>48.0</ele><time>2026-05-01T14:28:34Z</time></trkpt><trkpt lat="44.243274844429116" lon="11.885785189252664"><ele>48.0</ele><time>2026-05-01T14:28:35Z</time></trkpt><trkpt lat="44.243195190553166" lon="11.885849258416144"><ele>48.0</ele><time>2026-05-01T14:28:36Z</time></trkpt><trkpt lat="44.2431296011817" lon="11.885927396117557"><ele>48.0</ele><time>2026-05-01T14:28:37Z</time></trkpt><trkpt lat="44.243060232266686" lon="11.886003359490358"><ele>48.0</ele><time>2026-05-01T14:28:38Z</time></trkpt><trkpt lat="44.24299001555573" lon="11.88608042625407"><ele>48.0</ele><time>2026-05-01T14:28:39Z</time></trkpt><trkpt lat="44.24292233502591" lon="11.88615914355821"><ele>48.0</ele><time>2026-05-01T14:28:40Z</time></trkpt><trkpt lat="44.24285069591152" lon="11.886237560258925"><ele>48.0</ele><time>2026-05-01T14:28:41Z</time></trkpt><trkpt lat="44.242779887151464" lon="11.886304079683716"><ele>48.0</ele><time>2026-05-01T14:28:42Z</time></trkpt><trkpt lat="44.24270730502563" lon="11.886366038390763"><ele>48.0</ele><time>2026-05-01T14:28:43Z</time></trkpt><trkpt lat="44.242635955630014" lon="11.886422861747693"><ele>48.0</ele><time>2026-05-01T14:28:44Z</time></trkpt><trkpt lat="44.242571642288446" lon="11.886470526831701"><ele>48.0</ele><time>2026-05-01T14:28:45Z</time></trkpt><trkpt lat="44.24251186852697" lon="11.886515288851086"><ele>48.0</ele><time>2026-05-01T14:28:46Z</time></trkpt><trkpt lat="44.24244783008023" lon="11.886559017378117"><ele>48.0</ele><time>2026-05-01T14:28:47Z</time></trkpt><trkpt lat="44.2423787780679" lon="11.886603661245989"><ele>48.0</ele><time>2026-05-01T14:28:48Z</time></trkpt><trkpt lat="44.24230828273567" lon="11.886644934129203"><ele>48.0</ele><time>2026-05-01T14:28:49Z</time></trkpt><trkpt lat="44.24224520306303" lon="11.886683187847852"><ele>48.0</ele><time>2026-05-01T14:28:50Z</time></trkpt><trkpt lat="44.24213537089746" lon="11.886738657295497"><ele>48.0</ele><time>2026-05-01T14:28:52Z</time></trkpt><trkpt lat="44.242041471494964" lon="11.886745186367202"><ele>48.0</ele><time>2026-05-01T14:28:54Z</time></trkpt><trkpt lat="44.241957761631" lon="11.886674798913619"><ele>48.0</ele><time>2026-05-01T14:28:56Z</time></trkpt><trkpt lat="44.24187608907883" lon="11.886602901045627"><ele>48.0</ele><time>2026-05-01T14:28:58Z</time></trkpt><trkpt lat="44.24179617437003" lon="11.886540558459005"><ele>48.0</ele><time>2026-05-01T14:29:00Z</time></trkpt><trkpt lat="44.241731900201735" lon="11.886489096701524"><ele>48.0</ele><time>2026-05-01T14:29:02Z</time></trkpt><trkpt lat="44.24164480969706" lon="11.886520577227627"><ele>48.0</ele><time>2026-05-01T14:29:04Z</time></trkpt><trkpt lat="44.24158454048506" lon="11.886604780698608"><ele>48.0</ele><time>2026-05-01T14:29:05Z</time></trkpt><trkpt lat="44.24153091069499" lon="11.886689230792536"><ele>47.833333333333336</ele><time>2026-05-01T14:29:06Z</time></trkpt><trkpt lat="44.24147437305807" lon="11.886787760834208"><ele>47.666666666666664</ele><time>2026-05-01T14:29:07Z</time></trkpt><trkpt lat="44.24143987113051" lon="11.886910037951"><ele>47.5</ele><time>2026-05-01T14:29:08Z</time></trkpt><trkpt lat="44.24141338049178" lon="11.887044513048043"><ele>47.33333333333333</ele><time>2026-05-01T14:29:09Z</time></trkpt><trkpt lat="44.24139482262899" lon="11.887162433178997"><ele>47.166666666666664</ele><time>2026-05-01T14:29:10Z</time></trkpt><trkpt lat="44.24137983168617" lon="11.887256884254363"><ele>47.0</ele><time>2026-05-01T14:29:11Z</time></trkpt><trkpt lat="44.24137094189949" lon="11.887345320361648"><ele>47.42857142857143</ele><time>2026-05-01T14:29:12Z</time></trkpt><trkpt lat="44.24136512736263" lon="11.887437677649928"><ele>47.857142857142854</ele><time>2026-05-01T14:29:13Z</time></trkpt><trkpt lat="44.24136598943694" lon="11.88753822472548"><ele>48.28571428571429</ele><time>2026-05-01T14:29:14Z</time></trkpt><trkpt lat="44.24136690642435" lon="11.887635094424041"><ele>48.714285714285715</ele><time>2026-05-01T14:29:15Z</time></trkpt><trkpt lat="44.24136034028069" lon="11.887730921143701"><ele>49.142857142857146</ele><time>2026-05-01T14:29:16Z</time></trkpt><trkpt lat="44.24132928768333" lon="11.88781163257033"><ele>49.57142857142858</ele><time>2026-05-01T14:29:17Z</time></trkpt><trkpt lat="44.241264591206146" lon="11.887845504345437"><ele>50.0</ele><time>2026-05-01T14:29:18Z</time></trkpt><trkpt lat="44.241192931872696" lon="11.887810473366876"><ele>50.00000000000001</ele><time>2026-05-01T14:29:19Z</time></trkpt><trkpt lat="44.24111662946698" lon="11.887803409902498"><ele>50.0</ele><time>2026-05-01T14:29:20Z</time></trkpt><trkpt lat="44.241036600169316" lon="11.887800839590872"><ele>50.0</ele><time>2026-05-01T14:29:21Z</time></trkpt><trkpt lat="44.24094567693641" lon="11.887818267783857"><ele>50.0</ele><time>2026-05-01T14:29:22Z</time></trkpt><trkpt lat="44.24086075714961" lon="11.887871632087547"><ele>50.00000000000001</ele><time>2026-05-01T14:29:23Z</time></trkpt><trkpt lat="44.24078261998707" lon="11.887942246628478"><ele>50.0</ele><time>2026-05-01T14:29:24Z</time></trkpt><trkpt lat="44.24071121309251" lon="11.888020279347542"><ele>50.00000000000001</ele><time>2026-05-01T14:29:25Z</time></trkpt><trkpt lat="44.24064810171195" lon="11.888098987004906"><ele>50.0</ele><time>2026-05-01T14:29:26Z</time></trkpt><trkpt lat="44.24058819200981" lon="11.888192220723322"><ele>50.0</ele><time>2026-05-01T14:29:26.998Z</time></trkpt><trkpt lat="44.24052814682553" lon="11.888270336298268"><ele>50.0</ele><time>2026-05-01T14:29:27.998Z</time></trkpt><trkpt lat="44.24046379530881" lon="11.888348218788957"><ele>50.00000000000001</ele><time>2026-05-01T14:29:28.998Z</time></trkpt><trkpt lat="44.240407296893714" lon="11.88842709631718"><ele>50.0</ele><time>2026-05-01T14:29:29.998Z</time></trkpt><trkpt lat="44.240339237442086" lon="11.888493632112688"><ele>50.16666666666667</ele><time>2026-05-01T14:29:30.998Z</time></trkpt><trkpt lat="44.240270182699724" lon="11.888552674121525"><ele>50.333333333333336</ele><time>2026-05-01T14:29:31.998Z</time></trkpt><trkpt lat="44.2401979631587" lon="11.888602063139773"><ele>50.5</ele><time>2026-05-01T14:29:32.998Z</time></trkpt><trkpt lat="44.240119930708126" lon="11.888649028325807"><ele>50.66666666666667</ele><time>2026-05-01T14:29:33.998Z</time></trkpt><trkpt lat="44.24003989236463" lon="11.888688569981651"><ele>50.833333333333336</ele><time>2026-05-01T14:29:34.998Z</time></trkpt><trkpt lat="44.23995386286198" lon="11.888723611265041"><ele>51.0</ele><time>2026-05-01T14:29:35.998Z</time></trkpt><trkpt lat="44.2398672922044" lon="11.888758605753768"><ele>52.599999999999994</ele><time>2026-05-01T14:29:36.998Z</time></trkpt><trkpt lat="44.23977756895458" lon="11.888787047940676"><ele>54.2</ele><time>2026-05-01T14:29:37.998Z</time></trkpt><trkpt lat="44.239685405492565" lon="11.888801521511661"><ele>55.800000000000004</ele><time>2026-05-01T14:29:38.998Z</time></trkpt><trkpt lat="44.2395940579139" lon="11.888800968409534"><ele>57.400000000000006</ele><time>2026-05-01T14:29:39.998Z</time></trkpt><trkpt lat="44.23950767309375" lon="11.888752130963445"><ele>59.0</ele><time>2026-05-01T14:29:40.998Z</time></trkpt><trkpt lat="44.23941518936812" lon="11.88871317943975"><ele>59.0</ele><time>2026-05-01T14:29:41.999Z</time></trkpt><trkpt lat="44.23932079966095" lon="11.888655860160993"><ele>59.00000000000001</ele><time>2026-05-01T14:29:42.999Z</time></trkpt><trkpt lat="44.23923032469919" lon="11.88859096106834"><ele>59.00000000000001</ele><time>2026-05-01T14:29:43.999Z</time></trkpt><trkpt lat="44.23914194756889" lon="11.888523131574596"><ele>59.0</ele><time>2026-05-01T14:29:44.999Z</time></trkpt><trkpt lat="44.23905493598406" lon="11.888450004774644"><ele>59.0</ele><time>2026-05-01T14:29:45.999Z</time></trkpt><trkpt lat="44.23897073253715" lon="11.888365550984636"><ele>58.6</ele><time>2026-05-01T14:29:46.999Z</time></trkpt><trkpt lat="44.238884683535765" lon="11.888275239700532"><ele>58.2</ele><time>2026-05-01T14:29:47.999Z</time></trkpt><trkpt lat="44.23880222117698" lon="11.888193537286089"><ele>57.800000000000004</ele><time>2026-05-01T14:29:48.999Z</time></trkpt><trkpt lat="44.23871724462027" lon="11.888137914272615"><ele>57.400000000000006</ele><time>2026-05-01T14:29:49.999Z</time></trkpt><trkpt lat="44.23862938397418" lon="11.888087160939712"><ele>57.0</ele><time>2026-05-01T14:29:50.999Z</time></trkpt><trkpt lat="44.23853597378532" lon="11.888030253869818"><ele>57.0</ele><time>2026-05-01T14:29:51.999Z</time></trkpt><trkpt lat="44.23843031401189" lon="11.88802994337158"><ele>57.0</ele><time>2026-05-01T14:29:52.999Z</time></trkpt><trkpt lat="44.238329322628374" lon="11.888048024521979"><ele>57.0</ele><time>2026-05-01T14:29:53.999Z</time></trkpt><trkpt lat="44.23822827577907" lon="11.888066394410291"><ele>57.0</ele><time>2026-05-01T14:29:54.999Z</time></trkpt><trkpt lat="44.238134497628394" lon="11.888079017848415"><ele>57.0</ele><time>2026-05-01T14:29:55.999Z</time></trkpt><trkpt lat="44.23804352010728" lon="11.88807536231512"><ele>57.400000000000006</ele><time>2026-05-01T14:29:56.999Z</time></trkpt><trkpt lat="44.237947698781845" lon="11.888057149482922"><ele>57.800000000000004</ele><time>2026-05-01T14:29:57.999Z</time></trkpt><trkpt lat="44.23785044976906" lon="11.888027576044074"><ele>58.2</ele><time>2026-05-01T14:29:58.999Z</time></trkpt><trkpt lat="44.23775271627132" lon="11.887987637430301"><ele>58.6</ele><time>2026-05-01T14:29:59.999Z</time></trkpt><trkpt lat="44.23765374589351" lon="11.887939761463064"><ele>59.0</ele><time>2026-05-01T14:30:00.999Z</time></trkpt><trkpt lat="44.23755691135155" lon="11.887881066182405"><ele>59.0</ele><time>2026-05-01T14:30:01.999Z</time></trkpt><trkpt lat="44.237462316614476" lon="11.887825376500706"><ele>59.00000000000001</ele><time>2026-05-01T14:30:02.999Z</time></trkpt><trkpt lat="44.23736544965829" lon="11.887769486217234"><ele>59.00000000000001</ele><time>2026-05-01T14:30:03.999Z</time></trkpt><trkpt lat="44.23726683953696" lon="11.88771218650325"><ele>59.0</ele><time>2026-05-01T14:30:04.999Z</time></trkpt><trkpt lat="44.23716636702672" lon="11.887653800809629"><ele>59.0</ele><time>2026-05-01T14:30:05.999Z</time></trkpt><trkpt lat="44.23706610336666" lon="11.887595536487618"><ele>59.0</ele><time>2026-05-01T14:30:06.999Z</time></trkpt><trkpt lat="44.236964428678554" lon="11.887539594292134"><ele>59.00000000000001</ele><time>2026-05-01T14:30:07.999Z</time></trkpt><trkpt lat="44.23685690121605" lon="11.88750803031532"><ele>59.00000000000001</ele><time>2026-05-01T14:30:08.999Z</time></trkpt><trkpt lat="44.236753438632526" lon="11.887454859891902"><ele>59.0</ele><time>2026-05-01T14:30:10Z</time></trkpt><trkpt lat="44.236649290772775" lon="11.887402147765918"><ele>59.0</ele><time>2026-05-01T14:30:11Z</time></trkpt><trkpt lat="44.23654167571113" lon="11.887354710516696"><ele>59.400000000000006</ele><time>2026-05-01T14:30:12Z</time></trkpt><trkpt lat="44.23643818315426" lon="11.88731197770165"><ele>59.800000000000004</ele><time>2026-05-01T14:30:13Z</time></trkpt><trkpt lat="44.23633408492755" lon="11.887271454480034"><ele>60.199999999999996</ele><time>2026-05-01T14:30:14Z</time></trkpt><trkpt lat="44.236229586469214" lon="11.887219819385736"><ele>60.599999999999994</ele><time>2026-05-01T14:30:15Z</time></trkpt><trkpt lat="44.23611578172945" lon="11.887202002710183"><ele>61.0</ele><time>2026-05-01T14:30:16Z</time></trkpt><trkpt lat="44.235998480958024" lon="11.887210731303625"><ele>61.0</ele><time>2026-05-01T14:30:17Z</time></trkpt><trkpt lat="44.235878736478696" lon="11.887256966840669"><ele>61.0</ele><time>2026-05-01T14:30:18Z</time></trkpt><trkpt lat="44.23576604389141" lon="11.887309102507535"><ele>61.0</ele><time>2026-05-01T14:30:19Z</time></trkpt><trkpt lat="44.23565663124318" lon="11.887363076955394"><ele>61.0</ele><time>2026-05-01T14:30:20Z</time></trkpt><trkpt lat="44.23555084898484" lon="11.887420056936083"><ele>61.0</ele><time>2026-05-01T14:30:21Z</time></trkpt><trkpt lat="44.23545499441045" lon="11.887480779084251"><ele>60.99999999999999</ele><time>2026-05-01T14:30:22Z</time></trkpt><trkpt lat="44.23536498033563" lon="11.88756609991548"><ele>60.99999999999999</ele><time>2026-05-01T14:30:23Z</time></trkpt><trkpt lat="44.235264611439455" lon="11.887633292780862"><ele>61.0</ele><time>2026-05-01T14:30:24Z</time></trkpt><trkpt lat="44.23516922696858" lon="11.887703857162796"><ele>61.0</ele><time>2026-05-01T14:30:25Z</time></trkpt><trkpt lat="44.23507152646222" lon="11.887777914225538"><ele>61.0</ele><time>2026-05-01T14:30:26Z</time></trkpt><trkpt lat="44.23497392965152" lon="11.887847456627584"><ele>60.99999999999999</ele><time>2026-05-01T14:30:27Z</time></trkpt><trkpt lat="44.234879307112514" lon="11.887928175986897"><ele>60.99999999999999</ele><time>2026-05-01T14:30:28Z</time></trkpt><trkpt lat="44.23477799640069" lon="11.888000168797605"><ele>61.0</ele><time>2026-05-01T14:30:29Z</time></trkpt><trkpt lat="44.234686737213515" lon="11.888095668686866"><ele>61.0</ele><time>2026-05-01T14:30:30Z</time></trkpt><trkpt lat="44.23460637039532" lon="11.888208358940721"><ele>60.599999999999994</ele><time>2026-05-01T14:30:31Z</time></trkpt><trkpt lat="44.23451580414188" lon="11.888287353743644"><ele>60.199999999999996</ele><time>2026-05-01T14:30:32Z</time></trkpt><trkpt lat="44.23442980100616" lon="11.888346087418975"><ele>59.800000000000004</ele><time>2026-05-01T14:30:33Z</time></trkpt><trkpt lat="44.23434044911194" lon="11.888372078692575"><ele>59.400000000000006</ele><time>2026-05-01T14:30:34Z</time></trkpt><trkpt lat="44.234256981542096" lon="11.888359416613085"><ele>59.0</ele><time>2026-05-01T14:30:35Z</time></trkpt><trkpt lat="44.23418073218227" lon="11.88832254676093"><ele>59.00000000000001</ele><time>2026-05-01T14:30:36Z</time></trkpt><trkpt lat="44.234100884187384" lon="11.888279957378916"><ele>59.0</ele><time>2026-05-01T14:30:37Z</time></trkpt><trkpt lat="44.23402788704549" lon="11.888222121314094"><ele>59.0</ele><time>2026-05-01T14:30:38Z</time></trkpt><trkpt lat="44.23394097138231" lon="11.88820381632589"><ele>59.0</ele><time>2026-05-01T14:30:39Z</time></trkpt><trkpt lat="44.23385597088013" lon="11.888222555422063"><ele>59.00000000000001</ele><time>2026-05-01T14:30:40Z</time></trkpt><trkpt lat="44.23378114666911" lon="11.888290269124909"><ele>59.0</ele><time>2026-05-01T14:30:41Z</time></trkpt><trkpt lat="44.233746284154215" lon="11.888413204506078"><ele>59.333333333333336</ele><time>2026-05-01T14:30:42Z</time></trkpt><trkpt lat="44.23371563672796" lon="11.888516065955306"><ele>59.66666666666667</ele><time>2026-05-01T14:30:43Z</time></trkpt><trkpt lat="44.233696836933476" lon="11.888620382201749"><ele>60.0</ele><time>2026-05-01T14:30:44Z</time></trkpt><trkpt lat="44.23368124530563" lon="11.888721303696636"><ele>60.33333333333333</ele><time>2026-05-01T14:30:45Z</time></trkpt><trkpt lat="44.23366581438933" lon="11.88881414634703"><ele>60.666666666666664</ele><time>2026-05-01T14:30:46Z</time></trkpt><trkpt lat="44.233651658560554" lon="11.888902553911462"><ele>61.0</ele><time>2026-05-01T14:30:47Z</time></trkpt><trkpt lat="44.23362466901659" lon="11.88906781210258"><ele>60.99999999999999</ele><time>2026-05-01T14:30:49Z</time></trkpt><trkpt lat="44.2336129059182" lon="11.88915936059173"><ele>61.0</ele><time>2026-05-01T14:30:50Z</time></trkpt><trkpt lat="44.23358262287216" lon="11.889255546411047"><ele>61.0</ele><time>2026-05-01T14:30:51Z</time></trkpt><trkpt lat="44.23356742308873" lon="11.889344572374311"><ele>61.0</ele><time>2026-05-01T14:30:52Z</time></trkpt><trkpt lat="44.23354275444359" lon="11.889487475526229"><ele>60.99999999999999</ele><time>2026-05-01T14:30:54Z</time></trkpt><trkpt lat="44.23352247289157" lon="11.889603229710287"><ele>61.0</ele><time>2026-05-01T14:30:56Z</time></trkpt><trkpt lat="44.23351992512016" lon="11.889715294098709"><ele>61.166666666666664</ele><time>2026-05-01T14:30:58Z</time></trkpt><trkpt lat="44.2334883936475" lon="11.889795125569341"><ele>61.33333333333333</ele><time>2026-05-01T14:31:00Z</time></trkpt><trkpt lat="44.23346844822133" lon="11.889901274126865"><ele>61.5</ele><time>2026-05-01T14:31:03Z</time></trkpt><trkpt lat="44.233449642914344" lon="11.890001355071444"><ele>61.66666666666667</ele><time>2026-05-01T14:31:07Z</time></trkpt><trkpt lat="44.2334433603285" lon="11.890114815830776"><ele>61.833333333333336</ele><time>2026-05-01T14:31:41.999Z</time></trkpt><trkpt lat="44.233409333760996" lon="11.890245831509725"><ele>62.0</ele><time>2026-05-01T14:31:43.999Z</time></trkpt><trkpt lat="44.23336373620038" lon="11.890434407438955"><ele>62.0</ele><time>2026-05-01T14:31:45.999Z</time></trkpt><trkpt lat="44.233339131892606" lon="11.89055286532788"><ele>62.0</ele><time>2026-05-01T14:31:46.999Z</time></trkpt><trkpt lat="44.23331287966997" lon="11.890684914024053"><ele>62.0</ele><time>2026-05-01T14:31:47.999Z</time></trkpt><trkpt lat="44.23328693467265" lon="11.89082288257139"><ele>62.0</ele><time>2026-05-01T14:31:48.999Z</time></trkpt><trkpt lat="44.23326002591749" lon="11.89096678457357"><ele>62.0</ele><time>2026-05-01T14:31:49.999Z</time></trkpt><trkpt lat="44.233233273545004" lon="11.891115082968472"><ele>62.0</ele><time>2026-05-01T14:31:50.999Z</time></trkpt><trkpt lat="44.23320617041121" lon="11.89126489594828"><ele>62.0</ele><time>2026-05-01T14:31:51.999Z</time></trkpt><trkpt lat="44.23317939038668" lon="11.891416334397068"><ele>62.0</ele><time>2026-05-01T14:31:52.999Z</time></trkpt><trkpt lat="44.2331531374724" lon="11.891565539334444"><ele>62.0</ele><time>2026-05-01T14:31:53.999Z</time></trkpt><trkpt lat="44.23312667912752" lon="11.891716071400465"><ele>62.0</ele><time>2026-05-01T14:31:54.999Z</time></trkpt><trkpt lat="44.233101582069615" lon="11.891856901756167"><ele>62.00000000000001</ele><time>2026-05-01T14:31:55.999Z</time></trkpt><trkpt lat="44.2330771379205" lon="11.89199027482204"><ele>62.0</ele><time>2026-05-01T14:31:56.999Z</time></trkpt><trkpt lat="44.23305407813072" lon="11.892120118420184"><ele>62.0</ele><time>2026-05-01T14:31:57.999Z</time></trkpt><trkpt lat="44.23303734424052" lon="11.892240729489172"><ele>62.0</ele><time>2026-05-01T14:31:58.999Z</time></trkpt><trkpt lat="44.23302175103394" lon="11.892355032137145"><ele>62.00000000000001</ele><time>2026-05-01T14:31:59.999Z</time></trkpt><trkpt lat="44.233041561125546" lon="11.892468351896758"><ele>62.0</ele><time>2026-05-01T14:32:01Z</time></trkpt><trkpt lat="44.233117082988365" lon="11.892534254316635"><ele>62.16666666666667</ele><time>2026-05-01T14:32:02Z</time></trkpt><trkpt lat="44.233190055915145" lon="11.892569309177338"><ele>62.333333333333336</ele><time>2026-05-01T14:32:03Z</time></trkpt><trkpt lat="44.23327318467205" lon="11.892584052682"><ele>62.5</ele><time>2026-05-01T14:32:04Z</time></trkpt><trkpt lat="44.23335525922375" lon="11.892604390926754"><ele>62.66666666666667</ele><time>2026-05-01T14:32:05Z</time></trkpt><trkpt lat="44.23344591020617" lon="11.89262929091878"><ele>62.833333333333336</ele><time>2026-05-01T14:32:06Z</time></trkpt><trkpt lat="44.23353558990672" lon="11.892660227027077"><ele>63.0</ele><time>2026-05-01T14:32:07Z</time></trkpt><trkpt lat="44.23362860209518" lon="11.892690948153522"><ele>62.2</ele><time>2026-05-01T14:32:08Z</time></trkpt><trkpt lat="44.23371680874927" lon="11.892717109410082"><ele>61.4</ele><time>2026-05-01T14:32:09Z</time></trkpt><trkpt lat="44.23380610713359" lon="11.89276833860232"><ele>60.60000000000001</ele><time>2026-05-01T14:32:10Z</time></trkpt><trkpt lat="44.233898444657505" lon="11.892774303974436"><ele>59.800000000000004</ele><time>2026-05-01T14:32:11Z</time></trkpt><trkpt lat="44.2339853889873" lon="11.892807117817929"><ele>59.0</ele><time>2026-05-01T14:32:12Z</time></trkpt><trkpt lat="44.234070514285214" lon="11.89283687007091"><ele>59.00000000000001</ele><time>2026-05-01T14:32:13Z</time></trkpt><trkpt lat="44.23415410698068" lon="11.89286406386475"><ele>59.0</ele><time>2026-05-01T14:32:14Z</time></trkpt><trkpt lat="44.2342362121465" lon="11.892889577125516"><ele>59.0</ele><time>2026-05-01T14:32:15Z</time></trkpt><trkpt lat="44.234317572337865" lon="11.892910929361358"><ele>59.0</ele><time>2026-05-01T14:32:16Z</time></trkpt><trkpt lat="44.2343991060391" lon="11.89293306154177"><ele>59.00000000000001</ele><time>2026-05-01T14:32:17Z</time></trkpt><trkpt lat="44.23447714187254" lon="11.892959672682945"><ele>59.0</ele><time>2026-05-01T14:32:18Z</time></trkpt><trkpt lat="44.23454366872968" lon="11.892993318780603"><ele>59.00000000000001</ele><time>2026-05-01T14:32:19Z</time></trkpt><trkpt lat="44.23460064237575" lon="11.893048688607065"><ele>59.0</ele><time>2026-05-01T14:32:20Z</time></trkpt><trkpt lat="44.23464022533801" lon="11.893133410224818"><ele>59.0</ele><time>2026-05-01T14:32:21Z</time></trkpt><trkpt lat="44.23465040137672" lon="11.893235287965728"><ele>59.0</ele><time>2026-05-01T14:32:22Z</time></trkpt><trkpt lat="44.23462905028875" lon="11.893339450152066"><ele>59.00000000000001</ele><time>2026-05-01T14:32:23Z</time></trkpt><trkpt lat="44.23462942584718" lon="11.89345141386814"><ele>59.0</ele><time>2026-05-01T14:32:24Z</time></trkpt><trkpt lat="44.23460653674305" lon="11.8935570714351"><ele>58.333333333333336</ele><time>2026-05-01T14:32:25Z</time></trkpt><trkpt lat="44.23457452002486" lon="11.89366148756024"><ele>57.66666666666667</ele><time>2026-05-01T14:32:26Z</time></trkpt><trkpt lat="44.234517971860654" lon="11.893750699324086"><ele>57.0</ele><time>2026-05-01T14:32:27Z</time></trkpt><trkpt lat="44.234462473398345" lon="11.893838710702221"><ele>56.33333333333333</ele><time>2026-05-01T14:32:28Z</time></trkpt><trkpt lat="44.23440119230732" lon="11.893932614332666"><ele>55.666666666666664</ele><time>2026-05-01T14:32:29Z</time></trkpt><trkpt lat="44.23433674083325" lon="11.894029944991845"><ele>55.0</ele><time>2026-05-01T14:32:30Z</time></trkpt><trkpt lat="44.2342828498344" lon="11.89414153358162"><ele>55.0</ele><time>2026-05-01T14:32:31Z</time></trkpt><trkpt lat="44.23421024209286" lon="11.894238833545542"><ele>55.0</ele><time>2026-05-01T14:32:32Z</time></trkpt><trkpt lat="44.23413821120004" lon="11.894334146127557"><ele>55.0</ele><time>2026-05-01T14:32:33Z</time></trkpt><trkpt lat="44.23407018923593" lon="11.894430104064917"><ele>55.0</ele><time>2026-05-01T14:32:34Z</time></trkpt><trkpt lat="44.234003611012234" lon="11.894526297927152"><ele>55.0</ele><time>2026-05-01T14:32:35Z</time></trkpt><trkpt lat="44.23393496836256" lon="11.894620246504518"><ele>55.166666666666664</ele><time>2026-05-01T14:32:36Z</time></trkpt><trkpt lat="44.23387352642013" lon="11.894707293218135"><ele>55.33333333333333</ele><time>2026-05-01T14:32:37Z</time></trkpt><trkpt lat="44.2338200592474" lon="11.894783543784795"><ele>55.5</ele><time>2026-05-01T14:32:38Z</time></trkpt><trkpt lat="44.233775808859754" lon="11.894852710864802"><ele>55.66666666666667</ele><time>2026-05-01T14:32:39Z</time></trkpt><trkpt lat="44.23370668111791" lon="11.8949451014947"><ele>55.833333333333336</ele><time>2026-05-01T14:32:41Z</time></trkpt><trkpt lat="44.23364709414376" lon="11.895023314498664"><ele>56.0</ele><time>2026-05-01T14:32:47.001Z</time></trkpt><trkpt lat="44.23357224805936" lon="11.894934588460835"><ele>56.00000000000001</ele><time>2026-05-01T14:32:49.001Z</time></trkpt><trkpt lat="44.23348242114363" lon="11.894829091586887"><ele>56.0</ele><time>2026-05-01T14:32:51.001Z</time></trkpt><trkpt lat="44.23340901102818" lon="11.894833936999085"><ele>56.0</ele><time>2026-05-01T14:32:52.001Z</time></trkpt><trkpt lat="44.233327378318826" lon="11.894869009081058"><ele>56.0</ele><time>2026-05-01T14:32:53.001Z</time></trkpt><trkpt lat="44.233268984166784" lon="11.894940370849362"><ele>56.00000000000001</ele><time>2026-05-01T14:32:54.001Z</time></trkpt><trkpt lat="44.233212638316445" lon="11.895016702361994"><ele>56.0</ele><time>2026-05-01T14:32:55.001Z</time></trkpt><trkpt lat="44.23316321244932" lon="11.895105148205923"><ele>57.0</ele><time>2026-05-01T14:32:56.001Z</time></trkpt><trkpt lat="44.23309199363315" lon="11.89516875651863"><ele>57.99999999999999</ele><time>2026-05-01T14:32:57.001Z</time></trkpt><trkpt lat="44.23301081367626" lon="11.895218243841441"><ele>58.99999999999999</ele><time>2026-05-01T14:32:58.001Z</time></trkpt><trkpt lat="44.232919912323844" lon="11.895241893967762"><ele>60.0</ele><time>2026-05-01T14:32:59.001Z</time></trkpt><trkpt lat="44.232825731387464" lon="11.895212175154144"><ele>61.0</ele><time>2026-05-01T14:33:00.001Z</time></trkpt><trkpt lat="44.23272794019075" lon="11.895184161801849"><ele>61.0</ele><time>2026-05-01T14:33:01.001Z</time></trkpt><trkpt lat="44.23262133923937" lon="11.895168193940663"><ele>60.99999999999999</ele><time>2026-05-01T14:33:02.001Z</time></trkpt><trkpt lat="44.23251226708442" lon="11.895131846456518"><ele>60.99999999999999</ele><time>2026-05-01T14:33:03.001Z</time></trkpt><trkpt lat="44.2323969324528" lon="11.895104988673449"><ele>61.0</ele><time>2026-05-01T14:33:04.001Z</time></trkpt><trkpt lat="44.23228750984882" lon="11.895084592170033"><ele>61.0</ele><time>2026-05-01T14:33:05.001Z</time></trkpt><trkpt lat="44.23217533938033" lon="11.895063598053957"><ele>61.75</ele><time>2026-05-01T14:33:06.001Z</time></trkpt><trkpt lat="44.232061468862184" lon="11.895020277160665"><ele>62.5</ele><time>2026-05-01T14:33:07.001Z</time></trkpt><trkpt lat="44.23194192306025" lon="11.895018763024007"><ele>63.25</ele><time>2026-05-01T14:33:08.001Z</time></trkpt><trkpt lat="44.23182027103291" lon="11.894999532658629"><ele>64.0</ele><time>2026-05-01T14:33:09.001Z</time></trkpt><trkpt lat="44.231696721245065" lon="11.894981730166435"><ele>64.0</ele><time>2026-05-01T14:33:10.001Z</time></trkpt><trkpt lat="44.2315769899576" lon="11.894941668853201"><ele>64.0</ele><time>2026-05-01T14:33:11.001Z</time></trkpt><trkpt lat="44.23146080720455" lon="11.894922986239733"><ele>64.0</ele><time>2026-05-01T14:33:12.001Z</time></trkpt><trkpt lat="44.23133964347858" lon="11.894919396827682"><ele>64.0</ele><time>2026-05-01T14:33:13.001Z</time></trkpt><trkpt lat="44.23121560278255" lon="11.894899802608808"><ele>64.25</ele><time>2026-05-01T14:33:14.001Z</time></trkpt><trkpt lat="44.23109054206675" lon="11.894882161214216"><ele>64.5</ele><time>2026-05-01T14:33:15.001Z</time></trkpt><trkpt lat="44.23096455684311" lon="11.894862404602124"><ele>64.75</ele><time>2026-05-01T14:33:16.001Z</time></trkpt><trkpt lat="44.23084042704682" lon="11.894843048317462"><ele>65.0</ele><time>2026-05-01T14:33:17.001Z</time></trkpt><trkpt lat="44.23071627756598" lon="11.894822471837392"><ele>65.25</ele><time>2026-05-01T14:33:18.001Z</time></trkpt><trkpt lat="44.23058850202296" lon="11.894803296899257"><ele>65.5</ele><time>2026-05-01T14:33:19.001Z</time></trkpt><trkpt lat="44.23046140261353" lon="11.89476535710561"><ele>65.75</ele><time>2026-05-01T14:33:20.001Z</time></trkpt><trkpt lat="44.23033085191714" lon="11.89476414959394"><ele>66.0</ele><time>2026-05-01T14:33:21.001Z</time></trkpt><trkpt lat="44.23020592244735" lon="11.89474526952455"><ele>66.0</ele><time>2026-05-01T14:33:22.001Z</time></trkpt><trkpt lat="44.23007845596697" lon="11.894726719344746"><ele>66.0</ele><time>2026-05-01T14:33:23.001Z</time></trkpt><trkpt lat="44.22995280968573" lon="11.894700211717534"><ele>66.0</ele><time>2026-05-01T14:33:24.001Z</time></trkpt><trkpt lat="44.229825609779375" lon="11.894675764054995"><ele>66.0</ele><time>2026-05-01T14:33:25.001Z</time></trkpt><trkpt lat="44.22969598032405" lon="11.894654474099628"><ele>66.0</ele><time>2026-05-01T14:33:26.001Z</time></trkpt><trkpt lat="44.22956768023985" lon="11.894628815581049"><ele>66.0</ele><time>2026-05-01T14:33:27.001Z</time></trkpt><trkpt lat="44.22944084413717" lon="11.894610122697099"><ele>66.0</ele><time>2026-05-01T14:33:28.001Z</time></trkpt><trkpt lat="44.22931571185975" lon="11.894587321202808"><ele>66.0</ele><time>2026-05-01T14:33:29.001Z</time></trkpt><trkpt lat="44.22919248418188" lon="11.894562932007167"><ele>66.0</ele><time>2026-05-01T14:33:30.001Z</time></trkpt><trkpt lat="44.22907173682981" lon="11.894519159902206"><ele>66.0</ele><time>2026-05-01T14:33:31.001Z</time></trkpt><trkpt lat="44.22895067886852" lon="11.894496701697914"><ele>66.0</ele><time>2026-05-01T14:33:32.001Z</time></trkpt><trkpt lat="44.22882859915924" lon="11.89447424765934"><ele>66.0</ele><time>2026-05-01T14:33:33.001Z</time></trkpt><trkpt lat="44.22870619141969" lon="11.894453871130889"><ele>66.25</ele><time>2026-05-01T14:33:34.001Z</time></trkpt><trkpt lat="44.228582869859174" lon="11.89443306449687"><ele>66.5</ele><time>2026-05-01T14:33:35.001Z</time></trkpt><trkpt lat="44.22845951684393" lon="11.894412916049019"><ele>66.75</ele><time>2026-05-01T14:33:36.001Z</time></trkpt><trkpt lat="44.22833857270009" lon="11.894386898070872"><ele>67.0</ele><time>2026-05-01T14:33:37.001Z</time></trkpt><trkpt lat="44.22821731889724" lon="11.894360597690094"><ele>67.0</ele><time>2026-05-01T14:33:38.001Z</time></trkpt><trkpt lat="44.2280939842526" lon="11.894339290008164"><ele>67.0</ele><time>2026-05-01T14:33:38.999Z</time></trkpt><trkpt lat="44.22797042900268" lon="11.894321292579402"><ele>67.0</ele><time>2026-05-01T14:33:39.999Z</time></trkpt><trkpt lat="44.227844907804105" lon="11.894302896454215"><ele>67.0</ele><time>2026-05-01T14:33:40.999Z</time></trkpt><trkpt lat="44.22771815985769" lon="11.894281664333226"><ele>67.0</ele><time>2026-05-01T14:33:41.999Z</time></trkpt><trkpt lat="44.22759211921131" lon="11.894259980779665"><ele>67.0</ele><time>2026-05-01T14:33:42.999Z</time></trkpt><trkpt lat="44.22746652102637" lon="11.89423734719555"><ele>67.0</ele><time>2026-05-01T14:33:43.999Z</time></trkpt><trkpt lat="44.22734206074626" lon="11.894215359024294"><ele>67.0</ele><time>2026-05-01T14:33:44.999Z</time></trkpt><trkpt lat="44.22721771511567" lon="11.894193335611405"><ele>66.75</ele><time>2026-05-01T14:33:45.999Z</time></trkpt><trkpt lat="44.22709213345057" lon="11.894172452864309"><ele>66.5</ele><time>2026-05-01T14:33:46.999Z</time></trkpt><trkpt lat="44.22696820139624" lon="11.894150101658608"><ele>66.25</ele><time>2026-05-01T14:33:47.999Z</time></trkpt><trkpt lat="44.22684812326839" lon="11.894134489096185"><ele>66.0</ele><time>2026-05-01T14:33:48.999Z</time></trkpt><trkpt lat="44.22672695445058" lon="11.89411221939318"><ele>66.0</ele><time>2026-05-01T14:33:49.999Z</time></trkpt><trkpt lat="44.22660741684936" lon="11.894092599651753"><ele>66.0</ele><time>2026-05-01T14:33:50.999Z</time></trkpt><trkpt lat="44.226488408749525" lon="11.894071240844681"><ele>66.0</ele><time>2026-05-01T14:33:51.999Z</time></trkpt><trkpt lat="44.226368663478446" lon="11.894047785889985"><ele>66.0</ele><time>2026-05-01T14:33:52.999Z</time></trkpt><trkpt lat="44.226247433740404" lon="11.894029866301956"><ele>66.25</ele><time>2026-05-01T14:33:53.999Z</time></trkpt><trkpt lat="44.2261251100433" lon="11.894016207069654"><ele>66.5</ele><time>2026-05-01T14:33:54.999Z</time></trkpt><trkpt lat="44.226002103381134" lon="11.893999850512612"><ele>66.75</ele><time>2026-05-01T14:33:55.999Z</time></trkpt><trkpt lat="44.22588017797686" lon="11.893983312122046"><ele>67.0</ele><time>2026-05-01T14:33:56.999Z</time></trkpt><trkpt lat="44.225763687396174" lon="11.893966040603507"><ele>67.0</ele><time>2026-05-01T14:33:57.999Z</time></trkpt><trkpt lat="44.225648687802476" lon="11.893948045102151"><ele>67.0</ele><time>2026-05-01T14:33:58.999Z</time></trkpt><trkpt lat="44.22553873366749" lon="11.893932863136941"><ele>67.0</ele><time>2026-05-01T14:34:00Z</time></trkpt><trkpt lat="44.22543852045914" lon="11.893918428683634"><ele>67.0</ele><time>2026-05-01T14:34:01Z</time></trkpt><trkpt lat="44.22534596328189" lon="11.893904266144634"><ele>67.0</ele><time>2026-05-01T14:34:02Z</time></trkpt><trkpt lat="44.2252693151212" lon="11.893890712017518"><ele>67.33333333333333</ele><time>2026-05-01T14:34:03Z</time></trkpt><trkpt lat="44.22520652900512" lon="11.89388012058838"><ele>67.66666666666666</ele><time>2026-05-01T14:34:04Z</time></trkpt><trkpt lat="44.22511904793609" lon="11.89383199320008"><ele>68.0</ele><time>2026-05-01T14:34:06Z</time></trkpt><trkpt lat="44.22505961120407" lon="11.893694550485893"><ele>68.33333333333333</ele><time>2026-05-01T14:34:08Z</time></trkpt><trkpt lat="44.22502174127437" lon="11.893611593212361"><ele>68.66666666666667</ele><time>2026-05-01T14:34:09Z</time></trkpt><trkpt lat="44.2249795825123" lon="11.893527905555404"><ele>69.0</ele><time>2026-05-01T14:34:10Z</time></trkpt><trkpt lat="44.22493778491856" lon="11.893445696416405"><ele>69.16666666666667</ele><time>2026-05-01T14:34:11Z</time></trkpt><trkpt lat="44.224896888034856" lon="11.89335374083399"><ele>69.33333333333333</ele><time>2026-05-01T14:34:12Z</time></trkpt><trkpt lat="44.224853969412024" lon="11.893257672766671"><ele>69.5</ele><time>2026-05-01T14:34:13Z</time></trkpt><trkpt lat="44.22480354349836" lon="11.893161023664582"><ele>69.66666666666666</ele><time>2026-05-01T14:34:14Z</time></trkpt><trkpt lat="44.22475172417212" lon="11.893060151837428"><ele>69.83333333333333</ele><time>2026-05-01T14:34:15Z</time></trkpt><trkpt lat="44.224702248480696" lon="11.892958004658803"><ele>70.0</ele><time>2026-05-01T14:34:16Z</time></trkpt><trkpt lat="44.2246506709226" lon="11.8928522995125"><ele>71.0</ele><time>2026-05-01T14:34:17Z</time></trkpt><trkpt lat="44.22459825891615" lon="11.892749729968912"><ele>72.0</ele><time>2026-05-01T14:34:18Z</time></trkpt><trkpt lat="44.224546831771576" lon="11.892646464028164"><ele>73.0</ele><time>2026-05-01T14:34:19Z</time></trkpt><trkpt lat="44.22449731448536" lon="11.892541874973839"><ele>74.0</ele><time>2026-05-01T14:34:20Z</time></trkpt><trkpt lat="44.22444717106631" lon="11.892435564150006"><ele>75.0</ele><time>2026-05-01T14:34:21Z</time></trkpt><trkpt lat="44.224397176232365" lon="11.89233399676149"><ele>75.57142857142857</ele><time>2026-05-01T14:34:22Z</time></trkpt><trkpt lat="44.22434835591148" lon="11.892236319047402"><ele>76.14285714285714</ele><time>2026-05-01T14:34:23Z</time></trkpt><trkpt lat="44.22430505666937" lon="11.892142013427343"><ele>76.71428571428572</ele><time>2026-05-01T14:34:24Z</time></trkpt><trkpt lat="44.224266433677776" lon="11.892054778541203"><ele>77.28571428571428</ele><time>2026-05-01T14:34:25Z</time></trkpt><trkpt lat="44.224230038030704" lon="11.89197629197354"><ele>77.85714285714286</ele><time>2026-05-01T14:34:26Z</time></trkpt><trkpt lat="44.224195098042856" lon="11.891900419286076"><ele>78.42857142857143</ele><time>2026-05-01T14:34:27Z</time></trkpt><trkpt lat="44.224160865209626" lon="11.891826570794056"><ele>79.0</ele><time>2026-05-01T14:34:28Z</time></trkpt><trkpt lat="44.22407917061163" lon="11.891704525361073"><ele>83.25</ele><time>2026-05-01T14:34:30Z</time></trkpt><trkpt lat="44.22396980651291" lon="11.891657103443444"><ele>87.5</ele><time>2026-05-01T14:34:32Z</time></trkpt><trkpt lat="44.22385710321977" lon="11.891640882508922"><ele>91.75</ele><time>2026-05-01T14:34:34Z</time></trkpt><trkpt lat="44.22375016648726" lon="11.891624958947999"><ele>96.0</ele><time>2026-05-01T14:34:36Z</time></trkpt><trkpt lat="44.22364341280855" lon="11.891567159848126"><ele>96.0</ele><time>2026-05-01T14:34:38.001Z</time></trkpt><trkpt lat="44.22353632776101" lon="11.891487656837105"><ele>96.0</ele><time>2026-05-01T14:34:40.001Z</time></trkpt><trkpt lat="44.22347903809289" lon="11.891445090237925"><ele>96.0</ele><time>2026-05-01T14:34:41.001Z</time></trkpt><trkpt lat="44.22341942137975" lon="11.89140052597289"><ele>96.0</ele><time>2026-05-01T14:34:42.001Z</time></trkpt><trkpt lat="44.223361383371575" lon="11.891348364849524"><ele>96.0</ele><time>2026-05-01T14:34:43.001Z</time></trkpt><trkpt lat="44.22329942757349" lon="11.89129386107475"><ele>96.0</ele><time>2026-05-01T14:34:44.001Z</time></trkpt><trkpt lat="44.223234309692444" lon="11.891245207850172"><ele>95.99999999999999</ele><time>2026-05-01T14:34:45.001Z</time></trkpt><trkpt lat="44.2231701720186" lon="11.891202419615992"><ele>96.0</ele><time>2026-05-01T14:34:46.001Z</time></trkpt><trkpt lat="44.22310594307897" lon="11.89116047743685"><ele>96.0</ele><time>2026-05-01T14:34:47.001Z</time></trkpt><trkpt lat="44.22304147495162" lon="11.891121678094994"><ele>96.0</ele><time>2026-05-01T14:34:48.001Z</time></trkpt><trkpt lat="44.22297645477522" lon="11.891082969195066"><ele>96.0</ele><time>2026-05-01T14:34:49.001Z</time></trkpt><trkpt lat="44.22290841195675" lon="11.891046380906362"><ele>95.99999999999999</ele><time>2026-05-01T14:34:50.001Z</time></trkpt><trkpt lat="44.22284006519267" lon="11.891011744138968"><ele>96.0</ele><time>2026-05-01T14:34:51.001Z</time></trkpt><trkpt lat="44.22276838261042" lon="11.890986650378915"><ele>97.66666666666667</ele><time>2026-05-01T14:34:52.001Z</time></trkpt><trkpt lat="44.22269852664798" lon="11.890971021132675"><ele>99.33333333333334</ele><time>2026-05-01T14:34:53.001Z</time></trkpt><trkpt lat="44.22262777697164" lon="11.890966277951309"><ele>101.0</ele><time>2026-05-01T14:34:54.001Z</time></trkpt><trkpt lat="44.22256108893244" lon="11.890977079686335"><ele>102.66666666666667</ele><time>2026-05-01T14:34:55.001Z</time></trkpt><trkpt lat="44.22249752869081" lon="11.890990362891685"><ele>104.33333333333334</ele><time>2026-05-01T14:34:56.001Z</time></trkpt><trkpt lat="44.222373091925625" lon="11.890969258914952"><ele>106.0</ele><time>2026-05-01T14:34:58.001Z</time></trkpt><trkpt lat="44.22232098488685" lon="11.890904624518"><ele>108.42857142857143</ele><time>2026-05-01T14:34:59.001Z</time></trkpt><trkpt lat="44.22228014188693" lon="11.89082241131908"><ele>110.85714285714286</ele><time>2026-05-01T14:35:00.001Z</time></trkpt><trkpt lat="44.222240954287166" lon="11.890738234654163"><ele>113.28571428571429</ele><time>2026-05-01T14:35:01.001Z</time></trkpt><trkpt lat="44.22218451599345" lon="11.890664692703456"><ele>115.71428571428572</ele><time>2026-05-01T14:35:02.001Z</time></trkpt><trkpt lat="44.22212669028617" lon="11.890596525410421"><ele>118.14285714285714</ele><time>2026-05-01T14:35:03.001Z</time></trkpt><trkpt lat="44.22206460905155" lon="11.890535213272983"><ele>120.57142857142858</ele><time>2026-05-01T14:35:04.001Z</time></trkpt><trkpt lat="44.22200580242256" lon="11.890473028137228"><ele>123.00000000000001</ele><time>2026-05-01T14:35:05.001Z</time></trkpt><trkpt lat="44.22193886775041" lon="11.8904238687079"><ele>123.0</ele><time>2026-05-01T14:35:06.001Z</time></trkpt><trkpt lat="44.221860652421384" lon="11.890403625819667"><ele>123.0</ele><time>2026-05-01T14:35:07.001Z</time></trkpt><trkpt lat="44.221783085366695" lon="11.89040527013259"><ele>123.0</ele><time>2026-05-01T14:35:08.001Z</time></trkpt><trkpt lat="44.22170322826838" lon="11.890422143731241"><ele>123.0</ele><time>2026-05-01T14:35:09.001Z</time></trkpt><trkpt lat="44.221629576454745" lon="11.890446961703876"><ele>123.0</ele><time>2026-05-01T14:35:10.001Z</time></trkpt><trkpt lat="44.22155050233556" lon="11.890470709884406"><ele>123.0</ele><time>2026-05-01T14:35:11.001Z</time></trkpt><trkpt lat="44.22147374925079" lon="11.890481707674276"><ele>123.83333333333333</ele><time>2026-05-01T14:35:12.001Z</time></trkpt><trkpt lat="44.221393368680964" lon="11.890453004482955"><ele>124.66666666666666</ele><time>2026-05-01T14:35:13.001Z</time></trkpt><trkpt lat="44.22131096704843" lon="11.890430841619924"><ele>125.5</ele><time>2026-05-01T14:35:14.001Z</time></trkpt><trkpt lat="44.22121898515917" lon="11.890426957104106"><ele>126.33333333333333</ele><time>2026-05-01T14:35:15.001Z</time></trkpt><trkpt lat="44.22113570333665" lon="11.890384805554797"><ele>127.16666666666666</ele><time>2026-05-01T14:35:16.001Z</time></trkpt><trkpt lat="44.22104696139388" lon="11.890355273132819"><ele>128.0</ele><time>2026-05-01T14:35:17.001Z</time></trkpt><trkpt lat="44.22096292722412" lon="11.890328125583551"><ele>128.0</ele><time>2026-05-01T14:35:18.001Z</time></trkpt><trkpt lat="44.22087230164258" lon="11.890294676105118"><ele>128.0</ele><time>2026-05-01T14:35:19.001Z</time></trkpt><trkpt lat="44.22078727908959" lon="11.89026141604268"><ele>128.0</ele><time>2026-05-01T14:35:20.001Z</time></trkpt><trkpt lat="44.22070008951001" lon="11.890225973713434"><ele>128.0</ele><time>2026-05-01T14:35:21.001Z</time></trkpt><trkpt lat="44.22060960540773" lon="11.890196067610349"><ele>128.0</ele><time>2026-05-01T14:35:22.001Z</time></trkpt><trkpt lat="44.22052194849721" lon="11.890157862496817"><ele>128.4</ele><time>2026-05-01T14:35:23.001Z</time></trkpt><trkpt lat="44.22043290770189" lon="11.890115676995698"><ele>128.8</ele><time>2026-05-01T14:35:24.002Z</time></trkpt><trkpt lat="44.220342216144644" lon="11.890076105442835"><ele>129.2</ele><time>2026-05-01T14:35:25.002Z</time></trkpt><trkpt lat="44.22025337579278" lon="11.890030806398341"><ele>129.6</ele><time>2026-05-01T14:35:26.002Z</time></trkpt><trkpt lat="44.22016401291829" lon="11.889982691796343"><ele>130.0</ele><time>2026-05-01T14:35:27.002Z</time></trkpt><trkpt lat="44.220071525812166" lon="11.889939793680966"><ele>131.33333333333334</ele><time>2026-05-01T14:35:28.002Z</time></trkpt><trkpt lat="44.219980033448955" lon="11.889898917174488"><ele>132.66666666666669</ele><time>2026-05-01T14:35:29.002Z</time></trkpt><trkpt lat="44.21989132794559" lon="11.889864376810507"><ele>134.0</ele><time>2026-05-01T14:35:30.002Z</time></trkpt><trkpt lat="44.21980630711275" lon="11.88982952910344"><ele>135.33333333333334</ele><time>2026-05-01T14:35:31.002Z</time></trkpt><trkpt lat="44.21972473113747" lon="11.889799414021356"><ele>136.66666666666666</ele><time>2026-05-01T14:35:32.002Z</time></trkpt><trkpt lat="44.21963986783747" lon="11.889769529739127"><ele>138.0</ele><time>2026-05-01T14:35:33.002Z</time></trkpt><trkpt lat="44.219557768106775" lon="11.889734877782708"><ele>138.0</ele><time>2026-05-01T14:35:34.002Z</time></trkpt><trkpt lat="44.219474550651384" lon="11.889698261364579"><ele>138.0</ele><time>2026-05-01T14:35:35.002Z</time></trkpt><trkpt lat="44.21939195761945" lon="11.889649573311136"><ele>138.0</ele><time>2026-05-01T14:35:36.002Z</time></trkpt><trkpt lat="44.219309554859045" lon="11.889586764174007"><ele>138.0</ele><time>2026-05-01T14:35:37.002Z</time></trkpt><trkpt lat="44.219237923353965" lon="11.889497104929372"><ele>138.0</ele><time>2026-05-01T14:35:38.002Z</time></trkpt><trkpt lat="44.219150454809395" lon="11.889435226320211"><ele>138.0</ele><time>2026-05-01T14:35:39.002Z</time></trkpt><trkpt lat="44.219071191634384" lon="11.889355988958897"><ele>138.0</ele><time>2026-05-01T14:35:40.002Z</time></trkpt><trkpt lat="44.218996139638904" lon="11.889288636661364"><ele>138.0</ele><time>2026-05-01T14:35:41.002Z</time></trkpt><trkpt lat="44.21891758622204" lon="11.889218614077745"><ele>138.0</ele><time>2026-05-01T14:35:42.002Z</time></trkpt><trkpt lat="44.218842571934786" lon="11.889140989570013"><ele>138.0</ele><time>2026-05-01T14:35:43.002Z</time></trkpt><trkpt lat="44.218764222927284" lon="11.88907690026438"><ele>139.4</ele><time>2026-05-01T14:35:44.002Z</time></trkpt><trkpt lat="44.21867966744481" lon="11.889021795851857"><ele>140.8</ele><time>2026-05-01T14:35:44.999Z</time></trkpt><trkpt lat="44.218591037172835" lon="11.888971403780605"><ele>142.2</ele><time>2026-05-01T14:35:45.999Z</time></trkpt><trkpt lat="44.218500883077255" lon="11.888926213058804"><ele>143.6</ele><time>2026-05-01T14:35:46.999Z</time></trkpt><trkpt lat="44.21840949429559" lon="11.888887125920352"><ele>145.0</ele><time>2026-05-01T14:35:47.999Z</time></trkpt><trkpt lat="44.21831335120529" lon="11.888858211356986"><ele>145.0</ele><time>2026-05-01T14:35:48.999Z</time></trkpt><trkpt lat="44.21822031364018" lon="11.888828535740098"><ele>145.0</ele><time>2026-05-01T14:35:49.999Z</time></trkpt><trkpt lat="44.2181275853775" lon="11.888808785172964"><ele>145.0</ele><time>2026-05-01T14:35:50.999Z</time></trkpt><trkpt lat="44.21803532881356" lon="11.888784112212068"><ele>145.0</ele><time>2026-05-01T14:35:51.999Z</time></trkpt><trkpt lat="44.21794225649649" lon="11.8887536888186"><ele>145.0</ele><time>2026-05-01T14:35:52.999Z</time></trkpt><trkpt lat="44.217845295941764" lon="11.888719607517116"><ele>145.2</ele><time>2026-05-01T14:35:53.999Z</time></trkpt><trkpt lat="44.21775337356304" lon="11.888677861930027"><ele>145.4</ele><time>2026-05-01T14:35:54.999Z</time></trkpt><trkpt lat="44.217651515265054" lon="11.888644767910845"><ele>145.6</ele><time>2026-05-01T14:35:55.999Z</time></trkpt><trkpt lat="44.217551500352975" lon="11.888607290550256"><ele>145.8</ele><time>2026-05-01T14:35:56.999Z</time></trkpt><trkpt lat="44.217448268350914" lon="11.888562383232578"><ele>146.0</ele><time>2026-05-01T14:35:57.999Z</time></trkpt><trkpt lat="44.217343801365914" lon="11.888520936437596"><ele>148.0</ele><time>2026-05-01T14:35:58.999Z</time></trkpt><trkpt lat="44.21724375332884" lon="11.888476597225859"><ele>150.0</ele><time>2026-05-01T14:35:59.999Z</time></trkpt><trkpt lat="44.217139051137345" lon="11.888437402613109"><ele>152.0</ele><time>2026-05-01T14:36:00.999Z</time></trkpt><trkpt lat="44.21703659712954" lon="11.888388756609032"><ele>154.0</ele><time>2026-05-01T14:36:02Z</time></trkpt><trkpt lat="44.21693395987019" lon="11.888341965441386"><ele>156.0</ele><time>2026-05-01T14:36:03Z</time></trkpt><trkpt lat="44.21683372893301" lon="11.888290472726368"><ele>156.6</ele><time>2026-05-01T14:36:04Z</time></trkpt><trkpt lat="44.21673490583809" lon="11.888236524299785"><ele>157.2</ele><time>2026-05-01T14:36:05Z</time></trkpt><trkpt lat="44.21663770225357" lon="11.88818908847255"><ele>157.8</ele><time>2026-05-01T14:36:06Z</time></trkpt><trkpt lat="44.21654007617945" lon="11.888141928468801"><ele>158.4</ele><time>2026-05-01T14:36:07Z</time></trkpt><trkpt lat="44.216442086639574" lon="11.888094127311643"><ele>159.0</ele><time>2026-05-01T14:36:08Z</time></trkpt><trkpt lat="44.21634501809431" lon="11.888050347786924"><ele>161.8</ele><time>2026-05-01T14:36:09Z</time></trkpt><trkpt lat="44.21625055705248" lon="11.888005432894847"><ele>164.60000000000002</ele><time>2026-05-01T14:36:10Z</time></trkpt><trkpt lat="44.216154195323845" lon="11.887959728532243"><ele>167.4</ele><time>2026-05-01T14:36:11Z</time></trkpt><trkpt lat="44.216059259701005" lon="11.887919525036494"><ele>170.20000000000002</ele><time>2026-05-01T14:36:12Z</time></trkpt><trkpt lat="44.21596504736628" lon="11.887880772608291"><ele>173.0</ele><time>2026-05-01T14:36:13Z</time></trkpt><trkpt lat="44.21587487794074" lon="11.887842285244155"><ele>173.0</ele><time>2026-05-01T14:36:14Z</time></trkpt><trkpt lat="44.215781650587715" lon="11.887810105734445"><ele>173.0</ele><time>2026-05-01T14:36:15Z</time></trkpt><trkpt lat="44.215691582208365" lon="11.887775571468174"><ele>173.0</ele><time>2026-05-01T14:36:16Z</time></trkpt><trkpt lat="44.21560322393624" lon="11.887726704575739"><ele>173.0</ele><time>2026-05-01T14:36:17Z</time></trkpt><trkpt lat="44.2155188343021" lon="11.887674219075913"><ele>173.0</ele><time>2026-05-01T14:36:18Z</time></trkpt><trkpt lat="44.21543728670891" lon="11.887612603794619"><ele>174.8</ele><time>2026-05-01T14:36:19Z</time></trkpt><trkpt lat="44.21536087966618" lon="11.887545954880041"><ele>176.60000000000002</ele><time>2026-05-01T14:36:20Z</time></trkpt><trkpt lat="44.215282927429385" lon="11.887485497277961"><ele>178.39999999999998</ele><time>2026-05-01T14:36:21Z</time></trkpt><trkpt lat="44.21520096502807" lon="11.887435200157958"><ele>180.2</ele><time>2026-05-01T14:36:22Z</time></trkpt><trkpt lat="44.21512074442088" lon="11.887385549030459"><ele>182.0</ele><time>2026-05-01T14:36:23Z</time></trkpt><trkpt lat="44.215031166407236" lon="11.887345249358937"><ele>182.0</ele><time>2026-05-01T14:36:24Z</time></trkpt><trkpt lat="44.214950098355494" lon="11.887309448344324"><ele>182.0</ele><time>2026-05-01T14:36:25Z</time></trkpt><trkpt lat="44.214863221278414" lon="11.887279777003842"><ele>182.0</ele><time>2026-05-01T14:36:26Z</time></trkpt><trkpt lat="44.2147737260587" lon="11.887246099638581"><ele>182.0</ele><time>2026-05-01T14:36:27Z</time></trkpt><trkpt lat="44.21468702051471" lon="11.887217073532932"><ele>182.0</ele><time>2026-05-01T14:36:28Z</time></trkpt><trkpt lat="44.21460626453852" lon="11.887157286344676"><ele>182.0</ele><time>2026-05-01T14:36:29Z</time></trkpt><trkpt lat="44.214521752215454" lon="11.887117090354582"><ele>183.83333333333331</ele><time>2026-05-01T14:36:30Z</time></trkpt><trkpt lat="44.21443796768865" lon="11.887076258860192"><ele>185.66666666666666</ele><time>2026-05-01T14:36:31Z</time></trkpt><trkpt lat="44.214355077501885" lon="11.887035863066128"><ele>187.5</ele><time>2026-05-01T14:36:32Z</time></trkpt><trkpt lat="44.214271505826" lon="11.886995135279118"><ele>189.33333333333331</ele><time>2026-05-01T14:36:33Z</time></trkpt><trkpt lat="44.21418467786332" lon="11.88696144832427"><ele>191.16666666666666</ele><time>2026-05-01T14:36:34Z</time></trkpt><trkpt lat="44.21409770070554" lon="11.886915771838812"><ele>193.0</ele><time>2026-05-01T14:36:35Z</time></trkpt><trkpt lat="44.21401678779323" lon="11.886870066669943"><ele>191.99999999999997</ele><time>2026-05-01T14:36:36.001Z</time></trkpt><trkpt lat="44.213937862827194" lon="11.886820442487135"><ele>191.0</ele><time>2026-05-01T14:36:37.001Z</time></trkpt><trkpt lat="44.21386498816962" lon="11.886772615582993"><ele>190.0</ele><time>2026-05-01T14:36:38.001Z</time></trkpt><trkpt lat="44.213792679455636" lon="11.886730386157922"><ele>189.0</ele><time>2026-05-01T14:36:39.001Z</time></trkpt><trkpt lat="44.21371761499917" lon="11.886689603686548"><ele>188.0</ele><time>2026-05-01T14:36:40.001Z</time></trkpt><trkpt lat="44.21364579890155" lon="11.886650450156726"><ele>187.0</ele><time>2026-05-01T14:36:41.001Z</time></trkpt><trkpt lat="44.21357335708342" lon="11.886616747756134"><ele>187.0</ele><time>2026-05-01T14:36:42.001Z</time></trkpt><trkpt lat="44.21350130984494" lon="11.886577528704438"><ele>187.0</ele><time>2026-05-01T14:36:43.001Z</time></trkpt><trkpt lat="44.21343527792027" lon="11.886533701475013"><ele>187.0</ele><time>2026-05-01T14:36:44.001Z</time></trkpt><trkpt lat="44.21337262749776" lon="11.886497827915203"><ele>187.0</ele><time>2026-05-01T14:36:45.001Z</time></trkpt><trkpt lat="44.21326908069535" lon="11.886421325222859"><ele>187.0</ele><time>2026-05-01T14:36:47.001Z</time></trkpt><trkpt lat="44.21318210967793" lon="11.886334932169907"><ele>187.0</ele><time>2026-05-01T14:36:49.001Z</time></trkpt><trkpt lat="44.21312488138256" lon="11.88622203870881"><ele>187.6</ele><time>2026-05-01T14:36:51.001Z</time></trkpt><trkpt lat="44.21309564020006" lon="11.886064936777299"><ele>188.2</ele><time>2026-05-01T14:36:53.001Z</time></trkpt><trkpt lat="44.21307042988257" lon="11.88591831349304"><ele>188.8</ele><time>2026-05-01T14:36:55.001Z</time></trkpt><trkpt lat="44.2130320702589" lon="11.885797537674698"><ele>189.4</ele><time>2026-05-01T14:36:57.001Z</time></trkpt><trkpt lat="44.21300865299873" lon="11.88571361442462"><ele>190.0</ele><time>2026-05-01T14:36:58.001Z</time></trkpt><trkpt lat="44.212919118679864" lon="11.885614406962691"><ele>190.0</ele><time>2026-05-01T14:37:00.001Z</time></trkpt><trkpt lat="44.212808567659636" lon="11.885557212608918"><ele>190.0</ele><time>2026-05-01T14:37:02.001Z</time></trkpt><trkpt lat="44.21268656217644" lon="11.88551911648455"><ele>190.0</ele><time>2026-05-01T14:37:04.001Z</time></trkpt><trkpt lat="44.212573823331326" lon="11.885473529998048"><ele>190.0</ele><time>2026-05-01T14:37:06.001Z</time></trkpt><trkpt lat="44.212471943095565" lon="11.885420289070407"><ele>190.0</ele><time>2026-05-01T14:37:08.001Z</time></trkpt><trkpt lat="44.21236433722457" lon="11.885364738314605"><ele>190.0</ele><time>2026-05-01T14:37:10.001Z</time></trkpt><trkpt lat="44.21224339071082" lon="11.885328180768015"><ele>190.0</ele><time>2026-05-01T14:37:12.001Z</time></trkpt><trkpt lat="44.21213049476025" lon="11.885262834195272"><ele>190.0</ele><time>2026-05-01T14:37:14.001Z</time></trkpt><trkpt lat="44.21201895005491" lon="11.88520480786705"><ele>189.75</ele><time>2026-05-01T14:37:16.001Z</time></trkpt><trkpt lat="44.21190554306933" lon="11.88514533537737"><ele>189.5</ele><time>2026-05-01T14:37:18.002Z</time></trkpt><trkpt lat="44.21179048213445" lon="11.885091610092424"><ele>189.25</ele><time>2026-05-01T14:37:20.002Z</time></trkpt><trkpt lat="44.21168161915241" lon="11.885030704713783"><ele>189.0</ele><time>2026-05-01T14:37:22.002Z</time></trkpt><trkpt lat="44.21157318737646" lon="11.88497412763577"><ele>191.39999999999998</ele><time>2026-05-01T14:37:24.002Z</time></trkpt><trkpt lat="44.21146529567597" lon="11.88491762526175"><ele>193.8</ele><time>2026-05-01T14:37:26.002Z</time></trkpt><trkpt lat="44.21135094721979" lon="11.884870252997349"><ele>196.2</ele><time>2026-05-01T14:37:28.002Z</time></trkpt><trkpt lat="44.21123745768073" lon="11.88481136285624"><ele>198.60000000000002</ele><time>2026-05-01T14:37:30.002Z</time></trkpt><trkpt lat="44.21117593737105" lon="11.884790945629808"><ele>201.0</ele><time>2026-05-01T14:37:31.002Z</time></trkpt><trkpt lat="44.21105925725091" lon="11.884722116460816"><ele>201.0</ele><time>2026-05-01T14:37:33.002Z</time></trkpt><trkpt lat="44.210941717030416" lon="11.884693643040608"><ele>201.0</ele><time>2026-05-01T14:37:35.002Z</time></trkpt><trkpt lat="44.210879647010714" lon="11.884672471145212"><ele>201.0</ele><time>2026-05-01T14:37:36.002Z</time></trkpt><trkpt lat="44.210825052315776" lon="11.884626341641306"><ele>201.0</ele><time>2026-05-01T14:37:37.002Z</time></trkpt><trkpt lat="44.210759762390516" lon="11.884622848627506"><ele>201.0</ele><time>2026-05-01T14:37:38.002Z</time></trkpt><trkpt lat="44.210698780430555" lon="11.884583677452296"><ele>201.0</ele><time>2026-05-01T14:37:39.002Z</time></trkpt><trkpt lat="44.21063058291814" lon="11.884561643823035"><ele>201.0</ele><time>2026-05-01T14:37:40.002Z</time></trkpt><trkpt lat="44.2105666337295" lon="11.884537044830083"><ele>200.60000000000002</ele><time>2026-05-01T14:37:41.002Z</time></trkpt><trkpt lat="44.21050468099692" lon="11.884515196197766"><ele>200.2</ele><time>2026-05-01T14:37:42.002Z</time></trkpt><trkpt lat="44.210389306432155" lon="11.884485327972662"><ele>199.8</ele><time>2026-05-01T14:37:44.002Z</time></trkpt><trkpt lat="44.21027142023221" lon="11.884453766125556"><ele>199.39999999999998</ele><time>2026-05-01T14:37:46.002Z</time></trkpt><trkpt lat="44.21015397756234" lon="11.884429778346075"><ele>199.0</ele><time>2026-05-01T14:37:48.002Z</time></trkpt><trkpt lat="44.21003600420233" lon="11.884410215891128"><ele>199.0</ele><time>2026-05-01T14:37:50.002Z</time></trkpt><trkpt lat="44.2099171456458" lon="11.884378834871807"><ele>199.0</ele><time>2026-05-01T14:37:52Z</time></trkpt><trkpt lat="44.2098008040578" lon="11.884354227486693"><ele>199.0</ele><time>2026-05-01T14:37:54Z</time></trkpt><trkpt lat="44.2096806644976" lon="11.884332788953044"><ele>199.0</ele><time>2026-05-01T14:37:56Z</time></trkpt><trkpt lat="44.20956617597254" lon="11.884288470321176"><ele>195.2</ele><time>2026-05-01T14:37:58Z</time></trkpt><trkpt lat="44.20946101371094" lon="11.884240861286957"><ele>191.39999999999998</ele><time>2026-05-01T14:38:00Z</time></trkpt><trkpt lat="44.209365721662046" lon="11.884144050606471"><ele>187.6</ele><time>2026-05-01T14:38:02Z</time></trkpt><trkpt lat="44.209308443475805" lon="11.884107195955558"><ele>183.8</ele><time>2026-05-01T14:38:03Z</time></trkpt><trkpt lat="44.209263500000965" lon="11.884042805206093"><ele>180.0</ele><time>2026-05-01T14:38:04Z</time></trkpt><trkpt lat="44.209185001335335" lon="11.883912455565907"><ele>180.0</ele><time>2026-05-01T14:38:06Z</time></trkpt><trkpt lat="44.209101868125366" lon="11.883775517934989"><ele>180.0</ele><time>2026-05-01T14:38:08Z</time></trkpt><trkpt lat="44.20902442449101" lon="11.883660347834446"><ele>180.0</ele><time>2026-05-01T14:38:10Z</time></trkpt><trkpt lat="44.20897051133614" lon="11.883568384800283"><ele>180.0</ele><time>2026-05-01T14:38:12Z</time></trkpt><trkpt lat="44.2089160524538" lon="11.883487848642156"><ele>180.0</ele><time>2026-05-01T14:38:14Z</time></trkpt><trkpt lat="44.20885055423985" lon="11.88338670915598"><ele>178.5</ele><time>2026-05-01T14:38:16Z</time></trkpt><trkpt lat="44.20877654186402" lon="11.88327041461025"><ele>177.0</ele><time>2026-05-01T14:38:18Z</time></trkpt><trkpt lat="44.208696960433294" lon="11.883145006513923"><ele>175.5</ele><time>2026-05-01T14:38:20Z</time></trkpt><trkpt lat="44.20862144935594" lon="11.883017982789951"><ele>174.0</ele><time>2026-05-01T14:38:22Z</time></trkpt><trkpt lat="44.208544271354036" lon="11.882887074094892"><ele>174.0</ele><time>2026-05-01T14:38:24Z</time></trkpt><trkpt lat="44.20847354141683" lon="11.88276511112555"><ele>174.0</ele><time>2026-05-01T14:38:26Z</time></trkpt><trkpt lat="44.20839532767555" lon="11.882648958122244"><ele>174.0</ele><time>2026-05-01T14:38:28Z</time></trkpt><trkpt lat="44.20830685361643" lon="11.882535209508184"><ele>174.0</ele><time>2026-05-01T14:38:30.001Z</time></trkpt><trkpt lat="44.208215906662005" lon="11.882434095129309"><ele>174.6</ele><time>2026-05-01T14:38:32.001Z</time></trkpt><trkpt lat="44.20811428267627" lon="11.882357956037989"><ele>175.2</ele><time>2026-05-01T14:38:34.001Z</time></trkpt><trkpt lat="44.20801306296542" lon="11.88230518072393"><ele>175.79999999999998</ele><time>2026-05-01T14:38:36.001Z</time></trkpt><trkpt lat="44.20790952009733" lon="11.882257201277772"><ele>176.39999999999998</ele><time>2026-05-01T14:38:38.001Z</time></trkpt><trkpt lat="44.20780651720632" lon="11.882199753554909"><ele>177.0</ele><time>2026-05-01T14:38:40.001Z</time></trkpt><trkpt lat="44.20770678523102" lon="11.88214185187156"><ele>177.0</ele><time>2026-05-01T14:38:42.001Z</time></trkpt><trkpt lat="44.20761562192421" lon="11.882075978829247"><ele>177.0</ele><time>2026-05-01T14:38:44.001Z</time></trkpt><trkpt lat="44.20752210799705" lon="11.882007519529107"><ele>177.0</ele><time>2026-05-01T14:38:46.001Z</time></trkpt><trkpt lat="44.20742417919294" lon="11.881955080279178"><ele>177.0</ele><time>2026-05-01T14:38:48.001Z</time></trkpt><trkpt lat="44.207327122055055" lon="11.881941681761417"><ele>177.0</ele><time>2026-05-01T14:38:50.001Z</time></trkpt><trkpt lat="44.2072268526263" lon="11.881954637692566"><ele>179.0</ele><time>2026-05-01T14:38:52.001Z</time></trkpt><trkpt lat="44.20713437214283" lon="11.881964399031869"><ele>181.0</ele><time>2026-05-01T14:38:54.001Z</time></trkpt><trkpt lat="44.207052649119916" lon="11.881987096323089"><ele>183.0</ele><time>2026-05-01T14:38:56.001Z</time></trkpt><trkpt lat="44.2069650841323" lon="11.881976718407708"><ele>185.0</ele><time>2026-05-01T14:38:58.001Z</time></trkpt><trkpt lat="44.206883291833435" lon="11.88200749601325"><ele>187.0</ele><time>2026-05-01T14:39:00.001Z</time></trkpt><trkpt lat="44.20680131576827" lon="11.882023945815165"><ele>189.0</ele><time>2026-05-01T14:39:02.001Z</time></trkpt><trkpt lat="44.20672203422541" lon="11.882032826464487"><ele>189.0</ele><time>2026-05-01T14:39:04.001Z</time></trkpt><trkpt lat="44.20664116273121" lon="11.882038990948791"><ele>189.0</ele><time>2026-05-01T14:39:06.001Z</time></trkpt><trkpt lat="44.20655705522073" lon="11.882028106183627"><ele>189.0</ele><time>2026-05-01T14:39:08.001Z</time></trkpt><trkpt lat="44.20646705467739" lon="11.882029601278163"><ele>189.0</ele><time>2026-05-01T14:39:10.002Z</time></trkpt><trkpt lat="44.20637582335078" lon="11.88201920660768"><ele>189.0</ele><time>2026-05-01T14:39:12.002Z</time></trkpt><trkpt lat="44.206287617753084" lon="11.8820034779559"><ele>189.0</ele><time>2026-05-01T14:39:14.002Z</time></trkpt><trkpt lat="44.20620299241128" lon="11.881972728355024"><ele>189.66666666666666</ele><time>2026-05-01T14:39:16.002Z</time></trkpt><trkpt lat="44.20613428468997" lon="11.881902543613204"><ele>190.33333333333331</ele><time>2026-05-01T14:39:18.002Z</time></trkpt><trkpt lat="44.20610303786765" lon="11.881796262759403"><ele>191.0</ele><time>2026-05-01T14:39:20.002Z</time></trkpt><trkpt lat="44.20609466578014" lon="11.881682747615576"><ele>191.66666666666666</ele><time>2026-05-01T14:39:22.002Z</time></trkpt><trkpt lat="44.20609714143008" lon="11.881566201443691"><ele>192.33333333333331</ele><time>2026-05-01T14:39:24.002Z</time></trkpt><trkpt lat="44.20609420573019" lon="11.881444944901018"><ele>193.0</ele><time>2026-05-01T14:39:26.002Z</time></trkpt><trkpt lat="44.20610937599394" lon="11.881334384069556"><ele>193.83333333333331</ele><time>2026-05-01T14:39:28.002Z</time></trkpt><trkpt lat="44.206122894766416" lon="11.881217653390541"><ele>194.66666666666666</ele><time>2026-05-01T14:39:30.002Z</time></trkpt><trkpt lat="44.2061350965815" lon="11.881105079395349"><ele>195.5</ele><time>2026-05-01T14:39:32.002Z</time></trkpt><trkpt lat="44.20614934413669" lon="11.880982917955327"><ele>196.33333333333331</ele><time>2026-05-01T14:39:34.002Z</time></trkpt><trkpt lat="44.20616244214008" lon="11.880864552334398"><ele>197.16666666666666</ele><time>2026-05-01T14:39:36.002Z</time></trkpt><trkpt lat="44.20617617101467" lon="11.880759020721271"><ele>198.0</ele><time>2026-05-01T14:39:38.002Z</time></trkpt><trkpt lat="44.206190458390786" lon="11.88065275534407"><ele>198.4</ele><time>2026-05-01T14:39:40.002Z</time></trkpt><trkpt lat="44.20621056504592" lon="11.880525187546464"><ele>198.8</ele><time>2026-05-01T14:39:42.002Z</time></trkpt><trkpt lat="44.20622259639242" lon="11.880405649151195"><ele>199.2</ele><time>2026-05-01T14:39:44.002Z</time></trkpt><trkpt lat="44.20623386722459" lon="11.880273122633849"><ele>199.6</ele><time>2026-05-01T14:39:46.002Z</time></trkpt><trkpt lat="44.20624242721267" lon="11.880129835684814"><ele>200.0</ele><time>2026-05-01T14:39:48.002Z</time></trkpt><trkpt lat="44.20624757947765" lon="11.8799654705582"><ele>200.66666666666669</ele><time>2026-05-01T14:39:50.002Z</time></trkpt><trkpt lat="44.20625704429428" lon="11.879805020949869"><ele>201.33333333333334</ele><time>2026-05-01T14:39:52.003Z</time></trkpt><trkpt lat="44.20626364411661" lon="11.879652339144599"><ele>202.0</ele><time>2026-05-01T14:39:54.003Z</time></trkpt><trkpt lat="44.206264276965825" lon="11.8795567944697"><ele>202.66666666666669</ele><time>2026-05-01T14:39:56.003Z</time></trkpt><trkpt lat="44.206260559635446" lon="11.87945688422502"><ele>203.33333333333334</ele><time>2026-05-01T14:43:30.002Z</time></trkpt><trkpt lat="44.20626272017915" lon="11.879364275301302"><ele>204.0</ele><time>2026-05-01T14:43:32.002Z</time></trkpt><trkpt lat="44.206269602862314" lon="11.87927638867093"><ele>203.0</ele><time>2026-05-01T14:43:34.002Z</time></trkpt><trkpt lat="44.20627954675738" lon="11.87918674763779"><ele>202.0</ele><time>2026-05-01T14:43:36.002Z</time></trkpt><trkpt lat="44.20630577462158" lon="11.879088257379228"><ele>201.0</ele><time>2026-05-01T14:43:38.002Z</time></trkpt><trkpt lat="44.206314442661444" lon="11.878963302152094"><ele>200.0</ele><time>2026-05-01T14:43:40.002Z</time></trkpt><trkpt lat="44.20632282724424" lon="11.878809278150854"><ele>199.0</ele><time>2026-05-01T14:43:42.002Z</time></trkpt><trkpt lat="44.20632955066088" lon="11.878653045424027"><ele>199.0</ele><time>2026-05-01T14:43:44.002Z</time></trkpt><trkpt lat="44.20632735265469" lon="11.878485880326881"><ele>199.0</ele><time>2026-05-01T14:43:46.002Z</time></trkpt><trkpt lat="44.206323682644815" lon="11.878328134170362"><ele>199.0</ele><time>2026-05-01T14:43:48.002Z</time></trkpt><trkpt lat="44.20631501352647" lon="11.878176720207215"><ele>199.0</ele><time>2026-05-01T14:43:50.002Z</time></trkpt><trkpt lat="44.206304743947385" lon="11.87802503913795"><ele>198.39999999999998</ele><time>2026-05-01T14:43:52.002Z</time></trkpt><trkpt lat="44.20629886688154" lon="11.87786786628301"><ele>197.8</ele><time>2026-05-01T14:43:54.003Z</time></trkpt><trkpt lat="44.20629318304349" lon="11.87771690463754"><ele>197.2</ele><time>2026-05-01T14:43:56.003Z</time></trkpt><trkpt lat="44.20628811253528" lon="11.877567881695894"><ele>196.60000000000002</ele><time>2026-05-01T14:43:58.003Z</time></trkpt><trkpt lat="44.20627112645566" lon="11.877410427598578"><ele>196.0</ele><time>2026-05-01T14:44:00.003Z</time></trkpt><trkpt lat="44.206246681915864" lon="11.87726166867318"><ele>196.0</ele><time>2026-05-01T14:44:02.003Z</time></trkpt><trkpt lat="44.2062298023059" lon="11.877100052946597"><ele>196.0</ele><time>2026-05-01T14:44:04.003Z</time></trkpt><trkpt lat="44.206199743811595" lon="11.877003049182498"><ele>196.0</ele><time>2026-05-01T14:44:06.003Z</time></trkpt><trkpt lat="44.206174682197585" lon="11.876890822486187"><ele>196.0</ele><time>2026-05-01T14:44:08.003Z</time></trkpt><trkpt lat="44.206150547207834" lon="11.87674822083447"><ele>196.0</ele><time>2026-05-01T14:44:10.001Z</time></trkpt><trkpt lat="44.20612178190545" lon="11.876606274348665"><ele>198.4</ele><time>2026-05-01T14:44:12.001Z</time></trkpt><trkpt lat="44.20609253805141" lon="11.876461866642195"><ele>200.8</ele><time>2026-05-01T14:44:14.001Z</time></trkpt><trkpt lat="44.20606570973986" lon="11.876317539653527"><ele>203.20000000000002</ele><time>2026-05-01T14:44:16.001Z</time></trkpt><trkpt lat="44.206040961454946" lon="11.876169354999934"><ele>205.60000000000002</ele><time>2026-05-01T14:44:18.001Z</time></trkpt><trkpt lat="44.20601117523829" lon="11.876024837828155"><ele>208.0</ele><time>2026-05-01T14:44:20.001Z</time></trkpt><trkpt lat="44.205979018475645" lon="11.87588117880476"><ele>208.4</ele><time>2026-05-01T14:44:22.001Z</time></trkpt><trkpt lat="44.20593273945199" lon="11.8757480136523"><ele>208.8</ele><time>2026-05-01T14:44:24.001Z</time></trkpt><trkpt lat="44.20587007689897" lon="11.87562684612642"><ele>209.2</ele><time>2026-05-01T14:44:26.001Z</time></trkpt><trkpt lat="44.20579435853087" lon="11.875511156360464"><ele>209.6</ele><time>2026-05-01T14:44:28.001Z</time></trkpt><trkpt lat="44.205721581574814" lon="11.875385432073282"><ele>210.0</ele><time>2026-05-01T14:44:30.001Z</time></trkpt><trkpt lat="44.205644854170615" lon="11.875280366422599"><ele>209.66666666666666</ele><time>2026-05-01T14:44:32.001Z</time></trkpt><trkpt lat="44.205561054732364" lon="11.87516385517012"><ele>209.33333333333331</ele><time>2026-05-01T14:44:34.001Z</time></trkpt><trkpt lat="44.205506902668255" lon="11.875116293413939"><ele>209.0</ele><time>2026-05-01T14:44:35.001Z</time></trkpt><trkpt lat="44.205472207434056" lon="11.87504032549464"><ele>208.66666666666666</ele><time>2026-05-01T14:44:36.001Z</time></trkpt><trkpt lat="44.20541702068997" lon="11.874992103060787"><ele>208.33333333333331</ele><time>2026-05-01T14:44:37.001Z</time></trkpt><trkpt lat="44.205332273262236" lon="11.874868231183612"><ele>208.0</ele><time>2026-05-01T14:44:39.001Z</time></trkpt><trkpt lat="44.205291377808415" lon="11.87479953330563"><ele>208.0</ele><time>2026-05-01T14:44:40.001Z</time></trkpt><trkpt lat="44.2051951679474" lon="11.874694530236523"><ele>208.0</ele><time>2026-05-01T14:44:42.001Z</time></trkpt><trkpt lat="44.205089434765355" lon="11.874621733909999"><ele>208.0</ele><time>2026-05-01T14:44:44.001Z</time></trkpt><trkpt lat="44.20497082132729" lon="11.87459992874094"><ele>208.0</ele><time>2026-05-01T14:44:46.001Z</time></trkpt><trkpt lat="44.20486198375069" lon="11.874625173726317"><ele>207.2</ele><time>2026-05-01T14:44:48.001Z</time></trkpt><trkpt lat="44.204757282545586" lon="11.87463187341526"><ele>206.4</ele><time>2026-05-01T14:44:50.001Z</time></trkpt><trkpt lat="44.20465073376516" lon="11.874585700653714"><ele>205.6</ele><time>2026-05-01T14:44:52.001Z</time></trkpt><trkpt lat="44.204551567211496" lon="11.874509560398058"><ele>204.79999999999998</ele><time>2026-05-01T14:44:54.001Z</time></trkpt><trkpt lat="44.20449804824568" lon="11.874461627810938"><ele>204.0</ele><time>2026-05-01T14:44:55.001Z</time></trkpt><trkpt lat="44.20444305291926" lon="11.874412311586735"><ele>204.0</ele><time>2026-05-01T14:44:56.001Z</time></trkpt><trkpt lat="44.20433053983543" lon="11.874326706173639"><ele>204.0</ele><time>2026-05-01T14:44:58.001Z</time></trkpt><trkpt lat="44.20426171247688" lon="11.874311888557358"><ele>204.0</ele><time>2026-05-01T14:44:59.001Z</time></trkpt><trkpt lat="44.20419877104506" lon="11.874279108786203"><ele>204.0</ele><time>2026-05-01T14:45:00.001Z</time></trkpt><trkpt lat="44.20413602526156" lon="11.874251355400295"><ele>204.0</ele><time>2026-05-01T14:45:01.001Z</time></trkpt><trkpt lat="44.204071251559256" lon="11.874241465273396"><ele>204.0</ele><time>2026-05-01T14:45:02.001Z</time></trkpt><trkpt lat="44.20395036227471" lon="11.874211751977402"><ele>205.79999999999998</ele><time>2026-05-01T14:45:04.001Z</time></trkpt><trkpt lat="44.20383155439181" lon="11.874192789995604"><ele>207.6</ele><time>2026-05-01T14:45:06.001Z</time></trkpt><trkpt lat="44.20371648562433" lon="11.874151549099452"><ele>209.4</ele><time>2026-05-01T14:45:08.001Z</time></trkpt><trkpt lat="44.203590616708446" lon="11.874125828811923"><ele>211.2</ele><time>2026-05-01T14:45:10.001Z</time></trkpt><trkpt lat="44.2035271331574" lon="11.874111894672469"><ele>213.0</ele><time>2026-05-01T14:45:11.001Z</time></trkpt><trkpt lat="44.20345908011542" lon="11.874116949226403"><ele>212.99999999999997</ele><time>2026-05-01T14:45:12.001Z</time></trkpt><trkpt lat="44.20339673352095" lon="11.874093930315768"><ele>213.0</ele><time>2026-05-01T14:45:13.001Z</time></trkpt><trkpt lat="44.20332512327041" lon="11.874074688796581"><ele>213.0</ele><time>2026-05-01T14:45:14.001Z</time></trkpt><trkpt lat="44.20325501341107" lon="11.8740600961297"><ele>213.0</ele><time>2026-05-01T14:45:15.001Z</time></trkpt><trkpt lat="44.203184788793386" lon="11.874044106283193"><ele>213.0</ele><time>2026-05-01T14:45:16.001Z</time></trkpt><trkpt lat="44.2031122928605" lon="11.874023153292153"><ele>212.99999999999997</ele><time>2026-05-01T14:45:17.001Z</time></trkpt><trkpt lat="44.20303953790748" lon="11.87400358962682"><ele>213.0</ele><time>2026-05-01T14:45:18.001Z</time></trkpt><trkpt lat="44.20296241443769" lon="11.873978198341307"><ele>213.85714285714283</ele><time>2026-05-01T14:45:19.001Z</time></trkpt><trkpt lat="44.202893128107554" lon="11.873957524254513"><ele>214.71428571428572</ele><time>2026-05-01T14:45:20.001Z</time></trkpt><trkpt lat="44.202819573434226" lon="11.873944857429233"><ele>215.57142857142856</ele><time>2026-05-01T14:45:21.002Z</time></trkpt><trkpt lat="44.202748015125465" lon="11.873920371722896"><ele>216.42857142857142</ele><time>2026-05-01T14:45:22.002Z</time></trkpt><trkpt lat="44.20268077168866" lon="11.873906844738414"><ele>217.28571428571428</ele><time>2026-05-01T14:45:23.002Z</time></trkpt><trkpt lat="44.2026139269407" lon="11.873882323059695"><ele>218.14285714285714</ele><time>2026-05-01T14:45:24.002Z</time></trkpt><trkpt lat="44.20254691317606" lon="11.873873438866816"><ele>219.0</ele><time>2026-05-01T14:45:25.002Z</time></trkpt><trkpt lat="44.20248375791532" lon="11.873850872317139"><ele>219.0</ele><time>2026-05-01T14:45:26.002Z</time></trkpt><trkpt lat="44.202365544410156" lon="11.873819935391326"><ele>218.99999999999997</ele><time>2026-05-01T14:45:28.002Z</time></trkpt><trkpt lat="44.20224774423326" lon="11.873789925603285"><ele>218.99999999999997</ele><time>2026-05-01T14:45:30.002Z</time></trkpt><trkpt lat="44.202124834797665" lon="11.873765425958311"><ele>219.0</ele><time>2026-05-01T14:45:32.002Z</time></trkpt><trkpt lat="44.20206092506508" lon="11.873746194231943"><ele>219.0</ele><time>2026-05-01T14:45:33.002Z</time></trkpt><trkpt lat="44.201996984689195" lon="11.873736703019981"><ele>218.66666666666666</ele><time>2026-05-01T14:45:34.002Z</time></trkpt><trkpt lat="44.20193215875485" lon="11.873721193668203"><ele>218.33333333333331</ele><time>2026-05-01T14:45:35.002Z</time></trkpt><trkpt lat="44.201868906266874" lon="11.873707232652995"><ele>218.0</ele><time>2026-05-01T14:45:36.002Z</time></trkpt><trkpt lat="44.20180532093786" lon="11.873691217643032"><ele>217.66666666666666</ele><time>2026-05-01T14:45:37.002Z</time></trkpt><trkpt lat="44.20168583605419" lon="11.873656203697134"><ele>217.33333333333331</ele><time>2026-05-01T14:45:39.002Z</time></trkpt><trkpt lat="44.20156798964122" lon="11.873651948311597"><ele>217.0</ele><time>2026-05-01T14:45:41.002Z</time></trkpt><trkpt lat="44.2014532505633" lon="11.873664417998981"><ele>217.0</ele><time>2026-05-01T14:45:43.002Z</time></trkpt><trkpt lat="44.20133439685998" lon="11.873682248121092"><ele>217.0</ele><time>2026-05-01T14:45:45.002Z</time></trkpt><trkpt lat="44.20123310658004" lon="11.873742837250406"><ele>217.0</ele><time>2026-05-01T14:45:47.002Z</time></trkpt><trkpt lat="44.20113762032639" lon="11.87378407736754"><ele>217.0</ele><time>2026-05-01T14:45:49.002Z</time></trkpt><trkpt lat="44.20104776030148" lon="11.873820304824362"><ele>217.0</ele><time>2026-05-01T14:45:51.002Z</time></trkpt><trkpt lat="44.20096106513706" lon="11.873843982135368"><ele>216.99999999999997</ele><time>2026-05-01T14:45:53.002Z</time></trkpt><trkpt lat="44.20088276623956" lon="11.873850457590569"><ele>217.0</ele><time>2026-05-01T14:45:55.002Z</time></trkpt><trkpt lat="44.2008003987333" lon="11.873845181356787"><ele>217.0</ele><time>2026-05-01T14:45:57.002Z</time></trkpt><trkpt lat="44.20072586798835" lon="11.873834821601296"><ele>217.0</ele><time>2026-05-01T14:45:59.002Z</time></trkpt><trkpt lat="44.20065175383908" lon="11.87383195911764"><ele>216.99999999999997</ele><time>2026-05-01T14:46:01.002Z</time></trkpt><trkpt lat="44.200583285808" lon="11.873856697448563"><ele>217.0</ele><time>2026-05-01T14:46:03.002Z</time></trkpt><trkpt lat="44.20047250442676" lon="11.873899592013839"><ele>216.83333333333331</ele><time>2026-05-01T14:46:05.002Z</time></trkpt><trkpt lat="44.20035823540249" lon="11.873979262537466"><ele>216.66666666666666</ele><time>2026-05-01T14:46:07.002Z</time></trkpt><trkpt lat="44.200301510313125" lon="11.874026677978739"><ele>216.5</ele><time>2026-05-01T14:46:08.002Z</time></trkpt><trkpt lat="44.20023946173884" lon="11.874077879136609"><ele>216.33333333333331</ele><time>2026-05-01T14:46:09.002Z</time></trkpt><trkpt lat="44.200183743846885" lon="11.874124712958164"><ele>216.16666666666666</ele><time>2026-05-01T14:46:10.002Z</time></trkpt><trkpt lat="44.20012320955586" lon="11.87417888964094"><ele>216.0</ele><time>2026-05-01T14:46:11.002Z</time></trkpt><trkpt lat="44.20007103532004" lon="11.87423173917475"><ele>214.42857142857142</ele><time>2026-05-01T14:46:12.002Z</time></trkpt><trkpt lat="44.20001302605985" lon="11.874277585965414"><ele>212.85714285714283</ele><time>2026-05-01T14:46:13.002Z</time></trkpt><trkpt lat="44.199957195377685" lon="11.87432693333115"><ele>211.28571428571428</ele><time>2026-05-01T14:46:14.002Z</time></trkpt><trkpt lat="44.199898930490974" lon="11.874377627048938"><ele>209.71428571428572</ele><time>2026-05-01T14:46:15Z</time></trkpt><trkpt lat="44.19984153051817" lon="11.87442025288557"><ele>208.14285714285714</ele><time>2026-05-01T14:46:16Z</time></trkpt><trkpt lat="44.19978243226567" lon="11.874466300447057"><ele>206.57142857142858</ele><time>2026-05-01T14:46:17Z</time></trkpt><trkpt lat="44.199721522618624" lon="11.874518099905613"><ele>205.0</ele><time>2026-05-01T14:46:18Z</time></trkpt><trkpt lat="44.19966011455175" lon="11.874564456301105"><ele>209.6</ele><time>2026-05-01T14:46:19Z</time></trkpt><trkpt lat="44.19954406164314" lon="11.87459974370564"><ele>214.2</ele><time>2026-05-01T14:46:21Z</time></trkpt><trkpt lat="44.199473910819954" lon="11.874632380802511"><ele>218.8</ele><time>2026-05-01T14:46:22Z</time></trkpt><trkpt lat="44.19940843972363" lon="11.874660446796035"><ele>223.4</ele><time>2026-05-01T14:46:23Z</time></trkpt><trkpt lat="44.19929042951305" lon="11.874708520073503"><ele>228.0</ele><time>2026-05-01T14:46:25Z</time></trkpt><trkpt lat="44.19918688154585" lon="11.8747474037565"><ele>228.0</ele><time>2026-05-01T14:46:27Z</time></trkpt><trkpt lat="44.19910570026457" lon="11.874777777911486"><ele>228.0</ele><time>2026-05-01T14:46:28Z</time></trkpt><trkpt lat="44.19898530810005" lon="11.874823878631545"><ele>228.0</ele><time>2026-05-01T14:46:30Z</time></trkpt><trkpt lat="44.198912687247386" lon="11.874853326757286"><ele>228.0</ele><time>2026-05-01T14:46:31Z</time></trkpt><trkpt lat="44.19878888930603" lon="11.874904164231435"><ele>228.0</ele><time>2026-05-01T14:46:33Z</time></trkpt><trkpt lat="44.19867641439361" lon="11.874945524400706"><ele>230.8</ele><time>2026-05-01T14:46:35Z</time></trkpt><trkpt lat="44.198614311256094" lon="11.874965654670214"><ele>233.60000000000002</ele><time>2026-05-01T14:46:36Z</time></trkpt><trkpt lat="44.198492292728" lon="11.874998744663015"><ele>236.39999999999998</ele><time>2026-05-01T14:46:38Z</time></trkpt><trkpt lat="44.19837658441714" lon="11.874995063728537"><ele>239.2</ele><time>2026-05-01T14:46:40Z</time></trkpt><trkpt lat="44.19825935071302" lon="11.874956606554914"><ele>242.0</ele><time>2026-05-01T14:46:42Z</time></trkpt><trkpt lat="44.19815255035663" lon="11.874883855536558"><ele>242.50000000000003</ele><time>2026-05-01T14:46:44Z</time></trkpt><trkpt lat="44.19809677067414" lon="11.87484246813628"><ele>243.0</ele><time>2026-05-01T14:46:45Z</time></trkpt><trkpt lat="44.197984899081256" lon="11.874758532845082"><ele>243.5</ele><time>2026-05-01T14:46:47Z</time></trkpt><trkpt lat="44.19792480995262" lon="11.874716683195386"><ele>244.0</ele><time>2026-05-01T14:46:48Z</time></trkpt><trkpt lat="44.1978664501371" lon="11.87467865609212"><ele>244.50000000000003</ele><time>2026-05-01T14:46:49Z</time></trkpt><trkpt lat="44.19780722021381" lon="11.874640404479303"><ele>245.0</ele><time>2026-05-01T14:46:50Z</time></trkpt><trkpt lat="44.197694286879376" lon="11.874568820505294"><ele>245.0</ele><time>2026-05-01T14:46:52Z</time></trkpt><trkpt lat="44.19763488686371" lon="11.874531264518506"><ele>245.0</ele><time>2026-05-01T14:46:53Z</time></trkpt><trkpt lat="44.19757396854508" lon="11.874492748576792"><ele>245.0</ele><time>2026-05-01T14:46:54Z</time></trkpt><trkpt lat="44.19751180651261" lon="11.874454053109698"><ele>245.0</ele><time>2026-05-01T14:46:55Z</time></trkpt><trkpt lat="44.19745110595355" lon="11.874417137882364"><ele>245.0</ele><time>2026-05-01T14:46:56Z</time></trkpt><trkpt lat="44.19739076970628" lon="11.874380444208692"><ele>245.0</ele><time>2026-05-01T14:46:57Z</time></trkpt><trkpt lat="44.19732244146315" lon="11.874361963231092"><ele>245.0</ele><time>2026-05-01T14:46:58Z</time></trkpt><trkpt lat="44.19726650981102" lon="11.874320400511168"><ele>246.6</ele><time>2026-05-01T14:46:59Z</time></trkpt><trkpt lat="44.19715668262961" lon="11.87425860417087"><ele>248.2</ele><time>2026-05-01T14:47:01.001Z</time></trkpt><trkpt lat="44.19705882527146" lon="11.874190274677714"><ele>249.8</ele><time>2026-05-01T14:47:03.001Z</time></trkpt><trkpt lat="44.19697549225886" lon="11.874118427874073"><ele>251.4</ele><time>2026-05-01T14:47:05.001Z</time></trkpt><trkpt lat="44.19691012788641" lon="11.874086748293792"><ele>253.0</ele><time>2026-05-01T14:47:06.001Z</time></trkpt><trkpt lat="44.196855043191334" lon="11.874036244715736"><ele>253.0</ele><time>2026-05-01T14:47:07.001Z</time></trkpt><trkpt lat="44.19676273220741" lon="11.873979485556477"><ele>253.0</ele><time>2026-05-01T14:47:09.001Z</time></trkpt><trkpt lat="44.19665119522107" lon="11.873911422643447"><ele>253.0</ele><time>2026-05-01T14:47:11.001Z</time></trkpt><trkpt lat="44.19653558586094" lon="11.873846239784116"><ele>253.0</ele><time>2026-05-01T14:47:13.001Z</time></trkpt><trkpt lat="44.196474942091704" lon="11.873812577972188"><ele>253.0</ele><time>2026-05-01T14:47:14.001Z</time></trkpt><trkpt lat="44.19636452798562" lon="11.87374648785399"><ele>253.8</ele><time>2026-05-01T14:47:16.001Z</time></trkpt><trkpt lat="44.19626952776823" lon="11.87368334604508"><ele>254.60000000000002</ele><time>2026-05-01T14:47:18.001Z</time></trkpt><trkpt lat="44.19617388809444" lon="11.873618258269666"><ele>255.39999999999998</ele><time>2026-05-01T14:47:20.001Z</time></trkpt><trkpt lat="44.196078791261066" lon="11.873523040511788"><ele>256.2</ele><time>2026-05-01T14:47:22.001Z</time></trkpt><trkpt lat="44.19597898749576" lon="11.873469045856252"><ele>257.0</ele><time>2026-05-01T14:47:24.001Z</time></trkpt><trkpt lat="44.19588287865128" lon="11.87337837262236"><ele>257.0</ele><time>2026-05-01T14:47:26.001Z</time></trkpt><trkpt lat="44.195812895580396" lon="11.873339912806617"><ele>257.0</ele><time>2026-05-01T14:47:27.001Z</time></trkpt><trkpt lat="44.19571561342829" lon="11.873238874089072"><ele>257.0</ele><time>2026-05-01T14:47:29.001Z</time></trkpt><trkpt lat="44.19561879738229" lon="11.873153372916939"><ele>257.0</ele><time>2026-05-01T14:47:31.001Z</time></trkpt><trkpt lat="44.19552173722875" lon="11.873044434250282"><ele>257.0</ele><time>2026-05-01T14:47:33.001Z</time></trkpt><trkpt lat="44.195431152254294" lon="11.872953453730547"><ele>256.83333333333337</ele><time>2026-05-01T14:47:35.001Z</time></trkpt><trkpt lat="44.19534007460891" lon="11.872860396942016"><ele>256.6666666666667</ele><time>2026-05-01T14:47:37.001Z</time></trkpt><trkpt lat="44.19525738281051" lon="11.872781893279251"><ele>256.5</ele><time>2026-05-01T14:47:39.001Z</time></trkpt><trkpt lat="44.1951904395391" lon="11.872720301324028"><ele>256.3333333333333</ele><time>2026-05-01T14:47:41.001Z</time></trkpt><trkpt lat="44.195128971232826" lon="11.872660857774093"><ele>256.16666666666663</ele><time>2026-05-01T14:47:43.001Z</time></trkpt><trkpt lat="44.19508239515361" lon="11.872584071265916"><ele>256.0</ele><time>2026-05-01T14:47:45.001Z</time></trkpt><trkpt lat="44.19505660442946" lon="11.872484430126457"><ele>255.0</ele><time>2026-05-01T14:47:47.001Z</time></trkpt><trkpt lat="44.195008838689084" lon="11.872343622270849"><ele>254.00000000000003</ele><time>2026-05-01T14:47:49.001Z</time></trkpt><trkpt lat="44.19495354145821" lon="11.87218706837665"><ele>253.00000000000003</ele><time>2026-05-01T14:47:51.001Z</time></trkpt><trkpt lat="44.19491942896645" lon="11.87209049132635"><ele>252.0</ele><time>2026-05-01T14:47:52.001Z</time></trkpt><trkpt lat="44.19487952979224" lon="11.871977531350726"><ele>251.0</ele><time>2026-05-01T14:47:53.001Z</time></trkpt><trkpt lat="44.19484279693608" lon="11.871873091941238"><ele>249.83333333333334</ele><time>2026-05-01T14:47:54.001Z</time></trkpt><trkpt lat="44.194803751740444" lon="11.871760574864576"><ele>248.66666666666669</ele><time>2026-05-01T14:47:55.001Z</time></trkpt><trkpt lat="44.19476467708897" lon="11.871647972871745"><ele>247.5</ele><time>2026-05-01T14:47:56.001Z</time></trkpt><trkpt lat="44.19472482621092" lon="11.871533134002743"><ele>246.33333333333331</ele><time>2026-05-01T14:47:57.001Z</time></trkpt><trkpt lat="44.194688077417126" lon="11.871427234500223"><ele>245.16666666666666</ele><time>2026-05-01T14:47:58.001Z</time></trkpt><trkpt lat="44.194652018950876" lon="11.871330772355208"><ele>244.0</ele><time>2026-05-01T14:47:59.001Z</time></trkpt><trkpt lat="44.19461274299908" lon="11.871236030396553"><ele>243.99999999999997</ele><time>2026-05-01T14:48:00.001Z</time></trkpt><trkpt lat="44.19456862624827" lon="11.871145893399532"><ele>244.0</ele><time>2026-05-01T14:48:01.002Z</time></trkpt><trkpt lat="44.19451614090542" lon="11.871062256692143"><ele>244.0</ele><time>2026-05-01T14:48:02.002Z</time></trkpt><trkpt lat="44.19445408815784" lon="11.870980285946802"><ele>244.0</ele><time>2026-05-01T14:48:03.002Z</time></trkpt><trkpt lat="44.19438150432039" lon="11.87090009669135"><ele>243.99999999999997</ele><time>2026-05-01T14:48:04.002Z</time></trkpt><trkpt lat="44.19430427086826" lon="11.87082252399296"><ele>244.0</ele><time>2026-05-01T14:48:05.002Z</time></trkpt><trkpt lat="44.19422935379352" lon="11.870748340843146"><ele>243.99999999999997</ele><time>2026-05-01T14:48:06.002Z</time></trkpt><trkpt lat="44.19415651751897" lon="11.870675776763985"><ele>244.0</ele><time>2026-05-01T14:48:07.002Z</time></trkpt><trkpt lat="44.19408533092688" lon="11.870604533651775"><ele>244.0</ele><time>2026-05-01T14:48:08.002Z</time></trkpt><trkpt lat="44.194016114590326" lon="11.870536844675147"><ele>244.0</ele><time>2026-05-01T14:48:09.002Z</time></trkpt><trkpt lat="44.19394582009789" lon="11.870476779105035"><ele>243.99999999999997</ele><time>2026-05-01T14:48:10.002Z</time></trkpt><trkpt lat="44.19387586720347" lon="11.870418504020865"><ele>244.0</ele><time>2026-05-01T14:48:11.002Z</time></trkpt><trkpt lat="44.19380448840114" lon="11.870370327823693"><ele>243.99999999999997</ele><time>2026-05-01T14:48:12.002Z</time></trkpt><trkpt lat="44.19372446819271" lon="11.870330744690696"><ele>244.0</ele><time>2026-05-01T14:48:13.002Z</time></trkpt><trkpt lat="44.1936387005838" lon="11.870297744829937"><ele>244.0</ele><time>2026-05-01T14:48:14.002Z</time></trkpt><trkpt lat="44.193555812491105" lon="11.870277424825472"><ele>244.0</ele><time>2026-05-01T14:48:15.002Z</time></trkpt><trkpt lat="44.19347667195953" lon="11.870254092674697"><ele>243.99999999999997</ele><time>2026-05-01T14:48:16.002Z</time></trkpt><trkpt lat="44.19340652761759" lon="11.870233412751567"><ele>244.0</ele><time>2026-05-01T14:48:17.002Z</time></trkpt><trkpt lat="44.19333271084583" lon="11.870216080623997"><ele>243.99999999999997</ele><time>2026-05-01T14:48:18.002Z</time></trkpt><trkpt lat="44.19325644292706" lon="11.870201787802081"><ele>244.0</ele><time>2026-05-01T14:48:19.002Z</time></trkpt><trkpt lat="44.19317127307672" lon="11.87019294077536"><ele>244.0</ele><time>2026-05-01T14:48:20.002Z</time></trkpt><trkpt lat="44.19308517468095" lon="11.870191358884176"><ele>244.0</ele><time>2026-05-01T14:48:20.999Z</time></trkpt><trkpt lat="44.192993709869725" lon="11.870197979768369"><ele>243.99999999999997</ele><time>2026-05-01T14:48:21.999Z</time></trkpt><trkpt lat="44.19290654644664" lon="11.870208997292902"><ele>244.0</ele><time>2026-05-01T14:48:22.999Z</time></trkpt><trkpt lat="44.19281837432009" lon="11.870220142314949"><ele>245.0</ele><time>2026-05-01T14:48:23.999Z</time></trkpt><trkpt lat="44.19272825321637" lon="11.870228312269612"><ele>245.99999999999997</ele><time>2026-05-01T14:48:24.999Z</time></trkpt><trkpt lat="44.192634911317526" lon="11.870233694840362"><ele>246.99999999999997</ele><time>2026-05-01T14:48:25.999Z</time></trkpt><trkpt lat="44.19253291198666" lon="11.870237286300734"><ele>248.0</ele><time>2026-05-01T14:48:26.999Z</time></trkpt><trkpt lat="44.19242669738021" lon="11.87023755575601"><ele>249.0</ele><time>2026-05-01T14:48:27.999Z</time></trkpt><trkpt lat="44.19233153807647" lon="11.870235393048569"><ele>251.2</ele><time>2026-05-01T14:48:28.999Z</time></trkpt><trkpt lat="44.19224732212887" lon="11.870235976248221"><ele>253.39999999999998</ele><time>2026-05-01T14:48:29.999Z</time></trkpt><trkpt lat="44.19215983098791" lon="11.870243868822914"><ele>255.6</ele><time>2026-05-01T14:48:30.999Z</time></trkpt><trkpt lat="44.19206489103019" lon="11.870279474149134"><ele>257.8</ele><time>2026-05-01T14:48:31.999Z</time></trkpt><trkpt lat="44.19197315740581" lon="11.87033378975157"><ele>260.0</ele><time>2026-05-01T14:48:32.999Z</time></trkpt><trkpt lat="44.191881133584836" lon="11.870386046703441"><ele>260.0</ele><time>2026-05-01T14:48:33.999Z</time></trkpt><trkpt lat="44.191793370698456" lon="11.87043449265397"><ele>260.0</ele><time>2026-05-01T14:48:35Z</time></trkpt><trkpt lat="44.1917102981249" lon="11.870480347965714"><ele>260.0</ele><time>2026-05-01T14:48:36Z</time></trkpt><trkpt lat="44.19162587587468" lon="11.870545622856644"><ele>260.0</ele><time>2026-05-01T14:48:37Z</time></trkpt><trkpt lat="44.191548646222195" lon="11.870566166614703"><ele>260.0</ele><time>2026-05-01T14:48:38Z</time></trkpt><trkpt lat="44.1914732218903" lon="11.870603692069254"><ele>260.0</ele><time>2026-05-01T14:48:39Z</time></trkpt><trkpt lat="44.191410662513285" lon="11.870654332472535"><ele>260.2</ele><time>2026-05-01T14:48:40Z</time></trkpt><trkpt lat="44.19130886899544" lon="11.87064452809949"><ele>260.4</ele><time>2026-05-01T14:48:42Z</time></trkpt><trkpt lat="44.19119002133326" lon="11.870611612116775"><ele>260.6</ele><time>2026-05-01T14:48:44Z</time></trkpt><trkpt lat="44.19114874329989" lon="11.870538929260999"><ele>260.8</ele><time>2026-05-01T14:48:45Z</time></trkpt><trkpt lat="44.191130221875795" lon="11.87042636940271"><ele>261.0</ele><time>2026-05-01T14:48:46Z</time></trkpt><trkpt lat="44.1911158492179" lon="11.870320643002225"><ele>261.0</ele><time>2026-05-01T14:48:47Z</time></trkpt><trkpt lat="44.19110115197051" lon="11.870225565486605"><ele>261.0</ele><time>2026-05-01T14:48:48Z</time></trkpt><trkpt lat="44.19107915752382" lon="11.87012000807239"><ele>261.0</ele><time>2026-05-01T14:48:49Z</time></trkpt><trkpt lat="44.19108117335589" lon="11.870012630667297"><ele>261.0</ele><time>2026-05-01T14:48:50Z</time></trkpt><trkpt lat="44.19109694227415" lon="11.869919141552906"><ele>261.0</ele><time>2026-05-01T14:48:51Z</time></trkpt><trkpt lat="44.19110301753242" lon="11.869824527530236"><ele>261.0</ele><time>2026-05-01T14:48:52Z</time></trkpt><trkpt lat="44.191105127769276" lon="11.869725928107549"><ele>261.0</ele><time>2026-05-01T14:48:53Z</time></trkpt><trkpt lat="44.191106239952276" lon="11.869632536375889"><ele>263.6666666666667</ele><time>2026-05-01T14:48:54Z</time></trkpt><trkpt lat="44.19110511801987" lon="11.869536274632244"><ele>266.3333333333333</ele><time>2026-05-01T14:48:55Z</time></trkpt><trkpt lat="44.19107569724571" lon="11.869372141737069"><ele>269.0</ele><time>2026-05-01T14:48:57Z</time></trkpt><trkpt lat="44.191019980628475" lon="11.869306378733137"><ele>271.66666666666663</ele><time>2026-05-01T14:48:58Z</time></trkpt><trkpt lat="44.19097465350404" lon="11.86923761032852"><ele>274.3333333333333</ele><time>2026-05-01T14:48:59Z</time></trkpt><trkpt lat="44.190917172404276" lon="11.869188971909164"><ele>277.0</ele><time>2026-05-01T14:49:00Z</time></trkpt><trkpt lat="44.19083971099875" lon="11.869131110129597"><ele>277.8333333333333</ele><time>2026-05-01T14:49:01Z</time></trkpt><trkpt lat="44.190764573694025" lon="11.869046959904653"><ele>278.66666666666663</ele><time>2026-05-01T14:49:02Z</time></trkpt><trkpt lat="44.190694333239" lon="11.86899034731377"><ele>279.5</ele><time>2026-05-01T14:49:03Z</time></trkpt><trkpt lat="44.190623082960315" lon="11.86893292081786"><ele>280.3333333333333</ele><time>2026-05-01T14:49:04Z</time></trkpt><trkpt lat="44.19054876282609" lon="11.868872438517467"><ele>281.1666666666667</ele><time>2026-05-01T14:49:05Z</time></trkpt><trkpt lat="44.19047826451508" lon="11.868814008845646"><ele>282.0</ele><time>2026-05-01T14:49:06Z</time></trkpt><trkpt lat="44.19040613210963" lon="11.868754224745349"><ele>283.0</ele><time>2026-05-01T14:49:07Z</time></trkpt><trkpt lat="44.19033637923483" lon="11.868696412888282"><ele>284.0</ele><time>2026-05-01T14:49:08Z</time></trkpt><trkpt lat="44.19026856900467" lon="11.868642370813397"><ele>285.0</ele><time>2026-05-01T14:49:09Z</time></trkpt><trkpt lat="44.19020241386375" lon="11.868589701259308"><ele>286.0</ele><time>2026-05-01T14:49:10Z</time></trkpt><trkpt lat="44.190136999850424" lon="11.868537621756012"><ele>287.0</ele><time>2026-05-01T14:49:11Z</time></trkpt><trkpt lat="44.19006794271001" lon="11.86848300746468"><ele>288.0</ele><time>2026-05-01T14:49:12Z</time></trkpt><trkpt lat="44.189998186380485" lon="11.868429627071757"><ele>288.8333333333333</ele><time>2026-05-01T14:49:13Z</time></trkpt><trkpt lat="44.18992616680644" lon="11.868378083999813"><ele>289.6666666666667</ele><time>2026-05-01T14:49:14Z</time></trkpt><trkpt lat="44.189851737546014" lon="11.868327595252607"><ele>290.5</ele><time>2026-05-01T14:49:15Z</time></trkpt><trkpt lat="44.18977576318468" lon="11.868276058352514"><ele>291.33333333333337</ele><time>2026-05-01T14:49:16Z</time></trkpt><trkpt lat="44.189705572748665" lon="11.868226622129901"><ele>292.1666666666667</ele><time>2026-05-01T14:49:17.001Z</time></trkpt><trkpt lat="44.1896354194893" lon="11.868172380822974"><ele>293.0</ele><time>2026-05-01T14:49:18.001Z</time></trkpt><trkpt lat="44.18956895448204" lon="11.86811292160253"><ele>294.5</ele><time>2026-05-01T14:49:19.001Z</time></trkpt><trkpt lat="44.18950301246181" lon="11.868051887353005"><ele>296.0</ele><time>2026-05-01T14:49:20.001Z</time></trkpt><trkpt lat="44.189435174436305" lon="11.8679861976893"><ele>297.5</ele><time>2026-05-01T14:49:21.001Z</time></trkpt><trkpt lat="44.18936911163163" lon="11.867918085870544"><ele>299.0</ele><time>2026-05-01T14:49:22.001Z</time></trkpt><trkpt lat="44.18930273308459" lon="11.867846399884522"><ele>300.5</ele><time>2026-05-01T14:49:23.001Z</time></trkpt><trkpt lat="44.18923640689896" lon="11.867774770425006"><ele>302.0</ele><time>2026-05-01T14:49:24.001Z</time></trkpt><trkpt lat="44.18917429280214" lon="11.867708853018852"><ele>302.00000000000006</ele><time>2026-05-01T14:49:25.001Z</time></trkpt><trkpt lat="44.18911296949286" lon="11.867647066658442"><ele>302.0</ele><time>2026-05-01T14:49:26.001Z</time></trkpt><trkpt lat="44.1890542167515" lon="11.867589862364675"><ele>302.0</ele><time>2026-05-01T14:49:27.001Z</time></trkpt><trkpt lat="44.1889927867892" lon="11.8675495288337"><ele>302.0</ele><time>2026-05-01T14:49:28.001Z</time></trkpt><trkpt lat="44.1889379916775" lon="11.867504815885248"><ele>302.0</ele><time>2026-05-01T14:49:29.001Z</time></trkpt><trkpt lat="44.18888721983247" lon="11.867426167774957"><ele>302.00000000000006</ele><time>2026-05-01T14:49:31.001Z</time></trkpt><trkpt lat="44.18882536302424" lon="11.86736470751276"><ele>302.0</ele><time>2026-05-01T14:50:01.001Z</time></trkpt><trkpt lat="44.18876903710126" lon="11.867305605713252"><ele>305.0</ele><time>2026-05-01T14:50:03.001Z</time></trkpt><trkpt lat="44.188687688023506" lon="11.867208304742178"><ele>308.0</ele><time>2026-05-01T14:50:05.001Z</time></trkpt><trkpt lat="44.188696968642525" lon="11.867114493620706"><ele>311.0</ele><time>2026-05-01T14:50:06.001Z</time></trkpt><trkpt lat="44.188711647582906" lon="11.867007415028807"><ele>314.0</ele><time>2026-05-01T14:50:07.001Z</time></trkpt><trkpt lat="44.188741477718864" lon="11.866897205234446"><ele>317.0</ele><time>2026-05-01T14:50:08.001Z</time></trkpt><trkpt lat="44.18877722183054" lon="11.86679713347563"><ele>320.0</ele><time>2026-05-01T14:50:09.001Z</time></trkpt><trkpt lat="44.1888104934923" lon="11.866706002398926"><ele>320.6666666666667</ele><time>2026-05-01T14:50:10.001Z</time></trkpt><trkpt lat="44.18885060608675" lon="11.866619920780584"><ele>321.33333333333337</ele><time>2026-05-01T14:50:11.002Z</time></trkpt><trkpt lat="44.18889105869906" lon="11.8665387868064"><ele>322.0</ele><time>2026-05-01T14:50:12.002Z</time></trkpt><trkpt lat="44.188930240380344" lon="11.866447839975214"><ele>322.6666666666667</ele><time>2026-05-01T14:50:13.002Z</time></trkpt><trkpt lat="44.18897420173886" lon="11.866347330998051"><ele>323.3333333333333</ele><time>2026-05-01T14:50:14.002Z</time></trkpt><trkpt lat="44.18901684510223" lon="11.866237689621562"><ele>324.0</ele><time>2026-05-01T14:50:15.002Z</time></trkpt><trkpt lat="44.18905510341899" lon="11.866112877436827"><ele>322.2</ele><time>2026-05-01T14:50:16.002Z</time></trkpt><trkpt lat="44.189093722392684" lon="11.86598985367665"><ele>320.4</ele><time>2026-05-01T14:50:17.002Z</time></trkpt><trkpt lat="44.18913845754517" lon="11.86586389316242"><ele>318.6</ele><time>2026-05-01T14:50:18.002Z</time></trkpt><trkpt lat="44.189187228390516" lon="11.865731028514903"><ele>316.8</ele><time>2026-05-01T14:50:19.002Z</time></trkpt><trkpt lat="44.18924130979985" lon="11.865588279955714"><ele>315.0</ele><time>2026-05-01T14:50:20.002Z</time></trkpt><trkpt lat="44.18929703251156" lon="11.865446150347987"><ele>315.0</ele><time>2026-05-01T14:50:21.002Z</time></trkpt><trkpt lat="44.18935176786129" lon="11.865298741951474"><ele>315.0</ele><time>2026-05-01T14:50:22.002Z</time></trkpt><trkpt lat="44.189422313491676" lon="11.865144786003476"><ele>315.0</ele><time>2026-05-01T14:50:23.002Z</time></trkpt><trkpt lat="44.18948158186527" lon="11.86502019267297"><ele>315.0</ele><time>2026-05-01T14:50:24.002Z</time></trkpt><trkpt lat="44.18955113164772" lon="11.86488562227444"><ele>315.8</ele><time>2026-05-01T14:50:25.002Z</time></trkpt><trkpt lat="44.189617867585824" lon="11.864762125492296"><ele>316.6</ele><time>2026-05-01T14:50:26.002Z</time></trkpt><trkpt lat="44.18968015768273" lon="11.864647969533987"><ele>317.4</ele><time>2026-05-01T14:50:27Z</time></trkpt><trkpt lat="44.18974756609991" lon="11.864525590041676"><ele>318.2</ele><time>2026-05-01T14:50:28Z</time></trkpt><trkpt lat="44.18981634619005" lon="11.86440559502503"><ele>319.0</ele><time>2026-05-01T14:50:29Z</time></trkpt><trkpt lat="44.18988435385177" lon="11.864297031672788"><ele>317.8</ele><time>2026-05-01T14:50:30Z</time></trkpt><trkpt lat="44.18995292249552" lon="11.864190964017212"><ele>316.59999999999997</ele><time>2026-05-01T14:50:31Z</time></trkpt><trkpt lat="44.19004153995781" lon="11.864074077323961"><ele>315.4</ele><time>2026-05-01T14:50:32Z</time></trkpt><trkpt lat="44.19013178364461" lon="11.863965039270298"><ele>314.2</ele><time>2026-05-01T14:50:33Z</time></trkpt><trkpt lat="44.19020859308913" lon="11.863874034551563"><ele>313.0</ele><time>2026-05-01T14:50:34Z</time></trkpt><trkpt lat="44.19028398338655" lon="11.863792634978287"><ele>313.0</ele><time>2026-05-01T14:50:35Z</time></trkpt><trkpt lat="44.19034517111273" lon="11.863739758264563"><ele>313.0</ele><time>2026-05-01T14:50:36Z</time></trkpt><trkpt lat="44.190412018199055" lon="11.86366008199502"><ele>313.0</ele><time>2026-05-01T14:50:37Z</time></trkpt><trkpt lat="44.19046651763307" lon="11.863596659213401"><ele>313.0</ele><time>2026-05-01T14:50:38Z</time></trkpt><trkpt lat="44.19054066429353" lon="11.863498190041668"><ele>313.0</ele><time>2026-05-01T14:50:40Z</time></trkpt><trkpt lat="44.19060994778135" lon="11.863436789280689"><ele>313.0</ele><time>2026-05-01T14:50:43Z</time></trkpt><trkpt lat="44.19067963064777" lon="11.863412112885728"><ele>312.8</ele><time>2026-05-01T14:51:38.001Z</time></trkpt><trkpt lat="44.1907617478385" lon="11.86332126933951"><ele>312.6</ele><time>2026-05-01T14:51:40.001Z</time></trkpt><trkpt lat="44.190836376006494" lon="11.863268597782707"><ele>312.4</ele><time>2026-05-01T14:51:41.001Z</time></trkpt><trkpt lat="44.190912527594456" lon="11.863197589400809"><ele>312.2</ele><time>2026-05-01T14:51:42.001Z</time></trkpt><trkpt lat="44.19097680322221" lon="11.863120370269955"><ele>312.0</ele><time>2026-05-01T14:51:43.001Z</time></trkpt><trkpt lat="44.191034727942835" lon="11.863016092857928"><ele>312.0</ele><time>2026-05-01T14:51:44.001Z</time></trkpt><trkpt lat="44.191113640498536" lon="11.862902390580347"><ele>312.0</ele><time>2026-05-01T14:51:45.001Z</time></trkpt><trkpt lat="44.19118518879148" lon="11.862757071189204"><ele>312.0</ele><time>2026-05-01T14:51:46.001Z</time></trkpt><trkpt lat="44.19123851763169" lon="11.862631037317149"><ele>312.0</ele><time>2026-05-01T14:51:47.001Z</time></trkpt><trkpt lat="44.191301317459725" lon="11.862498011653056"><ele>313.6</ele><time>2026-05-01T14:51:48.001Z</time></trkpt><trkpt lat="44.19136110986664" lon="11.86238041523648"><ele>315.2</ele><time>2026-05-01T14:51:49.001Z</time></trkpt><trkpt lat="44.19141627842727" lon="11.862284150849632"><ele>316.8</ele><time>2026-05-01T14:51:50.001Z</time></trkpt><trkpt lat="44.19146921324324" lon="11.862191249111284"><ele>318.4</ele><time>2026-05-01T14:51:51.001Z</time></trkpt><trkpt lat="44.191520392643916" lon="11.862080108865914"><ele>320.0</ele><time>2026-05-01T14:51:52.001Z</time></trkpt><trkpt lat="44.191560111763586" lon="11.861969790141647"><ele>316.0</ele><time>2026-05-01T14:51:53.001Z</time></trkpt><trkpt lat="44.191602075585564" lon="11.861875893010406"><ele>312.0</ele><time>2026-05-01T14:51:54.001Z</time></trkpt><trkpt lat="44.19164852222233" lon="11.861770870800754"><ele>308.0</ele><time>2026-05-01T14:51:55.001Z</time></trkpt><trkpt lat="44.191709205663436" lon="11.861686033240517"><ele>304.0</ele><time>2026-05-01T14:51:56.001Z</time></trkpt><trkpt lat="44.191743849677984" lon="11.861585127913632"><ele>300.0</ele><time>2026-05-01T14:51:57.001Z</time></trkpt><trkpt lat="44.19180343232422" lon="11.861507077726149"><ele>296.0</ele><time>2026-05-01T14:51:58.001Z</time></trkpt><trkpt lat="44.19186676859388" lon="11.861445841905638"><ele>296.0</ele><time>2026-05-01T14:51:59.001Z</time></trkpt><trkpt lat="44.191954302119115" lon="11.861415899820955"><ele>296.0</ele><time>2026-05-01T14:52:00.001Z</time></trkpt><trkpt lat="44.19205646452149" lon="11.861438061527686"><ele>296.0</ele><time>2026-05-01T14:52:01.001Z</time></trkpt><trkpt lat="44.19213087107952" lon="11.861436498817657"><ele>296.0</ele><time>2026-05-01T14:52:02.001Z</time></trkpt><trkpt lat="44.19230024603869" lon="11.86137193471839"><ele>296.0</ele><time>2026-05-01T14:52:04.001Z</time></trkpt><trkpt lat="44.19239910950906" lon="11.861305011675285"><ele>292.40000000000003</ele><time>2026-05-01T14:52:05.002Z</time></trkpt><trkpt lat="44.192490699588134" lon="11.861271871066311"><ele>288.8</ele><time>2026-05-01T14:52:06.002Z</time></trkpt><trkpt lat="44.192590740192536" lon="11.86118246281827"><ele>285.20000000000005</ele><time>2026-05-01T14:52:07.002Z</time></trkpt><trkpt lat="44.19268429796819" lon="11.861126231958856"><ele>281.6</ele><time>2026-05-01T14:52:08.002Z</time></trkpt><trkpt lat="44.1927851031095" lon="11.861050749081468"><ele>278.0</ele><time>2026-05-01T14:52:09.002Z</time></trkpt><trkpt lat="44.19287855568471" lon="11.860973701788065"><ele>276.4</ele><time>2026-05-01T14:52:10.002Z</time></trkpt><trkpt lat="44.192978046060034" lon="11.860924016295732"><ele>274.8</ele><time>2026-05-01T14:52:11.002Z</time></trkpt><trkpt lat="44.193061904514366" lon="11.860823930396645"><ele>273.2</ele><time>2026-05-01T14:52:12.002Z</time></trkpt><trkpt lat="44.19313441378803" lon="11.860708901219008"><ele>271.6</ele><time>2026-05-01T14:52:13.002Z</time></trkpt><trkpt lat="44.193196397439785" lon="11.86059909369788"><ele>270.0</ele><time>2026-05-01T14:52:14.002Z</time></trkpt><trkpt lat="44.19323928783072" lon="11.860467465364728"><ele>270.0</ele><time>2026-05-01T14:52:15.002Z</time></trkpt><trkpt lat="44.1932956625865" lon="11.860336498611685"><ele>270.0</ele><time>2026-05-01T14:52:16.002Z</time></trkpt><trkpt lat="44.193363347032175" lon="11.860213124067918"><ele>270.0</ele><time>2026-05-01T14:52:17.002Z</time></trkpt><trkpt lat="44.19341256508153" lon="11.860074051478621"><ele>270.0</ele><time>2026-05-01T14:52:18.002Z</time></trkpt><trkpt lat="44.19346935224065" lon="11.859936050777211"><ele>270.0</ele><time>2026-05-01T14:52:19.002Z</time></trkpt><trkpt lat="44.1935304802957" lon="11.85978661896287"><ele>272.8</ele><time>2026-05-01T14:52:20.002Z</time></trkpt><trkpt lat="44.19358932882805" lon="11.859642686042225"><ele>275.6</ele><time>2026-05-01T14:52:21.002Z</time></trkpt><trkpt lat="44.19364528087421" lon="11.859511896921159"><ele>278.4</ele><time>2026-05-01T14:52:22.002Z</time></trkpt><trkpt lat="44.1936991282047" lon="11.859383803877023"><ele>281.2</ele><time>2026-05-01T14:52:23.002Z</time></trkpt><trkpt lat="44.1937504424627" lon="11.859269804319327"><ele>284.0</ele><time>2026-05-01T14:52:24.002Z</time></trkpt><trkpt lat="44.193806287857896" lon="11.85916320357624"><ele>282.2</ele><time>2026-05-01T14:52:25.002Z</time></trkpt><trkpt lat="44.19387167638061" lon="11.859053091231797"><ele>280.4</ele><time>2026-05-01T14:52:26.002Z</time></trkpt><trkpt lat="44.193957505045525" lon="11.858948435149216"><ele>278.6</ele><time>2026-05-01T14:52:27.002Z</time></trkpt><trkpt lat="44.19404203248519" lon="11.85885931866912"><ele>276.8</ele><time>2026-05-01T14:52:28.002Z</time></trkpt><trkpt lat="44.19412338652946" lon="11.858790136398097"><ele>275.0</ele><time>2026-05-01T14:52:29.002Z</time></trkpt><trkpt lat="44.19420880017663" lon="11.858771309104737"><ele>275.0</ele><time>2026-05-01T14:52:30.002Z</time></trkpt><trkpt lat="44.194296264596275" lon="11.858817088615595"><ele>275.0</ele><time>2026-05-01T14:52:31.002Z</time></trkpt><trkpt lat="44.19436756535339" lon="11.85885676060145"><ele>275.0</ele><time>2026-05-01T14:52:32.002Z</time></trkpt><trkpt lat="44.19444566672184" lon="11.858918146437254"><ele>275.0</ele><time>2026-05-01T14:52:33Z</time></trkpt><trkpt lat="44.19453928829027" lon="11.858956983669636"><ele>275.0</ele><time>2026-05-01T14:52:34Z</time></trkpt><trkpt lat="44.19460743303316" lon="11.859019530391569"><ele>275.0</ele><time>2026-05-01T14:52:35Z</time></trkpt><trkpt lat="44.1946793446282" lon="11.859065717267338"><ele>275.0</ele><time>2026-05-01T14:52:36Z</time></trkpt><trkpt lat="44.19475871497863" lon="11.85910054259155"><ele>275.0</ele><time>2026-05-01T14:52:37Z</time></trkpt><trkpt lat="44.19483613511669" lon="11.859129377284683"><ele>275.0</ele><time>2026-05-01T14:52:38Z</time></trkpt><trkpt lat="44.194914703339535" lon="11.859136052744255"><ele>275.0</ele><time>2026-05-01T14:52:39Z</time></trkpt><trkpt lat="44.194996360055704" lon="11.859111608428357"><ele>275.0</ele><time>2026-05-01T14:52:40Z</time></trkpt><trkpt lat="44.195089624323884" lon="11.859091738507741"><ele>275.0</ele><time>2026-05-01T14:52:41Z</time></trkpt><trkpt lat="44.19517696567345" lon="11.85902565568426"><ele>275.2</ele><time>2026-05-01T14:52:42Z</time></trkpt><trkpt lat="44.19527229724555" lon="11.858986527106973"><ele>275.4</ele><time>2026-05-01T14:52:43Z</time></trkpt><trkpt lat="44.195360895640555" lon="11.858925478818099"><ele>275.6</ele><time>2026-05-01T14:52:44Z</time></trkpt><trkpt lat="44.1954605791497" lon="11.858892408082298"><ele>275.8</ele><time>2026-05-01T14:52:45Z</time></trkpt><trkpt lat="44.195559395743665" lon="11.85883052874458"><ele>276.0</ele><time>2026-05-01T14:52:46Z</time></trkpt><trkpt lat="44.19565525481245" lon="11.858783678251358"><ele>274.5</ele><time>2026-05-01T14:52:47Z</time></trkpt><trkpt lat="44.19573433576556" lon="11.858732672940135"><ele>273.0</ele><time>2026-05-01T14:52:48Z</time></trkpt><trkpt lat="44.19581688715527" lon="11.85868738652282"><ele>271.5</ele><time>2026-05-01T14:52:49Z</time></trkpt><trkpt lat="44.19589498071683" lon="11.858637139520042"><ele>270.0</ele><time>2026-05-01T14:52:50Z</time></trkpt><trkpt lat="44.19596973427219" lon="11.858582361983872"><ele>268.5</ele><time>2026-05-01T14:52:51Z</time></trkpt><trkpt lat="44.19603394538994" lon="11.858528959924131"><ele>267.0</ele><time>2026-05-01T14:52:52Z</time></trkpt><trkpt lat="44.19610267704597" lon="11.858479201592097"><ele>266.5</ele><time>2026-05-01T14:52:53Z</time></trkpt><trkpt lat="44.19617575103079" lon="11.858431659832465"><ele>266.0</ele><time>2026-05-01T14:52:54Z</time></trkpt><trkpt lat="44.196245682313986" lon="11.858382577986513"><ele>265.5</ele><time>2026-05-01T14:52:55Z</time></trkpt><trkpt lat="44.19632232908675" lon="11.858341650232004"><ele>265.0</ele><time>2026-05-01T14:52:56Z</time></trkpt><trkpt lat="44.196396865363404" lon="11.858311081954609"><ele>264.5</ele><time>2026-05-01T14:52:57Z</time></trkpt><trkpt lat="44.196476850566704" lon="11.858315330140627"><ele>264.0</ele><time>2026-05-01T14:52:58Z</time></trkpt><trkpt lat="44.19656273205862" lon="11.85829110355353"><ele>264.0</ele><time>2026-05-01T14:52:59Z</time></trkpt><trkpt lat="44.19665280029095" lon="11.858296762075362"><ele>264.0</ele><time>2026-05-01T14:53:00Z</time></trkpt><trkpt lat="44.196743765426405" lon="11.858312563001595"><ele>264.0</ele><time>2026-05-01T14:53:01Z</time></trkpt><trkpt lat="44.19683644816546" lon="11.858329093132577"><ele>264.0</ele><time>2026-05-01T14:53:02Z</time></trkpt><trkpt lat="44.19692693965603" lon="11.858347950370646"><ele>264.0</ele><time>2026-05-01T14:53:03.001Z</time></trkpt><trkpt lat="44.19701689555805" lon="11.858366033482874"><ele>264.0</ele><time>2026-05-01T14:53:04.001Z</time></trkpt><trkpt lat="44.197103907358375" lon="11.858385805980678"><ele>264.0</ele><time>2026-05-01T14:53:05.001Z</time></trkpt><trkpt lat="44.19719133666639" lon="11.85841396661869"><ele>264.0</ele><time>2026-05-01T14:53:06.001Z</time></trkpt><trkpt lat="44.19727934222693" lon="11.858435641941124"><ele>264.0</ele><time>2026-05-01T14:53:07.001Z</time></trkpt><trkpt lat="44.197370190269226" lon="11.85845804281921"><ele>264.0</ele><time>2026-05-01T14:53:08.001Z</time></trkpt><trkpt lat="44.19746673179694" lon="11.858482614898433"><ele>261.5</ele><time>2026-05-01T14:53:09.001Z</time></trkpt><trkpt lat="44.197560744470174" lon="11.858503748865491"><ele>259.0</ele><time>2026-05-01T14:53:10.001Z</time></trkpt><trkpt lat="44.19765605903835" lon="11.858522652512825"><ele>256.5</ele><time>2026-05-01T14:53:11.001Z</time></trkpt><trkpt lat="44.1977453141968" lon="11.858540911375146"><ele>254.0</ele><time>2026-05-01T14:53:12.001Z</time></trkpt><trkpt lat="44.19782914435593" lon="11.858560107422592"><ele>251.5</ele><time>2026-05-01T14:53:13.001Z</time></trkpt><trkpt lat="44.19791002349217" lon="11.858582677774594"><ele>249.0</ele><time>2026-05-01T14:53:14.001Z</time></trkpt><trkpt lat="44.19798196934921" lon="11.85860699920239"><ele>249.0</ele><time>2026-05-01T14:53:15.001Z</time></trkpt><trkpt lat="44.198054428621624" lon="11.858645206588514"><ele>249.0</ele><time>2026-05-01T14:53:16.001Z</time></trkpt><trkpt lat="44.198115630772875" lon="11.85870443094837"><ele>249.0</ele><time>2026-05-01T14:53:17.001Z</time></trkpt><trkpt lat="44.19816108334693" lon="11.858795308920008"><ele>249.0</ele><time>2026-05-01T14:53:18.001Z</time></trkpt><trkpt lat="44.19819423875583" lon="11.85889925566189"><ele>249.0</ele><time>2026-05-01T14:53:19.001Z</time></trkpt><trkpt lat="44.1982090875325" lon="11.859011500612803"><ele>249.0</ele><time>2026-05-01T14:53:20.001Z</time></trkpt><trkpt lat="44.19819817116051" lon="11.859129273452375"><ele>247.5</ele><time>2026-05-01T14:53:21.001Z</time></trkpt><trkpt lat="44.19822376608076" lon="11.859242085103507"><ele>246.0</ele><time>2026-05-01T14:53:22.001Z</time></trkpt><trkpt lat="44.19823977457222" lon="11.859354269807762"><ele>244.5</ele><time>2026-05-01T14:53:23.001Z</time></trkpt><trkpt lat="44.19827810067423" lon="11.859462561798885"><ele>243.0</ele><time>2026-05-01T14:53:24.001Z</time></trkpt><trkpt lat="44.19833199204788" lon="11.859556645503945"><ele>241.5</ele><time>2026-05-01T14:53:25.001Z</time></trkpt><trkpt lat="44.19840298532553" lon="11.859660155697794"><ele>240.0</ele><time>2026-05-01T14:53:26.001Z</time></trkpt><trkpt lat="44.19848182843188" lon="11.85976469701849"><ele>238.0</ele><time>2026-05-01T14:53:27.001Z</time></trkpt><trkpt lat="44.19856782386846" lon="11.859885121032418"><ele>236.0</ele><time>2026-05-01T14:53:28.001Z</time></trkpt><trkpt lat="44.19866443737332" lon="11.860013276228349"><ele>234.0</ele><time>2026-05-01T14:53:29.001Z</time></trkpt><trkpt lat="44.19876047073051" lon="11.860143997578758"><ele>232.0</ele><time>2026-05-01T14:53:30.001Z</time></trkpt><trkpt lat="44.19886089774878" lon="11.860276954868114"><ele>229.5</ele><time>2026-05-01T14:53:31.001Z</time></trkpt><trkpt lat="44.198964081892804" lon="11.860418965189044"><ele>227.0</ele><time>2026-05-01T14:53:32.001Z</time></trkpt><trkpt lat="44.19906470714169" lon="11.860552687234057"><ele>224.5</ele><time>2026-05-01T14:53:33.001Z</time></trkpt><trkpt lat="44.19916476857422" lon="11.860672472937598"><ele>222.0</ele><time>2026-05-01T14:53:34.001Z</time></trkpt><trkpt lat="44.199263431554854" lon="11.860775416468167"><ele>222.0</ele><time>2026-05-01T14:53:35.001Z</time></trkpt><trkpt lat="44.19936314871459" lon="11.86085915624106"><ele>222.0</ele><time>2026-05-01T14:53:36.001Z</time></trkpt><trkpt lat="44.19946595132349" lon="11.860921982301164"><ele>222.0</ele><time>2026-05-01T14:53:37.001Z</time></trkpt><trkpt lat="44.19956769785092" lon="11.860976243434987"><ele>222.0</ele><time>2026-05-01T14:53:38.001Z</time></trkpt><trkpt lat="44.199669408775634" lon="11.861024846092864"><ele>222.0</ele><time>2026-05-01T14:53:39.001Z</time></trkpt><trkpt lat="44.19976377923733" lon="11.861069278340976"><ele>221.6</ele><time>2026-05-01T14:53:40.001Z</time></trkpt><trkpt lat="44.19985702908681" lon="11.861112932165367"><ele>221.2</ele><time>2026-05-01T14:53:41.001Z</time></trkpt><trkpt lat="44.199950288212776" lon="11.861165357677828"><ele>220.8</ele><time>2026-05-01T14:53:42.001Z</time></trkpt><trkpt lat="44.200039951318146" lon="11.861234957013465"><ele>220.4</ele><time>2026-05-01T14:53:43.001Z</time></trkpt><trkpt lat="44.20012157117691" lon="11.8613162341317"><ele>220.0</ele><time>2026-05-01T14:53:44.001Z</time></trkpt><trkpt lat="44.200203159647" lon="11.861399034618834"><ele>220.0</ele><time>2026-05-01T14:53:45.001Z</time></trkpt><trkpt lat="44.20028479012657" lon="11.8614796608124"><ele>220.0</ele><time>2026-05-01T14:53:46.001Z</time></trkpt><trkpt lat="44.20037203912019" lon="11.861567041276805"><ele>220.0</ele><time>2026-05-01T14:53:47.001Z</time></trkpt><trkpt lat="44.20047801244309" lon="11.861598216432048"><ele>220.0</ele><time>2026-05-01T14:53:48.001Z</time></trkpt><trkpt lat="44.20058110878618" lon="11.861646750435956"><ele>220.0</ele><time>2026-05-01T14:53:49.001Z</time></trkpt><trkpt lat="44.2006787651588" lon="11.86169958018354"><ele>219.0</ele><time>2026-05-01T14:53:50.001Z</time></trkpt><trkpt lat="44.200777460633404" lon="11.861742598578298"><ele>218.0</ele><time>2026-05-01T14:53:51.001Z</time></trkpt><trkpt lat="44.200876455500655" lon="11.861784484000127"><ele>217.0</ele><time>2026-05-01T14:53:52.001Z</time></trkpt><trkpt lat="44.200984176489484" lon="11.861814547746572"><ele>216.0</ele><time>2026-05-01T14:53:53.001Z</time></trkpt><trkpt lat="44.20108958361941" lon="11.86185215821755"><ele>215.0</ele><time>2026-05-01T14:53:54.001Z</time></trkpt><trkpt lat="44.20119368107256" lon="11.861896987935491"><ele>215.0</ele><time>2026-05-01T14:53:55.001Z</time></trkpt><trkpt lat="44.201294425460645" lon="11.861940511277101"><ele>215.0</ele><time>2026-05-01T14:53:56.001Z</time></trkpt><trkpt lat="44.201391460633666" lon="11.861975549880315"><ele>215.0</ele><time>2026-05-01T14:53:57.001Z</time></trkpt><trkpt lat="44.2014889968038" lon="11.862022423843603"><ele>215.0</ele><time>2026-05-01T14:53:58.001Z</time></trkpt><trkpt lat="44.20158941439078" lon="11.862067401629087"><ele>215.0</ele><time>2026-05-01T14:53:59.001Z</time></trkpt><trkpt lat="44.20169044342548" lon="11.862103032502322"><ele>217.8</ele><time>2026-05-01T14:54:00.001Z</time></trkpt><trkpt lat="44.201787332189" lon="11.862148576081843"><ele>220.6</ele><time>2026-05-01T14:54:01.002Z</time></trkpt><trkpt lat="44.20188434703576" lon="11.862191796777704"><ele>223.39999999999998</ele><time>2026-05-01T14:54:02.002Z</time></trkpt><trkpt lat="44.20198824332767" lon="11.862238258287643"><ele>226.2</ele><time>2026-05-01T14:54:03.002Z</time></trkpt><trkpt lat="44.20209140201933" lon="11.86228752056525"><ele>229.0</ele><time>2026-05-01T14:54:04.002Z</time></trkpt><trkpt lat="44.20219605364437" lon="11.862336586907025"><ele>229.0</ele><time>2026-05-01T14:54:05.002Z</time></trkpt><trkpt lat="44.20230148235873" lon="11.8623875358824"><ele>229.0</ele><time>2026-05-01T14:54:06.002Z</time></trkpt><trkpt lat="44.20240711494759" lon="11.86243749979713"><ele>229.0</ele><time>2026-05-01T14:54:07.002Z</time></trkpt><trkpt lat="44.20251290821783" lon="11.86249235355664"><ele>229.0</ele><time>2026-05-01T14:54:08.002Z</time></trkpt><trkpt lat="44.20263599057372" lon="11.862496352519024"><ele>228.75</ele><time>2026-05-01T14:54:09.002Z</time></trkpt><trkpt lat="44.20275644828469" lon="11.862473323688993"><ele>228.5</ele><time>2026-05-01T14:54:10.002Z</time></trkpt><trkpt lat="44.20287215304241" lon="11.862416428536818"><ele>228.25</ele><time>2026-05-01T14:54:11.002Z</time></trkpt><trkpt lat="44.20299454486527" lon="11.862395002374601"><ele>228.0</ele><time>2026-05-01T14:54:12.002Z</time></trkpt><trkpt lat="44.203099537604174" lon="11.862362967636923"><ele>227.0</ele><time>2026-05-01T14:54:13.002Z</time></trkpt><trkpt lat="44.2031994999988" lon="11.862332803557072"><ele>226.0</ele><time>2026-05-01T14:54:14.002Z</time></trkpt><trkpt lat="44.203303426124435" lon="11.862309974558194"><ele>225.0</ele><time>2026-05-01T14:54:15.002Z</time></trkpt><trkpt lat="44.20340338479921" lon="11.862294750528202"><ele>224.0</ele><time>2026-05-01T14:54:16.002Z</time></trkpt><trkpt lat="44.20350003192192" lon="11.862291982300455"><ele>223.0</ele><time>2026-05-01T14:54:17.002Z</time></trkpt><trkpt lat="44.203590684342984" lon="11.862287848212157"><ele>223.0</ele><time>2026-05-01T14:54:18.002Z</time></trkpt><trkpt lat="44.20369017051077" lon="11.862281269035849"><ele>223.0</ele><time>2026-05-01T14:54:19.002Z</time></trkpt><trkpt lat="44.203794708617146" lon="11.862255899539282"><ele>223.0</ele><time>2026-05-01T14:54:20.002Z</time></trkpt><trkpt lat="44.203903552881776" lon="11.862217930305638"><ele>223.0</ele><time>2026-05-01T14:54:21.002Z</time></trkpt><trkpt lat="44.2040102349631" lon="11.86215605167888"><ele>223.0</ele><time>2026-05-01T14:54:22.002Z</time></trkpt><trkpt lat="44.20410643844984" lon="11.862080857428355"><ele>219.25</ele><time>2026-05-01T14:54:23.002Z</time></trkpt><trkpt lat="44.20420368957058" lon="11.861996495693566"><ele>215.5</ele><time>2026-05-01T14:54:24.002Z</time></trkpt><trkpt lat="44.20430190188229" lon="11.861905978830755"><ele>211.75</ele><time>2026-05-01T14:54:25.002Z</time></trkpt><trkpt lat="44.20440186931961" lon="11.86181972978067"><ele>208.0</ele><time>2026-05-01T14:54:26.002Z</time></trkpt><trkpt lat="44.20449504904196" lon="11.86171186108013"><ele>207.5</ele><time>2026-05-01T14:54:27.002Z</time></trkpt><trkpt lat="44.204587520370474" lon="11.861594840181278"><ele>207.0</ele><time>2026-05-01T14:54:28.002Z</time></trkpt><trkpt lat="44.20467625005359" lon="11.861479309585027"><ele>206.5</ele><time>2026-05-01T14:54:29.002Z</time></trkpt><trkpt lat="44.20475784861374" lon="11.861359421326537"><ele>206.0</ele><time>2026-05-01T14:54:30.002Z</time></trkpt><trkpt lat="44.20483654513202" lon="11.861233700753065"><ele>205.25</ele><time>2026-05-01T14:54:31.002Z</time></trkpt><trkpt lat="44.20491232569385" lon="11.861109925315946"><ele>204.5</ele><time>2026-05-01T14:54:32.002Z</time></trkpt><trkpt lat="44.20498357362749" lon="11.860984785589766"><ele>203.75</ele><time>2026-05-01T14:54:33.002Z</time></trkpt><trkpt lat="44.20504960440515" lon="11.860857969509707"><ele>203.0</ele><time>2026-05-01T14:54:34.002Z</time></trkpt><trkpt lat="44.2051150272785" lon="11.86073464613896"><ele>204.60000000000002</ele><time>2026-05-01T14:54:35.002Z</time></trkpt><trkpt lat="44.20519986163916" lon="11.86063159788686"><ele>206.20000000000002</ele><time>2026-05-01T14:54:36.002Z</time></trkpt><trkpt lat="44.2052654713713" lon="11.860520791596743"><ele>207.8</ele><time>2026-05-01T14:54:37.002Z</time></trkpt><trkpt lat="44.205320197578985" lon="11.86042516304024"><ele>209.4</ele><time>2026-05-01T14:54:38.002Z</time></trkpt><trkpt lat="44.20534408857631" lon="11.860336688986811"><ele>211.0</ele><time>2026-05-01T14:54:39Z</time></trkpt><trkpt lat="44.205408092152304" lon="11.86023566310346"><ele>210.99999999999997</ele><time>2026-05-01T14:54:41Z</time></trkpt><trkpt lat="44.20541864733902" lon="11.860125461830823"><ele>211.0</ele><time>2026-05-01T14:54:43Z</time></trkpt><trkpt lat="44.20541954324811" lon="11.8600277698486"><ele>211.0</ele><time>2026-05-01T14:57:58.001Z</time></trkpt><trkpt lat="44.205441369806564" lon="11.859887758079683"><ele>211.0</ele><time>2026-05-01T14:58:00.001Z</time></trkpt><trkpt lat="44.205454157671255" lon="11.859791163481606"><ele>210.99999999999997</ele><time>2026-05-01T14:58:01.001Z</time></trkpt><trkpt lat="44.20546541992067" lon="11.859679724660344"><ele>211.0</ele><time>2026-05-01T14:58:02.001Z</time></trkpt><trkpt lat="44.20548071936189" lon="11.859559781344188"><ele>210.0</ele><time>2026-05-01T14:58:03.001Z</time></trkpt><trkpt lat="44.20551074660057" lon="11.859428107778783"><ele>209.0</ele><time>2026-05-01T14:58:04.001Z</time></trkpt><trkpt lat="44.205545764813664" lon="11.859292714198034"><ele>208.0</ele><time>2026-05-01T14:58:05.001Z</time></trkpt><trkpt lat="44.20558827773576" lon="11.859144223170837"><ele>207.0</ele><time>2026-05-01T14:58:06.001Z</time></trkpt><trkpt lat="44.20563378330027" lon="11.858996851738965"><ele>206.0</ele><time>2026-05-01T14:58:07.001Z</time></trkpt><trkpt lat="44.20567980453887" lon="11.858855769931502"><ele>206.0</ele><time>2026-05-01T14:58:08.001Z</time></trkpt><trkpt lat="44.205724719863795" lon="11.858720404625934"><ele>206.0</ele><time>2026-05-01T14:58:09.001Z</time></trkpt><trkpt lat="44.20576545066383" lon="11.858577170016494"><ele>206.0</ele><time>2026-05-01T14:58:10.001Z</time></trkpt><trkpt lat="44.20579203561869" lon="11.858422207521635"><ele>206.0</ele><time>2026-05-01T14:58:11.001Z</time></trkpt><trkpt lat="44.20581335405892" lon="11.858266239532593"><ele>206.0</ele><time>2026-05-01T14:58:12.001Z</time></trkpt><trkpt lat="44.205829454876614" lon="11.858108407789091"><ele>205.8</ele><time>2026-05-01T14:58:13.001Z</time></trkpt><trkpt lat="44.20583528534957" lon="11.857956883279574"><ele>205.60000000000002</ele><time>2026-05-01T14:58:14.001Z</time></trkpt><trkpt lat="44.205838815026446" lon="11.8578109717306"><ele>205.4</ele><time>2026-05-01T14:58:15.001Z</time></trkpt><trkpt lat="44.20585156687635" lon="11.857674059284973"><ele>205.2</ele><time>2026-05-01T14:58:16.001Z</time></trkpt><trkpt lat="44.2058839427076" lon="11.857545487504542"><ele>205.0</ele><time>2026-05-01T14:58:17.001Z</time></trkpt><trkpt lat="44.205940617133365" lon="11.857441733590639"><ele>203.8</ele><time>2026-05-01T14:58:18.001Z</time></trkpt><trkpt lat="44.20600762701132" lon="11.857347445162768"><ele>202.6</ele><time>2026-05-01T14:58:19.001Z</time></trkpt><trkpt lat="44.20607510146873" lon="11.857247164197895"><ele>201.39999999999998</ele><time>2026-05-01T14:58:20.001Z</time></trkpt><trkpt lat="44.20613898134278" lon="11.857133753410965"><ele>200.2</ele><time>2026-05-01T14:58:21.001Z</time></trkpt><trkpt lat="44.206194962007245" lon="11.857011622558657"><ele>199.0</ele><time>2026-05-01T14:58:22.001Z</time></trkpt><trkpt lat="44.20624372898072" lon="11.856880579638181"><ele>198.2</ele><time>2026-05-01T14:58:23.001Z</time></trkpt><trkpt lat="44.2062866526835" lon="11.856750768832706"><ele>197.39999999999998</ele><time>2026-05-01T14:58:24.001Z</time></trkpt><trkpt lat="44.20632706640274" lon="11.856621731599049"><ele>196.6</ele><time>2026-05-01T14:58:25.001Z</time></trkpt><trkpt lat="44.20636276405051" lon="11.856491706489676"><ele>195.8</ele><time>2026-05-01T14:58:26.001Z</time></trkpt><trkpt lat="44.206401187298134" lon="11.856366648111637"><ele>195.0</ele><time>2026-05-01T14:58:27.001Z</time></trkpt><trkpt lat="44.20645988262054" lon="11.856263632851418"><ele>192.4</ele><time>2026-05-01T14:58:28.001Z</time></trkpt><trkpt lat="44.206535884052" lon="11.85617658858504"><ele>189.8</ele><time>2026-05-01T14:58:29.001Z</time></trkpt><trkpt lat="44.20663677574598" lon="11.856134390422822"><ele>187.2</ele><time>2026-05-01T14:58:30.001Z</time></trkpt><trkpt lat="44.206733887741755" lon="11.856071800431003"><ele>184.6</ele><time>2026-05-01T14:58:31.001Z</time></trkpt><trkpt lat="44.20684497189704" lon="11.85604847846517"><ele>182.0</ele><time>2026-05-01T14:58:32.001Z</time></trkpt><trkpt lat="44.20695920531088" lon="11.856034595257581"><ele>182.0</ele><time>2026-05-01T14:58:33.001Z</time></trkpt><trkpt lat="44.20707116769115" lon="11.856028127967264"><ele>182.0</ele><time>2026-05-01T14:58:34.002Z</time></trkpt><trkpt lat="44.207179867293355" lon="11.856056425321498"><ele>182.0</ele><time>2026-05-01T14:58:35.002Z</time></trkpt><trkpt lat="44.207290862483724" lon="11.856047782643655"><ele>182.0</ele><time>2026-05-01T14:58:36.002Z</time></trkpt><trkpt lat="44.20739489472783" lon="11.856076773879234"><ele>182.0</ele><time>2026-05-01T14:58:37.002Z</time></trkpt><trkpt lat="44.20749950909788" lon="11.856102597925888"><ele>176.75</ele><time>2026-05-01T14:58:38.002Z</time></trkpt><trkpt lat="44.20760979304013" lon="11.856112104887474"><ele>171.5</ele><time>2026-05-01T14:58:39.002Z</time></trkpt><trkpt lat="44.20772282089381" lon="11.856101491575313"><ele>166.25</ele><time>2026-05-01T14:58:40.002Z</time></trkpt><trkpt lat="44.20783346028873" lon="11.85608391641069"><ele>161.0</ele><time>2026-05-01T14:58:41.002Z</time></trkpt><trkpt lat="44.20794743580208" lon="11.856063250662212"><ele>161.0</ele><time>2026-05-01T14:58:42.002Z</time></trkpt><trkpt lat="44.208061962014426" lon="11.856031429103036"><ele>161.0</ele><time>2026-05-01T14:58:43.002Z</time></trkpt><trkpt lat="44.208173538835766" lon="11.855986388055932"><ele>161.0</ele><time>2026-05-01T14:58:44.002Z</time></trkpt><trkpt lat="44.208273262362766" lon="11.855949808961954"><ele>161.0</ele><time>2026-05-01T14:58:45.002Z</time></trkpt><trkpt lat="44.208380187239925" lon="11.855940539020247"><ele>161.0</ele><time>2026-05-01T14:58:46.002Z</time></trkpt><trkpt lat="44.20848469891336" lon="11.85598553611473"><ele>158.60000000000002</ele><time>2026-05-01T14:58:47.002Z</time></trkpt><trkpt lat="44.20859012738338" lon="11.856015140950943"><ele>156.20000000000002</ele><time>2026-05-01T14:58:48.002Z</time></trkpt><trkpt lat="44.2086993979499" lon="11.856039164471866"><ele>153.8</ele><time>2026-05-01T14:58:49.002Z</time></trkpt><trkpt lat="44.20881397795955" lon="11.856041122064367"><ele>151.4</ele><time>2026-05-01T14:58:50.002Z</time></trkpt><trkpt lat="44.20892391843836" lon="11.856032304861975"><ele>149.0</ele><time>2026-05-01T14:58:50.999Z</time></trkpt><trkpt lat="44.20903300206164" lon="11.856003752024105"><ele>148.25</ele><time>2026-05-01T14:58:51.999Z</time></trkpt><trkpt lat="44.20914449566535" lon="11.855985564509849"><ele>147.5</ele><time>2026-05-01T14:58:52.999Z</time></trkpt><trkpt lat="44.20925434864993" lon="11.855950830263742"><ele>146.75</ele><time>2026-05-01T14:58:53.999Z</time></trkpt><trkpt lat="44.20936312566803" lon="11.85590569180334"><ele>146.0</ele><time>2026-05-01T14:58:54.999Z</time></trkpt><trkpt lat="44.20947185394329" lon="11.855859047937058"><ele>146.0</ele><time>2026-05-01T14:58:55.999Z</time></trkpt><trkpt lat="44.20957949333119" lon="11.855803964635268"><ele>146.0</ele><time>2026-05-01T14:58:56.999Z</time></trkpt><trkpt lat="44.209691018212425" lon="11.855750812897693"><ele>146.0</ele><time>2026-05-01T14:58:57.999Z</time></trkpt><trkpt lat="44.20980991199817" lon="11.855717902093843"><ele>146.0</ele><time>2026-05-01T14:58:58.999Z</time></trkpt><trkpt lat="44.20993843896209" lon="11.85569446103193"><ele>144.5</ele><time>2026-05-01T14:58:59.999Z</time></trkpt><trkpt lat="44.21006687780974" lon="11.855670807082292"><ele>143.0</ele><time>2026-05-01T14:59:00.999Z</time></trkpt><trkpt lat="44.21019317193933" lon="11.855648392571396"><ele>141.5</ele><time>2026-05-01T14:59:01.999Z</time></trkpt><trkpt lat="44.21031909958055" lon="11.855623096190888"><ele>140.0</ele><time>2026-05-01T14:59:02.999Z</time></trkpt><trkpt lat="44.21044588930734" lon="11.855595848094714"><ele>140.0</ele><time>2026-05-01T14:59:03.999Z</time></trkpt><trkpt lat="44.2105702206279" lon="11.85557093308643"><ele>140.0</ele><time>2026-05-01T14:59:04.999Z</time></trkpt><trkpt lat="44.21068950865034" lon="11.855546636832466"><ele>140.0</ele><time>2026-05-01T14:59:05.999Z</time></trkpt><trkpt lat="44.210804330716684" lon="11.855518500388396"><ele>140.0</ele><time>2026-05-01T14:59:06.999Z</time></trkpt><trkpt lat="44.210915986004" lon="11.855491350415653"><ele>138.8</ele><time>2026-05-01T14:59:07.999Z</time></trkpt><trkpt lat="44.21102266937495" lon="11.855470429427587"><ele>137.6</ele><time>2026-05-01T14:59:08.999Z</time></trkpt><trkpt lat="44.21112365397812" lon="11.8554575930933"><ele>136.4</ele><time>2026-05-01T14:59:09.999Z</time></trkpt><trkpt lat="44.21122168150899" lon="11.855456905599013"><ele>135.2</ele><time>2026-05-01T14:59:10.999Z</time></trkpt><trkpt lat="44.21131907299873" lon="11.855482271868267"><ele>134.0</ele><time>2026-05-01T14:59:12Z</time></trkpt><trkpt lat="44.21141656984345" lon="11.855539129096726"><ele>135.0</ele><time>2026-05-01T14:59:13Z</time></trkpt><trkpt lat="44.21151468844201" lon="11.85562086633106"><ele>136.0</ele><time>2026-05-01T14:59:14Z</time></trkpt><trkpt lat="44.21161359861907" lon="11.855703059751043"><ele>137.0</ele><time>2026-05-01T14:59:15Z</time></trkpt><trkpt lat="44.211715951200254" lon="11.855786326467301"><ele>138.0</ele><time>2026-05-01T14:59:16Z</time></trkpt><trkpt lat="44.21182121910464" lon="11.85586593835389"><ele>135.0</ele><time>2026-05-01T14:59:17Z</time></trkpt><trkpt lat="44.21192558951981" lon="11.855953853880944"><ele>132.0</ele><time>2026-05-01T14:59:18Z</time></trkpt><trkpt lat="44.21203200363476" lon="11.856038041870994"><ele>129.0</ele><time>2026-05-01T14:59:19Z</time></trkpt><trkpt lat="44.21213488922412" lon="11.856126254318962"><ele>126.0</ele><time>2026-05-01T14:59:20Z</time></trkpt><trkpt lat="44.21223382675954" lon="11.856210701856453"><ele>126.0</ele><time>2026-05-01T14:59:21Z</time></trkpt><trkpt lat="44.212323081882865" lon="11.856297818020613"><ele>126.0</ele><time>2026-05-01T14:59:22Z</time></trkpt><trkpt lat="44.212404213230144" lon="11.856393169194448"><ele>126.0</ele><time>2026-05-01T14:59:23Z</time></trkpt><trkpt lat="44.21247408997401" lon="11.856484503135617"><ele>126.0</ele><time>2026-05-01T14:59:24Z</time></trkpt><trkpt lat="44.2125436024921" lon="11.856562325195792"><ele>126.0</ele><time>2026-05-01T14:59:25Z</time></trkpt><trkpt lat="44.212624121049025" lon="11.85662760627454"><ele>127.0</ele><time>2026-05-01T14:59:26Z</time></trkpt><trkpt lat="44.212713557819725" lon="11.856671018614893"><ele>128.0</ele><time>2026-05-01T14:59:27Z</time></trkpt><trkpt lat="44.212807706991384" lon="11.85668314895404"><ele>129.0</ele><time>2026-05-01T14:59:28Z</time></trkpt><trkpt lat="44.212906159719694" lon="11.856665234759605"><ele>130.0</ele><time>2026-05-01T14:59:29Z</time></trkpt><trkpt lat="44.2130057338763" lon="11.856633032358754"><ele>131.0</ele><time>2026-05-01T14:59:30Z</time></trkpt><trkpt lat="44.213111518283895" lon="11.85660129678121"><ele>129.0</ele><time>2026-05-01T14:59:31Z</time></trkpt><trkpt lat="44.21321598609598" lon="11.856573873680638"><ele>127.0</ele><time>2026-05-01T14:59:32Z</time></trkpt><trkpt lat="44.213318867837685" lon="11.856545091653997"><ele>125.0</ele><time>2026-05-01T14:59:33Z</time></trkpt><trkpt lat="44.213415487462846" lon="11.856505949828176"><ele>123.0</ele><time>2026-05-01T14:59:34Z</time></trkpt><trkpt lat="44.21349891372112" lon="11.856448675387742"><ele>121.0</ele><time>2026-05-01T14:59:35Z</time></trkpt><trkpt lat="44.213570437353674" lon="11.85638231916137"><ele>121.00000000000001</ele><time>2026-05-01T14:59:36Z</time></trkpt><trkpt lat="44.21363223043567" lon="11.85631073641364"><ele>121.0</ele><time>2026-05-01T14:59:37Z</time></trkpt><trkpt lat="44.21369427090218" lon="11.8562304280982"><ele>121.0</ele><time>2026-05-01T14:59:38Z</time></trkpt><trkpt lat="44.21375984734704" lon="11.85615614716262"><ele>121.0</ele><time>2026-05-01T14:59:39Z</time></trkpt><trkpt lat="44.21383731173945" lon="11.856099722551388"><ele>121.00000000000001</ele><time>2026-05-01T14:59:40Z</time></trkpt><trkpt lat="44.213920953318514" lon="11.856075140198525"><ele>121.0</ele><time>2026-05-01T14:59:41Z</time></trkpt><trkpt lat="44.21401057143322" lon="11.856093205553329"><ele>118.19999999999999</ele><time>2026-05-01T14:59:42Z</time></trkpt><trkpt lat="44.21409970782764" lon="11.856134600062541"><ele>115.39999999999999</ele><time>2026-05-01T14:59:43Z</time></trkpt><trkpt lat="44.21418857582089" lon="11.85617322030086"><ele>112.6</ele><time>2026-05-01T14:59:44Z</time></trkpt><trkpt lat="44.214279932680896" lon="11.856207145168037"><ele>109.8</ele><time>2026-05-01T14:59:45.001Z</time></trkpt><trkpt lat="44.214371126489816" lon="11.85624181246561"><ele>107.0</ele><time>2026-05-01T14:59:46.001Z</time></trkpt><trkpt lat="44.214461892504055" lon="11.85627705966031"><ele>106.99999999999999</ele><time>2026-05-01T14:59:47.001Z</time></trkpt><trkpt lat="44.2145516263814" lon="11.856307735998785"><ele>107.0</ele><time>2026-05-01T14:59:48.001Z</time></trkpt><trkpt lat="44.214640359059814" lon="11.85632539866908"><ele>107.0</ele><time>2026-05-01T14:59:49.001Z</time></trkpt><trkpt lat="44.214728903618706" lon="11.856317130726348"><ele>107.0</ele><time>2026-05-01T14:59:50.001Z</time></trkpt><trkpt lat="44.21481196161283" lon="11.856288154408928"><ele>106.99999999999999</ele><time>2026-05-01T14:59:51.001Z</time></trkpt><trkpt lat="44.21489104081961" lon="11.856238212111167"><ele>107.0</ele><time>2026-05-01T14:59:52.001Z</time></trkpt><trkpt lat="44.214964931342124" lon="11.856183399712732"><ele>106.16666666666666</ele><time>2026-05-01T14:59:53.001Z</time></trkpt><trkpt lat="44.21503885313447" lon="11.856127657416447"><ele>105.33333333333333</ele><time>2026-05-01T14:59:54.001Z</time></trkpt><trkpt lat="44.21511393524631" lon="11.856073840782022"><ele>104.5</ele><time>2026-05-01T14:59:55.001Z</time></trkpt><trkpt lat="44.21518487910031" lon="11.856018826253015"><ele>103.66666666666666</ele><time>2026-05-01T14:59:56.001Z</time></trkpt><trkpt lat="44.215251376400865" lon="11.855963153370398"><ele>102.83333333333333</ele><time>2026-05-01T14:59:57.001Z</time></trkpt><trkpt lat="44.215321442734385" lon="11.855908694502004"><ele>102.0</ele><time>2026-05-01T14:59:58.001Z</time></trkpt><trkpt lat="44.21539808674333" lon="11.855868419530733"><ele>102.0</ele><time>2026-05-01T14:59:59.001Z</time></trkpt><trkpt lat="44.21548527161797" lon="11.85586738146069"><ele>102.0</ele><time>2026-05-01T15:00:00.001Z</time></trkpt><trkpt lat="44.215577140428096" lon="11.85590155514761"><ele>102.0</ele><time>2026-05-01T15:00:01.001Z</time></trkpt><trkpt lat="44.21566928619563" lon="11.855946844308157"><ele>102.0</ele><time>2026-05-01T15:00:02.001Z</time></trkpt><trkpt lat="44.21576886310203" lon="11.855984700134456"><ele>102.0</ele><time>2026-05-01T15:00:03.001Z</time></trkpt><trkpt lat="44.2158578576093" lon="11.856012612576832"><ele>101.8</ele><time>2026-05-01T15:00:04.001Z</time></trkpt><trkpt lat="44.215940162173865" lon="11.85604108300113"><ele>101.6</ele><time>2026-05-01T15:00:05.001Z</time></trkpt><trkpt lat="44.2160257265215" lon="11.856074433678405"><ele>101.39999999999999</ele><time>2026-05-01T15:00:06.001Z</time></trkpt><trkpt lat="44.216111530317164" lon="11.856108995442565"><ele>101.19999999999999</ele><time>2026-05-01T15:00:07.001Z</time></trkpt><trkpt lat="44.21619863199103" lon="11.85615354154015"><ele>101.0</ele><time>2026-05-01T15:00:08.001Z</time></trkpt><trkpt lat="44.216292118367285" lon="11.85621389551643"><ele>101.0</ele><time>2026-05-01T15:00:09.001Z</time></trkpt><trkpt lat="44.21638914481288" lon="11.856285828804058"><ele>101.0</ele><time>2026-05-01T15:00:10.001Z</time></trkpt><trkpt lat="44.21647966605094" lon="11.856367895986107"><ele>101.0</ele><time>2026-05-01T15:00:11.001Z</time></trkpt><trkpt lat="44.21657795077951" lon="11.85645821330924"><ele>101.0</ele><time>2026-05-01T15:00:12.001Z</time></trkpt><trkpt lat="44.216670473488996" lon="11.85654173952105"><ele>101.0</ele><time>2026-05-01T15:00:13.001Z</time></trkpt><trkpt lat="44.21675825144372" lon="11.856622787207847"><ele>100.83333333333333</ele><time>2026-05-01T15:00:14.001Z</time></trkpt><trkpt lat="44.21684022071806" lon="11.856695453548019"><ele>100.66666666666666</ele><time>2026-05-01T15:00:15.001Z</time></trkpt><trkpt lat="44.216908196049054" lon="11.856758094062673"><ele>100.5</ele><time>2026-05-01T15:00:16.001Z</time></trkpt><trkpt lat="44.21697117433774" lon="11.856811041178641"><ele>100.33333333333334</ele><time>2026-05-01T15:00:17.001Z</time></trkpt><trkpt lat="44.21702292662257" lon="11.85686153257251"><ele>100.16666666666667</ele><time>2026-05-01T15:00:18.001Z</time></trkpt><trkpt lat="44.217118873868834" lon="11.856935509658637"><ele>100.0</ele><time>2026-05-01T15:00:20.001Z</time></trkpt><trkpt lat="44.21722971154128" lon="11.856926113695703"><ele>99.85714285714286</ele><time>2026-05-01T15:00:22.001Z</time></trkpt><trkpt lat="44.21728284572933" lon="11.856872764787584"><ele>99.71428571428572</ele><time>2026-05-01T15:00:23.001Z</time></trkpt><trkpt lat="44.217337762752706" lon="11.85679716276495"><ele>99.57142857142858</ele><time>2026-05-01T15:00:24.001Z</time></trkpt><trkpt lat="44.217386275836944" lon="11.856715236175209"><ele>99.42857142857143</ele><time>2026-05-01T15:00:25.001Z</time></trkpt><trkpt lat="44.21743003731898" lon="11.856640197453288"><ele>99.28571428571428</ele><time>2026-05-01T15:00:26.001Z</time></trkpt><trkpt lat="44.21747978004033" lon="11.856576964823821"><ele>99.14285714285715</ele><time>2026-05-01T15:00:27.001Z</time></trkpt><trkpt lat="44.217541797466865" lon="11.856526681165297"><ele>99.0</ele><time>2026-05-01T15:00:28.002Z</time></trkpt><trkpt lat="44.21761463391284" lon="11.856496880606263"><ele>98.5</ele><time>2026-05-01T15:00:29.002Z</time></trkpt><trkpt lat="44.21769148387615" lon="11.85649605151315"><ele>98.0</ele><time>2026-05-01T15:00:30.002Z</time></trkpt><trkpt lat="44.21777376433826" lon="11.856514149689739"><ele>97.5</ele><time>2026-05-01T15:00:31.002Z</time></trkpt><trkpt lat="44.217864927184294" lon="11.856537358717025"><ele>97.0</ele><time>2026-05-01T15:00:32.002Z</time></trkpt><trkpt lat="44.217952347381924" lon="11.85656750909179"><ele>96.5</ele><time>2026-05-01T15:00:33.002Z</time></trkpt><trkpt lat="44.218046065109455" lon="11.85659223796269"><ele>96.0</ele><time>2026-05-01T15:00:34.002Z</time></trkpt><trkpt lat="44.218139084352394" lon="11.856624431532373"><ele>95.33333333333333</ele><time>2026-05-01T15:00:35.002Z</time></trkpt><trkpt lat="44.218230573977365" lon="11.85667035581146"><ele>94.66666666666667</ele><time>2026-05-01T15:00:36.002Z</time></trkpt><trkpt lat="44.2183142401174" lon="11.856725320475629"><ele>94.0</ele><time>2026-05-01T15:00:37.002Z</time></trkpt><trkpt lat="44.21838588797234" lon="11.856793826139214"><ele>93.33333333333334</ele><time>2026-05-01T15:00:38.002Z</time></trkpt><trkpt lat="44.21844338231523" lon="11.856873554502416"><ele>92.66666666666667</ele><time>2026-05-01T15:00:39.002Z</time></trkpt><trkpt lat="44.21849664487324" lon="11.856962374945157"><ele>92.0</ele><time>2026-05-01T15:00:40.002Z</time></trkpt><trkpt lat="44.21855119881002" lon="11.857061205683795"><ele>92.0</ele><time>2026-05-01T15:00:41.002Z</time></trkpt><trkpt lat="44.21860031107442" lon="11.857157266867558"><ele>92.0</ele><time>2026-05-01T15:00:42.002Z</time></trkpt><trkpt lat="44.21864423432186" lon="11.857247795021784"><ele>92.0</ele><time>2026-05-01T15:00:43.002Z</time></trkpt><trkpt lat="44.21869371698557" lon="11.857333586258518"><ele>92.0</ele><time>2026-05-01T15:00:44.002Z</time></trkpt><trkpt lat="44.21874351656132" lon="11.857416535902718"><ele>92.0</ele><time>2026-05-01T15:00:45.002Z</time></trkpt><trkpt lat="44.21879218579115" lon="11.857508869737053"><ele>92.0</ele><time>2026-05-01T15:00:46.002Z</time></trkpt><trkpt lat="44.21884140050369" lon="11.857604817192646"><ele>92.0</ele><time>2026-05-01T15:00:47.002Z</time></trkpt><trkpt lat="44.21889331315689" lon="11.857703902523319"><ele>92.0</ele><time>2026-05-01T15:00:48.002Z</time></trkpt><trkpt lat="44.21894872041105" lon="11.857805548348532"><ele>92.0</ele><time>2026-05-01T15:00:49.002Z</time></trkpt><trkpt lat="44.21900587009125" lon="11.857913363814836"><ele>92.0</ele><time>2026-05-01T15:00:50.002Z</time></trkpt><trkpt lat="44.2190649459104" lon="11.858018357765923"><ele>92.0</ele><time>2026-05-01T15:00:51.002Z</time></trkpt><trkpt lat="44.219120684773095" lon="11.858123134367254"><ele>91.39999999999999</ele><time>2026-05-01T15:00:52.002Z</time></trkpt><trkpt lat="44.219182276970784" lon="11.858228074715718"><ele>90.8</ele><time>2026-05-01T15:00:53.002Z</time></trkpt><trkpt lat="44.21924827423302" lon="11.858340782957884"><ele>90.2</ele><time>2026-05-01T15:00:54.002Z</time></trkpt><trkpt lat="44.219309720691946" lon="11.858456707704606"><ele>89.6</ele><time>2026-05-01T15:00:55.002Z</time></trkpt><trkpt lat="44.21937208429824" lon="11.858571167801479"><ele>89.0</ele><time>2026-05-01T15:00:56.002Z</time></trkpt><trkpt lat="44.21943212615689" lon="11.858688384319462"><ele>89.0</ele><time>2026-05-01T15:00:57Z</time></trkpt><trkpt lat="44.2194962330858" lon="11.858797148579145"><ele>89.0</ele><time>2026-05-01T15:00:58Z</time></trkpt><trkpt lat="44.219562113070715" lon="11.858895786203014"><ele>89.0</ele><time>2026-05-01T15:00:59Z</time></trkpt><trkpt lat="44.21962507339759" lon="11.858987352588118"><ele>89.0</ele><time>2026-05-01T15:01:00Z</time></trkpt><trkpt lat="44.219680707618224" lon="11.859081883044103"><ele>89.0</ele><time>2026-05-01T15:01:01Z</time></trkpt><trkpt lat="44.21972288494796" lon="11.859189219496319"><ele>88.80000000000001</ele><time>2026-05-01T15:01:02Z</time></trkpt><trkpt lat="44.21974876674433" lon="11.859314350957357"><ele>88.60000000000001</ele><time>2026-05-01T15:01:03Z</time></trkpt><trkpt lat="44.21974327522337" lon="11.859456099531876"><ele>88.4</ele><time>2026-05-01T15:01:04Z</time></trkpt><trkpt lat="44.21974575769961" lon="11.859580533655478"><ele>88.2</ele><time>2026-05-01T15:01:05Z</time></trkpt><trkpt lat="44.21973745410241" lon="11.859715048666732"><ele>88.0</ele><time>2026-05-01T15:01:06Z</time></trkpt><trkpt lat="44.219732358357845" lon="11.859835434289456"><ele>88.0</ele><time>2026-05-01T15:01:07Z</time></trkpt><trkpt lat="44.21970868130541" lon="11.859920858976587"><ele>88.0</ele><time>2026-05-01T15:01:08Z</time></trkpt><trkpt lat="44.21966909205021" lon="11.8600587781541"><ele>88.0</ele><time>2026-05-01T15:01:10Z</time></trkpt><trkpt lat="44.21963831734809" lon="11.860194221104814"><ele>88.0</ele><time>2026-05-01T15:01:12Z</time></trkpt><trkpt lat="44.21955332872036" lon="11.86028250397484"><ele>88.0</ele><time>2026-05-01T15:01:14Z</time></trkpt><trkpt lat="44.219495696996034" lon="11.860329102940236"><ele>88.0</ele><time>2026-05-01T15:01:15Z</time></trkpt><trkpt lat="44.219436095818494" lon="11.86037729444334"><ele>87.83333333333333</ele><time>2026-05-01T15:01:16Z</time></trkpt><trkpt lat="44.21937481806361" lon="11.860440771007237"><ele>87.66666666666666</ele><time>2026-05-01T15:01:17Z</time></trkpt><trkpt lat="44.21932488394539" lon="11.860507748241824"><ele>87.5</ele><time>2026-05-01T15:01:18Z</time></trkpt><trkpt lat="44.21929520164733" lon="11.860607600710011"><ele>87.33333333333333</ele><time>2026-05-01T15:01:19Z</time></trkpt><trkpt lat="44.21926205174085" lon="11.860705756723274"><ele>87.16666666666667</ele><time>2026-05-01T15:01:20Z</time></trkpt><trkpt lat="44.219249801186166" lon="11.860812682854291"><ele>87.0</ele><time>2026-05-01T15:01:21Z</time></trkpt><trkpt lat="44.21924060057679" lon="11.860927536860782"><ele>87.5</ele><time>2026-05-01T15:01:22Z</time></trkpt><trkpt lat="44.21923026460443" lon="11.861043442453603"><ele>88.0</ele><time>2026-05-01T15:01:23Z</time></trkpt><trkpt lat="44.2192212222896" lon="11.861165824576744"><ele>88.5</ele><time>2026-05-01T15:01:24Z</time></trkpt><trkpt lat="44.21921696494885" lon="11.861298492622604"><ele>89.0</ele><time>2026-05-01T15:01:25Z</time></trkpt><trkpt lat="44.21921091767267" lon="11.861422840538555"><ele>89.5</ele><time>2026-05-01T15:01:26Z</time></trkpt><trkpt lat="44.21920257395013" lon="11.86154145053469"><ele>90.0</ele><time>2026-05-01T15:01:27Z</time></trkpt><trkpt lat="44.21918712591253" lon="11.861661862263535"><ele>90.0</ele><time>2026-05-01T15:01:28Z</time></trkpt><trkpt lat="44.21915996779634" lon="11.861770709498762"><ele>90.0</ele><time>2026-05-01T15:01:29Z</time></trkpt><trkpt lat="44.219089117728146" lon="11.861840595358633"><ele>90.0</ele><time>2026-05-01T15:01:30Z</time></trkpt><trkpt lat="44.21901557464407" lon="11.861904528695792"><ele>90.0</ele><time>2026-05-01T15:01:31Z</time></trkpt><trkpt lat="44.218931228884706" lon="11.861957285988769"><ele>90.0</ele><time>2026-05-01T15:01:32Z</time></trkpt><trkpt lat="44.21885126542979" lon="11.862012324973417"><ele>90.0</ele><time>2026-05-01T15:01:33Z</time></trkpt><trkpt lat="44.218776613567" lon="11.862062032168938"><ele>90.0</ele><time>2026-05-01T15:01:34Z</time></trkpt><trkpt lat="44.21871192690175" lon="11.862109224875608"><ele>90.0</ele><time>2026-05-01T15:01:35Z</time></trkpt><trkpt lat="44.218647738896095" lon="11.862172241784593"><ele>90.0</ele><time>2026-05-01T15:01:36.001Z</time></trkpt><trkpt lat="44.21859740546581" lon="11.862270256340382"><ele>90.0</ele><time>2026-05-01T15:01:37.001Z</time></trkpt><trkpt lat="44.218574198858306" lon="11.862395789927625"><ele>90.0</ele><time>2026-05-01T15:01:38.001Z</time></trkpt><trkpt lat="44.21860035701662" lon="11.862533356649676"><ele>90.0</ele><time>2026-05-01T15:01:39.001Z</time></trkpt><trkpt lat="44.21862088247377" lon="11.862656992343872"><ele>89.66666666666667</ele><time>2026-05-01T15:01:40.001Z</time></trkpt><trkpt lat="44.21864240082302" lon="11.862787029824487"><ele>89.33333333333333</ele><time>2026-05-01T15:01:41.001Z</time></trkpt><trkpt lat="44.21866075113767" lon="11.862915642879619"><ele>89.0</ele><time>2026-05-01T15:01:42.001Z</time></trkpt><trkpt lat="44.21867682270394" lon="11.863033673561324"><ele>88.66666666666666</ele><time>2026-05-01T15:01:43.001Z</time></trkpt><trkpt lat="44.21869281357406" lon="11.863135322218648"><ele>88.33333333333333</ele><time>2026-05-01T15:01:44.001Z</time></trkpt><trkpt lat="44.218706388346256" lon="11.863229476486199"><ele>88.0</ele><time>2026-05-01T15:01:45.001Z</time></trkpt><trkpt lat="44.218729674130394" lon="11.863390900475586"><ele>88.0</ele><time>2026-05-01T15:01:47.001Z</time></trkpt><trkpt lat="44.218725081528405" lon="11.863497177526476"><ele>88.0</ele><time>2026-05-01T15:01:49.001Z</time></trkpt><trkpt lat="44.21861071605225" lon="11.863538872130938"><ele>88.0</ele><time>2026-05-01T15:01:52.001Z</time></trkpt><trkpt lat="44.21854285118693" lon="11.86355264211653"><ele>88.0</ele><time>2026-05-01T15:01:53.001Z</time></trkpt><trkpt lat="44.21846823196515" lon="11.863567782574211"><ele>88.0</ele><time>2026-05-01T15:01:54.001Z</time></trkpt><trkpt lat="44.218385257980636" lon="11.863585483275548"><ele>88.0</ele><time>2026-05-01T15:01:55.001Z</time></trkpt><trkpt lat="44.21830828096402" lon="11.86360326996841"><ele>88.0</ele><time>2026-05-01T15:01:56.001Z</time></trkpt><trkpt lat="44.2182244476729" lon="11.863625963966035"><ele>88.0</ele><time>2026-05-01T15:01:57.001Z</time></trkpt><trkpt lat="44.218134632235014" lon="11.863650277360186"><ele>88.0</ele><time>2026-05-01T15:01:58.001Z</time></trkpt><trkpt lat="44.21804016237025" lon="11.863678317679916"><ele>88.0</ele><time>2026-05-01T15:01:59.001Z</time></trkpt><trkpt lat="44.21794152739227" lon="11.863708107283452"><ele>88.0</ele><time>2026-05-01T15:02:00.001Z</time></trkpt><trkpt lat="44.21783725328086" lon="11.863739851846828"><ele>88.80000000000001</ele><time>2026-05-01T15:02:01.001Z</time></trkpt><trkpt lat="44.21772649013447" lon="11.86377447372675"><ele>89.6</ele><time>2026-05-01T15:02:02.001Z</time></trkpt><trkpt lat="44.21762309903644" lon="11.863806791299655"><ele>90.4</ele><time>2026-05-01T15:02:03.001Z</time></trkpt><trkpt lat="44.21751908022777" lon="11.863839305072112"><ele>91.19999999999999</ele><time>2026-05-01T15:02:04.001Z</time></trkpt><trkpt lat="44.21741187779431" lon="11.86387281396644"><ele>92.0</ele><time>2026-05-01T15:02:05.001Z</time></trkpt><trkpt lat="44.21730202842807" lon="11.86390715022731"><ele>93.19999999999999</ele><time>2026-05-01T15:02:06.001Z</time></trkpt><trkpt lat="44.21718807668018" lon="11.863942768798339"><ele>94.4</ele><time>2026-05-01T15:02:07.001Z</time></trkpt><trkpt lat="44.217079275692626" lon="11.863976777365588"><ele>95.6</ele><time>2026-05-01T15:02:08.001Z</time></trkpt><trkpt lat="44.21697302055799" lon="11.864011433311346"><ele>96.80000000000001</ele><time>2026-05-01T15:02:09.001Z</time></trkpt><trkpt lat="44.216867866655384" lon="11.864047418558377"><ele>98.0</ele><time>2026-05-01T15:02:10.001Z</time></trkpt><trkpt lat="44.21677889705725" lon="11.864109972900497"><ele>97.99999999999999</ele><time>2026-05-01T15:02:11.001Z</time></trkpt><trkpt lat="44.21669954314137" lon="11.86415657763825"><ele>98.0</ele><time>2026-05-01T15:02:12.001Z</time></trkpt><trkpt lat="44.21662652325408" lon="11.864207988179036"><ele>98.0</ele><time>2026-05-01T15:02:13.001Z</time></trkpt><trkpt lat="44.216570438649846" lon="11.864292944406403"><ele>98.0</ele><time>2026-05-01T15:02:14.001Z</time></trkpt><trkpt lat="44.216540494950586" lon="11.86440350857185"><ele>97.99999999999999</ele><time>2026-05-01T15:02:15.001Z</time></trkpt><trkpt lat="44.2165599244003" lon="11.864521831392034"><ele>98.0</ele><time>2026-05-01T15:02:16.001Z</time></trkpt><trkpt lat="44.21655746752617" lon="11.86462859094545"><ele>98.49999999999999</ele><time>2026-05-01T15:02:17.001Z</time></trkpt><trkpt lat="44.21653079575045" lon="11.864742069148992"><ele>99.0</ele><time>2026-05-01T15:02:18.002Z</time></trkpt><trkpt lat="44.21647981608396" lon="11.864838958451697"><ele>99.5</ele><time>2026-05-01T15:02:19.002Z</time></trkpt><trkpt lat="44.21639754478904" lon="11.864886965933591"><ele>100.0</ele><time>2026-05-01T15:02:20.002Z</time></trkpt><trkpt lat="44.21632092900363" lon="11.864945262193826"><ele>100.49999999999999</ele><time>2026-05-01T15:02:21.002Z</time></trkpt><trkpt lat="44.216246502317134" lon="11.864994032877746"><ele>101.0</ele><time>2026-05-01T15:02:22.002Z</time></trkpt><trkpt lat="44.21616581741239" lon="11.865040742198188"><ele>102.33333333333333</ele><time>2026-05-01T15:02:23.002Z</time></trkpt><trkpt lat="44.21608509308872" lon="11.865086835708738"><ele>103.66666666666666</ele><time>2026-05-01T15:02:24.002Z</time></trkpt><trkpt lat="44.21600959724797" lon="11.865126974057867"><ele>105.0</ele><time>2026-05-01T15:02:25.002Z</time></trkpt><trkpt lat="44.215931277020694" lon="11.865166190358988"><ele>106.33333333333334</ele><time>2026-05-01T15:02:26.002Z</time></trkpt><trkpt lat="44.21585362561505" lon="11.865201659652087"><ele>107.66666666666667</ele><time>2026-05-01T15:02:27.002Z</time></trkpt><trkpt lat="44.215772626134026" lon="11.865223026327627"><ele>109.0</ele><time>2026-05-01T15:02:28.002Z</time></trkpt><trkpt lat="44.21568534449977" lon="11.865208179387858"><ele>112.16666666666667</ele><time>2026-05-01T15:02:29.002Z</time></trkpt><trkpt lat="44.21560794812057" lon="11.865177153403385"><ele>115.33333333333334</ele><time>2026-05-01T15:02:30.002Z</time></trkpt><trkpt lat="44.215528010462805" lon="11.865156017720771"><ele>118.5</ele><time>2026-05-01T15:02:31.002Z</time></trkpt><trkpt lat="44.21544507700848" lon="11.865146717684329"><ele>121.66666666666666</ele><time>2026-05-01T15:02:32.002Z</time></trkpt><trkpt lat="44.21536240874304" lon="11.865150670364695"><ele>124.83333333333333</ele><time>2026-05-01T15:02:33.002Z</time></trkpt><trkpt lat="44.21527841743606" lon="11.865180609066917"><ele>128.0</ele><time>2026-05-01T15:02:34.002Z</time></trkpt><trkpt lat="44.21520443634694" lon="11.865237862256217"><ele>128.0</ele><time>2026-05-01T15:02:35.002Z</time></trkpt><trkpt lat="44.21514310763729" lon="11.865327262672759"><ele>128.0</ele><time>2026-05-01T15:02:36.002Z</time></trkpt><trkpt lat="44.21511896610169" lon="11.865461429251873"><ele>128.0</ele><time>2026-05-01T15:02:37.002Z</time></trkpt><trkpt lat="44.215090938346776" lon="11.865586856068878"><ele>128.0</ele><time>2026-05-01T15:02:38.002Z</time></trkpt><trkpt lat="44.2150680306387" lon="11.865713641051965"><ele>128.0</ele><time>2026-05-01T15:02:39.002Z</time></trkpt><trkpt lat="44.21504828866526" lon="11.865837111210713"><ele>130.6</ele><time>2026-05-01T15:02:40.002Z</time></trkpt><trkpt lat="44.2150341838869" lon="11.865961239515174"><ele>133.20000000000002</ele><time>2026-05-01T15:02:41.002Z</time></trkpt><trkpt lat="44.215034771822026" lon="11.866082641572953"><ele>135.8</ele><time>2026-05-01T15:02:42.002Z</time></trkpt><trkpt lat="44.215051677598915" lon="11.866206854248814"><ele>138.4</ele><time>2026-05-01T15:02:43.002Z</time></trkpt><trkpt lat="44.215089324408325" lon="11.86632491326788"><ele>141.0</ele><time>2026-05-01T15:02:44.002Z</time></trkpt><trkpt lat="44.215140950341876" lon="11.866443602316979"><ele>141.0</ele><time>2026-05-01T15:02:45.002Z</time></trkpt><trkpt lat="44.21520289363119" lon="11.866555382490926"><ele>141.0</ele><time>2026-05-01T15:02:46.002Z</time></trkpt><trkpt lat="44.21526835450177" lon="11.866659498206952"><ele>141.0</ele><time>2026-05-01T15:02:47.002Z</time></trkpt><trkpt lat="44.21533786574398" lon="11.86676637316008"><ele>141.0</ele><time>2026-05-01T15:02:48.002Z</time></trkpt><trkpt lat="44.21541039435922" lon="11.866878255256037"><ele>141.0</ele><time>2026-05-01T15:02:49.002Z</time></trkpt><trkpt lat="44.21548826301851" lon="11.86699709237445"><ele>140.75</ele><time>2026-05-01T15:02:50.002Z</time></trkpt><trkpt lat="44.21556759143629" lon="11.867118635255535"><ele>140.5</ele><time>2026-05-01T15:02:51.002Z</time></trkpt><trkpt lat="44.21564345827299" lon="11.867238779197908"><ele>140.25</ele><time>2026-05-01T15:02:52.002Z</time></trkpt><trkpt lat="44.21571076007004" lon="11.867358786731728"><ele>140.0</ele><time>2026-05-01T15:02:53.002Z</time></trkpt><trkpt lat="44.21577893032899" lon="11.867479539851349"><ele>140.0</ele><time>2026-05-01T15:02:54.002Z</time></trkpt><trkpt lat="44.21585191644773" lon="11.867607137766957"><ele>140.0</ele><time>2026-05-01T15:02:55.002Z</time></trkpt><trkpt lat="44.215936908627064" lon="11.867715956416156"><ele>140.0</ele><time>2026-05-01T15:02:56.002Z</time></trkpt><trkpt lat="44.216035914663344" lon="11.867816866629823"><ele>140.0</ele><time>2026-05-01T15:02:57.002Z</time></trkpt><trkpt lat="44.21614476854113" lon="11.86790735244841"><ele>141.25</ele><time>2026-05-01T15:02:58.002Z</time></trkpt><trkpt lat="44.21624872012672" lon="11.867997303564604"><ele>142.5</ele><time>2026-05-01T15:02:59.002Z</time></trkpt><trkpt lat="44.216342596174854" lon="11.868096363712764"><ele>143.75</ele><time>2026-05-01T15:03:00.003Z</time></trkpt><trkpt lat="44.216440131671646" lon="11.868188756402974"><ele>145.0</ele><time>2026-05-01T15:03:01.003Z</time></trkpt><trkpt lat="44.21653889215667" lon="11.868279873977524"><ele>145.0</ele><time>2026-05-01T15:03:02.003Z</time></trkpt><trkpt lat="44.216636507849294" lon="11.868379432132908"><ele>145.0</ele><time>2026-05-01T15:03:03Z</time></trkpt><trkpt lat="44.21673249751361" lon="11.868475238076321"><ele>145.0</ele><time>2026-05-01T15:03:04Z</time></trkpt><trkpt lat="44.21681561797402" lon="11.868553553731749"><ele>145.0</ele><time>2026-05-01T15:03:05Z</time></trkpt><trkpt lat="44.21689368487465" lon="11.86862465745889"><ele>145.0</ele><time>2026-05-01T15:03:06Z</time></trkpt><trkpt lat="44.216961425220234" lon="11.868694165265742"><ele>147.8</ele><time>2026-05-01T15:03:07Z</time></trkpt><trkpt lat="44.217011173530466" lon="11.868769672448847"><ele>150.6</ele><time>2026-05-01T15:03:08Z</time></trkpt><trkpt lat="44.217071988888534" lon="11.868896380021452"><ele>153.4</ele><time>2026-05-01T15:03:10Z</time></trkpt><trkpt lat="44.21708405392878" lon="11.869021138533808"><ele>156.2</ele><time>2026-05-01T15:03:12Z</time></trkpt><trkpt lat="44.216989103780875" lon="11.869078280470434"><ele>159.0</ele><time>2026-05-01T15:03:14Z</time></trkpt><trkpt lat="44.21690350544417" lon="11.86895881678422"><ele>159.0</ele><time>2026-05-01T15:03:16Z</time></trkpt><trkpt lat="44.21680670440324" lon="11.868891446064579"><ele>159.0</ele><time>2026-05-01T15:03:18Z</time></trkpt><trkpt lat="44.216705868662444" lon="11.868973960958826"><ele>159.0</ele><time>2026-05-01T15:03:20Z</time></trkpt><trkpt lat="44.216733483906154" lon="11.86909871492655"><ele>159.0</ele><time>2026-05-01T15:03:21Z</time></trkpt><trkpt lat="44.216774009039845" lon="11.869174312343716"><ele>159.0</ele><time>2026-05-01T15:03:22Z</time></trkpt><trkpt lat="44.21683754204273" lon="11.86922622515887"><ele>160.2</ele><time>2026-05-01T15:03:23Z</time></trkpt><trkpt lat="44.21690095232365" lon="11.869278632441727"><ele>161.4</ele><time>2026-05-01T15:03:24Z</time></trkpt><trkpt lat="44.216974182840666" lon="11.86939831074741"><ele>162.6</ele><time>2026-05-01T15:03:26Z</time></trkpt><trkpt lat="44.216958223014686" lon="11.86951525694574"><ele>163.8</ele><time>2026-05-01T15:03:28Z</time></trkpt><trkpt lat="44.21686972268755" lon="11.869459773809261"><ele>165.0</ele><time>2026-05-01T15:03:30Z</time></trkpt><trkpt lat="44.21676662674019" lon="11.869351663719517"><ele>165.0</ele><time>2026-05-01T15:03:32.001Z</time></trkpt><trkpt lat="44.216683767307295" lon="11.869299199679828"><ele>165.0</ele><time>2026-05-01T15:03:33.001Z</time></trkpt><trkpt lat="44.21659014184008" lon="11.869261516886853"><ele>165.0</ele><time>2026-05-01T15:03:34.001Z</time></trkpt><trkpt lat="44.21649693537177" lon="11.869234808246727"><ele>165.0</ele><time>2026-05-01T15:03:35.001Z</time></trkpt><trkpt lat="44.216400989381775" lon="11.86920790647843"><ele>165.0</ele><time>2026-05-01T15:03:36.001Z</time></trkpt><trkpt lat="44.216310087007805" lon="11.869182418891832"><ele>165.83333333333334</ele><time>2026-05-01T15:03:37.001Z</time></trkpt><trkpt lat="44.21622401238532" lon="11.869158284911126"><ele>166.66666666666666</ele><time>2026-05-01T15:03:38.001Z</time></trkpt><trkpt lat="44.2161384945836" lon="11.86913256728499"><ele>167.5</ele><time>2026-05-01T15:03:39.001Z</time></trkpt><trkpt lat="44.216052037146184" lon="11.86910319771897"><ele>168.33333333333331</ele><time>2026-05-01T15:03:40.001Z</time></trkpt><trkpt lat="44.215965557129124" lon="11.869073356663963"><ele>169.16666666666666</ele><time>2026-05-01T15:03:41.001Z</time></trkpt><trkpt lat="44.21589168835379" lon="11.869050402473954"><ele>170.0</ele><time>2026-05-01T15:03:42.001Z</time></trkpt><trkpt lat="44.215829171135915" lon="11.869032929875024"><ele>170.0</ele><time>2026-05-01T15:03:43.001Z</time></trkpt><trkpt lat="44.21573051491549" lon="11.86903773856992"><ele>170.0</ele><time>2026-05-01T15:03:45.001Z</time></trkpt><trkpt lat="44.21570994532046" lon="11.86913206402525"><ele>170.0</ele><time>2026-05-01T15:03:47.001Z</time></trkpt><trkpt lat="44.21580337089736" lon="11.86928586134357"><ele>170.0</ele><time>2026-05-01T15:04:04.001Z</time></trkpt><trkpt lat="44.21586591252781" lon="11.86931315852896"><ele>170.0</ele><time>2026-05-01T15:04:05.001Z</time></trkpt><trkpt lat="44.21593095964871" lon="11.869336021775744"><ele>170.0</ele><time>2026-05-01T15:04:06.001Z</time></trkpt><trkpt lat="44.21601231498171" lon="11.869386149343535"><ele>169.4</ele><time>2026-05-01T15:04:07.001Z</time></trkpt><trkpt lat="44.21608778770146" lon="11.869453906955638"><ele>168.8</ele><time>2026-05-01T15:04:08.001Z</time></trkpt><trkpt lat="44.2161520243872" lon="11.869530464306512"><ele>168.2</ele><time>2026-05-01T15:04:09.001Z</time></trkpt><trkpt lat="44.21620950141538" lon="11.869631659076155"><ele>167.6</ele><time>2026-05-01T15:04:10.001Z</time></trkpt><trkpt lat="44.21623264885927" lon="11.869773613377308"><ele>167.0</ele><time>2026-05-01T15:04:11.001Z</time></trkpt><trkpt lat="44.216268881309574" lon="11.869921810537447"><ele>167.0</ele><time>2026-05-01T15:04:12.001Z</time></trkpt><trkpt lat="44.216304989346874" lon="11.870093409260184"><ele>167.0</ele><time>2026-05-01T15:04:13.001Z</time></trkpt><trkpt lat="44.2163368124432" lon="11.870265681757553"><ele>167.0</ele><time>2026-05-01T15:04:14.001Z</time></trkpt><trkpt lat="44.2163706491408" lon="11.870451852686553"><ele>167.0</ele><time>2026-05-01T15:04:15.002Z</time></trkpt><trkpt lat="44.216414627580505" lon="11.87064222396304"><ele>167.5</ele><time>2026-05-01T15:04:16.002Z</time></trkpt><trkpt lat="44.21644466418757" lon="11.870838444017132"><ele>168.0</ele><time>2026-05-01T15:04:17.002Z</time></trkpt><trkpt lat="44.2164728043935" lon="11.871033746389342"><ele>168.5</ele><time>2026-05-01T15:04:18.002Z</time></trkpt><trkpt lat="44.21650517260596" lon="11.871212699060324"><ele>169.0</ele><time>2026-05-01T15:04:19.002Z</time></trkpt><trkpt lat="44.21653624645395" lon="11.871388261156177"><ele>169.0</ele><time>2026-05-01T15:04:20.002Z</time></trkpt><trkpt lat="44.216564408420766" lon="11.871550202921625"><ele>169.0</ele><time>2026-05-01T15:04:21.002Z</time></trkpt><trkpt lat="44.21659142514729" lon="11.87170666979465"><ele>169.0</ele><time>2026-05-01T15:04:22.002Z</time></trkpt><trkpt lat="44.2166225162475" lon="11.871848709357941"><ele>169.0</ele><time>2026-05-01T15:04:23.002Z</time></trkpt><trkpt lat="44.21665879445692" lon="11.871981005406134"><ele>169.0</ele><time>2026-05-01T15:04:24.002Z</time></trkpt><trkpt lat="44.216700489719955" lon="11.872108253618723"><ele>167.0</ele><time>2026-05-01T15:04:25.002Z</time></trkpt><trkpt lat="44.216747291103815" lon="11.87222509044193"><ele>165.0</ele><time>2026-05-01T15:04:26.002Z</time></trkpt><trkpt lat="44.21680407298063" lon="11.872326102873865"><ele>163.0</ele><time>2026-05-01T15:04:27.002Z</time></trkpt><trkpt lat="44.216884356294194" lon="11.872421297625705"><ele>161.0</ele><time>2026-05-01T15:04:28.002Z</time></trkpt><trkpt lat="44.216982263550456" lon="11.872506185012366"><ele>159.0</ele><time>2026-05-01T15:04:29.002Z</time></trkpt><trkpt lat="44.21709279744842" lon="11.872597275301153"><ele>157.25</ele><time>2026-05-01T15:04:30.002Z</time></trkpt><trkpt lat="44.217206923096676" lon="11.872695354350142"><ele>155.5</ele><time>2026-05-01T15:04:31.002Z</time></trkpt><trkpt lat="44.2173114791677" lon="11.872794505658037"><ele>153.75</ele><time>2026-05-01T15:04:32.002Z</time></trkpt><trkpt lat="44.217410244902744" lon="11.872887956812091"><ele>152.0</ele><time>2026-05-01T15:04:33.002Z</time></trkpt><trkpt lat="44.217503583595146" lon="11.872968424121693"><ele>152.0</ele><time>2026-05-01T15:04:34.002Z</time></trkpt><trkpt lat="44.217597286784525" lon="11.87303951687098"><ele>152.0</ele><time>2026-05-01T15:04:35.002Z</time></trkpt><trkpt lat="44.21770196276308" lon="11.873080993306742"><ele>152.0</ele><time>2026-05-01T15:04:36.002Z</time></trkpt><trkpt lat="44.21780710284071" lon="11.873119363432675"><ele>152.0</ele><time>2026-05-01T15:04:37.002Z</time></trkpt><trkpt lat="44.21789724735089" lon="11.873136515741548"><ele>152.0</ele><time>2026-05-01T15:04:38.002Z</time></trkpt><trkpt lat="44.21798217771054" lon="11.873150408533343"><ele>152.0</ele><time>2026-05-01T15:04:39.002Z</time></trkpt><trkpt lat="44.21805564559939" lon="11.873173416997977"><ele>152.0</ele><time>2026-05-01T15:04:40.002Z</time></trkpt><trkpt lat="44.21812005475732" lon="11.873222863025124"><ele>152.0</ele><time>2026-05-01T15:04:41.002Z</time></trkpt><trkpt lat="44.21817622237912" lon="11.873312329238109"><ele>152.0</ele><time>2026-05-01T15:04:42.002Z</time></trkpt><trkpt lat="44.218185725280506" lon="11.873450537522697"><ele>152.0</ele><time>2026-05-01T15:04:43.002Z</time></trkpt><trkpt lat="44.21820496634674" lon="11.873595645209733"><ele>152.0</ele><time>2026-05-01T15:04:44.002Z</time></trkpt><trkpt lat="44.218219228087484" lon="11.873731698229141"><ele>152.4</ele><time>2026-05-01T15:04:45.002Z</time></trkpt><trkpt lat="44.218248564711985" lon="11.873889030174825"><ele>152.79999999999998</ele><time>2026-05-01T15:04:46.002Z</time></trkpt><trkpt lat="44.218261036575335" lon="11.874039022198243"><ele>153.2</ele><time>2026-05-01T15:04:47.002Z</time></trkpt><trkpt lat="44.21827347916774" lon="11.874180571512472"><ele>153.6</ele><time>2026-05-01T15:04:48.002Z</time></trkpt><trkpt lat="44.21828282565031" lon="11.874317123930032"><ele>154.0</ele><time>2026-05-01T15:04:49.002Z</time></trkpt><trkpt lat="44.218295688633425" lon="11.874452336620928"><ele>155.2</ele><time>2026-05-01T15:04:50.002Z</time></trkpt><trkpt lat="44.218303098277524" lon="11.87458345477815"><ele>156.4</ele><time>2026-05-01T15:04:51.002Z</time></trkpt><trkpt lat="44.21830980533409" lon="11.874709068033448"><ele>157.6</ele><time>2026-05-01T15:04:52.002Z</time></trkpt><trkpt lat="44.21831389617005" lon="11.874832670828205"><ele>158.8</ele><time>2026-05-01T15:04:53.002Z</time></trkpt><trkpt lat="44.21831561593826" lon="11.874958254941435"><ele>160.0</ele><time>2026-05-01T15:04:54.002Z</time></trkpt><trkpt lat="44.21832064902335" lon="11.875088894936802"><ele>160.4</ele><time>2026-05-01T15:04:55.002Z</time></trkpt><trkpt lat="44.21832953624861" lon="11.87521546444229"><ele>160.8</ele><time>2026-05-01T15:04:56.002Z</time></trkpt><trkpt lat="44.21833858674961" lon="11.875342215260718"><ele>161.2</ele><time>2026-05-01T15:04:57.002Z</time></trkpt><trkpt lat="44.21835002619052" lon="11.875469742986073"><ele>161.6</ele><time>2026-05-01T15:04:58.003Z</time></trkpt><trkpt lat="44.21836412430048" lon="11.875597653170983"><ele>162.0</ele><time>2026-05-01T15:04:59.003Z</time></trkpt><trkpt lat="44.2183803989323" lon="11.875721160264423"><ele>162.0</ele><time>2026-05-01T15:05:00.003Z</time></trkpt><trkpt lat="44.21839840334428" lon="11.875839824864217"><ele>162.0</ele><time>2026-05-01T15:05:01.003Z</time></trkpt><trkpt lat="44.218416073805535" lon="11.875947435533272"><ele>162.0</ele><time>2026-05-01T15:05:02.003Z</time></trkpt><trkpt lat="44.21843556442381" lon="11.876050346426071"><ele>162.0</ele><time>2026-05-01T15:05:03.003Z</time></trkpt><trkpt lat="44.218467875882205" lon="11.876143455998502"><ele>162.0</ele><time>2026-05-01T15:05:04.003Z</time></trkpt><trkpt lat="44.218508736016915" lon="11.876219252476286"><ele>162.0</ele><time>2026-05-01T15:05:05.003Z</time></trkpt><trkpt lat="44.218617882104176" lon="11.876321639203775"><ele>162.6</ele><time>2026-05-01T15:05:07.003Z</time></trkpt><trkpt lat="44.21868752942179" lon="11.876353999729245"><ele>163.2</ele><time>2026-05-01T15:05:08.003Z</time></trkpt><trkpt lat="44.21877077787841" lon="11.87637612790477"><ele>163.8</ele><time>2026-05-01T15:05:09Z</time></trkpt><trkpt lat="44.21886938315209" lon="11.876387707930855"><ele>164.4</ele><time>2026-05-01T15:05:10Z</time></trkpt><trkpt lat="44.21896559080266" lon="11.876395066020217"><ele>165.0</ele><time>2026-05-01T15:05:11Z</time></trkpt><trkpt lat="44.21906339403138" lon="11.876402297089774"><ele>165.0</ele><time>2026-05-01T15:05:12Z</time></trkpt><trkpt lat="44.21916624742721" lon="11.876425231329307"><ele>165.0</ele><time>2026-05-01T15:05:13Z</time></trkpt><trkpt lat="44.21926594055235" lon="11.876465575598067"><ele>165.0</ele><time>2026-05-01T15:05:14Z</time></trkpt><trkpt lat="44.21936747296586" lon="11.876510235786943"><ele>165.0</ele><time>2026-05-01T15:05:15Z</time></trkpt><trkpt lat="44.21947222796151" lon="11.876560195750786"><ele>165.0</ele><time>2026-05-01T15:05:16Z</time></trkpt><trkpt lat="44.219578625829534" lon="11.876606788102672"><ele>165.0</ele><time>2026-05-01T15:05:17Z</time></trkpt><trkpt lat="44.21968386097491" lon="11.876653541342197"><ele>165.0</ele><time>2026-05-01T15:05:18Z</time></trkpt><trkpt lat="44.219788875055414" lon="11.876698398441745"><ele>165.0</ele><time>2026-05-01T15:05:19Z</time></trkpt><trkpt lat="44.219887377075906" lon="11.876738545041436"><ele>165.0</ele><time>2026-05-01T15:05:20Z</time></trkpt><trkpt lat="44.21997781525362" lon="11.876772097577227"><ele>165.0</ele><time>2026-05-01T15:05:21Z</time></trkpt><trkpt lat="44.220067071969574" lon="11.876785576774354"><ele>164.6</ele><time>2026-05-01T15:05:22Z</time></trkpt><trkpt lat="44.22016088403172" lon="11.876795738397895"><ele>164.2</ele><time>2026-05-01T15:05:23Z</time></trkpt><trkpt lat="44.22026133589781" lon="11.876813275576854"><ele>163.8</ele><time>2026-05-01T15:05:24Z</time></trkpt><trkpt lat="44.22035954791526" lon="11.876845376905667"><ele>163.4</ele><time>2026-05-01T15:05:25Z</time></trkpt><trkpt lat="44.22045076692228" lon="11.876901007249543"><ele>163.0</ele><time>2026-05-01T15:05:26Z</time></trkpt><trkpt lat="44.22053502140565" lon="11.876988783037811"><ele>163.0</ele><time>2026-05-01T15:05:27Z</time></trkpt><trkpt lat="44.22061095764144" lon="11.877092537433564"><ele>163.0</ele><time>2026-05-01T15:05:28Z</time></trkpt><trkpt lat="44.220678328281046" lon="11.877201543355874"><ele>163.0</ele><time>2026-05-01T15:05:29Z</time></trkpt><trkpt lat="44.2207536285942" lon="11.877316976040063"><ele>163.0</ele><time>2026-05-01T15:05:30Z</time></trkpt><trkpt lat="44.220825291378986" lon="11.877427541699657"><ele>163.0</ele><time>2026-05-01T15:05:31Z</time></trkpt><trkpt lat="44.22089577554834" lon="11.877535164605204"><ele>165.0</ele><time>2026-05-01T15:05:32Z</time></trkpt><trkpt lat="44.22096810334803" lon="11.877642345809072"><ele>167.0</ele><time>2026-05-01T15:05:33Z</time></trkpt><trkpt lat="44.22104373347847" lon="11.877759671166762"><ele>169.0</ele><time>2026-05-01T15:05:34Z</time></trkpt><trkpt lat="44.22111913614864" lon="11.877873361523438"><ele>171.0</ele><time>2026-05-01T15:05:35Z</time></trkpt><trkpt lat="44.22119204646979" lon="11.87798422218534"><ele>173.0</ele><time>2026-05-01T15:05:36Z</time></trkpt><trkpt lat="44.22126423354574" lon="11.878095478604275"><ele>173.0</ele><time>2026-05-01T15:05:37Z</time></trkpt><trkpt lat="44.22133323494733" lon="11.87820385172536"><ele>173.0</ele><time>2026-05-01T15:05:38.001Z</time></trkpt><trkpt lat="44.22140137312822" lon="11.878320568306238"><ele>173.0</ele><time>2026-05-01T15:05:39.001Z</time></trkpt><trkpt lat="44.22146522916239" lon="11.878443030010956"><ele>173.0</ele><time>2026-05-01T15:05:40.001Z</time></trkpt><trkpt lat="44.22152211903152" lon="11.87856986874851"><ele>173.0</ele><time>2026-05-01T15:05:41.001Z</time></trkpt><trkpt lat="44.22157628493332" lon="11.878700870927121"><ele>170.0</ele><time>2026-05-01T15:05:42.001Z</time></trkpt><trkpt lat="44.22163290406687" lon="11.87882302827794"><ele>167.0</ele><time>2026-05-01T15:05:43.001Z</time></trkpt><trkpt lat="44.221697814205825" lon="11.87893417309866"><ele>164.0</ele><time>2026-05-01T15:05:44.001Z</time></trkpt><trkpt lat="44.22175856602751" lon="11.879064367154816"><ele>161.0</ele><time>2026-05-01T15:05:45.001Z</time></trkpt><trkpt lat="44.22184981824241" lon="11.879160826206752"><ele>158.0</ele><time>2026-05-01T15:05:46.001Z</time></trkpt><trkpt lat="44.22192617013774" lon="11.879277743108084"><ele>157.8</ele><time>2026-05-01T15:05:47.001Z</time></trkpt><trkpt lat="44.22200754848436" lon="11.879387404357916"><ele>157.60000000000002</ele><time>2026-05-01T15:05:48.001Z</time></trkpt><trkpt lat="44.222088966065414" lon="11.879497085723365"><ele>157.39999999999998</ele><time>2026-05-01T15:05:49.001Z</time></trkpt><trkpt lat="44.2221709158367" lon="11.879606022084785"><ele>157.2</ele><time>2026-05-01T15:05:50.001Z</time></trkpt><trkpt lat="44.22224965518044" lon="11.879704395913127"><ele>157.0</ele><time>2026-05-01T15:05:51.001Z</time></trkpt><trkpt lat="44.22232666685202" lon="11.879806409212208"><ele>157.0</ele><time>2026-05-01T15:05:52.001Z</time></trkpt><trkpt lat="44.22240802499494" lon="11.879906475272682"><ele>157.0</ele><time>2026-05-01T15:05:53.001Z</time></trkpt><trkpt lat="44.222497011382025" lon="11.88000756007474"><ele>157.0</ele><time>2026-05-01T15:05:54.001Z</time></trkpt><trkpt lat="44.222592824091116" lon="11.880106504173282"><ele>157.0</ele><time>2026-05-01T15:05:55.001Z</time></trkpt><trkpt lat="44.22269480196262" lon="11.880202981173982"><ele>156.4</ele><time>2026-05-01T15:05:56.001Z</time></trkpt><trkpt lat="44.222796484016165" lon="11.880288536285041"><ele>155.79999999999998</ele><time>2026-05-01T15:05:57.001Z</time></trkpt><trkpt lat="44.22289565514545" lon="11.880370420973081"><ele>155.2</ele><time>2026-05-01T15:05:58.001Z</time></trkpt><trkpt lat="44.22298661436498" lon="11.880456507975447"><ele>154.6</ele><time>2026-05-01T15:05:59.001Z</time></trkpt><trkpt lat="44.223072435240134" lon="11.880537535331584"><ele>154.0</ele><time>2026-05-01T15:06:00.001Z</time></trkpt><trkpt lat="44.223160792472235" lon="11.880609614051563"><ele>154.0</ele><time>2026-05-01T15:06:01.001Z</time></trkpt><trkpt lat="44.223263225584475" lon="11.880677268988302"><ele>154.0</ele><time>2026-05-01T15:06:02.001Z</time></trkpt><trkpt lat="44.22336747799451" lon="11.880744464539035"><ele>154.0</ele><time>2026-05-01T15:06:03.001Z</time></trkpt><trkpt lat="44.223472861989265" lon="11.880809435353466"><ele>154.0</ele><time>2026-05-01T15:06:04.001Z</time></trkpt><trkpt lat="44.2235841823026" lon="11.880868635517894"><ele>154.0</ele><time>2026-05-01T15:06:05.001Z</time></trkpt><trkpt lat="44.22368983169251" lon="11.880921289772408"><ele>154.0</ele><time>2026-05-01T15:06:06.001Z</time></trkpt><trkpt lat="44.22379771834986" lon="11.88097615924281"><ele>154.0</ele><time>2026-05-01T15:06:07.001Z</time></trkpt><trkpt lat="44.22390701142509" lon="11.881031366408916"><ele>154.0</ele><time>2026-05-01T15:06:08.001Z</time></trkpt><trkpt lat="44.224016870394976" lon="11.881090892157157"><ele>152.6</ele><time>2026-05-01T15:06:09.001Z</time></trkpt><trkpt lat="44.2241208721673" lon="11.881152284409895"><ele>151.2</ele><time>2026-05-01T15:06:10.001Z</time></trkpt><trkpt lat="44.22421554351577" lon="11.881206246411777"><ele>149.79999999999998</ele><time>2026-05-01T15:06:11.001Z</time></trkpt><trkpt lat="44.22429603831516" lon="11.881268503297862"><ele>148.4</ele><time>2026-05-01T15:06:12.001Z</time></trkpt><trkpt lat="44.22435878428078" lon="11.881343093633838"><ele>147.0</ele><time>2026-05-01T15:06:13.001Z</time></trkpt><trkpt lat="44.2244119989856" lon="11.8814452447678"><ele>147.0</ele><time>2026-05-01T15:06:14.001Z</time></trkpt><trkpt lat="44.22445521772657" lon="11.88158216587886"><ele>147.0</ele><time>2026-05-01T15:06:15.001Z</time></trkpt><trkpt lat="44.2244940384093" lon="11.881713355766777"><ele>147.0</ele><time>2026-05-01T15:06:16.001Z</time></trkpt><trkpt lat="44.22453606515212" lon="11.881846181225871"><ele>147.0</ele><time>2026-05-01T15:06:17.001Z</time></trkpt><trkpt lat="44.22457079021714" lon="11.881981852711501"><ele>147.0</ele><time>2026-05-01T15:06:18.001Z</time></trkpt><trkpt lat="44.22461611097321" lon="11.882108399955081"><ele>146.0</ele><time>2026-05-01T15:06:19.001Z</time></trkpt><trkpt lat="44.22465948802398" lon="11.882227253925082"><ele>145.0</ele><time>2026-05-01T15:06:20.001Z</time></trkpt><trkpt lat="44.22471134012571" lon="11.882338973073411"><ele>144.0</ele><time>2026-05-01T15:06:21.001Z</time></trkpt><trkpt lat="44.22476969511916" lon="11.88244952442162"><ele>143.0</ele><time>2026-05-01T15:06:22.001Z</time></trkpt><trkpt lat="44.22483374314882" lon="11.882558004422908"><ele>142.0</ele><time>2026-05-01T15:06:23.001Z</time></trkpt><trkpt lat="44.22490377064818" lon="11.882670730812876"><ele>142.0</ele><time>2026-05-01T15:06:24.001Z</time></trkpt><trkpt lat="44.22497559719546" lon="11.88279164292426"><ele>142.0</ele><time>2026-05-01T15:06:25.002Z</time></trkpt><trkpt lat="44.22504072711757" lon="11.88292066686968"><ele>142.0</ele><time>2026-05-01T15:06:26.002Z</time></trkpt><trkpt lat="44.2250936896303" lon="11.883043818796601"><ele>142.0</ele><time>2026-05-01T15:06:27.002Z</time></trkpt><trkpt lat="44.22513974606301" lon="11.883160497091879"><ele>142.0</ele><time>2026-05-01T15:06:28.002Z</time></trkpt><trkpt lat="44.2251794377258" lon="11.883295956768933"><ele>142.0</ele><time>2026-05-01T15:06:29.002Z</time></trkpt><trkpt lat="44.225217675181305" lon="11.883429463926918"><ele>142.0</ele><time>2026-05-01T15:06:30.002Z</time></trkpt><trkpt lat="44.22525124110823" lon="11.88355404943334"><ele>142.0</ele><time>2026-05-01T15:06:31.002Z</time></trkpt><trkpt lat="44.22529023646242" lon="11.883684438299632"><ele>142.0</ele><time>2026-05-01T15:06:32.002Z</time></trkpt><trkpt lat="44.2253438327911" lon="11.883813214593149"><ele>142.0</ele><time>2026-05-01T15:06:33.002Z</time></trkpt><trkpt lat="44.22541232104619" lon="11.883934569581468"><ele>141.75</ele><time>2026-05-01T15:06:34.002Z</time></trkpt><trkpt lat="44.22549136802853" lon="11.884048931224862"><ele>141.5</ele><time>2026-05-01T15:06:35.002Z</time></trkpt><trkpt lat="44.225574410334524" lon="11.884161236218919"><ele>141.25</ele><time>2026-05-01T15:06:36.002Z</time></trkpt><trkpt lat="44.225654011548826" lon="11.884289696714816"><ele>141.0</ele><time>2026-05-01T15:06:37.002Z</time></trkpt><trkpt lat="44.22574276561024" lon="11.884406603752407"><ele>141.5</ele><time>2026-05-01T15:06:38.002Z</time></trkpt><trkpt lat="44.22583257391727" lon="11.884517100653484"><ele>142.0</ele><time>2026-05-01T15:06:39.002Z</time></trkpt><trkpt lat="44.22592376962113" lon="11.884625420845449"><ele>142.5</ele><time>2026-05-01T15:06:40.002Z</time></trkpt><trkpt lat="44.226016156697554" lon="11.884739098038093"><ele>143.0</ele><time>2026-05-01T15:06:41.002Z</time></trkpt><trkpt lat="44.22611847440269" lon="11.88484453374561"><ele>143.0</ele><time>2026-05-01T15:06:42.002Z</time></trkpt><trkpt lat="44.22621656126524" lon="11.884944203206915"><ele>143.0</ele><time>2026-05-01T15:06:43.002Z</time></trkpt><trkpt lat="44.2263116722425" lon="11.88503105368402"><ele>143.0</ele><time>2026-05-01T15:06:44.002Z</time></trkpt><trkpt lat="44.22640230536805" lon="11.88510972547871"><ele>143.0</ele><time>2026-05-01T15:06:45.002Z</time></trkpt><trkpt lat="44.22649445976779" lon="11.885184405073062"><ele>143.0</ele><time>2026-05-01T15:06:46.002Z</time></trkpt><trkpt lat="44.22659825439625" lon="11.88525242288929"><ele>140.0</ele><time>2026-05-01T15:06:47.002Z</time></trkpt><trkpt lat="44.22671345282791" lon="11.885307438051974"><ele>137.0</ele><time>2026-05-01T15:06:48.002Z</time></trkpt><trkpt lat="44.22681719773439" lon="11.885356483502642"><ele>134.0</ele><time>2026-05-01T15:06:49.002Z</time></trkpt><trkpt lat="44.22691596624156" lon="11.88540000226177"><ele>131.0</ele><time>2026-05-01T15:06:50.002Z</time></trkpt><trkpt lat="44.22701289002683" lon="11.885439632369868"><ele>128.0</ele><time>2026-05-01T15:06:51.002Z</time></trkpt><trkpt lat="44.22710670029111" lon="11.885483211075638"><ele>128.0</ele><time>2026-05-01T15:06:52.002Z</time></trkpt><trkpt lat="44.22719268714955" lon="11.885538376424226"><ele>128.0</ele><time>2026-05-01T15:06:53.002Z</time></trkpt><trkpt lat="44.227273984518135" lon="11.885614077550576"><ele>128.0</ele><time>2026-05-01T15:06:54.002Z</time></trkpt><trkpt lat="44.227353767396934" lon="11.885706472195128"><ele>128.0</ele><time>2026-05-01T15:06:55.002Z</time></trkpt><trkpt lat="44.22743662985211" lon="11.885803860067012"><ele>128.0</ele><time>2026-05-01T15:06:56.002Z</time></trkpt><trkpt lat="44.227524834695814" lon="11.885903811371973"><ele>124.25</ele><time>2026-05-01T15:06:57.002Z</time></trkpt><trkpt lat="44.22762186159952" lon="11.88599822978952"><ele>120.5</ele><time>2026-05-01T15:06:58.002Z</time></trkpt><trkpt lat="44.22771719326261" lon="11.886094580112635"><ele>116.75</ele><time>2026-05-01T15:06:59.002Z</time></trkpt><trkpt lat="44.2278143406909" lon="11.886195315767784"><ele>113.0</ele><time>2026-05-01T15:07:00.002Z</time></trkpt><trkpt lat="44.22791498778799" lon="11.886296715377489"><ele>113.0</ele><time>2026-05-01T15:07:01.002Z</time></trkpt><trkpt lat="44.22801526534926" lon="11.886400733396943"><ele>113.0</ele><time>2026-05-01T15:07:02.002Z</time></trkpt><trkpt lat="44.228111567963815" lon="11.886500337405657"><ele>113.0</ele><time>2026-05-01T15:07:03.002Z</time></trkpt><trkpt lat="44.22820874933413" lon="11.886600651788386"><ele>113.0</ele><time>2026-05-01T15:07:04.002Z</time></trkpt><trkpt lat="44.22830291587621" lon="11.886704199218562"><ele>111.75</ele><time>2026-05-01T15:07:05.002Z</time></trkpt><trkpt lat="44.228396901021036" lon="11.886806370353302"><ele>110.5</ele><time>2026-05-01T15:07:06.002Z</time></trkpt><trkpt lat="44.228488593788526" lon="11.886907635544636"><ele>109.25</ele><time>2026-05-01T15:07:07.002Z</time></trkpt><trkpt lat="44.22857550197163" lon="11.887007387480015"><ele>108.0</ele><time>2026-05-01T15:07:08.002Z</time></trkpt><trkpt lat="44.228658710545034" lon="11.887098866106966"><ele>108.0</ele><time>2026-05-01T15:07:09.003Z</time></trkpt><trkpt lat="44.22873996574844" lon="11.887188240893721"><ele>108.00000000000001</ele><time>2026-05-01T15:07:10.003Z</time></trkpt><trkpt lat="44.22881867849536" lon="11.887285266758353"><ele>108.00000000000001</ele><time>2026-05-01T15:07:11.003Z</time></trkpt><trkpt lat="44.22889856087917" lon="11.887373108464546"><ele>108.0</ele><time>2026-05-01T15:07:12.003Z</time></trkpt><trkpt lat="44.228975915190034" lon="11.887461580052522"><ele>108.0</ele><time>2026-05-01T15:07:13.003Z</time></trkpt><trkpt lat="44.229050434735875" lon="11.88755470705829"><ele>105.0</ele><time>2026-05-01T15:07:14.003Z</time></trkpt><trkpt lat="44.22912457048455" lon="11.88765418226292"><ele>102.00000000000001</ele><time>2026-05-01T15:07:15Z</time></trkpt><trkpt lat="44.22920177629428" lon="11.887755231248553"><ele>99.0</ele><time>2026-05-01T15:07:16Z</time></trkpt><trkpt lat="44.229279049080645" lon="11.887854036372296"><ele>96.0</ele><time>2026-05-01T15:07:17Z</time></trkpt><trkpt lat="44.22935723903942" lon="11.887951173385412"><ele>93.0</ele><time>2026-05-01T15:07:18Z</time></trkpt><trkpt lat="44.229431432502714" lon="11.88804686303495"><ele>93.0</ele><time>2026-05-01T15:07:19Z</time></trkpt><trkpt lat="44.22949671953539" lon="11.88814785751223"><ele>93.0</ele><time>2026-05-01T15:07:20Z</time></trkpt><trkpt lat="44.22955169448079" lon="11.888257832472386"><ele>93.0</ele><time>2026-05-01T15:07:21Z</time></trkpt><trkpt lat="44.229593844464986" lon="11.888379177345366"><ele>93.0</ele><time>2026-05-01T15:07:22Z</time></trkpt><trkpt lat="44.22962598025184" lon="11.888515636528991"><ele>93.0</ele><time>2026-05-01T15:07:23Z</time></trkpt><trkpt lat="44.229645993923675" lon="11.888662810892075"><ele>91.75</ele><time>2026-05-01T15:07:24Z</time></trkpt><trkpt lat="44.22966371643737" lon="11.888815864554513"><ele>90.5</ele><time>2026-05-01T15:07:25Z</time></trkpt><trkpt lat="44.229680482816924" lon="11.888976249270065"><ele>89.25</ele><time>2026-05-01T15:07:26Z</time></trkpt><trkpt lat="44.22970316548301" lon="11.889137930004528"><ele>88.0</ele><time>2026-05-01T15:07:27Z</time></trkpt><trkpt lat="44.22972015896776" lon="11.889294704069416"><ele>85.60000000000001</ele><time>2026-05-01T15:07:28Z</time></trkpt><trkpt lat="44.229716166460705" lon="11.889437215537818"><ele>83.2</ele><time>2026-05-01T15:07:29Z</time></trkpt><trkpt lat="44.2297180063286" lon="11.889565525505077"><ele>80.8</ele><time>2026-05-01T15:07:30Z</time></trkpt><trkpt lat="44.229718430270815" lon="11.889678125304712"><ele>78.4</ele><time>2026-05-01T15:07:31Z</time></trkpt><trkpt lat="44.229733541012905" lon="11.889774736123671"><ele>76.0</ele><time>2026-05-01T15:07:32Z</time></trkpt><trkpt lat="44.22971781101206" lon="11.889930832753127"><ele>76.0</ele><time>2026-05-01T15:07:34Z</time></trkpt><trkpt lat="44.22976673281314" lon="11.890036758019376"><ele>76.0</ele><time>2026-05-01T15:07:36Z</time></trkpt><trkpt lat="44.2298714072267" lon="11.89002330997144"><ele>76.0</ele><time>2026-05-01T15:07:38Z</time></trkpt><trkpt lat="44.22993288401246" lon="11.889971652234012"><ele>76.0</ele><time>2026-05-01T15:07:39Z</time></trkpt><trkpt lat="44.230010433347836" lon="11.889920645692841"><ele>76.0</ele><time>2026-05-01T15:07:40Z</time></trkpt><trkpt lat="44.230091343793184" lon="11.889865443608924"><ele>76.0</ele><time>2026-05-01T15:07:41Z</time></trkpt><trkpt lat="44.23017978043274" lon="11.889803478493691"><ele>75.0</ele><time>2026-05-01T15:07:42Z</time></trkpt><trkpt lat="44.23027457366569" lon="11.889728815086439"><ele>74.0</ele><time>2026-05-01T15:07:43Z</time></trkpt><trkpt lat="44.23036129641528" lon="11.889647748654035"><ele>73.0</ele><time>2026-05-01T15:07:44Z</time></trkpt><trkpt lat="44.230438089018385" lon="11.889548762761983"><ele>72.0</ele><time>2026-05-01T15:07:45Z</time></trkpt><trkpt lat="44.23049730724725" lon="11.889446103255747"><ele>71.0</ele><time>2026-05-01T15:07:46Z</time></trkpt><trkpt lat="44.23054870626594" lon="11.889355837644175"><ele>71.0</ele><time>2026-05-01T15:07:47Z</time></trkpt><trkpt lat="44.230609581791974" lon="11.889283739510502"><ele>71.0</ele><time>2026-05-01T15:07:48Z</time></trkpt><trkpt lat="44.230687981949835" lon="11.889244862551253"><ele>71.0</ele><time>2026-05-01T15:07:49Z</time></trkpt><trkpt lat="44.23078546395103" lon="11.889250420736676"><ele>71.0</ele><time>2026-05-01T15:07:50.001Z</time></trkpt><trkpt lat="44.23089061158292" lon="11.889283041709158"><ele>71.0</ele><time>2026-05-01T15:07:51.001Z</time></trkpt><trkpt lat="44.231005012026976" lon="11.88932575889287"><ele>70.0</ele><time>2026-05-01T15:07:52.001Z</time></trkpt><trkpt lat="44.231117680914906" lon="11.889363422087484"><ele>69.0</ele><time>2026-05-01T15:07:53.001Z</time></trkpt><trkpt lat="44.231237847185" lon="11.889402674759285"><ele>68.0</ele><time>2026-05-01T15:07:54.001Z</time></trkpt><trkpt lat="44.231363718578585" lon="11.889444201892758"><ele>67.0</ele><time>2026-05-01T15:07:55.001Z</time></trkpt><trkpt lat="44.231494574275175" lon="11.88948726411052"><ele>66.5</ele><time>2026-05-01T15:07:56.001Z</time></trkpt><trkpt lat="44.23162295639588" lon="11.889532979637336"><ele>66.0</ele><time>2026-05-01T15:07:57.001Z</time></trkpt><trkpt lat="44.23174596574731" lon="11.88957591973344"><ele>65.5</ele><time>2026-05-01T15:07:58.001Z</time></trkpt><trkpt lat="44.231868704517325" lon="11.889614683609077"><ele>65.0</ele><time>2026-05-01T15:07:59.001Z</time></trkpt><trkpt lat="44.231996079280336" lon="11.889652133016144"><ele>65.0</ele><time>2026-05-01T15:08:00.001Z</time></trkpt><trkpt lat="44.23212527872861" lon="11.889690290317064"><ele>65.0</ele><time>2026-05-01T15:08:01.001Z</time></trkpt><trkpt lat="44.23225329414592" lon="11.889728243729797"><ele>65.0</ele><time>2026-05-01T15:08:02.001Z</time></trkpt><trkpt lat="44.23238360918465" lon="11.889769165276768"><ele>65.0</ele><time>2026-05-01T15:08:03.001Z</time></trkpt><trkpt lat="44.232516632619856" lon="11.889811990297066"><ele>64.75</ele><time>2026-05-01T15:08:04.001Z</time></trkpt><trkpt lat="44.23264698867773" lon="11.889854779202581"><ele>64.5</ele><time>2026-05-01T15:08:05.001Z</time></trkpt><trkpt lat="44.23276867957423" lon="11.889897513672755"><ele>64.25</ele><time>2026-05-01T15:08:06.001Z</time></trkpt><trkpt lat="44.23288029660637" lon="11.889936198274661"><ele>64.0</ele><time>2026-05-01T15:08:07.001Z</time></trkpt><trkpt lat="44.232977711371646" lon="11.889970468352654"><ele>63.99999999999999</ele><time>2026-05-01T15:08:08.001Z</time></trkpt><trkpt lat="44.23306850286433" lon="11.890002110147254"><ele>64.0</ele><time>2026-05-01T15:08:09.001Z</time></trkpt><trkpt lat="44.233145745281504" lon="11.890026989802392"><ele>64.0</ele><time>2026-05-01T15:08:10.001Z</time></trkpt><trkpt lat="44.23321484564761" lon="11.890047550074655"><ele>64.0</ele><time>2026-05-01T15:08:11.001Z</time></trkpt><trkpt lat="44.23331890080411" lon="11.890078400753165"><ele>63.99999999999999</ele><time>2026-05-01T15:08:13.001Z</time></trkpt><trkpt lat="44.23338138448602" lon="11.890104608499353"><ele>64.0</ele><time>2026-05-01T15:08:15.001Z</time></trkpt><trkpt lat="44.233452098388824" lon="11.890102576185141"><ele>63.6</ele><time>2026-05-01T15:08:37.001Z</time></trkpt><trkpt lat="44.23349824582943" lon="11.889977850588453"><ele>63.2</ele><time>2026-05-01T15:08:39.002Z</time></trkpt><trkpt lat="44.23350692760281" lon="11.889878172131194"><ele>62.800000000000004</ele><time>2026-05-01T15:08:40.002Z</time></trkpt><trkpt lat="44.23352533317629" lon="11.889750883015488"><ele>62.400000000000006</ele><time>2026-05-01T15:08:41.002Z</time></trkpt><trkpt lat="44.233547970125244" lon="11.889614249018665"><ele>62.0</ele><time>2026-05-01T15:08:42.002Z</time></trkpt><trkpt lat="44.23357384151683" lon="11.889470765197379"><ele>62.0</ele><time>2026-05-01T15:08:43.002Z</time></trkpt><trkpt lat="44.23360113189839" lon="11.889326191976444"><ele>62.0</ele><time>2026-05-01T15:08:44.002Z</time></trkpt><trkpt lat="44.23362591352918" lon="11.889187229593338"><ele>62.0</ele><time>2026-05-01T15:08:45.002Z</time></trkpt><trkpt lat="44.2336487609052" lon="11.889047705623396"><ele>62.0</ele><time>2026-05-01T15:08:46.002Z</time></trkpt><trkpt lat="44.233670897520334" lon="11.888909824386447"><ele>62.0</ele><time>2026-05-01T15:08:47.002Z</time></trkpt><trkpt lat="44.23369350989352" lon="11.888775795393833"><ele>61.833333333333336</ele><time>2026-05-01T15:08:48.002Z</time></trkpt><trkpt lat="44.233715207317566" lon="11.888651466335856"><ele>61.66666666666667</ele><time>2026-05-01T15:08:49.002Z</time></trkpt><trkpt lat="44.23373435147409" lon="11.888540274649866"><ele>61.5</ele><time>2026-05-01T15:08:50.002Z</time></trkpt><trkpt lat="44.23375867818697" lon="11.888438789464212"><ele>61.33333333333333</ele><time>2026-05-01T15:08:51.002Z</time></trkpt><trkpt lat="44.23380010622967" lon="11.888353540758727"><ele>61.166666666666664</ele><time>2026-05-01T15:08:52.002Z</time></trkpt><trkpt lat="44.23386063057981" lon="11.888283340424666"><ele>61.0</ele><time>2026-05-01T15:08:53.002Z</time></trkpt><trkpt lat="44.23394312070982" lon="11.888254520551838"><ele>60.599999999999994</ele><time>2026-05-01T15:08:54.002Z</time></trkpt><trkpt lat="44.23403285963488" lon="11.88826699449852"><ele>60.199999999999996</ele><time>2026-05-01T15:08:55.002Z</time></trkpt><trkpt lat="44.23412160758791" lon="11.888308178653311"><ele>59.800000000000004</ele><time>2026-05-01T15:08:56.002Z</time></trkpt><trkpt lat="44.234209928488355" lon="11.88835941769981"><ele>59.400000000000006</ele><time>2026-05-01T15:08:57.002Z</time></trkpt><trkpt lat="44.234291481401485" lon="11.888392577646565"><ele>59.0</ele><time>2026-05-01T15:08:58.002Z</time></trkpt><trkpt lat="44.23438165430856" lon="11.888398774604733"><ele>59.0</ele><time>2026-05-01T15:08:59.002Z</time></trkpt><trkpt lat="44.23448087618345" lon="11.888364349175921"><ele>59.00000000000001</ele><time>2026-05-01T15:09:00.002Z</time></trkpt><trkpt lat="44.23457607887812" lon="11.888284196989838"><ele>59.00000000000001</ele><time>2026-05-01T15:09:01.002Z</time></trkpt><trkpt lat="44.23466573677353" lon="11.888189167153998"><ele>59.0</ele><time>2026-05-01T15:09:02.002Z</time></trkpt><trkpt lat="44.23475681504114" lon="11.888091793301253"><ele>59.0</ele><time>2026-05-01T15:09:03.002Z</time></trkpt><trkpt lat="44.23485849299143" lon="11.887992063770401"><ele>59.5</ele><time>2026-05-01T15:09:04.002Z</time></trkpt><trkpt lat="44.234972334451314" lon="11.887893724771251"><ele>60.0</ele><time>2026-05-01T15:09:05.002Z</time></trkpt><trkpt lat="44.23509779673478" lon="11.88780096397582"><ele>60.5</ele><time>2026-05-01T15:09:06.002Z</time></trkpt><trkpt lat="44.23523174948909" lon="11.887699342761973"><ele>61.0</ele><time>2026-05-01T15:09:07.002Z</time></trkpt><trkpt lat="44.235360005409824" lon="11.887614575723328"><ele>61.0</ele><time>2026-05-01T15:09:08.002Z</time></trkpt><trkpt lat="44.23548200797787" lon="11.88753111213801"><ele>61.0</ele><time>2026-05-01T15:09:09.002Z</time></trkpt><trkpt lat="44.23559369786335" lon="11.887463229631553"><ele>61.0</ele><time>2026-05-01T15:09:10.002Z</time></trkpt><trkpt lat="44.23570031586531" lon="11.887401041111145"><ele>61.0</ele><time>2026-05-01T15:09:11.002Z</time></trkpt><trkpt lat="44.235813320631834" lon="11.88734379149726"><ele>61.0</ele><time>2026-05-01T15:09:12.002Z</time></trkpt><trkpt lat="44.23592292253828" lon="11.887297105779457"><ele>61.0</ele><time>2026-05-01T15:09:13.002Z</time></trkpt><trkpt lat="44.23603584078706" lon="11.88725869042511"><ele>61.0</ele><time>2026-05-01T15:09:14.002Z</time></trkpt><trkpt lat="44.236159657161096" lon="11.887250504157787"><ele>61.0</ele><time>2026-05-01T15:09:15.002Z</time></trkpt><trkpt lat="44.23629242424345" lon="11.887277975843901"><ele>61.0</ele><time>2026-05-01T15:09:16.002Z</time></trkpt><trkpt lat="44.236429816212464" lon="11.887325390924854"><ele>61.0</ele><time>2026-05-01T15:09:17.002Z</time></trkpt><trkpt lat="44.23657379938156" lon="11.887388817163497"><ele>61.0</ele><time>2026-05-01T15:09:18.002Z</time></trkpt><trkpt lat="44.23671443020177" lon="11.887454723885083"><ele>61.0</ele><time>2026-05-01T15:09:19.002Z</time></trkpt><trkpt lat="44.2368447904267" lon="11.887514257294216"><ele>61.0</ele><time>2026-05-01T15:09:20.002Z</time></trkpt><trkpt lat="44.23695992649439" lon="11.887586921033755"><ele>61.0</ele><time>2026-05-01T15:09:21Z</time></trkpt><trkpt lat="44.23707254061179" lon="11.887649472375811"><ele>61.0</ele><time>2026-05-01T15:09:22Z</time></trkpt><trkpt lat="44.237220378530324" lon="11.887728371978092"><ele>61.0</ele><time>2026-05-01T15:09:23Z</time></trkpt><trkpt lat="44.237340400591364" lon="11.887797022375848"><ele>60.5</ele><time>2026-05-01T15:09:24Z</time></trkpt><trkpt lat="44.23746164234502" lon="11.887867377033574"><ele>60.0</ele><time>2026-05-01T15:09:25Z</time></trkpt><trkpt lat="44.23758536631521" lon="11.887941323472868"><ele>59.5</ele><time>2026-05-01T15:09:26Z</time></trkpt><trkpt lat="44.23771303416045" lon="11.888013727116437"><ele>59.0</ele><time>2026-05-01T15:09:27Z</time></trkpt><trkpt lat="44.237844862552905" lon="11.888070794764483"><ele>59.0</ele><time>2026-05-01T15:09:28Z</time></trkpt><trkpt lat="44.237976393915844" lon="11.88811528738458"><ele>59.0</ele><time>2026-05-01T15:09:29Z</time></trkpt><trkpt lat="44.23810341822794" lon="11.88812991802501"><ele>59.0</ele><time>2026-05-01T15:09:30Z</time></trkpt><trkpt lat="44.23822545625457" lon="11.888119045535387"><ele>59.0</ele><time>2026-05-01T15:09:31Z</time></trkpt><trkpt lat="44.23833913874812" lon="11.888112871132162"><ele>58.6</ele><time>2026-05-01T15:09:32Z</time></trkpt><trkpt lat="44.23844639922172" lon="11.88808332753549"><ele>58.2</ele><time>2026-05-01T15:09:33Z</time></trkpt><trkpt lat="44.23854502782599" lon="11.888060544636426"><ele>57.800000000000004</ele><time>2026-05-01T15:09:34Z</time></trkpt><trkpt lat="44.23863448552869" lon="11.88810711328996"><ele>57.400000000000006</ele><time>2026-05-01T15:09:35Z</time></trkpt><trkpt lat="44.23871522084204" lon="11.888166986417898"><ele>57.0</ele><time>2026-05-01T15:09:36Z</time></trkpt><trkpt lat="44.23880076005421" lon="11.888248706925886"><ele>57.0</ele><time>2026-05-01T15:09:37Z</time></trkpt><trkpt lat="44.23889686497924" lon="11.888346045740409"><ele>57.0</ele><time>2026-05-01T15:09:38Z</time></trkpt><trkpt lat="44.239005622887774" lon="11.888432157029941"><ele>57.0</ele><time>2026-05-01T15:09:39Z</time></trkpt><trkpt lat="44.239108692265226" lon="11.88853917923788"><ele>57.0</ele><time>2026-05-01T15:09:40Z</time></trkpt><trkpt lat="44.23922281694592" lon="11.888640701615108"><ele>57.5</ele><time>2026-05-01T15:09:41Z</time></trkpt><trkpt lat="44.23933530353205" lon="11.888728666610204"><ele>58.0</ele><time>2026-05-01T15:09:42Z</time></trkpt><trkpt lat="44.239449367816114" lon="11.888795343014007"><ele>58.5</ele><time>2026-05-01T15:09:43Z</time></trkpt><trkpt lat="44.23957705588532" lon="11.888847200770254"><ele>59.0</ele><time>2026-05-01T15:09:44Z</time></trkpt><trkpt lat="44.2396987084251" lon="11.888864035166295"><ele>57.400000000000006</ele><time>2026-05-01T15:09:45Z</time></trkpt><trkpt lat="44.23980920956666" lon="11.888831130982233"><ele>55.800000000000004</ele><time>2026-05-01T15:09:46Z</time></trkpt><trkpt lat="44.23990412451803" lon="11.88879592354484"><ele>54.2</ele><time>2026-05-01T15:09:47Z</time></trkpt><trkpt lat="44.2400006765479" lon="11.88875295032795"><ele>52.599999999999994</ele><time>2026-05-01T15:09:48Z</time></trkpt><trkpt lat="44.240092782865695" lon="11.888686059323128"><ele>51.0</ele><time>2026-05-01T15:09:49Z</time></trkpt><trkpt lat="44.24019173468408" lon="11.888649180588768"><ele>51.0</ele><time>2026-05-01T15:09:50Z</time></trkpt><trkpt lat="44.24027473430787" lon="11.888585853373606"><ele>51.0</ele><time>2026-05-01T15:09:51Z</time></trkpt><trkpt lat="44.24034955651562" lon="11.88851826568974"><ele>51.0</ele><time>2026-05-01T15:09:52Z</time></trkpt><trkpt lat="44.240430011792554" lon="11.888413574516148"><ele>51.0</ele><time>2026-05-01T15:09:53Z</time></trkpt><trkpt lat="44.24050123403191" lon="11.888326972964194"><ele>51.0</ele><time>2026-05-01T15:09:54Z</time></trkpt><trkpt lat="44.24058317681536" lon="11.888222500018372"><ele>50.8</ele><time>2026-05-01T15:09:55Z</time></trkpt><trkpt lat="44.24067883404124" lon="11.888122549846447"><ele>50.599999999999994</ele><time>2026-05-01T15:09:56.001Z</time></trkpt><trkpt lat="44.24075384462016" lon="11.888013576291037"><ele>50.4</ele><time>2026-05-01T15:09:57.001Z</time></trkpt><trkpt lat="44.240841815152194" lon="11.887930698676692"><ele>50.2</ele><time>2026-05-01T15:09:58.001Z</time></trkpt><trkpt lat="44.24092691197176" lon="11.887864333026483"><ele>50.0</ele><time>2026-05-01T15:09:59.001Z</time></trkpt><trkpt lat="44.241012432577605" lon="11.887822907017012"><ele>50.0</ele><time>2026-05-01T15:10:00.001Z</time></trkpt><trkpt lat="44.24112586260702" lon="11.887838610153848"><ele>50.0</ele><time>2026-05-01T15:10:01.001Z</time></trkpt><trkpt lat="44.241218060257" lon="11.887847781058342"><ele>50.0</ele><time>2026-05-01T15:10:02.001Z</time></trkpt><trkpt lat="44.24134856706538" lon="11.88784334626012"><ele>50.0</ele><time>2026-05-01T15:10:04.001Z</time></trkpt><trkpt lat="44.241404060809536" lon="11.887770429884227"><ele>50.0</ele><time>2026-05-01T15:10:05.001Z</time></trkpt><trkpt lat="44.24141783470894" lon="11.887636734714787"><ele>50.2</ele><time>2026-05-01T15:10:06.001Z</time></trkpt><trkpt lat="44.24138891912375" lon="11.887486147265305"><ele>50.4</ele><time>2026-05-01T15:10:07.001Z</time></trkpt><trkpt lat="44.241401350283915" lon="11.887363235966456"><ele>50.599999999999994</ele><time>2026-05-01T15:10:08.001Z</time></trkpt><trkpt lat="44.241414639838084" lon="11.887233493478512"><ele>50.8</ele><time>2026-05-01T15:10:09.001Z</time></trkpt><trkpt lat="44.24143202618" lon="11.887100920653387"><ele>51.0</ele><time>2026-05-01T15:10:10.001Z</time></trkpt><trkpt lat="44.2414504329613" lon="11.886984728898982"><ele>50.5</ele><time>2026-05-01T15:10:11.001Z</time></trkpt><trkpt lat="44.24147455458373" lon="11.886861834335674"><ele>50.0</ele><time>2026-05-01T15:10:12.001Z</time></trkpt><trkpt lat="44.241521757908615" lon="11.886753007860847"><ele>49.5</ele><time>2026-05-01T15:10:13.001Z</time></trkpt><trkpt lat="44.24158896897606" lon="11.886657184670558"><ele>49.0</ele><time>2026-05-01T15:10:14.001Z</time></trkpt><trkpt lat="44.241647914674395" lon="11.886581419276098"><ele>48.5</ele><time>2026-05-01T15:10:15.001Z</time></trkpt><trkpt lat="44.24170717583877" lon="11.88649780154664"><ele>48.0</ele><time>2026-05-01T15:10:17.001Z</time></trkpt><trkpt lat="44.241795583752534" lon="11.88652331999816"><ele>48.0</ele><time>2026-05-01T15:10:20.001Z</time></trkpt><trkpt lat="44.2418724107041" lon="11.886635779477258"><ele>48.0</ele><time>2026-05-01T15:10:22.001Z</time></trkpt><trkpt lat="44.24197284871315" lon="11.886717502635804"><ele>48.0</ele><time>2026-05-01T15:10:24.001Z</time></trkpt><trkpt lat="44.24206765657031" lon="11.886781025856063"><ele>48.0</ele><time>2026-05-01T15:10:26.001Z</time></trkpt><trkpt lat="44.24219784706647" lon="11.886733294721509"><ele>48.0</ele><time>2026-05-01T15:10:28.001Z</time></trkpt><trkpt lat="44.24227277831641" lon="11.886685494605551"><ele>48.0</ele><time>2026-05-01T15:10:29.001Z</time></trkpt><trkpt lat="44.242347349445474" lon="11.886638355799494"><ele>48.0</ele><time>2026-05-01T15:10:30.001Z</time></trkpt><trkpt lat="44.2424275359493" lon="11.886586421438661"><ele>48.0</ele><time>2026-05-01T15:10:31.001Z</time></trkpt><trkpt lat="44.242516852561685" lon="11.886539710015482"><ele>48.0</ele><time>2026-05-01T15:10:32.001Z</time></trkpt><trkpt lat="44.2426088167757" lon="11.886473042242292"><ele>48.0</ele><time>2026-05-01T15:10:33.001Z</time></trkpt><trkpt lat="44.24270679998361" lon="11.886399907246373"><ele>48.0</ele><time>2026-05-01T15:10:34.001Z</time></trkpt><trkpt lat="44.24279864039195" lon="11.88631835409793"><ele>48.0</ele><time>2026-05-01T15:10:35.001Z</time></trkpt><trkpt lat="44.24289127557566" lon="11.886235209007205"><ele>48.0</ele><time>2026-05-01T15:10:36.001Z</time></trkpt><trkpt lat="44.242980685206014" lon="11.886132525382424"><ele>48.0</ele><time>2026-05-01T15:10:37.001Z</time></trkpt><trkpt lat="44.24306831041607" lon="11.886036820911167"><ele>48.0</ele><time>2026-05-01T15:10:38.001Z</time></trkpt><trkpt lat="44.24314936291923" lon="11.885944528501916"><ele>48.0</ele><time>2026-05-01T15:10:39.001Z</time></trkpt><trkpt lat="44.24322083416918" lon="11.885866398297868"><ele>48.0</ele><time>2026-05-01T15:10:40.001Z</time></trkpt><trkpt lat="44.24328189548084" lon="11.885803939072513"><ele>48.0</ele><time>2026-05-01T15:10:41.001Z</time></trkpt><trkpt lat="44.24334765150467" lon="11.885771001007548"><ele>48.0</ele><time>2026-05-01T15:10:42.002Z</time></trkpt><trkpt lat="44.24342450376688" lon="11.885765253749819"><ele>48.0</ele><time>2026-05-01T15:10:43.002Z</time></trkpt><trkpt lat="44.243506694111616" lon="11.88580151058143"><ele>48.0</ele><time>2026-05-01T15:10:44.002Z</time></trkpt><trkpt lat="44.24357557741861" lon="11.885895732307159"><ele>48.0</ele><time>2026-05-01T15:10:45.002Z</time></trkpt><trkpt lat="44.243647363393855" lon="11.88597007189761"><ele>48.0</ele><time>2026-05-01T15:10:46.002Z</time></trkpt><trkpt lat="44.24374753871416" lon="11.886076893936359"><ele>48.0</ele><time>2026-05-01T15:10:47.002Z</time></trkpt><trkpt lat="44.24383875680794" lon="11.886191428525857"><ele>48.0</ele><time>2026-05-01T15:10:48.002Z</time></trkpt><trkpt lat="44.243944191941125" lon="11.886339772043733"><ele>48.5</ele><time>2026-05-01T15:10:49.002Z</time></trkpt><trkpt lat="44.24403897605246" lon="11.88644032654411"><ele>49.0</ele><time>2026-05-01T15:10:50.002Z</time></trkpt><trkpt lat="44.24413296948462" lon="11.886559726879128"><ele>49.5</ele><time>2026-05-01T15:10:51.002Z</time></trkpt><trkpt lat="44.24422743126938" lon="11.886696986137549"><ele>50.0</ele><time>2026-05-01T15:10:52.002Z</time></trkpt><trkpt lat="44.244333132070906" lon="11.886842687806848"><ele>50.0</ele><time>2026-05-01T15:10:53.002Z</time></trkpt><trkpt lat="44.24442838689398" lon="11.88700018684223"><ele>50.0</ele><time>2026-05-01T15:10:54.002Z</time></trkpt><trkpt lat="44.24452101391678" lon="11.887160229776985"><ele>50.0</ele><time>2026-05-01T15:10:55.002Z</time></trkpt><trkpt lat="44.244610681350075" lon="11.88731313586771"><ele>50.0</ele><time>2026-05-01T15:10:56.002Z</time></trkpt><trkpt lat="44.244696019271665" lon="11.887450394073989"><ele>50.0</ele><time>2026-05-01T15:10:57.002Z</time></trkpt><trkpt lat="44.244783306278805" lon="11.887561192111557"><ele>50.0</ele><time>2026-05-01T15:10:58.002Z</time></trkpt><trkpt lat="44.24486816898979" lon="11.88767350402885"><ele>50.0</ele><time>2026-05-01T15:10:59.002Z</time></trkpt><trkpt lat="44.244958363373904" lon="11.88776311717926"><ele>50.0</ele><time>2026-05-01T15:11:00.002Z</time></trkpt><trkpt lat="44.24504540055968" lon="11.887848762174672"><ele>49.75</ele><time>2026-05-01T15:11:01.002Z</time></trkpt><trkpt lat="44.24514137094204" lon="11.887923548540964"><ele>49.5</ele><time>2026-05-01T15:11:02.002Z</time></trkpt><trkpt lat="44.245247021912576" lon="11.887994718358321"><ele>49.25</ele><time>2026-05-01T15:11:03.002Z</time></trkpt><trkpt lat="44.24535714698488" lon="11.888051875917178"><ele>49.0</ele><time>2026-05-01T15:11:04.002Z</time></trkpt><trkpt lat="44.24545928034042" lon="11.888099462184266"><ele>49.0</ele><time>2026-05-01T15:11:05.002Z</time></trkpt><trkpt lat="44.245557402718944" lon="11.888123356510254"><ele>49.0</ele><time>2026-05-01T15:11:06.002Z</time></trkpt><trkpt lat="44.245648547871795" lon="11.88811806825341"><ele>49.0</ele><time>2026-05-01T15:11:07.002Z</time></trkpt><trkpt lat="44.24573483096148" lon="11.888082464741611"><ele>49.0</ele><time>2026-05-01T15:11:08.002Z</time></trkpt><trkpt lat="44.245814848143084" lon="11.888010571341256"><ele>49.0</ele><time>2026-05-01T15:11:09.002Z</time></trkpt><trkpt lat="44.24588204039077" lon="11.887900505733114"><ele>48.5</ele><time>2026-05-01T15:11:10.002Z</time></trkpt><trkpt lat="44.24593653020032" lon="11.887765675747424"><ele>48.0</ele><time>2026-05-01T15:11:11.002Z</time></trkpt><trkpt lat="44.245987861384194" lon="11.887616897700324"><ele>47.5</ele><time>2026-05-01T15:11:12.002Z</time></trkpt><trkpt lat="44.246048578918646" lon="11.88746668760687"><ele>47.0</ele><time>2026-05-01T15:11:13.002Z</time></trkpt><trkpt lat="44.2461235674895" lon="11.887320719595781"><ele>48.5</ele><time>2026-05-01T15:11:14.002Z</time></trkpt><trkpt lat="44.246205509405506" lon="11.88717728462459"><ele>50.0</ele><time>2026-05-01T15:11:15.002Z</time></trkpt><trkpt lat="44.246313214853465" lon="11.887066037656126"><ele>51.5</ele><time>2026-05-01T15:11:16.002Z</time></trkpt><trkpt lat="44.2464147085834" lon="11.886947907060831"><ele>53.0</ele><time>2026-05-01T15:11:17.002Z</time></trkpt><trkpt lat="44.246527203070656" lon="11.886860746491797"><ele>53.75</ele><time>2026-05-01T15:11:18.002Z</time></trkpt><trkpt lat="44.24663559413023" lon="11.886765848379596"><ele>54.5</ele><time>2026-05-01T15:11:19.002Z</time></trkpt><trkpt lat="44.24674533059751" lon="11.886699891550432"><ele>55.25</ele><time>2026-05-01T15:11:20.002Z</time></trkpt><trkpt lat="44.24685055915117" lon="11.886626714361757"><ele>56.0</ele><time>2026-05-01T15:11:21.002Z</time></trkpt><trkpt lat="44.24694815954457" lon="11.886538561668534"><ele>57.199999999999996</ele><time>2026-05-01T15:11:22.002Z</time></trkpt><trkpt lat="44.24703320662496" lon="11.88645114955008"><ele>58.39999999999999</ele><time>2026-05-01T15:11:23.002Z</time></trkpt><trkpt lat="44.24711574781188" lon="11.886361674554426"><ele>59.6</ele><time>2026-05-01T15:11:24.002Z</time></trkpt><trkpt lat="44.247187821572865" lon="11.88626727665505"><ele>60.8</ele><time>2026-05-01T15:11:25.002Z</time></trkpt><trkpt lat="44.24724509766907" lon="11.886149571137159"><ele>62.0</ele><time>2026-05-01T15:11:26.002Z</time></trkpt><trkpt lat="44.24728975784939" lon="11.885999522235888"><ele>62.5</ele><time>2026-05-01T15:11:27Z</time></trkpt><trkpt lat="44.24731986102074" lon="11.885824988145455"><ele>63.0</ele><time>2026-05-01T15:11:28Z</time></trkpt><trkpt lat="44.247349392707996" lon="11.885639126549389"><ele>63.5</ele><time>2026-05-01T15:11:29Z</time></trkpt><trkpt lat="44.24737407308785" lon="11.88543732177276"><ele>64.0</ele><time>2026-05-01T15:11:30Z</time></trkpt><trkpt lat="44.24739663912659" lon="11.885236268100176"><ele>64.0</ele><time>2026-05-01T15:11:31Z</time></trkpt><trkpt lat="44.24741917994126" lon="11.885057078212347"><ele>64.0</ele><time>2026-05-01T15:11:32Z</time></trkpt><trkpt lat="44.24743934628213" lon="11.884898013619498"><ele>64.0</ele><time>2026-05-01T15:11:33Z</time></trkpt><trkpt lat="44.24745078627113" lon="11.884753894305502"><ele>64.0</ele><time>2026-05-01T15:11:34Z</time></trkpt><trkpt lat="44.24745810298291" lon="11.884619222731986"><ele>64.0</ele><time>2026-05-01T15:11:35Z</time></trkpt><trkpt lat="44.24747255340998" lon="11.88450242993037"><ele>63.99999999999999</ele><time>2026-05-01T15:11:36Z</time></trkpt><trkpt lat="44.24747416915741" lon="11.88440870951993"><ele>64.0</ele><time>2026-05-01T15:11:37Z</time></trkpt><trkpt lat="44.247479798921134" lon="11.884286979002175"><ele>64.0</ele><time>2026-05-01T15:11:39Z</time></trkpt><trkpt lat="44.24746551976137" lon="11.884170004864545"><ele>64.0</ele><time>2026-05-01T15:11:42Z</time></trkpt><trkpt lat="44.24742558460906" lon="11.884030639022031"><ele>63.99999999999999</ele><time>2026-05-01T15:11:44Z</time></trkpt><trkpt lat="44.24741425865889" lon="11.883941403602666"><ele>64.0</ele><time>2026-05-01T15:11:45Z</time></trkpt><trkpt lat="44.24739038291741" lon="11.883853286545506"><ele>64.42857142857143</ele><time>2026-05-01T15:11:46Z</time></trkpt><trkpt lat="44.24735320817549" lon="11.883779708533586"><ele>64.85714285714285</ele><time>2026-05-01T15:11:47Z</time></trkpt><trkpt lat="44.247342759814195" lon="11.88368077424811"><ele>65.28571428571428</ele><time>2026-05-01T15:11:48Z</time></trkpt><trkpt lat="44.247318962026085" lon="11.883594568059497"><ele>65.71428571428571</ele><time>2026-05-01T15:11:49Z</time></trkpt><trkpt lat="44.24728056241281" lon="11.883518293523702"><ele>66.14285714285714</ele><time>2026-05-01T15:11:50Z</time></trkpt><trkpt lat="44.24725754653885" lon="11.883433788762797"><ele>66.57142857142857</ele><time>2026-05-01T15:11:51Z</time></trkpt><trkpt lat="44.24723362780016" lon="11.883345191033294"><ele>67.0</ele><time>2026-05-01T15:11:52Z</time></trkpt><trkpt lat="44.24720962176032" lon="11.88325193407701"><ele>67.85714285714286</ele><time>2026-05-01T15:11:53Z</time></trkpt><trkpt lat="44.24720142046145" lon="11.883155186583709"><ele>68.71428571428571</ele><time>2026-05-01T15:11:54Z</time></trkpt><trkpt lat="44.24717812885388" lon="11.883065427898998"><ele>69.57142857142857</ele><time>2026-05-01T15:11:55Z</time></trkpt><trkpt lat="44.2471390247336" lon="11.882981877262207"><ele>70.42857142857143</ele><time>2026-05-01T15:11:56Z</time></trkpt><trkpt lat="44.24711669213405" lon="11.88289472979817"><ele>71.28571428571429</ele><time>2026-05-01T15:11:57Z</time></trkpt><trkpt lat="44.24710715429732" lon="11.882795233995129"><ele>72.14285714285714</ele><time>2026-05-01T15:11:58Z</time></trkpt><trkpt lat="44.24706922646284" lon="11.88271686532674"><ele>73.0</ele><time>2026-05-01T15:11:59Z</time></trkpt><trkpt lat="44.24703782345352" lon="11.882627960940173"><ele>73.66666666666666</ele><time>2026-05-01T15:12:00Z</time></trkpt><trkpt lat="44.24700505545247" lon="11.882532837196086"><ele>74.33333333333333</ele><time>2026-05-01T15:12:01Z</time></trkpt><trkpt lat="44.24698223894739" lon="11.882432713921833"><ele>75.0</ele><time>2026-05-01T15:12:02Z</time></trkpt><trkpt lat="44.24693301141289" lon="11.882348367198116"><ele>75.66666666666667</ele><time>2026-05-01T15:12:03Z</time></trkpt><trkpt lat="44.246894419662226" lon="11.882251363493193"><ele>76.33333333333334</ele><time>2026-05-01T15:12:04Z</time></trkpt><trkpt lat="44.24685221760238" lon="11.882156490216895"><ele>77.0</ele><time>2026-05-01T15:12:05Z</time></trkpt><trkpt lat="44.24681178305233" lon="11.882054702497511"><ele>77.0</ele><time>2026-05-01T15:12:06.001Z</time></trkpt><trkpt lat="44.246769898693856" lon="11.881960880590086"><ele>77.0</ele><time>2026-05-01T15:12:07.001Z</time></trkpt><trkpt lat="44.24672967283162" lon="11.881862898936431"><ele>77.0</ele><time>2026-05-01T15:12:08.001Z</time></trkpt><trkpt lat="44.246708051272826" lon="11.881765713054664"><ele>77.0</ele><time>2026-05-01T15:12:09.001Z</time></trkpt><trkpt lat="44.24667766896468" lon="11.88167971047572"><ele>77.0</ele><time>2026-05-01T15:12:10.001Z</time></trkpt><trkpt lat="44.24665080970083" lon="11.881591170784171"><ele>77.0</ele><time>2026-05-01T15:12:11.001Z</time></trkpt><trkpt lat="44.246637364764126" lon="11.881502054485399"><ele>77.0</ele><time>2026-05-01T15:12:12.001Z</time></trkpt><trkpt lat="44.24662403303424" lon="11.881330969362693"><ele>77.33333333333334</ele><time>2026-05-01T15:12:14.001Z</time></trkpt><trkpt lat="44.24663251942141" lon="11.881234844799353"><ele>77.66666666666667</ele><time>2026-05-01T15:12:15.001Z</time></trkpt><trkpt lat="44.246639253963295" lon="11.881135173182123"><ele>78.0</ele><time>2026-05-01T15:12:16.001Z</time></trkpt><trkpt lat="44.246663523930586" lon="11.881035797618503"><ele>78.33333333333333</ele><time>2026-05-01T15:12:17.001Z</time></trkpt><trkpt lat="44.24665610731888" lon="11.880934078096079"><ele>78.66666666666666</ele><time>2026-05-01T15:12:18.001Z</time></trkpt><trkpt lat="44.24666976150402" lon="11.880840412296012"><ele>79.0</ele><time>2026-05-01T15:12:19.001Z</time></trkpt><trkpt lat="44.246705702991804" lon="11.880698540204742"><ele>79.0</ele><time>2026-05-01T15:12:21.001Z</time></trkpt><trkpt lat="44.246742899864856" lon="11.880583232384117"><ele>79.0</ele><time>2026-05-01T15:12:23.001Z</time></trkpt><trkpt lat="44.246781345151604" lon="11.880465800125897"><ele>79.0</ele><time>2026-05-01T15:12:25.001Z</time></trkpt><trkpt lat="44.24682126560654" lon="11.880343861925159"><ele>79.0</ele><time>2026-05-01T15:12:27.001Z</time></trkpt><trkpt lat="44.24673489467038" lon="11.88015349060043"><ele>79.0</ele><time>2026-05-01T15:12:29.001Z</time></trkpt><trkpt lat="44.24677836345541" lon="11.88000794478937"><ele>79.16666666666666</ele><time>2026-05-01T15:12:31.001Z</time></trkpt><trkpt lat="44.24681802440918" lon="11.879895607021076"><ele>79.33333333333333</ele><time>2026-05-01T15:12:33.001Z</time></trkpt><trkpt lat="44.24684960715453" lon="11.87978190030241"><ele>79.5</ele><time>2026-05-01T15:12:35.001Z</time></trkpt><trkpt lat="44.24688416244122" lon="11.879672652107113"><ele>79.66666666666667</ele><time>2026-05-01T15:12:37.001Z</time></trkpt><trkpt lat="44.24692232638516" lon="11.879548680888073"><ele>79.83333333333334</ele><time>2026-05-01T15:12:39.001Z</time></trkpt><trkpt lat="44.24695015841466" lon="11.879445293544608"><ele>80.0</ele><time>2026-05-01T15:12:41.001Z</time></trkpt><trkpt lat="44.246967705234766" lon="11.87932835436664"><ele>79.8</ele><time>2026-05-01T15:12:43.001Z</time></trkpt><trkpt lat="44.246990457773585" lon="11.879210891171017"><ele>79.6</ele><time>2026-05-01T15:12:45.001Z</time></trkpt><trkpt lat="44.24701569365904" lon="11.879083532707265"><ele>79.4</ele><time>2026-05-01T15:12:47.001Z</time></trkpt><trkpt lat="44.247022896446374" lon="11.878946122286735"><ele>79.2</ele><time>2026-05-01T15:12:49.001Z</time></trkpt><trkpt lat="44.24704424266016" lon="11.87880148809871"><ele>79.0</ele><time>2026-05-01T15:12:52.002Z</time></trkpt><trkpt lat="44.24705888825945" lon="11.878674772275701"><ele>79.0</ele><time>2026-05-01T15:12:54.002Z</time></trkpt><trkpt lat="44.247076471412186" lon="11.878565271391889"><ele>79.0</ele><time>2026-05-01T15:12:56.002Z</time></trkpt><trkpt lat="44.24708207118015" lon="11.878436760967503"><ele>79.0</ele><time>2026-05-01T15:12:58.002Z</time></trkpt><trkpt lat="44.24710347728811" lon="11.878330287743148"><ele>79.0</ele><time>2026-05-01T15:13:00.002Z</time></trkpt><trkpt lat="44.24709591788736" lon="11.878206813782302"><ele>79.0</ele><time>2026-05-01T15:13:02.002Z</time></trkpt><trkpt lat="44.24710796953778" lon="11.878051005849823"><ele>79.4</ele><time>2026-05-01T15:13:04.002Z</time></trkpt><trkpt lat="44.2471224413384" lon="11.877923458861662"><ele>79.80000000000001</ele><time>2026-05-01T15:13:06.002Z</time></trkpt><trkpt lat="44.24714394477681" lon="11.877777012855255"><ele>80.19999999999999</ele><time>2026-05-01T15:13:08.002Z</time></trkpt><trkpt lat="44.24715208026096" lon="11.877666254961895"><ele>80.6</ele><time>2026-05-01T15:13:10.002Z</time></trkpt><trkpt lat="44.24716464652535" lon="11.877541384400761"><ele>81.0</ele><time>2026-05-01T15:13:12.002Z</time></trkpt><trkpt lat="44.247179869490665" lon="11.877406023785849"><ele>81.33333333333333</ele><time>2026-05-01T15:13:14.002Z</time></trkpt><trkpt lat="44.247197164146755" lon="11.877252769181743"><ele>81.66666666666667</ele><time>2026-05-01T15:13:16.002Z</time></trkpt><trkpt lat="44.24720483172624" lon="11.877158339851638"><ele>82.0</ele><time>2026-05-01T15:13:17.002Z</time></trkpt><trkpt lat="44.247218580618856" lon="11.877069663898991"><ele>82.33333333333334</ele><time>2026-05-01T15:13:18.002Z</time></trkpt><trkpt lat="44.247233095541944" lon="11.876972589623175"><ele>82.66666666666667</ele><time>2026-05-01T15:13:19.002Z</time></trkpt><trkpt lat="44.24724565266107" lon="11.876877464272138"><ele>83.0</ele><time>2026-05-01T15:13:20.002Z</time></trkpt><trkpt lat="44.24726990251103" lon="11.876695545547687"><ele>83.5</ele><time>2026-05-01T15:13:22.002Z</time></trkpt><trkpt lat="44.247271900249096" lon="11.876598599899298"><ele>84.0</ele><time>2026-05-01T15:13:23.002Z</time></trkpt><trkpt lat="44.24729579109185" lon="11.87643109761846"><ele>84.5</ele><time>2026-05-01T15:13:25.002Z</time></trkpt><trkpt lat="44.24731999506326" lon="11.87626993828475"><ele>85.0</ele><time>2026-05-01T15:13:27.002Z</time></trkpt><trkpt lat="44.24733860734582" lon="11.876183186834245"><ele>85.5</ele><time>2026-05-01T15:13:28.002Z</time></trkpt><trkpt lat="44.24734042885871" lon="11.876085941555775"><ele>86.0</ele><time>2026-05-01T15:13:29.002Z</time></trkpt><trkpt lat="44.247350515166154" lon="11.875998069004002"><ele>89.0</ele><time>2026-05-01T15:13:30.002Z</time></trkpt><trkpt lat="44.24737473522545" lon="11.87583540117943"><ele>92.0</ele><time>2026-05-01T15:13:32.002Z</time></trkpt><trkpt lat="44.24739331573606" lon="11.875661995788322"><ele>95.0</ele><time>2026-05-01T15:13:34Z</time></trkpt><trkpt lat="44.247432812970494" lon="11.875507849526173"><ele>98.0</ele><time>2026-05-01T15:13:36Z</time></trkpt><trkpt lat="44.24745573716947" lon="11.875351612748249"><ele>98.0</ele><time>2026-05-01T15:13:38Z</time></trkpt><trkpt lat="44.24745947338269" lon="11.875259691997826"><ele>98.0</ele><time>2026-05-01T15:13:39Z</time></trkpt><trkpt lat="44.247479117063016" lon="11.875090922021588"><ele>98.0</ele><time>2026-05-01T15:13:41Z</time></trkpt><trkpt lat="44.24749706163401" lon="11.874951687989162"><ele>98.0</ele><time>2026-05-01T15:13:43Z</time></trkpt><trkpt lat="44.24751439903083" lon="11.874804276300518"><ele>98.0</ele><time>2026-05-01T15:13:45Z</time></trkpt><trkpt lat="44.247533113302566" lon="11.874669284557054"><ele>98.80000000000001</ele><time>2026-05-01T15:13:47Z</time></trkpt><trkpt lat="44.24757736114958" lon="11.874551820141514"><ele>99.6</ele><time>2026-05-01T15:13:49Z</time></trkpt><trkpt lat="44.24761247165356" lon="11.874455768598503"><ele>100.4</ele><time>2026-05-01T15:13:52Z</time></trkpt><trkpt lat="44.24761499579526" lon="11.874262229721957"><ele>101.19999999999999</ele><time>2026-05-01T15:14:21.001Z</time></trkpt><trkpt lat="44.24757737018262" lon="11.874191370640876"><ele>102.0</ele><time>2026-05-01T15:14:22.001Z</time></trkpt><trkpt lat="44.24754497226068" lon="11.874092219096719"><ele>102.75</ele><time>2026-05-01T15:14:23.001Z</time></trkpt><trkpt lat="44.247519817495586" lon="11.873951637646247"><ele>103.5</ele><time>2026-05-01T15:14:24.001Z</time></trkpt><trkpt lat="44.24747751632811" lon="11.873815260620502"><ele>104.25</ele><time>2026-05-01T15:14:25.001Z</time></trkpt><trkpt lat="44.24742860554733" lon="11.873660503956364"><ele>105.0</ele><time>2026-05-01T15:14:26.001Z</time></trkpt><trkpt lat="44.24737738446635" lon="11.873498437593772"><ele>105.25</ele><time>2026-05-01T15:14:27.001Z</time></trkpt><trkpt lat="44.24732554402262" lon="11.873334411307566"><ele>105.5</ele><time>2026-05-01T15:14:28.001Z</time></trkpt><trkpt lat="44.247271123273876" lon="11.873162220831192"><ele>105.75</ele><time>2026-05-01T15:14:29.001Z</time></trkpt><trkpt lat="44.24722025240282" lon="11.873001262407415"><ele>106.0</ele><time>2026-05-01T15:14:30.001Z</time></trkpt><trkpt lat="44.24716972298838" lon="11.872841384389305"><ele>105.75</ele><time>2026-05-01T15:14:31.001Z</time></trkpt><trkpt lat="44.24711943016716" lon="11.872682254945632"><ele>105.5</ele><time>2026-05-01T15:14:32.001Z</time></trkpt><trkpt lat="44.24706966176326" lon="11.872524784548553"><ele>105.25</ele><time>2026-05-01T15:14:33.001Z</time></trkpt><trkpt lat="44.24701979297068" lon="11.872365382290559"><ele>105.0</ele><time>2026-05-01T15:14:34.001Z</time></trkpt><trkpt lat="44.24697003185178" lon="11.872206409398233"><ele>105.0</ele><time>2026-05-01T15:14:35.001Z</time></trkpt><trkpt lat="44.24691961121876" lon="11.872047246134185"><ele>105.0</ele><time>2026-05-01T15:14:36.001Z</time></trkpt><trkpt lat="44.24686551844373" lon="11.871882929538584"><ele>105.0</ele><time>2026-05-01T15:14:37.001Z</time></trkpt><trkpt lat="44.24681104786403" lon="11.871721822453106"><ele>105.0</ele><time>2026-05-01T15:14:38.001Z</time></trkpt><trkpt lat="44.24675636504811" lon="11.871560087684566"><ele>105.75</ele><time>2026-05-01T15:14:39.001Z</time></trkpt><trkpt lat="44.24670278188763" lon="11.871400411056372"><ele>106.5</ele><time>2026-05-01T15:14:40.001Z</time></trkpt><trkpt lat="44.24664976519426" lon="11.871242128048806"><ele>107.25</ele><time>2026-05-01T15:14:41.001Z</time></trkpt><trkpt lat="44.24659446424828" lon="11.871077025370695"><ele>108.0</ele><time>2026-05-01T15:14:42.001Z</time></trkpt><trkpt lat="44.246537061413896" lon="11.870908575185496"><ele>108.4</ele><time>2026-05-01T15:14:43.001Z</time></trkpt><trkpt lat="44.24647872814168" lon="11.870746459024058"><ele>108.80000000000001</ele><time>2026-05-01T15:14:44.001Z</time></trkpt><trkpt lat="44.24642380435679" lon="11.870607131946347"><ele>109.2</ele><time>2026-05-01T15:14:45.001Z</time></trkpt><trkpt lat="44.24637400627105" lon="11.87048080739545"><ele>109.6</ele><time>2026-05-01T15:14:46.001Z</time></trkpt><trkpt lat="44.24631601018665" lon="11.870368399701613"><ele>110.0</ele><time>2026-05-01T15:14:47.001Z</time></trkpt><trkpt lat="44.246272766371376" lon="11.870260652246872"><ele>110.0</ele><time>2026-05-01T15:14:48.001Z</time></trkpt><trkpt lat="44.246237166754725" lon="11.870145758399655"><ele>110.0</ele><time>2026-05-01T15:14:49.001Z</time></trkpt><trkpt lat="44.246232173258946" lon="11.870014199989608"><ele>110.0</ele><time>2026-05-01T15:14:50.001Z</time></trkpt><trkpt lat="44.24620148657844" lon="11.869877186619108"><ele>110.0</ele><time>2026-05-01T15:14:51.001Z</time></trkpt><trkpt lat="44.246193864483395" lon="11.869725169274668"><ele>110.0</ele><time>2026-05-01T15:14:52.001Z</time></trkpt><trkpt lat="44.24617994239321" lon="11.86955603792976"><ele>110.0</ele><time>2026-05-01T15:14:53.001Z</time></trkpt><trkpt lat="44.24616980703565" lon="11.869389111820272"><ele>110.0</ele><time>2026-05-01T15:14:54.001Z</time></trkpt><trkpt lat="44.246153157762116" lon="11.869225452879823"><ele>110.0</ele><time>2026-05-01T15:14:55.002Z</time></trkpt><trkpt lat="44.24613558567865" lon="11.869062665042987"><ele>110.0</ele><time>2026-05-01T15:14:56.002Z</time></trkpt><trkpt lat="44.24612010244521" lon="11.868899838584381"><ele>111.5</ele><time>2026-05-01T15:14:57.002Z</time></trkpt><trkpt lat="44.24610266166503" lon="11.868732716158378"><ele>113.0</ele><time>2026-05-01T15:14:58.002Z</time></trkpt><trkpt lat="44.246083075306835" lon="11.868561390463354"><ele>114.5</ele><time>2026-05-01T15:14:59.002Z</time></trkpt><trkpt lat="44.24606287531573" lon="11.868386828608768"><ele>116.0</ele><time>2026-05-01T15:15:00.002Z</time></trkpt><trkpt lat="44.24604482689576" lon="11.868206718250407"><ele>117.25</ele><time>2026-05-01T15:15:01.002Z</time></trkpt><trkpt lat="44.24602373433917" lon="11.868024645154177"><ele>118.5</ele><time>2026-05-01T15:15:02.002Z</time></trkpt><trkpt lat="44.246005877602556" lon="11.867832488404742"><ele>119.75</ele><time>2026-05-01T15:15:03.002Z</time></trkpt><trkpt lat="44.24598308971382" lon="11.867639115192741"><ele>121.0</ele><time>2026-05-01T15:15:04.002Z</time></trkpt><trkpt lat="44.2459633338227" lon="11.867442463451335"><ele>122.33333333333334</ele><time>2026-05-01T15:15:05.002Z</time></trkpt><trkpt lat="44.245942938966174" lon="11.86723989139468"><ele>123.66666666666666</ele><time>2026-05-01T15:15:06.002Z</time></trkpt><trkpt lat="44.24592758804903" lon="11.867030193621112"><ele>125.0</ele><time>2026-05-01T15:15:07.002Z</time></trkpt><trkpt lat="44.24591249091961" lon="11.86681241610333"><ele>125.66666666666666</ele><time>2026-05-01T15:15:08.002Z</time></trkpt><trkpt lat="44.24589807962879" lon="11.866586580245157"><ele>126.33333333333334</ele><time>2026-05-01T15:15:09.002Z</time></trkpt><trkpt lat="44.24588776671207" lon="11.866347500465118"><ele>127.0</ele><time>2026-05-01T15:15:10.002Z</time></trkpt><trkpt lat="44.24588231112117" lon="11.866110531649893"><ele>127.25</ele><time>2026-05-01T15:15:11.002Z</time></trkpt><trkpt lat="44.245880019544025" lon="11.865900809597928"><ele>127.5</ele><time>2026-05-01T15:15:12.002Z</time></trkpt><trkpt lat="44.24588616677148" lon="11.865712309350151"><ele>127.75</ele><time>2026-05-01T15:15:13.002Z</time></trkpt><trkpt lat="44.24586857929058" lon="11.865542487336896"><ele>128.0</ele><time>2026-05-01T15:15:14.002Z</time></trkpt><trkpt lat="44.24586995250698" lon="11.865387150516424"><ele>128.0</ele><time>2026-05-01T15:15:15.002Z</time></trkpt><trkpt lat="44.24586176355311" lon="11.86524311182843"><ele>128.0</ele><time>2026-05-01T15:15:16.002Z</time></trkpt><trkpt lat="44.24586868018978" lon="11.86510487795021"><ele>128.0</ele><time>2026-05-01T15:15:17.002Z</time></trkpt><trkpt lat="44.24585708726263" lon="11.864975576519043"><ele>128.0</ele><time>2026-05-01T15:15:18.002Z</time></trkpt><trkpt lat="44.24583935391339" lon="11.864861664187323"><ele>128.0</ele><time>2026-05-01T15:15:19.002Z</time></trkpt><trkpt lat="44.24580560792961" lon="11.864760705223837"><ele>127.99999999999999</ele><time>2026-05-01T15:15:20.002Z</time></trkpt><trkpt lat="44.2457601770012" lon="11.864694823880901"><ele>128.0</ele><time>2026-05-01T15:15:21.002Z</time></trkpt><trkpt lat="44.245685554384565" lon="11.864625310649739"><ele>128.0</ele><time>2026-05-01T15:15:23.002Z</time></trkpt><trkpt lat="44.24562520549669" lon="11.864545835125364"><ele>128.0</ele><time>2026-05-01T15:15:26.002Z</time></trkpt><trkpt lat="44.24563214033598" lon="11.864385648491876"><ele>127.99999999999999</ele><time>2026-05-01T15:15:28.002Z</time></trkpt><trkpt lat="44.24560032151467" lon="11.864283353674905"><ele>128.0</ele><time>2026-05-01T15:15:29.002Z</time></trkpt><trkpt lat="44.24560669144755" lon="11.864171138007855"><ele>128.0</ele><time>2026-05-01T15:15:30.002Z</time></trkpt><trkpt lat="44.24562599425807" lon="11.86404544053413"><ele>128.0</ele><time>2026-05-01T15:15:31.002Z</time></trkpt><trkpt lat="44.245644082753685" lon="11.863916174332587"><ele>128.0</ele><time>2026-05-01T15:15:32.002Z</time></trkpt><trkpt lat="44.245683622868306" lon="11.863803792306337"><ele>128.0</ele><time>2026-05-01T15:15:33.002Z</time></trkpt><trkpt lat="44.245725652710874" lon="11.863683888973581"><ele>128.0</ele><time>2026-05-01T15:15:34.002Z</time></trkpt><trkpt lat="44.24575914621086" lon="11.863552730815051"><ele>127.60000000000001</ele><time>2026-05-01T15:15:35.002Z</time></trkpt><trkpt lat="44.24581177674479" lon="11.863437812136462"><ele>127.20000000000002</ele><time>2026-05-01T15:15:36.002Z</time></trkpt><trkpt lat="44.24588490423429" lon="11.863344145960323"><ele>126.8</ele><time>2026-05-01T15:15:37.002Z</time></trkpt><trkpt lat="44.24594337877817" lon="11.86324558346403"><ele>126.4</ele><time>2026-05-01T15:15:38.002Z</time></trkpt><trkpt lat="44.246000856679004" lon="11.863148700703244"><ele>126.0</ele><time>2026-05-01T15:15:39Z</time></trkpt><trkpt lat="44.24606008484267" lon="11.863050733551134"><ele>126.0</ele><time>2026-05-01T15:15:40Z</time></trkpt><trkpt lat="44.246121634804496" lon="11.862950228706023"><ele>126.0</ele><time>2026-05-01T15:15:41Z</time></trkpt><trkpt lat="44.24617910566231" lon="11.862858952830365"><ele>126.0</ele><time>2026-05-01T15:15:42Z</time></trkpt><trkpt lat="44.24623620102744" lon="11.862768840435239"><ele>126.0</ele><time>2026-05-01T15:15:43Z</time></trkpt><trkpt lat="44.246292732900315" lon="11.862682575130107"><ele>126.0</ele><time>2026-05-01T15:15:44Z</time></trkpt><trkpt lat="44.24635056201452" lon="11.862576658766459"><ele>126.0</ele><time>2026-05-01T15:15:45Z</time></trkpt><trkpt lat="44.24645196726886" lon="11.862485287309882"><ele>123.19999999999999</ele><time>2026-05-01T15:15:47Z</time></trkpt><trkpt lat="44.2465068533846" lon="11.86243889644984"><ele>120.39999999999999</ele><time>2026-05-01T15:15:48Z</time></trkpt><trkpt lat="44.246581088466996" lon="11.862383644159816"><ele>117.6</ele><time>2026-05-01T15:15:50Z</time></trkpt><trkpt lat="44.24666494313016" lon="11.862314972622254"><ele>114.8</ele><time>2026-05-01T15:15:52Z</time></trkpt><trkpt lat="44.24674855103062" lon="11.86223652825061"><ele>112.0</ele><time>2026-05-01T15:15:54Z</time></trkpt><trkpt lat="44.24674278573477" lon="11.862075681983033"><ele>112.00000000000001</ele><time>2026-05-01T15:15:56Z</time></trkpt><trkpt lat="44.246724105898295" lon="11.861927011117906"><ele>112.0</ele><time>2026-05-01T15:15:58Z</time></trkpt><trkpt lat="44.24673214531212" lon="11.86183901579964"><ele>112.0</ele><time>2026-05-01T15:15:59Z</time></trkpt><trkpt lat="44.24671788172664" lon="11.861689019975774"><ele>112.0</ele><time>2026-05-01T15:16:01Z</time></trkpt><trkpt lat="44.24670783844999" lon="11.861571389665137"><ele>112.00000000000001</ele><time>2026-05-01T15:16:02Z</time></trkpt><trkpt lat="44.24668604957651" lon="11.861463378615822"><ele>112.0</ele><time>2026-05-01T15:16:03Z</time></trkpt><trkpt lat="44.24670325210203" lon="11.861363758197337"><ele>112.00000000000001</ele><time>2026-05-01T15:16:04Z</time></trkpt><trkpt lat="44.24669662115901" lon="11.861250640066645"><ele>112.0</ele><time>2026-05-01T15:16:05Z</time></trkpt><trkpt lat="44.246708990373165" lon="11.861153751281082"><ele>112.0</ele><time>2026-05-01T15:16:06Z</time></trkpt><trkpt lat="44.24671964313864" lon="11.861006246638786"><ele>112.0</ele><time>2026-05-01T15:16:07Z</time></trkpt><trkpt lat="44.24672636338838" lon="11.860887105553243"><ele>112.00000000000001</ele><time>2026-05-01T15:16:08Z</time></trkpt><trkpt lat="44.24672896390331" lon="11.860772070012452"><ele>112.0</ele><time>2026-05-01T15:16:09.001Z</time></trkpt><trkpt lat="44.246740360882725" lon="11.860639170789339"><ele>111.16666666666667</ele><time>2026-05-01T15:16:10.001Z</time></trkpt><trkpt lat="44.24674891843989" lon="11.860513199176944"><ele>110.33333333333334</ele><time>2026-05-01T15:16:11.001Z</time></trkpt><trkpt lat="44.24675563551156" lon="11.860405710412193"><ele>109.5</ele><time>2026-05-01T15:16:12.001Z</time></trkpt><trkpt lat="44.24677013764125" lon="11.860307421633246"><ele>108.66666666666666</ele><time>2026-05-01T15:16:13.001Z</time></trkpt><trkpt lat="44.24678081161905" lon="11.86019682599305"><ele>107.83333333333333</ele><time>2026-05-01T15:16:14.001Z</time></trkpt><trkpt lat="44.24678950501775" lon="11.860089616602034"><ele>107.0</ele><time>2026-05-01T15:16:15.001Z</time></trkpt><trkpt lat="44.24679989162035" lon="11.859990587731172"><ele>106.28571428571429</ele><time>2026-05-01T15:16:16.001Z</time></trkpt><trkpt lat="44.24681521339368" lon="11.859900688568525"><ele>105.57142857142857</ele><time>2026-05-01T15:16:17.001Z</time></trkpt><trkpt lat="44.24683084589457" lon="11.859813165125216"><ele>104.85714285714286</ele><time>2026-05-01T15:16:18.001Z</time></trkpt><trkpt lat="44.2468740732037" lon="11.859738739702856"><ele>104.14285714285714</ele><time>2026-05-01T15:16:19.001Z</time></trkpt><trkpt lat="44.24693777720996" lon="11.859692418524906"><ele>103.42857142857143</ele><time>2026-05-01T15:16:20.001Z</time></trkpt><trkpt lat="44.24700905690424" lon="11.859661106907417"><ele>102.71428571428572</ele><time>2026-05-01T15:16:21.001Z</time></trkpt><trkpt lat="44.247104253553374" lon="11.859626655465888"><ele>102.0</ele><time>2026-05-01T15:16:22.001Z</time></trkpt><trkpt lat="44.247201674013816" lon="11.859588961309276"><ele>99.0</ele><time>2026-05-01T15:16:23.001Z</time></trkpt><trkpt lat="44.24733461869053" lon="11.859528568484205"><ele>96.0</ele><time>2026-05-01T15:16:24.001Z</time></trkpt><trkpt lat="44.247463274897626" lon="11.859453676234809"><ele>93.0</ele><time>2026-05-01T15:16:25.001Z</time></trkpt><trkpt lat="44.24760509558214" lon="11.859375077775931"><ele>90.0</ele><time>2026-05-01T15:16:26.001Z</time></trkpt><trkpt lat="44.24774805520552" lon="11.859293871305496"><ele>90.0</ele><time>2026-05-01T15:16:27.001Z</time></trkpt><trkpt lat="44.247888705680886" lon="11.859218140996946"><ele>90.0</ele><time>2026-05-01T15:16:28.001Z</time></trkpt><trkpt lat="44.24802820587652" lon="11.859145732876614"><ele>90.0</ele><time>2026-05-01T15:16:29.001Z</time></trkpt><trkpt lat="44.2481584988866" lon="11.859078002400848"><ele>90.0</ele><time>2026-05-01T15:16:30.001Z</time></trkpt><trkpt lat="44.24828313359948" lon="11.859011286198466"><ele>88.75</ele><time>2026-05-01T15:16:31.001Z</time></trkpt><trkpt lat="44.24840044668297" lon="11.858952634308913"><ele>87.5</ele><time>2026-05-01T15:16:32.001Z</time></trkpt><trkpt lat="44.248517942261444" lon="11.858887443790135"><ele>86.25</ele><time>2026-05-01T15:16:33.001Z</time></trkpt><trkpt lat="44.24862638508608" lon="11.858826868128054"><ele>85.0</ele><time>2026-05-01T15:16:34.001Z</time></trkpt><trkpt lat="44.24873123274651" lon="11.858782889860947"><ele>85.0</ele><time>2026-05-01T15:16:35.001Z</time></trkpt><trkpt lat="44.248821992230546" lon="11.858736573982734"><ele>85.0</ele><time>2026-05-01T15:16:36.001Z</time></trkpt><trkpt lat="44.248905113378996" lon="11.85869139873147"><ele>85.0</ele><time>2026-05-01T15:16:37.001Z</time></trkpt><trkpt lat="44.248979396098505" lon="11.858649676960484"><ele>85.0</ele><time>2026-05-01T15:16:38.001Z</time></trkpt><trkpt lat="44.24905166686457" lon="11.858610062119999"><ele>85.0</ele><time>2026-05-01T15:16:39.001Z</time></trkpt><trkpt lat="44.249118537578035" lon="11.858578920643797"><ele>85.0</ele><time>2026-05-01T15:16:40.001Z</time></trkpt><trkpt lat="44.249227350725604" lon="11.858533745598198"><ele>84.66666666666666</ele><time>2026-05-01T15:16:42.001Z</time></trkpt><trkpt lat="44.24930197036763" lon="11.858492645888747"><ele>84.33333333333333</ele><time>2026-05-01T15:16:44.001Z</time></trkpt><trkpt lat="44.24930644211836" lon="11.858378484813224"><ele>84.0</ele><time>2026-05-01T15:16:47.001Z</time></trkpt><trkpt lat="44.24921387088878" lon="11.858282643850169"><ele>83.66666666666667</ele><time>2026-05-01T15:16:49.001Z</time></trkpt><trkpt lat="44.249160684384556" lon="11.858206995096637"><ele>83.33333333333334</ele><time>2026-05-01T15:16:50.001Z</time></trkpt><trkpt lat="44.249098526808645" lon="11.858108849568396"><ele>83.0</ele><time>2026-05-01T15:16:51.001Z</time></trkpt><trkpt lat="44.24904843664797" lon="11.85800298370029"><ele>83.0</ele><time>2026-05-01T15:16:52.001Z</time></trkpt><trkpt lat="44.24896960678222" lon="11.857905432737736"><ele>83.0</ele><time>2026-05-01T15:16:53.001Z</time></trkpt><trkpt lat="44.24887906188553" lon="11.85780168463507"><ele>83.0</ele><time>2026-05-01T15:16:54.001Z</time></trkpt><trkpt lat="44.24878329478147" lon="11.85769932082754"><ele>83.0</ele><time>2026-05-01T15:16:55.001Z</time></trkpt><trkpt lat="44.24869542923037" lon="11.857584382456746"><ele>84.0</ele><time>2026-05-01T15:16:56.001Z</time></trkpt><trkpt lat="44.24859204764518" lon="11.857483348897103"><ele>85.0</ele><time>2026-05-01T15:16:57.002Z</time></trkpt><trkpt lat="44.24849185247116" lon="11.85738930834337"><ele>86.0</ele><time>2026-05-01T15:16:58.002Z</time></trkpt><trkpt lat="44.24840072980714" lon="11.85730454594127"><ele>87.0</ele><time>2026-05-01T15:16:59.002Z</time></trkpt><trkpt lat="44.248308012492096" lon="11.857221585484993"><ele>87.0</ele><time>2026-05-01T15:17:00.002Z</time></trkpt><trkpt lat="44.24821291806468" lon="11.857136972435354"><ele>87.0</ele><time>2026-05-01T15:17:01.002Z</time></trkpt><trkpt lat="44.248114751861046" lon="11.857053734579187"><ele>87.0</ele><time>2026-05-01T15:17:02.002Z</time></trkpt><trkpt lat="44.24801368957909" lon="11.85697814559518"><ele>87.0</ele><time>2026-05-01T15:17:03.002Z</time></trkpt><trkpt lat="44.24791147571504" lon="11.856931428666268"><ele>87.5</ele><time>2026-05-01T15:17:04.002Z</time></trkpt><trkpt lat="44.2478339945717" lon="11.856871819865411"><ele>88.0</ele><time>2026-05-01T15:17:05.002Z</time></trkpt><trkpt lat="44.24776792621477" lon="11.856824853249464"><ele>88.5</ele><time>2026-05-01T15:17:06.002Z</time></trkpt><trkpt lat="44.247706261421015" lon="11.85677170816239"><ele>89.0</ele><time>2026-05-01T15:17:07.002Z</time></trkpt><trkpt lat="44.247653121239765" lon="11.856690850601867"><ele>89.5</ele><time>2026-05-01T15:17:08.002Z</time></trkpt><trkpt lat="44.24762224618207" lon="11.856580077427093"><ele>90.0</ele><time>2026-05-01T15:17:09.002Z</time></trkpt><trkpt lat="44.24761291503175" lon="11.856443322698288"><ele>90.0</ele><time>2026-05-01T15:17:10.002Z</time></trkpt><trkpt lat="44.24760434547887" lon="11.856293740825246"><ele>90.0</ele><time>2026-05-01T15:17:11.002Z</time></trkpt><trkpt lat="44.24760135398839" lon="11.856123113719727"><ele>90.0</ele><time>2026-05-01T15:17:12.002Z</time></trkpt><trkpt lat="44.24760297454523" lon="11.855951083970421"><ele>90.0</ele><time>2026-05-01T15:17:13.002Z</time></trkpt><trkpt lat="44.24760167335033" lon="11.855773421474835"><ele>90.0</ele><time>2026-05-01T15:17:14.002Z</time></trkpt><trkpt lat="44.24760083293309" lon="11.855589318279264"><ele>90.0</ele><time>2026-05-01T15:17:15.002Z</time></trkpt><trkpt lat="44.247605003061636" lon="11.855417960868017"><ele>90.0</ele><time>2026-05-01T15:17:16.002Z</time></trkpt><trkpt lat="44.247613121095384" lon="11.85524857600343"><ele>90.0</ele><time>2026-05-01T15:17:17.002Z</time></trkpt><trkpt lat="44.24762574963955" lon="11.855081278498476"><ele>90.0</ele><time>2026-05-01T15:17:18.002Z</time></trkpt><trkpt lat="44.24764214819762" lon="11.8549130000134"><ele>90.0</ele><time>2026-05-01T15:17:19.002Z</time></trkpt><trkpt lat="44.24765843028152" lon="11.85475854878476"><ele>90.0</ele><time>2026-05-01T15:17:20.002Z</time></trkpt><trkpt lat="44.247675800300996" lon="11.85460916008276"><ele>90.0</ele><time>2026-05-01T15:17:21.002Z</time></trkpt><trkpt lat="44.247690185459746" lon="11.85446137382612"><ele>90.0</ele><time>2026-05-01T15:17:22.002Z</time></trkpt><trkpt lat="44.24770262433189" lon="11.854310596839253"><ele>90.0</ele><time>2026-05-01T15:17:23.002Z</time></trkpt><trkpt lat="44.24771224573831" lon="11.85415673181769"><ele>90.0</ele><time>2026-05-01T15:17:24.002Z</time></trkpt><trkpt lat="44.24771798939363" lon="11.854011104276463"><ele>90.0</ele><time>2026-05-01T15:17:25.002Z</time></trkpt><trkpt lat="44.24771580329052" lon="11.853857890279565"><ele>90.0</ele><time>2026-05-01T15:17:26.002Z</time></trkpt><trkpt lat="44.247705772561574" lon="11.853704269984824"><ele>90.0</ele><time>2026-05-01T15:17:27.002Z</time></trkpt><trkpt lat="44.24769506506505" lon="11.853535686939098"><ele>90.25</ele><time>2026-05-01T15:17:28.002Z</time></trkpt><trkpt lat="44.24766458382893" lon="11.853367638669138"><ele>90.5</ele><time>2026-05-01T15:17:29.002Z</time></trkpt><trkpt lat="44.2476266730241" lon="11.853190600332276"><ele>90.75</ele><time>2026-05-01T15:17:30.002Z</time></trkpt><trkpt lat="44.247580708024095" lon="11.853009445974289"><ele>91.0</ele><time>2026-05-01T15:17:31.002Z</time></trkpt><trkpt lat="44.2475422906735" lon="11.852828764591239"><ele>91.0</ele><time>2026-05-01T15:17:32.002Z</time></trkpt><trkpt lat="44.247485635524434" lon="11.852654829681617"><ele>91.0</ele><time>2026-05-01T15:17:33.002Z</time></trkpt><trkpt lat="44.24741916648569" lon="11.85249949344679"><ele>91.0</ele><time>2026-05-01T15:17:34.002Z</time></trkpt><trkpt lat="44.247328714216074" lon="11.85236488872377"><ele>91.0</ele><time>2026-05-01T15:17:35.002Z</time></trkpt><trkpt lat="44.24725813774939" lon="11.852210960493773"><ele>91.75</ele><time>2026-05-01T15:17:36.002Z</time></trkpt><trkpt lat="44.24718907236593" lon="11.85204762417546"><ele>92.5</ele><time>2026-05-01T15:17:37.002Z</time></trkpt><trkpt lat="44.24714476269369" lon="11.851870142588616"><ele>93.25</ele><time>2026-05-01T15:17:38.002Z</time></trkpt><trkpt lat="44.24708067846346" lon="11.851713692778132"><ele>94.0</ele><time>2026-05-01T15:17:39.002Z</time></trkpt><trkpt lat="44.24702759547103" lon="11.851547617551429"><ele>94.25</ele><time>2026-05-01T15:17:40.002Z</time></trkpt><trkpt lat="44.24697491977748" lon="11.851374053218757"><ele>94.5</ele><time>2026-05-01T15:17:41.002Z</time></trkpt><trkpt lat="44.24691797459762" lon="11.85120076016567"><ele>94.75</ele><time>2026-05-01T15:17:42.002Z</time></trkpt><trkpt lat="44.24685818577267" lon="11.85103385307546"><ele>95.0</ele><time>2026-05-01T15:17:43.003Z</time></trkpt><trkpt lat="44.246799896339084" lon="11.850877251003416"><ele>95.0</ele><time>2026-05-01T15:17:44.003Z</time></trkpt><trkpt lat="44.2467405383122" lon="11.850732989854352"><ele>95.0</ele><time>2026-05-01T15:17:45Z</time></trkpt><trkpt lat="44.24668771486076" lon="11.850602118538784"><ele>95.0</ele><time>2026-05-01T15:17:46Z</time></trkpt><trkpt lat="44.24663475153818" lon="11.850495447539434"><ele>95.0</ele><time>2026-05-01T15:17:47Z</time></trkpt><trkpt lat="44.24658799626068" lon="11.850404778518694"><ele>95.0</ele><time>2026-05-01T15:17:48Z</time></trkpt><trkpt lat="44.24655745199479" lon="11.850314248974437"><ele>95.0</ele><time>2026-05-01T15:17:49Z</time></trkpt><trkpt lat="44.24652255991047" lon="11.850239188153461"><ele>95.0</ele><time>2026-05-01T15:17:50Z</time></trkpt><trkpt lat="44.246502644577845" lon="11.850083859954"><ele>95.0</ele><time>2026-05-01T15:17:52Z</time></trkpt><trkpt lat="44.246596734572364" lon="11.849956221094336"><ele>95.0</ele><time>2026-05-01T15:17:54Z</time></trkpt><trkpt lat="44.24666699917823" lon="11.849906956259645"><ele>95.0</ele><time>2026-05-01T15:17:55Z</time></trkpt><trkpt lat="44.24673976513137" lon="11.849859006897793"><ele>95.2</ele><time>2026-05-01T15:17:56Z</time></trkpt><trkpt lat="44.24681965361658" lon="11.849809463678838"><ele>95.4</ele><time>2026-05-01T15:17:57Z</time></trkpt><trkpt lat="44.24690811533453" lon="11.849755761625874"><ele>95.6</ele><time>2026-05-01T15:17:58Z</time></trkpt><trkpt lat="44.24700235263472" lon="11.849697620115819"><ele>95.8</ele><time>2026-05-01T15:17:59Z</time></trkpt><trkpt lat="44.24709054016754" lon="11.849643439633565"><ele>96.0</ele><time>2026-05-01T15:18:00Z</time></trkpt><trkpt lat="44.24717202761896" lon="11.849598505698792"><ele>96.0</ele><time>2026-05-01T15:18:01Z</time></trkpt><trkpt lat="44.24725048331328" lon="11.84956105497586"><ele>96.0</ele><time>2026-05-01T15:18:02Z</time></trkpt><trkpt lat="44.247321046104744" lon="11.84952380046145"><ele>96.0</ele><time>2026-05-01T15:18:03Z</time></trkpt><trkpt lat="44.24738482653193" lon="11.849471317371979"><ele>96.0</ele><time>2026-05-01T15:18:04Z</time></trkpt><trkpt lat="44.247432608955116" lon="11.849387714769184"><ele>96.0</ele><time>2026-05-01T15:18:05Z</time></trkpt><trkpt lat="44.24747545197173" lon="11.849294070708474"><ele>96.0</ele><time>2026-05-01T15:18:06Z</time></trkpt><trkpt lat="44.24750955455311" lon="11.849175983317153"><ele>95.0</ele><time>2026-05-01T15:18:07Z</time></trkpt><trkpt lat="44.247536987144805" lon="11.84906619403944"><ele>94.0</ele><time>2026-05-01T15:18:08Z</time></trkpt><trkpt lat="44.247562100275346" lon="11.848969130525315"><ele>93.0</ele><time>2026-05-01T15:18:09Z</time></trkpt><trkpt lat="44.247585351510544" lon="11.848830001991839"><ele>92.0</ele><time>2026-05-01T15:18:11Z</time></trkpt><trkpt lat="44.24757548260476" lon="11.848732795556337"><ele>91.0</ele><time>2026-05-01T15:18:15.001Z</time></trkpt><trkpt lat="44.24777645461454" lon="11.848707372319996"><ele>91.0</ele><time>2026-05-01T15:18:51.001Z</time></trkpt><trkpt lat="44.247858127503626" lon="11.848732096394913"><ele>91.0</ele><time>2026-05-01T15:18:53.001Z</time></trkpt><trkpt lat="44.24794784391805" lon="11.848751379075425"><ele>91.0</ele><time>2026-05-01T15:18:55.001Z</time></trkpt><trkpt lat="44.248045610672854" lon="11.848762295868239"><ele>91.0</ele><time>2026-05-01T15:18:57.001Z</time></trkpt><trkpt lat="44.2481577183514" lon="11.848781291749267"><ele>91.0</ele><time>2026-05-01T15:18:59.001Z</time></trkpt><trkpt lat="44.24826898802458" lon="11.848802919275514"><ele>90.25</ele><time>2026-05-01T15:19:01.002Z</time></trkpt><trkpt lat="44.24838662566387" lon="11.848821413851496"><ele>89.5</ele><time>2026-05-01T15:19:03.002Z</time></trkpt><trkpt lat="44.24849828471423" lon="11.848838351792006"><ele>88.75</ele><time>2026-05-01T15:19:05.002Z</time></trkpt><trkpt lat="44.24860907880251" lon="11.8488566164899"><ele>88.0</ele><time>2026-05-01T15:19:07.002Z</time></trkpt><trkpt lat="44.24871916699796" lon="11.84887079393614"><ele>88.0</ele><time>2026-05-01T15:19:09.002Z</time></trkpt><trkpt lat="44.24882236126422" lon="11.848924885975313"><ele>88.0</ele><time>2026-05-01T15:19:11.002Z</time></trkpt><trkpt lat="44.248915434100084" lon="11.849017793752754"><ele>88.0</ele><time>2026-05-01T15:19:13.002Z</time></trkpt><trkpt lat="44.24900158054173" lon="11.849117023471617"><ele>88.0</ele><time>2026-05-01T15:19:15.002Z</time></trkpt><trkpt lat="44.24908860688209" lon="11.849208125440729"><ele>88.0</ele><time>2026-05-01T15:19:17.002Z</time></trkpt><trkpt lat="44.249169826057575" lon="11.849284961535034"><ele>87.83333333333333</ele><time>2026-05-01T15:19:19.002Z</time></trkpt><trkpt lat="44.24923001363833" lon="11.849349765973594"><ele>87.66666666666666</ele><time>2026-05-01T15:19:21.002Z</time></trkpt><trkpt lat="44.249318150091895" lon="11.849356537387001"><ele>87.5</ele><time>2026-05-01T15:19:24.002Z</time></trkpt><trkpt lat="44.249381523985996" lon="11.84928082606603"><ele>87.33333333333333</ele><time>2026-05-01T15:19:26.002Z</time></trkpt><trkpt lat="44.24944238471944" lon="11.849205561045489"><ele>87.16666666666667</ele><time>2026-05-01T15:19:28.002Z</time></trkpt><trkpt lat="44.249493836998504" lon="11.849141579055216"><ele>87.0</ele><time>2026-05-01T15:19:30.002Z</time></trkpt><trkpt lat="44.249550599430904" lon="11.849100451975525"><ele>87.0</ele><time>2026-05-01T15:20:06Z</time></trkpt><trkpt lat="44.249485696486836" lon="11.849164079593905"><ele>87.0</ele><time>2026-05-01T15:22:53.001Z</time></trkpt><trkpt lat="44.24941137697663" lon="11.849238253824488"><ele>87.0</ele><time>2026-05-01T15:22:55.001Z</time></trkpt><trkpt lat="44.24934421635265" lon="11.849315421152914"><ele>87.0</ele><time>2026-05-01T15:22:57.001Z</time></trkpt><trkpt lat="44.24927919572589" lon="11.849349108543919"><ele>87.0</ele><time>2026-05-01T15:22:59.001Z</time></trkpt><trkpt lat="44.24920645490709" lon="11.849302036921593"><ele>87.0</ele><time>2026-05-01T15:23:01.001Z</time></trkpt><trkpt lat="44.249130488347404" lon="11.849212226707333"><ele>87.0</ele><time>2026-05-01T15:23:03.001Z</time></trkpt><trkpt lat="44.24900850068562" lon="11.8491033931767"><ele>87.0</ele><time>2026-05-01T15:23:05.001Z</time></trkpt><trkpt lat="44.24894965470107" lon="11.849061070458824"><ele>87.0</ele><time>2026-05-01T15:23:06.001Z</time></trkpt><trkpt lat="44.24885053290508" lon="11.848971054015664"><ele>87.0</ele><time>2026-05-01T15:23:08.001Z</time></trkpt><trkpt lat="44.24876256288706" lon="11.84888808915008"><ele>87.0</ele><time>2026-05-01T15:23:10.001Z</time></trkpt><trkpt lat="44.24866302586793" lon="11.848856723472359"><ele>87.19999999999999</ele><time>2026-05-01T15:23:12.001Z</time></trkpt><trkpt lat="44.248558505676264" lon="11.848844424826702"><ele>87.4</ele><time>2026-05-01T15:23:14.001Z</time></trkpt><trkpt lat="44.248447394436816" lon="11.848833408662873"><ele>87.6</ele><time>2026-05-01T15:23:16.001Z</time></trkpt><trkpt lat="44.248342302684364" lon="11.848814272931744"><ele>87.80000000000001</ele><time>2026-05-01T15:23:18.001Z</time></trkpt><trkpt lat="44.24824159078681" lon="11.848802470479093"><ele>88.0</ele><time>2026-05-01T15:23:20.001Z</time></trkpt><trkpt lat="44.248124209924036" lon="11.848788707267532"><ele>88.60000000000001</ele><time>2026-05-01T15:23:22.001Z</time></trkpt><trkpt lat="44.248011201955414" lon="11.848770474047742"><ele>89.2</ele><time>2026-05-01T15:23:24.002Z</time></trkpt><trkpt lat="44.247915546868654" lon="11.848751055192878"><ele>89.8</ele><time>2026-05-01T15:23:26.002Z</time></trkpt><trkpt lat="44.24782891188628" lon="11.848740323643634"><ele>90.4</ele><time>2026-05-01T15:23:28.002Z</time></trkpt><trkpt lat="44.24774757143756" lon="11.848720098552194"><ele>91.0</ele><time>2026-05-01T15:23:30.002Z</time></trkpt><trkpt lat="44.24767450224637" lon="11.848704459000391"><ele>91.0</ele><time>2026-05-01T15:23:32.002Z</time></trkpt><trkpt lat="44.24761030291349" lon="11.848732930768978"><ele>91.0</ele><time>2026-05-01T15:23:40.002Z</time></trkpt><trkpt lat="44.24752522074028" lon="11.848734944566717"><ele>91.0</ele><time>2026-05-01T15:23:46.002Z</time></trkpt><trkpt lat="44.24748986530222" lon="11.848602261862899"><ele>91.0</ele><time>2026-05-01T15:23:48.002Z</time></trkpt><trkpt lat="44.24739375249455" lon="11.848511716118521"><ele>91.0</ele><time>2026-05-01T15:23:50.002Z</time></trkpt><trkpt lat="44.24729273175028" lon="11.848417317036393"><ele>90.6</ele><time>2026-05-01T15:23:52.002Z</time></trkpt><trkpt lat="44.247190355713066" lon="11.848320846374033"><ele>90.19999999999999</ele><time>2026-05-01T15:23:54.002Z</time></trkpt><trkpt lat="44.247103326088244" lon="11.848214389790574"><ele>89.80000000000001</ele><time>2026-05-01T15:23:56.002Z</time></trkpt><trkpt lat="44.24704210790595" lon="11.848082859166862"><ele>89.4</ele><time>2026-05-01T15:23:58.002Z</time></trkpt><trkpt lat="44.24704658374489" lon="11.847983624913434"><ele>89.0</ele><time>2026-05-01T15:23:59.002Z</time></trkpt><trkpt lat="44.24708207827522" lon="11.847898259454718"><ele>89.0</ele><time>2026-05-01T15:24:00.002Z</time></trkpt><trkpt lat="44.247110637553035" lon="11.847801787302979"><ele>89.0</ele><time>2026-05-01T15:24:01.002Z</time></trkpt><trkpt lat="44.24713884344951" lon="11.847691791575125"><ele>89.0</ele><time>2026-05-01T15:24:02.002Z</time></trkpt><trkpt lat="44.24716486633279" lon="11.847587018242812"><ele>89.0</ele><time>2026-05-01T15:24:03Z</time></trkpt><trkpt lat="44.247193177761986" lon="11.847473030823986"><ele>89.0</ele><time>2026-05-01T15:24:04Z</time></trkpt><trkpt lat="44.2472226154719" lon="11.847354508878317"><ele>89.0</ele><time>2026-05-01T15:24:05Z</time></trkpt><trkpt lat="44.24723637836593" lon="11.847232592014105"><ele>89.16666666666667</ele><time>2026-05-01T15:24:06Z</time></trkpt><trkpt lat="44.24726745832003" lon="11.847122568500383"><ele>89.33333333333334</ele><time>2026-05-01T15:24:07Z</time></trkpt><trkpt lat="44.247295497690345" lon="11.847007739474039"><ele>89.5</ele><time>2026-05-01T15:24:08Z</time></trkpt><trkpt lat="44.24732482435381" lon="11.846890259040473"><ele>89.66666666666667</ele><time>2026-05-01T15:24:09Z</time></trkpt><trkpt lat="44.24735244216541" lon="11.846781853149654"><ele>89.83333333333333</ele><time>2026-05-01T15:24:10Z</time></trkpt><trkpt lat="44.24738117928593" lon="11.84667613688409"><ele>90.0</ele><time>2026-05-01T15:24:11Z</time></trkpt><trkpt lat="44.24739888517317" lon="11.84657790986517"><ele>88.5</ele><time>2026-05-01T15:24:12Z</time></trkpt><trkpt lat="44.24742757714579" lon="11.846482122424373"><ele>87.0</ele><time>2026-05-01T15:24:13Z</time></trkpt><trkpt lat="44.247437650365136" lon="11.846387206181259"><ele>85.5</ele><time>2026-05-01T15:24:14Z</time></trkpt><trkpt lat="44.24744517827167" lon="11.846284928187263"><ele>84.0</ele><time>2026-05-01T15:24:15Z</time></trkpt><trkpt lat="44.24743732347111" lon="11.846169347506734"><ele>82.5</ele><time>2026-05-01T15:24:16Z</time></trkpt><trkpt lat="44.247434480249716" lon="11.846039575475409"><ele>81.0</ele><time>2026-05-01T15:24:17Z</time></trkpt><trkpt lat="44.247399195174204" lon="11.845897767612623"><ele>80.8</ele><time>2026-05-01T15:24:18Z</time></trkpt><trkpt lat="44.247348393907274" lon="11.845758154552247"><ele>80.6</ele><time>2026-05-01T15:24:19Z</time></trkpt><trkpt lat="44.24730243293583" lon="11.845619225050193"><ele>80.4</ele><time>2026-05-01T15:24:20Z</time></trkpt><trkpt lat="44.24726175279666" lon="11.845471044436605"><ele>80.2</ele><time>2026-05-01T15:24:21Z</time></trkpt><trkpt lat="44.247217461654316" lon="11.845333809333207"><ele>80.0</ele><time>2026-05-01T15:24:22Z</time></trkpt><trkpt lat="44.24718218917437" lon="11.845210589280052"><ele>80.16666666666667</ele><time>2026-05-01T15:24:23Z</time></trkpt><trkpt lat="44.247150114261295" lon="11.845114228795016"><ele>80.33333333333334</ele><time>2026-05-01T15:24:24Z</time></trkpt><trkpt lat="44.24712045970104" lon="11.845028806511209"><ele>80.5</ele><time>2026-05-01T15:24:25Z</time></trkpt><trkpt lat="44.24708010292162" lon="11.844875516943764"><ele>80.66666666666667</ele><time>2026-05-01T15:24:27Z</time></trkpt><trkpt lat="44.24707886592746" lon="11.844719658093634"><ele>80.83333333333333</ele><time>2026-05-01T15:24:29Z</time></trkpt><trkpt lat="44.247108803057365" lon="11.844630727275883"><ele>81.0</ele><time>2026-05-01T15:24:30Z</time></trkpt><trkpt lat="44.247156936614815" lon="11.844536157988026"><ele>81.0</ele><time>2026-05-01T15:24:31Z</time></trkpt><trkpt lat="44.24722267330066" lon="11.84444343243941"><ele>81.0</ele><time>2026-05-01T15:24:32Z</time></trkpt><trkpt lat="44.24729904999358" lon="11.84433484410747"><ele>81.0</ele><time>2026-05-01T15:24:33Z</time></trkpt><trkpt lat="44.24737959523216" lon="11.844212042245697"><ele>81.0</ele><time>2026-05-01T15:24:34Z</time></trkpt><trkpt lat="44.24746456039232" lon="11.844092094421082"><ele>81.0</ele><time>2026-05-01T15:24:35Z</time></trkpt><trkpt lat="44.24754994477152" lon="11.843957634545554"><ele>79.0</ele><time>2026-05-01T15:24:36Z</time></trkpt><trkpt lat="44.24763772791255" lon="11.843830022741033"><ele>77.0</ele><time>2026-05-01T15:24:37.001Z</time></trkpt><trkpt lat="44.24772625353643" lon="11.843697668864769"><ele>75.0</ele><time>2026-05-01T15:24:38.001Z</time></trkpt><trkpt lat="44.247816422325165" lon="11.843560364639368"><ele>73.0</ele><time>2026-05-01T15:24:39.001Z</time></trkpt><trkpt lat="44.24790494315095" lon="11.843424173375107"><ele>72.5</ele><time>2026-05-01T15:24:40.001Z</time></trkpt><trkpt lat="44.24798844152504" lon="11.84329607238156"><ele>72.0</ele><time>2026-05-01T15:24:41.001Z</time></trkpt><trkpt lat="44.24807012131695" lon="11.843170819101816"><ele>71.5</ele><time>2026-05-01T15:24:42.001Z</time></trkpt><trkpt lat="44.2481498145581" lon="11.843051447877421"><ele>71.0</ele><time>2026-05-01T15:24:43.001Z</time></trkpt><trkpt lat="44.24822141590718" lon="11.842948190619202"><ele>70.66666666666667</ele><time>2026-05-01T15:24:44.001Z</time></trkpt><trkpt lat="44.24828202196742" lon="11.84286359215022"><ele>70.33333333333334</ele><time>2026-05-01T15:24:45.001Z</time></trkpt><trkpt lat="44.24834271986732" lon="11.842779914368055"><ele>70.0</ele><time>2026-05-01T15:24:46.001Z</time></trkpt><trkpt lat="44.24839201384109" lon="11.842702894157181"><ele>69.66666666666667</ele><time>2026-05-01T15:24:47.001Z</time></trkpt><trkpt lat="44.2484433342046" lon="11.842625155062745"><ele>69.33333333333333</ele><time>2026-05-01T15:24:48.001Z</time></trkpt><trkpt lat="44.24851571504698" lon="11.842508354184876"><ele>69.0</ele><time>2026-05-01T15:24:50.001Z</time></trkpt><trkpt lat="44.24856857795842" lon="11.842422970086732"><ele>69.0</ele><time>2026-05-01T15:24:52.001Z</time></trkpt><trkpt lat="44.24863749376136" lon="11.842375389634478"><ele>69.0</ele><time>2026-05-01T15:24:58.001Z</time></trkpt><trkpt lat="44.248692111836824" lon="11.84248531401191"><ele>69.0</ele><time>2026-05-01T15:25:00.001Z</time></trkpt><trkpt lat="44.248741372306654" lon="11.842559000321575"><ele>69.0</ele><time>2026-05-01T15:25:01.001Z</time></trkpt><trkpt lat="44.24879920663211" lon="11.8426450328362"><ele>69.0</ele><time>2026-05-01T15:25:02.001Z</time></trkpt><trkpt lat="44.248877069009524" lon="11.842758863840592"><ele>69.0</ele><time>2026-05-01T15:25:03.001Z</time></trkpt><trkpt lat="44.248958302361864" lon="11.842877623101701"><ele>69.25</ele><time>2026-05-01T15:25:04.001Z</time></trkpt><trkpt lat="44.249059148743285" lon="11.843025055601055"><ele>69.5</ele><time>2026-05-01T15:25:05.001Z</time></trkpt><trkpt lat="44.249154960905955" lon="11.843165128399685"><ele>69.75</ele><time>2026-05-01T15:25:06.001Z</time></trkpt><trkpt lat="44.24923968584405" lon="11.84328919176021"><ele>70.0</ele><time>2026-05-01T15:25:07.001Z</time></trkpt><trkpt lat="44.249317764761585" lon="11.84340533849986"><ele>71.0</ele><time>2026-05-01T15:25:08.001Z</time></trkpt><trkpt lat="44.249386066923115" lon="11.843507890192912"><ele>72.0</ele><time>2026-05-01T15:25:09.001Z</time></trkpt><trkpt lat="44.24944572828009" lon="11.843597706021564"><ele>73.0</ele><time>2026-05-01T15:25:10.001Z</time></trkpt><trkpt lat="44.24949919837807" lon="11.843673265089015"><ele>74.0</ele><time>2026-05-01T15:25:11.001Z</time></trkpt><trkpt lat="44.249547281693665" lon="11.843734057534856"><ele>75.0</ele><time>2026-05-01T15:25:12.001Z</time></trkpt><trkpt lat="44.249678806906395" lon="11.843738167779913"><ele>75.0</ele><time>2026-05-01T15:25:14.001Z</time></trkpt><trkpt lat="44.24973826257717" lon="11.84362360675314"><ele>75.0</ele><time>2026-05-01T15:25:15.001Z</time></trkpt><trkpt lat="44.24981169563546" lon="11.843539481009254"><ele>75.0</ele><time>2026-05-01T15:25:16.001Z</time></trkpt><trkpt lat="44.24989078046475" lon="11.843439739338596"><ele>75.0</ele><time>2026-05-01T15:25:17.001Z</time></trkpt><trkpt lat="44.249985707481976" lon="11.843320933367536"><ele>75.0</ele><time>2026-05-01T15:25:18.001Z</time></trkpt><trkpt lat="44.25008258274277" lon="11.843210893740812"><ele>73.0</ele><time>2026-05-01T15:25:19.001Z</time></trkpt><trkpt lat="44.25018200969554" lon="11.843088532587235"><ele>71.0</ele><time>2026-05-01T15:25:20.001Z</time></trkpt><trkpt lat="44.25028931523496" lon="11.842957707781894"><ele>69.0</ele><time>2026-05-01T15:25:21.001Z</time></trkpt><trkpt lat="44.25039451363436" lon="11.84283464164946"><ele>67.0</ele><time>2026-05-01T15:25:22.001Z</time></trkpt><trkpt lat="44.250503875303046" lon="11.842709640787918"><ele>66.5</ele><time>2026-05-01T15:25:23.001Z</time></trkpt><trkpt lat="44.250613624783064" lon="11.842582305357352"><ele>66.0</ele><time>2026-05-01T15:25:24.001Z</time></trkpt><trkpt lat="44.25072273313898" lon="11.842456216968813"><ele>65.5</ele><time>2026-05-01T15:25:25.001Z</time></trkpt><trkpt lat="44.25082948815509" lon="11.842333292685147"><ele>65.0</ele><time>2026-05-01T15:25:26.001Z</time></trkpt><trkpt lat="44.25093127142231" lon="11.84221661626743"><ele>64.25</ele><time>2026-05-01T15:25:27.001Z</time></trkpt><trkpt lat="44.251036622187186" lon="11.842091247296676"><ele>63.5</ele><time>2026-05-01T15:25:28.001Z</time></trkpt><trkpt lat="44.25114445135931" lon="11.841963360241627"><ele>62.75</ele><time>2026-05-01T15:25:29.001Z</time></trkpt><trkpt lat="44.251253693816786" lon="11.841836195769742"><ele>62.0</ele><time>2026-05-01T15:25:30.001Z</time></trkpt><trkpt lat="44.2513624965447" lon="11.84171167406733"><ele>61.25</ele><time>2026-05-01T15:25:31.002Z</time></trkpt><trkpt lat="44.251471549698095" lon="11.841588863392293"><ele>60.5</ele><time>2026-05-01T15:25:32.002Z</time></trkpt><trkpt lat="44.25157567071184" lon="11.841469304724313"><ele>59.75</ele><time>2026-05-01T15:25:33.002Z</time></trkpt><trkpt lat="44.25167535384374" lon="11.841353156519476"><ele>59.0</ele><time>2026-05-01T15:25:34.002Z</time></trkpt><trkpt lat="44.25176905245377" lon="11.841246050050733"><ele>59.0</ele><time>2026-05-01T15:25:35.002Z</time></trkpt><trkpt lat="44.25185811225512" lon="11.841143980746619"><ele>59.00000000000001</ele><time>2026-05-01T15:25:36.002Z</time></trkpt><trkpt lat="44.25194020427074" lon="11.841048469209948"><ele>59.00000000000001</ele><time>2026-05-01T15:25:37.002Z</time></trkpt><trkpt lat="44.25201556710992" lon="11.840960138381728"><ele>59.0</ele><time>2026-05-01T15:25:38.002Z</time></trkpt><trkpt lat="44.25208641260558" lon="11.840883912280184"><ele>59.0</ele><time>2026-05-01T15:25:39.002Z</time></trkpt><trkpt lat="44.25215209485289" lon="11.840814241171994"><ele>59.333333333333336</ele><time>2026-05-01T15:25:40.002Z</time></trkpt><trkpt lat="44.252213004390434" lon="11.840752940672925"><ele>59.66666666666667</ele><time>2026-05-01T15:25:41.002Z</time></trkpt><trkpt lat="44.25227851429701" lon="11.840701573064914"><ele>60.0</ele><time>2026-05-01T15:25:42.002Z</time></trkpt><trkpt lat="44.2523472297766" lon="11.840696586114317"><ele>60.33333333333333</ele><time>2026-05-01T15:25:43.002Z</time></trkpt><trkpt lat="44.252425611096704" lon="11.840611496725296"><ele>60.666666666666664</ele><time>2026-05-01T15:25:44.002Z</time></trkpt><trkpt lat="44.25247496040894" lon="11.840511840630734"><ele>61.0</ele><time>2026-05-01T15:25:45.002Z</time></trkpt><trkpt lat="44.25253869896649" lon="11.840394319961055"><ele>61.0</ele><time>2026-05-01T15:25:46.002Z</time></trkpt><trkpt lat="44.25262161892284" lon="11.840300473432267"><ele>60.99999999999999</ele><time>2026-05-01T15:25:47.002Z</time></trkpt><trkpt lat="44.252701209853974" lon="11.840208623405662"><ele>60.99999999999999</ele><time>2026-05-01T15:25:48.002Z</time></trkpt><trkpt lat="44.252787695473636" lon="11.84011581933446"><ele>61.0</ele><time>2026-05-01T15:25:49.002Z</time></trkpt><trkpt lat="44.25288189767484" lon="11.840026964576161"><ele>61.0</ele><time>2026-05-01T15:25:50.002Z</time></trkpt><trkpt lat="44.252978978358705" lon="11.839943206358283"><ele>61.0</ele><time>2026-05-01T15:25:51.002Z</time></trkpt><trkpt lat="44.2530851120928" lon="11.83986436285248"><ele>61.0</ele><time>2026-05-01T15:25:52.002Z</time></trkpt><trkpt lat="44.253205503882974" lon="11.839822147975404"><ele>61.0</ele><time>2026-05-01T15:25:53.002Z</time></trkpt><trkpt lat="44.25331734571254" lon="11.839744965211226"><ele>61.0</ele><time>2026-05-01T15:25:54.002Z</time></trkpt><trkpt lat="44.25343107767532" lon="11.839685705901283"><ele>60.75</ele><time>2026-05-01T15:25:55.002Z</time></trkpt><trkpt lat="44.25354260984461" lon="11.839626661716178"><ele>60.5</ele><time>2026-05-01T15:25:56.002Z</time></trkpt><trkpt lat="44.253656145346376" lon="11.839570074636942"><ele>60.25</ele><time>2026-05-01T15:25:57.002Z</time></trkpt><trkpt lat="44.25377030650478" lon="11.839513718588966"><ele>60.0</ele><time>2026-05-01T15:25:58.002Z</time></trkpt><trkpt lat="44.253880842958445" lon="11.83945678032294"><ele>60.0</ele><time>2026-05-01T15:25:59.002Z</time></trkpt><trkpt lat="44.25398842949288" lon="11.839404335788586"><ele>60.0</ele><time>2026-05-01T15:26:00.002Z</time></trkpt><trkpt lat="44.2540992988654" lon="11.839352459998272"><ele>60.0</ele><time>2026-05-01T15:26:01.002Z</time></trkpt><trkpt lat="44.254206218382606" lon="11.839302286862793"><ele>60.0</ele><time>2026-05-01T15:26:02.002Z</time></trkpt><trkpt lat="44.254311476468146" lon="11.839250825564605"><ele>60.0</ele><time>2026-05-01T15:26:03.002Z</time></trkpt><trkpt lat="44.25440558782176" lon="11.839206566730327"><ele>60.0</ele><time>2026-05-01T15:26:04.002Z</time></trkpt><trkpt lat="44.25449000514335" lon="11.839164811094543"><ele>60.0</ele><time>2026-05-01T15:26:05.002Z</time></trkpt><trkpt lat="44.254559681801" lon="11.839130833385976"><ele>60.0</ele><time>2026-05-01T15:26:06.002Z</time></trkpt><trkpt lat="44.2546206784803" lon="11.839104293485521"><ele>60.0</ele><time>2026-05-01T15:26:07.002Z</time></trkpt><trkpt lat="44.2546969532526" lon="11.839041176364306"><ele>60.0</ele><time>2026-05-01T15:26:09Z</time></trkpt><trkpt lat="44.25473184314892" lon="11.838956087133415"><ele>60.0</ele><time>2026-05-01T15:26:11Z</time></trkpt><trkpt lat="44.25470189029331" lon="11.838794154300942"><ele>60.0</ele><time>2026-05-01T15:26:13Z</time></trkpt><trkpt lat="44.25466951588338" lon="11.83868634905192"><ele>60.0</ele><time>2026-05-01T15:26:14Z</time></trkpt><trkpt lat="44.254636427050876" lon="11.838565565797646"><ele>60.0</ele><time>2026-05-01T15:26:15Z</time></trkpt><trkpt lat="44.25459489296914" lon="11.838428546215425"><ele>60.0</ele><time>2026-05-01T15:26:16Z</time></trkpt><trkpt lat="44.25455013247114" lon="11.838276655103181"><ele>60.0</ele><time>2026-05-01T15:26:17Z</time></trkpt><trkpt lat="44.254504586169354" lon="11.838128381362552"><ele>60.0</ele><time>2026-05-01T15:26:18Z</time></trkpt><trkpt lat="44.25447091977511" lon="11.83795800817541"><ele>60.0</ele><time>2026-05-01T15:26:19Z</time></trkpt><trkpt lat="44.25440690483888" lon="11.837788629246175"><ele>60.0</ele><time>2026-05-01T15:26:20Z</time></trkpt><trkpt lat="44.25435195401038" lon="11.837595702591718"><ele>59.66666666666667</ele><time>2026-05-01T15:26:21Z</time></trkpt><trkpt lat="44.254307547539106" lon="11.837390696340288"><ele>59.333333333333336</ele><time>2026-05-01T15:26:22Z</time></trkpt><trkpt lat="44.2542489916766" lon="11.837188256198823"><ele>59.0</ele><time>2026-05-01T15:26:23Z</time></trkpt><trkpt lat="44.25419078847525" lon="11.836987035298241"><ele>58.75</ele><time>2026-05-01T15:26:24Z</time></trkpt><trkpt lat="44.25413461313465" lon="11.836792825255298"><ele>58.5</ele><time>2026-05-01T15:26:25Z</time></trkpt><trkpt lat="44.254065923310584" lon="11.836610273085823"><ele>58.25</ele><time>2026-05-01T15:26:26Z</time></trkpt><trkpt lat="44.254010640279965" lon="11.836420687780384"><ele>58.0</ele><time>2026-05-01T15:26:27Z</time></trkpt><trkpt lat="44.253960411429304" lon="11.836240568769405"><ele>59.0</ele><time>2026-05-01T15:26:28Z</time></trkpt><trkpt lat="44.253907415705086" lon="11.836057635622815"><ele>60.0</ele><time>2026-05-01T15:26:29Z</time></trkpt><trkpt lat="44.25385802212244" lon="11.835876860055638"><ele>61.0</ele><time>2026-05-01T15:26:30Z</time></trkpt><trkpt lat="44.25380278987889" lon="11.835692803738556"><ele>62.0</ele><time>2026-05-01T15:26:31Z</time></trkpt><trkpt lat="44.2537505377395" lon="11.835518301296698"><ele>62.0</ele><time>2026-05-01T15:26:32Z</time></trkpt><trkpt lat="44.25370093356048" lon="11.835348025720236"><ele>62.0</ele><time>2026-05-01T15:26:33Z</time></trkpt><trkpt lat="44.253657303360555" lon="11.835188140323174"><ele>62.0</ele><time>2026-05-01T15:26:34Z</time></trkpt><trkpt lat="44.25361646712372" lon="11.83502977342816"><ele>62.0</ele><time>2026-05-01T15:26:35Z</time></trkpt><trkpt lat="44.2535742907572" lon="11.834878389039952"><ele>61.5</ele><time>2026-05-01T15:26:36Z</time></trkpt><trkpt lat="44.25353487486033" lon="11.834728050461516"><ele>61.0</ele><time>2026-05-01T15:26:37Z</time></trkpt><trkpt lat="44.25347401932087" lon="11.834585645554935"><ele>60.5</ele><time>2026-05-01T15:26:38Z</time></trkpt><trkpt lat="44.25341366925591" lon="11.834458016373175"><ele>60.0</ele><time>2026-05-01T15:26:39Z</time></trkpt><trkpt lat="44.25335475028346" lon="11.834333944083019"><ele>59.8</ele><time>2026-05-01T15:26:40Z</time></trkpt><trkpt lat="44.25329754514055" lon="11.83421140666093"><ele>59.6</ele><time>2026-05-01T15:26:41Z</time></trkpt><trkpt lat="44.25324410641911" lon="11.834091261776186"><ele>59.400000000000006</ele><time>2026-05-01T15:26:42Z</time></trkpt><trkpt lat="44.25317696731516" lon="11.833974624522476"><ele>59.2</ele><time>2026-05-01T15:26:43Z</time></trkpt><trkpt lat="44.253127785151854" lon="11.833852576802288"><ele>59.0</ele><time>2026-05-01T15:26:44Z</time></trkpt><trkpt lat="44.253084605662835" lon="11.83374381270523"><ele>59.50000000000001</ele><time>2026-05-01T15:26:45.001Z</time></trkpt><trkpt lat="44.253045053425026" lon="11.833650201057564"><ele>60.0</ele><time>2026-05-01T15:26:46.001Z</time></trkpt><trkpt lat="44.253012106918916" lon="11.83356703816311"><ele>60.5</ele><time>2026-05-01T15:26:47.001Z</time></trkpt><trkpt lat="44.25295660470734" lon="11.833434343773982"><ele>61.0</ele><time>2026-05-01T15:26:49.001Z</time></trkpt><trkpt lat="44.25295258689446" lon="11.83332170175028"><ele>61.50000000000001</ele><time>2026-05-01T15:26:51.001Z</time></trkpt><trkpt lat="44.253042187377844" lon="11.833248437503475"><ele>62.0</ele><time>2026-05-01T15:26:53.001Z</time></trkpt><trkpt lat="44.25310758372981" lon="11.83321928224034"><ele>61.28571428571429</ele><time>2026-05-01T15:26:54.001Z</time></trkpt><trkpt lat="44.25317808581656" lon="11.833170283615894"><ele>60.57142857142858</ele><time>2026-05-01T15:26:55.001Z</time></trkpt><trkpt lat="44.253253677129656" lon="11.833142489935305"><ele>59.85714285714286</ele><time>2026-05-01T15:26:56.001Z</time></trkpt><trkpt lat="44.25332898788231" lon="11.833110625440803"><ele>59.14285714285714</ele><time>2026-05-01T15:26:57.001Z</time></trkpt><trkpt lat="44.253402333594444" lon="11.83308020617174"><ele>58.42857142857142</ele><time>2026-05-01T15:26:58.001Z</time></trkpt><trkpt lat="44.25346792044244" lon="11.833050464456877"><ele>57.71428571428571</ele><time>2026-05-01T15:26:59.001Z</time></trkpt><trkpt lat="44.25353137101241" lon="11.833021231605352"><ele>57.0</ele><time>2026-05-01T15:27:00.001Z</time></trkpt><trkpt lat="44.25359304855418" lon="11.83299679173211"><ele>57.0</ele><time>2026-05-01T15:27:01.001Z</time></trkpt><trkpt lat="44.25371300076578" lon="11.83298337055725"><ele>57.0</ele><time>2026-05-01T15:27:03.001Z</time></trkpt><trkpt lat="44.253830836238805" lon="11.833042847321014"><ele>57.0</ele><time>2026-05-01T15:27:05.001Z</time></trkpt><trkpt lat="44.25393544526452" lon="11.833134117260286"><ele>57.0</ele><time>2026-05-01T15:27:07.001Z</time></trkpt><trkpt lat="44.253992084415415" lon="11.833184889959803"><ele>57.0</ele><time>2026-05-01T15:27:08.001Z</time></trkpt><trkpt lat="44.25405049708102" lon="11.833232050253029"><ele>56.0</ele><time>2026-05-01T15:27:09.001Z</time></trkpt><trkpt lat="44.25416663058982" lon="11.833249606559058"><ele>55.0</ele><time>2026-05-01T15:27:11.001Z</time></trkpt><trkpt lat="44.25422817771998" lon="11.833212790216193"><ele>54.0</ele><time>2026-05-01T15:27:14.001Z</time></trkpt><trkpt lat="44.254302517406686" lon="11.833190341005887"><ele>53.0</ele><time>2026-05-01T15:27:30.001Z</time></trkpt><trkpt lat="44.25423939249878" lon="11.833177889422846"><ele>52.0</ele><time>2026-05-01T15:27:42.002Z</time></trkpt><trkpt lat="44.254186272540196" lon="11.833244189848054"><ele>51.0</ele><time>2026-05-01T15:30:59Z</time></trkpt><trkpt lat="44.25412829559813" lon="11.833283735697604"><ele>51.0</ele><time>2026-05-01T15:31:00.001Z</time></trkpt><trkpt lat="44.254007549726964" lon="11.833227687933771"><ele>51.0</ele><time>2026-05-01T15:31:02.001Z</time></trkpt><trkpt lat="44.25394927813044" lon="11.833174404138758"><ele>51.0</ele><time>2026-05-01T15:31:03.001Z</time></trkpt><trkpt lat="44.25389205700392" lon="11.833117109159248"><ele>51.0</ele><time>2026-05-01T15:31:04.001Z</time></trkpt><trkpt lat="44.253832326704746" lon="11.833056848892786"><ele>51.0</ele><time>2026-05-01T15:31:05.001Z</time></trkpt><trkpt lat="44.25376679481508" lon="11.833014418371274"><ele>51.0</ele><time>2026-05-01T15:31:06.001Z</time></trkpt><trkpt lat="44.25369323817308" lon="11.83299526701359"><ele>52.0</ele><time>2026-05-01T15:31:07.001Z</time></trkpt><trkpt lat="44.25361355310758" lon="11.832999729894661"><ele>53.0</ele><time>2026-05-01T15:31:08.001Z</time></trkpt><trkpt lat="44.25353736590643" lon="11.833028633201868"><ele>54.0</ele><time>2026-05-01T15:31:09.001Z</time></trkpt><trkpt lat="44.25345759169283" lon="11.83306595442876"><ele>55.0</ele><time>2026-05-01T15:31:10.001Z</time></trkpt><trkpt lat="44.25336811148731" lon="11.833103569870987"><ele>56.0</ele><time>2026-05-01T15:31:11.001Z</time></trkpt><trkpt lat="44.25326795445779" lon="11.833140781176494"><ele>57.0</ele><time>2026-05-01T15:31:12.001Z</time></trkpt><trkpt lat="44.25318387268134" lon="11.833168934506523"><ele>57.833333333333336</ele><time>2026-05-01T15:31:13.001Z</time></trkpt><trkpt lat="44.25310618279018" lon="11.83319452353243"><ele>58.66666666666667</ele><time>2026-05-01T15:31:14.001Z</time></trkpt><trkpt lat="44.25304075358674" lon="11.833222647435159"><ele>59.5</ele><time>2026-05-01T15:31:15.001Z</time></trkpt><trkpt lat="44.252949154953875" lon="11.833266768288002"><ele>60.333333333333336</ele><time>2026-05-01T15:31:17.001Z</time></trkpt><trkpt lat="44.252902001220214" lon="11.833361055081278"><ele>61.16666666666667</ele><time>2026-05-01T15:31:20.001Z</time></trkpt><trkpt lat="44.252947762652724" lon="11.833482496359805"><ele>62.0</ele><time>2026-05-01T15:31:22.001Z</time></trkpt><trkpt lat="44.25300500432559" lon="11.833638607950515"><ele>62.00000000000001</ele><time>2026-05-01T15:31:24.001Z</time></trkpt><trkpt lat="44.25304394878963" lon="11.8337297961921"><ele>62.0</ele><time>2026-05-01T15:31:25.001Z</time></trkpt><trkpt lat="44.25309024143699" lon="11.833836127576108"><ele>62.0</ele><time>2026-05-01T15:31:26.001Z</time></trkpt><trkpt lat="44.25313383502199" lon="11.833939044969979"><ele>62.0</ele><time>2026-05-01T15:31:27.001Z</time></trkpt><trkpt lat="44.25317793634024" lon="11.834048502180428"><ele>62.00000000000001</ele><time>2026-05-01T15:31:28.001Z</time></trkpt><trkpt lat="44.25323020608445" lon="11.834155882912016"><ele>62.0</ele><time>2026-05-01T15:31:29.001Z</time></trkpt><trkpt lat="44.25328026820835" lon="11.834263932721717"><ele>61.6</ele><time>2026-05-01T15:31:30.001Z</time></trkpt><trkpt lat="44.25333178207946" lon="11.834369986181212"><ele>61.2</ele><time>2026-05-01T15:31:31.001Z</time></trkpt><trkpt lat="44.25338207103892" lon="11.834480707013535"><ele>60.8</ele><time>2026-05-01T15:31:32.001Z</time></trkpt><trkpt lat="44.25343309593958" lon="11.834594476529002"><ele>60.4</ele><time>2026-05-01T15:31:33.001Z</time></trkpt><trkpt lat="44.25349048925042" lon="11.834713168741501"><ele>60.0</ele><time>2026-05-01T15:31:34.001Z</time></trkpt><trkpt lat="44.25353854490113" lon="11.834840105577202"><ele>60.0</ele><time>2026-05-01T15:31:35.001Z</time></trkpt><trkpt lat="44.2535818600569" lon="11.834988249013971"><ele>60.0</ele><time>2026-05-01T15:31:36.001Z</time></trkpt><trkpt lat="44.25362455051928" lon="11.835148689653966"><ele>60.0</ele><time>2026-05-01T15:31:37.001Z</time></trkpt><trkpt lat="44.25367538205965" lon="11.835316873106724"><ele>60.0</ele><time>2026-05-01T15:31:38.001Z</time></trkpt><trkpt lat="44.253725400396945" lon="11.835490940437086"><ele>60.5</ele><time>2026-05-01T15:31:39.001Z</time></trkpt><trkpt lat="44.25377666101535" lon="11.835673712492971"><ele>61.0</ele><time>2026-05-01T15:31:40.001Z</time></trkpt><trkpt lat="44.253829255568064" lon="11.835857203671361"><ele>61.5</ele><time>2026-05-01T15:31:41.001Z</time></trkpt><trkpt lat="44.25388624263299" lon="11.836037737829082"><ele>62.0</ele><time>2026-05-01T15:31:42.001Z</time></trkpt><trkpt lat="44.25394141248772" lon="11.836213563716012"><ele>61.25</ele><time>2026-05-01T15:31:43.001Z</time></trkpt><trkpt lat="44.253995905912454" lon="11.836393872009426"><ele>60.5</ele><time>2026-05-01T15:31:44.001Z</time></trkpt><trkpt lat="44.25404803335344" lon="11.836575135038498"><ele>59.75</ele><time>2026-05-01T15:31:45.001Z</time></trkpt><trkpt lat="44.254092931817546" lon="11.836741269665536"><ele>59.0</ele><time>2026-05-01T15:31:46.001Z</time></trkpt><trkpt lat="44.25413724991433" lon="11.836906404134421"><ele>59.0</ele><time>2026-05-01T15:31:47.001Z</time></trkpt><trkpt lat="44.25418817264158" lon="11.837079352875087"><ele>59.0</ele><time>2026-05-01T15:31:48.001Z</time></trkpt><trkpt lat="44.25424052908214" lon="11.837249235458746"><ele>59.0</ele><time>2026-05-01T15:31:49.001Z</time></trkpt><trkpt lat="44.25428831213099" lon="11.837405402866343"><ele>59.0</ele><time>2026-05-01T15:31:50.001Z</time></trkpt><trkpt lat="44.25433005284351" lon="11.837550864323557"><ele>59.25</ele><time>2026-05-01T15:31:51.001Z</time></trkpt><trkpt lat="44.254371110816784" lon="11.837696855141921"><ele>59.5</ele><time>2026-05-01T15:31:52.001Z</time></trkpt><trkpt lat="44.25441509431522" lon="11.837849545506828"><ele>59.75</ele><time>2026-05-01T15:31:53.001Z</time></trkpt><trkpt lat="44.2544568543387" lon="11.838005809407614"><ele>60.0</ele><time>2026-05-01T15:31:54.001Z</time></trkpt><trkpt lat="44.25450404359801" lon="11.838166277431444"><ele>60.0</ele><time>2026-05-01T15:31:55.001Z</time></trkpt><trkpt lat="44.25454994994736" lon="11.838315124114132"><ele>60.0</ele><time>2026-05-01T15:31:56.001Z</time></trkpt><trkpt lat="44.25458991204597" lon="11.838453408031231"><ele>60.0</ele><time>2026-05-01T15:31:57.001Z</time></trkpt><trkpt lat="44.254623433966046" lon="11.838576079456702"><ele>60.0</ele><time>2026-05-01T15:31:58.001Z</time></trkpt><trkpt lat="44.25465664558643" lon="11.838688311068637"><ele>60.0</ele><time>2026-05-01T15:31:59.002Z</time></trkpt><trkpt lat="44.254685546708906" lon="11.838791714123996"><ele>60.0</ele><time>2026-05-01T15:32:00.002Z</time></trkpt><trkpt lat="44.25470994056328" lon="11.83888297062484"><ele>60.0</ele><time>2026-05-01T15:32:01.002Z</time></trkpt><trkpt lat="44.254706884904486" lon="11.839029443635965"><ele>60.0</ele><time>2026-05-01T15:32:03.002Z</time></trkpt><trkpt lat="44.25461001426989" lon="11.839114980174902"><ele>60.0</ele><time>2026-05-01T15:32:05.002Z</time></trkpt><trkpt lat="44.2545342604299" lon="11.839144548240311"><ele>60.0</ele><time>2026-05-01T15:32:06.002Z</time></trkpt><trkpt lat="44.254439235643964" lon="11.839153565487873"><ele>60.0</ele><time>2026-05-01T15:32:07.002Z</time></trkpt><trkpt lat="44.254352207677236" lon="11.839193131185718"><ele>60.0</ele><time>2026-05-01T15:32:08.002Z</time></trkpt><trkpt lat="44.254256247126065" lon="11.83923825815671"><ele>60.0</ele><time>2026-05-01T15:32:09.002Z</time></trkpt><trkpt lat="44.25415053422754" lon="11.839291445053687"><ele>60.0</ele><time>2026-05-01T15:32:10.002Z</time></trkpt><trkpt lat="44.25403463590813" lon="11.839349756511526"><ele>60.0</ele><time>2026-05-01T15:32:11.002Z</time></trkpt><trkpt lat="44.253918715801845" lon="11.839408865143492"><ele>60.0</ele><time>2026-05-01T15:32:12.002Z</time></trkpt><trkpt lat="44.25379258655533" lon="11.839473353966932"><ele>60.0</ele><time>2026-05-01T15:32:13.002Z</time></trkpt><trkpt lat="44.2536578106997" lon="11.8395418727706"><ele>60.0</ele><time>2026-05-01T15:32:14.002Z</time></trkpt><trkpt lat="44.253537515651814" lon="11.83960274109464"><ele>60.0</ele><time>2026-05-01T15:32:15.002Z</time></trkpt><trkpt lat="44.25342402749896" lon="11.83966016520826"><ele>60.0</ele><time>2026-05-01T15:32:16.002Z</time></trkpt><trkpt lat="44.25331043938398" lon="11.839717639850273"><ele>60.0</ele><time>2026-05-01T15:32:17.002Z</time></trkpt><trkpt lat="44.253203989704545" lon="11.839773372065213"><ele>60.0</ele><time>2026-05-01T15:32:18.002Z</time></trkpt><trkpt lat="44.253104011759376" lon="11.839828282851748"><ele>60.0</ele><time>2026-05-01T15:32:19.002Z</time></trkpt><trkpt lat="44.25301885291681" lon="11.839909196525268"><ele>60.0</ele><time>2026-05-01T15:32:20.002Z</time></trkpt><trkpt lat="44.25292077212762" lon="11.83996108885724"><ele>60.2</ele><time>2026-05-01T15:32:21.002Z</time></trkpt><trkpt lat="44.25282891718736" lon="11.840044566923323"><ele>60.4</ele><time>2026-05-01T15:32:22.002Z</time></trkpt><trkpt lat="44.25274369897553" lon="11.840129508754174"><ele>60.599999999999994</ele><time>2026-05-01T15:32:23.002Z</time></trkpt><trkpt lat="44.2526664366757" lon="11.84021103029339"><ele>60.8</ele><time>2026-05-01T15:32:24.002Z</time></trkpt><trkpt lat="44.252595580589286" lon="11.840290998374355"><ele>61.0</ele><time>2026-05-01T15:32:25.002Z</time></trkpt><trkpt lat="44.25253867442092" lon="11.840359310673788"><ele>61.0</ele><time>2026-05-01T15:32:26.002Z</time></trkpt><trkpt lat="44.25249156218069" lon="11.840431809416959"><ele>60.99999999999999</ele><time>2026-05-01T15:32:27Z</time></trkpt><trkpt lat="44.25241620331501" lon="11.840540787396936"><ele>60.99999999999999</ele><time>2026-05-01T15:32:29Z</time></trkpt><trkpt lat="44.25238819813248" lon="11.840620556553809"><ele>61.0</ele><time>2026-05-01T15:32:31Z</time></trkpt><trkpt lat="44.25251283743247" lon="11.840771241809268"><ele>61.0</ele><time>2026-05-01T15:32:35Z</time></trkpt><trkpt lat="44.252577211110406" lon="11.840811759431247"><ele>61.0</ele><time>2026-05-01T15:32:36Z</time></trkpt><trkpt lat="44.252645133009715" lon="11.840887098546206"><ele>60.99999999999999</ele><time>2026-05-01T15:32:37Z</time></trkpt><trkpt lat="44.25271296564182" lon="11.84096786643027"><ele>60.99999999999999</ele><time>2026-05-01T15:32:38Z</time></trkpt><trkpt lat="44.25278568157218" lon="11.84105881969214"><ele>61.0</ele><time>2026-05-01T15:32:39Z</time></trkpt><trkpt lat="44.252862722850075" lon="11.841168631086536"><ele>61.0</ele><time>2026-05-01T15:32:40Z</time></trkpt><trkpt lat="44.25293775176294" lon="11.841278072363787"><ele>61.0</ele><time>2026-05-01T15:32:41Z</time></trkpt><trkpt lat="44.253018572933556" lon="11.841396344705771"><ele>61.0</ele><time>2026-05-01T15:32:42Z</time></trkpt><trkpt lat="44.253099500731174" lon="11.84153857947554"><ele>61.0</ele><time>2026-05-01T15:32:43Z</time></trkpt><trkpt lat="44.25318150620396" lon="11.841693767178278"><ele>61.0</ele><time>2026-05-01T15:32:44Z</time></trkpt><trkpt lat="44.253263454569705" lon="11.841863313121541"><ele>61.0</ele><time>2026-05-01T15:32:45Z</time></trkpt><trkpt lat="44.253341221387025" lon="11.842051122042962"><ele>61.0</ele><time>2026-05-01T15:32:46Z</time></trkpt><trkpt lat="44.253426324950254" lon="11.842257244180413"><ele>61.0</ele><time>2026-05-01T15:32:47Z</time></trkpt><trkpt lat="44.25351301598715" lon="11.842464009544035"><ele>60.33333333333333</ele><time>2026-05-01T15:32:48Z</time></trkpt><trkpt lat="44.253600472247676" lon="11.842667725665658"><ele>59.66666666666667</ele><time>2026-05-01T15:32:49Z</time></trkpt><trkpt lat="44.25369414343148" lon="11.842864546953672"><ele>59.0</ele><time>2026-05-01T15:32:50Z</time></trkpt><trkpt lat="44.25379143813972" lon="11.843056052386531"><ele>59.0</ele><time>2026-05-01T15:32:51Z</time></trkpt><trkpt lat="44.253887956061604" lon="11.843244202052224"><ele>59.0</ele><time>2026-05-01T15:32:52Z</time></trkpt><trkpt lat="44.253984138084235" lon="11.843426111933224"><ele>59.0</ele><time>2026-05-01T15:32:53Z</time></trkpt><trkpt lat="44.25407265556438" lon="11.843594891141809"><ele>58.75</ele><time>2026-05-01T15:32:54Z</time></trkpt><trkpt lat="44.25415784956149" lon="11.843753334674602"><ele>58.5</ele><time>2026-05-01T15:32:55.001Z</time></trkpt><trkpt lat="44.254246011945085" lon="11.843896189948813"><ele>58.25</ele><time>2026-05-01T15:32:56.001Z</time></trkpt><trkpt lat="44.25433288729864" lon="11.844040681228435"><ele>58.0</ele><time>2026-05-01T15:32:57.001Z</time></trkpt><trkpt lat="44.254456952246585" lon="11.84414587353654"><ele>58.0</ele><time>2026-05-01T15:32:58.001Z</time></trkpt><trkpt lat="44.25460137163984" lon="11.844202516853349"><ele>58.0</ele><time>2026-05-01T15:32:59.001Z</time></trkpt><trkpt lat="44.25473371808611" lon="11.844277929639592"><ele>58.0</ele><time>2026-05-01T15:33:00.001Z</time></trkpt><trkpt lat="44.254864161254424" lon="11.844366466500807"><ele>58.0</ele><time>2026-05-01T15:33:01.001Z</time></trkpt><trkpt lat="44.25498395087563" lon="11.844485384608449"><ele>57.33333333333333</ele><time>2026-05-01T15:33:02.001Z</time></trkpt><trkpt lat="44.25510000495444" lon="11.844625235938697"><ele>56.66666666666667</ele><time>2026-05-01T15:33:03.001Z</time></trkpt><trkpt lat="44.255221454816876" lon="11.84477795033602"><ele>56.0</ele><time>2026-05-01T15:33:04.001Z</time></trkpt><trkpt lat="44.25534429439967" lon="11.84493839613282"><ele>56.0</ele><time>2026-05-01T15:33:05.001Z</time></trkpt><trkpt lat="44.2554705661789" lon="11.84509692558597"><ele>56.0</ele><time>2026-05-01T15:33:06.001Z</time></trkpt><trkpt lat="44.25559794526915" lon="11.845258059816263"><ele>56.0</ele><time>2026-05-01T15:33:07.001Z</time></trkpt><trkpt lat="44.25572821251447" lon="11.845421601297621"><ele>55.66666666666667</ele><time>2026-05-01T15:33:08.001Z</time></trkpt><trkpt lat="44.255857708983406" lon="11.845583248000102"><ele>55.33333333333333</ele><time>2026-05-01T15:33:09.001Z</time></trkpt><trkpt lat="44.25599413674572" lon="11.84575042417621"><ele>55.0</ele><time>2026-05-01T15:33:10.001Z</time></trkpt><trkpt lat="44.25612251828567" lon="11.845908380122358"><ele>55.0</ele><time>2026-05-01T15:33:11.001Z</time></trkpt><trkpt lat="44.25624871615303" lon="11.846066528321415"><ele>55.0</ele><time>2026-05-01T15:33:12.001Z</time></trkpt><trkpt lat="44.25641847914978" lon="11.84627814451268"><ele>55.0</ele><time>2026-05-01T15:33:13.001Z</time></trkpt><trkpt lat="44.25653846493622" lon="11.846479646306975"><ele>54.33333333333333</ele><time>2026-05-01T15:33:14.001Z</time></trkpt><trkpt lat="44.25666072060327" lon="11.846672430882215"><ele>53.66666666666667</ele><time>2026-05-01T15:33:15.001Z</time></trkpt><trkpt lat="44.256778320226644" lon="11.846875251241128"><ele>53.0</ele><time>2026-05-01T15:33:16.001Z</time></trkpt><trkpt lat="44.25689552743416" lon="11.84708759501437"><ele>53.0</ele><time>2026-05-01T15:33:17.001Z</time></trkpt><trkpt lat="44.257011570811464" lon="11.847300836471673"><ele>53.0</ele><time>2026-05-01T15:33:18.001Z</time></trkpt><trkpt lat="44.2571278697094" lon="11.847523914203512"><ele>53.0</ele><time>2026-05-01T15:33:19.001Z</time></trkpt><trkpt lat="44.257250715553766" lon="11.847735498699077"><ele>52.66666666666667</ele><time>2026-05-01T15:33:20.001Z</time></trkpt><trkpt lat="44.25734877993325" lon="11.847950618321807"><ele>52.33333333333333</ele><time>2026-05-01T15:33:21.001Z</time></trkpt><trkpt lat="44.25744724641461" lon="11.848166853394378"><ele>52.0</ele><time>2026-05-01T15:33:22.001Z</time></trkpt><trkpt lat="44.257551872147275" lon="11.848381084865181"><ele>51.666666666666664</ele><time>2026-05-01T15:33:23.001Z</time></trkpt><trkpt lat="44.257665365006595" lon="11.84858774025516"><ele>51.33333333333333</ele><time>2026-05-01T15:33:24.001Z</time></trkpt><trkpt lat="44.25778850246311" lon="11.848790039965362"><ele>51.0</ele><time>2026-05-01T15:33:25.001Z</time></trkpt><trkpt lat="44.25791705239058" lon="11.848983843661996"><ele>51.0</ele><time>2026-05-01T15:33:26.001Z</time></trkpt><trkpt lat="44.25805253397963" lon="11.849180691988815"><ele>51.0</ele><time>2026-05-01T15:33:27.001Z</time></trkpt><trkpt lat="44.25818848496253" lon="11.849382727263151"><ele>51.0</ele><time>2026-05-01T15:33:28.001Z</time></trkpt><trkpt lat="44.25832711746264" lon="11.849581234065305"><ele>51.0</ele><time>2026-05-01T15:33:29.001Z</time></trkpt><trkpt lat="44.25846299075879" lon="11.849777382353555"><ele>51.0</ele><time>2026-05-01T15:33:30.001Z</time></trkpt><trkpt lat="44.258595202191024" lon="11.849974545236282"><ele>51.0</ele><time>2026-05-01T15:33:31.001Z</time></trkpt><trkpt lat="44.25872745332975" lon="11.85017184508741"><ele>51.0</ele><time>2026-05-01T15:33:32.001Z</time></trkpt><trkpt lat="44.25885344812118" lon="11.850363533007023"><ele>51.0</ele><time>2026-05-01T15:33:33.001Z</time></trkpt><trkpt lat="44.258969736399436" lon="11.850540060769742"><ele>51.0</ele><time>2026-05-01T15:33:34.001Z</time></trkpt><trkpt lat="44.25906496745452" lon="11.850703309874646"><ele>50.75</ele><time>2026-05-01T15:33:35.001Z</time></trkpt><trkpt lat="44.25915751788757" lon="11.850872116762211"><ele>50.5</ele><time>2026-05-01T15:33:36.001Z</time></trkpt><trkpt lat="44.25923461237939" lon="11.851025347635167"><ele>50.25</ele><time>2026-05-01T15:33:37.001Z</time></trkpt><trkpt lat="44.2593110216275" lon="11.851167817608292"><ele>50.0</ele><time>2026-05-01T15:33:38.001Z</time></trkpt><trkpt lat="44.2594012536202" lon="11.85129705221043"><ele>49.75</ele><time>2026-05-01T15:33:39.001Z</time></trkpt><trkpt lat="44.25950735360173" lon="11.851418006810865"><ele>49.5</ele><time>2026-05-01T15:33:40.001Z</time></trkpt><trkpt lat="44.25963308620312" lon="11.851531755830214"><ele>49.25</ele><time>2026-05-01T15:33:41.001Z</time></trkpt><trkpt lat="44.25976151605327" lon="11.851640223905227"><ele>49.0</ele><time>2026-05-01T15:33:42.001Z</time></trkpt><trkpt lat="44.25989333897647" lon="11.851746998009084"><ele>48.666666666666664</ele><time>2026-05-01T15:33:43.001Z</time></trkpt><trkpt lat="44.26003123468704" lon="11.851841272199636"><ele>48.33333333333333</ele><time>2026-05-01T15:33:44.001Z</time></trkpt><trkpt lat="44.260174026572805" lon="11.851920746417594"><ele>48.0</ele><time>2026-05-01T15:33:45.001Z</time></trkpt><trkpt lat="44.260319375069464" lon="11.851993363763912"><ele>48.0</ele><time>2026-05-01T15:33:46.001Z</time></trkpt><trkpt lat="44.26046291088851" lon="11.852061782638716"><ele>48.0</ele><time>2026-05-01T15:33:47.001Z</time></trkpt><trkpt lat="44.26059814058827" lon="11.852128075372725"><ele>48.0</ele><time>2026-05-01T15:33:48.001Z</time></trkpt><trkpt lat="44.260734983495176" lon="11.852199080196788"><ele>48.0</ele><time>2026-05-01T15:33:49.001Z</time></trkpt><trkpt lat="44.26087938428017" lon="11.852264070532936"><ele>48.33333333333333</ele><time>2026-05-01T15:33:50.001Z</time></trkpt><trkpt lat="44.26103116625251" lon="11.85232355469366"><ele>48.666666666666664</ele><time>2026-05-01T15:33:51.001Z</time></trkpt><trkpt lat="44.26118605350354" lon="11.852365963234313"><ele>49.0</ele><time>2026-05-01T15:33:52.001Z</time></trkpt><trkpt lat="44.26134715633209" lon="11.85240186057525"><ele>48.666666666666664</ele><time>2026-05-01T15:33:53.001Z</time></trkpt><trkpt lat="44.26150676680958" lon="11.852451421670173"><ele>48.33333333333333</ele><time>2026-05-01T15:33:54.001Z</time></trkpt><trkpt lat="44.26166737274062" lon="11.852511607473277"><ele>48.0</ele><time>2026-05-01T15:33:55.001Z</time></trkpt><trkpt lat="44.26182430647587" lon="11.852587901748263"><ele>48.33333333333333</ele><time>2026-05-01T15:33:56.001Z</time></trkpt><trkpt lat="44.26198476350546" lon="11.852671306031139"><ele>48.666666666666664</ele><time>2026-05-01T15:33:57.001Z</time></trkpt><trkpt lat="44.262138430394735" lon="11.852771763880138"><ele>49.0</ele><time>2026-05-01T15:33:58.001Z</time></trkpt><trkpt lat="44.26226707911642" lon="11.852906491020757"><ele>48.33333333333333</ele><time>2026-05-01T15:33:59.001Z</time></trkpt><trkpt lat="44.262392279952216" lon="11.85302340805709"><ele>47.666666666666664</ele><time>2026-05-01T15:34:00.002Z</time></trkpt><trkpt lat="44.26251804192156" lon="11.853140891763417"><ele>47.0</ele><time>2026-05-01T15:34:01.002Z</time></trkpt><trkpt lat="44.26266078693392" lon="11.853225046194005"><ele>47.0</ele><time>2026-05-01T15:34:02.002Z</time></trkpt><trkpt lat="44.262798343782556" lon="11.853324977314374"><ele>47.0</ele><time>2026-05-01T15:34:03.002Z</time></trkpt><trkpt lat="44.26294908037862" lon="11.853378377026178"><ele>47.0</ele><time>2026-05-01T15:34:04.002Z</time></trkpt><trkpt lat="44.263077205055716" lon="11.853481890625005"><ele>46.75</ele><time>2026-05-01T15:34:05.002Z</time></trkpt><trkpt lat="44.263206131068486" lon="11.85356769930847"><ele>46.5</ele><time>2026-05-01T15:34:06.002Z</time></trkpt><trkpt lat="44.26333060167483" lon="11.85366094277767"><ele>46.25</ele><time>2026-05-01T15:34:07.002Z</time></trkpt><trkpt lat="44.26345895616749" lon="11.853748647700202"><ele>46.0</ele><time>2026-05-01T15:34:08.002Z</time></trkpt><trkpt lat="44.26358073884158" lon="11.853844370231187"><ele>46.0</ele><time>2026-05-01T15:34:09.002Z</time></trkpt><trkpt lat="44.26367841136093" lon="11.85398022472966"><ele>46.0</ele><time>2026-05-01T15:34:10.002Z</time></trkpt><trkpt lat="44.26377195570882" lon="11.854124696044233"><ele>46.0</ele><time>2026-05-01T15:34:11.002Z</time></trkpt><trkpt lat="44.263855835011384" lon="11.85429626910357"><ele>46.0</ele><time>2026-05-01T15:34:12.002Z</time></trkpt><trkpt lat="44.263919107325464" lon="11.854486468795985"><ele>45.66666666666667</ele><time>2026-05-01T15:34:13.002Z</time></trkpt><trkpt lat="44.26398204996159" lon="11.85468674088777"><ele>45.333333333333336</ele><time>2026-05-01T15:34:14.002Z</time></trkpt><trkpt lat="44.26407177849998" lon="11.854871882423929"><ele>45.0</ele><time>2026-05-01T15:34:15.002Z</time></trkpt><trkpt lat="44.26417277900835" lon="11.855051953599771"><ele>45.333333333333336</ele><time>2026-05-01T15:34:16.002Z</time></trkpt><trkpt lat="44.264295046700035" lon="11.855217359130405"><ele>45.66666666666667</ele><time>2026-05-01T15:34:17.002Z</time></trkpt><trkpt lat="44.264396941003405" lon="11.855412914958581"><ele>46.0</ele><time>2026-05-01T15:34:18.002Z</time></trkpt><trkpt lat="44.264500039275696" lon="11.855614542695136"><ele>46.0</ele><time>2026-05-01T15:34:19.002Z</time></trkpt><trkpt lat="44.264601713152196" lon="11.855829856244808"><ele>46.0</ele><time>2026-05-01T15:34:20.002Z</time></trkpt><trkpt lat="44.26470685874096" lon="11.856049068059002"><ele>46.0</ele><time>2026-05-01T15:34:21.002Z</time></trkpt><trkpt lat="44.26482722624896" lon="11.856242088218249"><ele>46.333333333333336</ele><time>2026-05-01T15:34:22.002Z</time></trkpt><trkpt lat="44.26492606122193" lon="11.856461287961562"><ele>46.666666666666664</ele><time>2026-05-01T15:34:23.002Z</time></trkpt><trkpt lat="44.26504737848264" lon="11.856654322347703"><ele>47.0</ele><time>2026-05-01T15:34:24.002Z</time></trkpt><trkpt lat="44.265150446971354" lon="11.856849446925777"><ele>46.33333333333333</ele><time>2026-05-01T15:34:25.002Z</time></trkpt><trkpt lat="44.265251840432775" lon="11.857033852787746"><ele>45.666666666666664</ele><time>2026-05-01T15:34:26.002Z</time></trkpt><trkpt lat="44.26534668756327" lon="11.857207834117172"><ele>45.0</ele><time>2026-05-01T15:34:27.002Z</time></trkpt><trkpt lat="44.26544533889111" lon="11.857368822290717"><ele>45.0</ele><time>2026-05-01T15:34:28.002Z</time></trkpt><trkpt lat="44.26553785394088" lon="11.857534414821394"><ele>45.0</ele><time>2026-05-01T15:34:29.002Z</time></trkpt><trkpt lat="44.26563709157684" lon="11.857694314210345"><ele>45.0</ele><time>2026-05-01T15:34:30.002Z</time></trkpt><trkpt lat="44.2657267735997" lon="11.857861648950104"><ele>44.75</ele><time>2026-05-01T15:34:31.002Z</time></trkpt><trkpt lat="44.265796288891316" lon="11.858044858752205"><ele>44.5</ele><time>2026-05-01T15:34:32.002Z</time></trkpt><trkpt lat="44.26587063026225" lon="11.858213075933813"><ele>44.25</ele><time>2026-05-01T15:34:33.001Z</time></trkpt><trkpt lat="44.26592717282723" lon="11.858399217170339"><ele>44.0</ele><time>2026-05-01T15:34:34.001Z</time></trkpt><trkpt lat="44.265980057635645" lon="11.858573171036888"><ele>43.75</ele><time>2026-05-01T15:34:35.001Z</time></trkpt><trkpt lat="44.26603709768281" lon="11.85875066150049"><ele>43.5</ele><time>2026-05-01T15:34:36.001Z</time></trkpt><trkpt lat="44.26611533849135" lon="11.858914520968744"><ele>43.25</ele><time>2026-05-01T15:34:37.001Z</time></trkpt><trkpt lat="44.26622516377197" lon="11.859062979190982"><ele>43.0</ele><time>2026-05-01T15:34:38.001Z</time></trkpt><trkpt lat="44.2663586850097" lon="11.859181626530802"><ele>43.0</ele><time>2026-05-01T15:34:39.001Z</time></trkpt><trkpt lat="44.26649543210398" lon="11.859296042278505"><ele>43.0</ele><time>2026-05-01T15:34:40.001Z</time></trkpt><trkpt lat="44.26664809471223" lon="11.859400324147135"><ele>43.0</ele><time>2026-05-01T15:34:41.001Z</time></trkpt><trkpt lat="44.26680547884692" lon="11.859506376451195"><ele>43.0</ele><time>2026-05-01T15:34:42Z</time></trkpt><trkpt lat="44.26695598319209" lon="11.859643354607035"><ele>43.0</ele><time>2026-05-01T15:34:43Z</time></trkpt><trkpt lat="44.26710536402982" lon="11.85976761137361"><ele>43.0</ele><time>2026-05-01T15:34:44Z</time></trkpt><trkpt lat="44.26724353368521" lon="11.859906489953099"><ele>43.0</ele><time>2026-05-01T15:34:45Z</time></trkpt><trkpt lat="44.26735876750191" lon="11.860057368507077"><ele>43.0</ele><time>2026-05-01T15:34:46Z</time></trkpt><trkpt lat="44.2674564392641" lon="11.860234850434429"><ele>43.0</ele><time>2026-05-01T15:34:47Z</time></trkpt><trkpt lat="44.26754086779375" lon="11.860425758256143"><ele>43.0</ele><time>2026-05-01T15:34:48Z</time></trkpt><trkpt lat="44.26761694701351" lon="11.860639332741394"><ele>43.0</ele><time>2026-05-01T15:34:49Z</time></trkpt><trkpt lat="44.26770675698631" lon="11.860848619485663"><ele>43.0</ele><time>2026-05-01T15:34:50Z</time></trkpt><trkpt lat="44.267787917755165" lon="11.86107910082418"><ele>43.0</ele><time>2026-05-01T15:34:51Z</time></trkpt><trkpt lat="44.267877587433496" lon="11.861299484809559"><ele>43.0</ele><time>2026-05-01T15:34:52Z</time></trkpt><trkpt lat="44.267968967464554" lon="11.86150933546649"><ele>43.0</ele><time>2026-05-01T15:34:53Z</time></trkpt><trkpt lat="44.26806031038776" lon="11.861702427991537"><ele>42.66666666666667</ele><time>2026-05-01T15:34:54Z</time></trkpt><trkpt lat="44.268129876233395" lon="11.861902174632629"><ele>42.333333333333336</ele><time>2026-05-01T15:34:55Z</time></trkpt><trkpt lat="44.26820605393017" lon="11.86207707028569"><ele>42.0</ele><time>2026-05-01T15:34:56Z</time></trkpt><trkpt lat="44.26822186237821" lon="11.862289986507784"><ele>42.0</ele><time>2026-05-01T15:34:57Z</time></trkpt><trkpt lat="44.26827609780553" lon="11.862504155894701"><ele>42.0</ele><time>2026-05-01T15:34:58Z</time></trkpt><trkpt lat="44.26832780583992" lon="11.86272444448739"><ele>42.0</ele><time>2026-05-01T15:34:59.001Z</time></trkpt><trkpt lat="44.268416317028176" lon="11.86293545104337"><ele>42.333333333333336</ele><time>2026-05-01T15:35:00.001Z</time></trkpt><trkpt lat="44.26852652969268" lon="11.863143121461961"><ele>42.66666666666667</ele><time>2026-05-01T15:35:01.001Z</time></trkpt><trkpt lat="44.26864560653465" lon="11.863352081178318"><ele>43.0</ele><time>2026-05-01T15:35:02.001Z</time></trkpt><trkpt lat="44.26877176266702" lon="11.863559366617707"><ele>43.0</ele><time>2026-05-01T15:35:03.001Z</time></trkpt><trkpt lat="44.26891098646291" lon="11.863759525770224"><ele>43.0</ele><time>2026-05-01T15:35:04.001Z</time></trkpt><trkpt lat="44.269058029259405" lon="11.863950248878169"><ele>43.0</ele><time>2026-05-01T15:35:05.001Z</time></trkpt><trkpt lat="44.26919493520236" lon="11.864118635571865"><ele>42.333333333333336</ele><time>2026-05-01T15:35:06.001Z</time></trkpt><trkpt lat="44.26932357459909" lon="11.864278893975948"><ele>41.666666666666664</ele><time>2026-05-01T15:35:07.001Z</time></trkpt><trkpt lat="44.26945247130522" lon="11.864416157984635"><ele>41.0</ele><time>2026-05-01T15:35:08.001Z</time></trkpt><trkpt lat="44.26960272656156" lon="11.864535793905969"><ele>39.0</ele><time>2026-05-01T15:35:09.001Z</time></trkpt><trkpt lat="44.26977549584807" lon="11.86462028142598"><ele>37.0</ele><time>2026-05-01T15:35:10.001Z</time></trkpt><trkpt lat="44.26996033438335" lon="11.864677561600878"><ele>35.0</ele><time>2026-05-01T15:35:11.001Z</time></trkpt><trkpt lat="44.27015144250999" lon="11.864734491047683"><ele>35.0</ele><time>2026-05-01T15:35:12.001Z</time></trkpt><trkpt lat="44.27034291167477" lon="11.864820880688718"><ele>35.0</ele><time>2026-05-01T15:35:13.001Z</time></trkpt><trkpt lat="44.270543471288676" lon="11.864882741271886"><ele>35.0</ele><time>2026-05-01T15:35:14.001Z</time></trkpt><trkpt lat="44.270745359920866" lon="11.864985845684892"><ele>35.33333333333333</ele><time>2026-05-01T15:35:15.001Z</time></trkpt><trkpt lat="44.27095374001662" lon="11.865069880483576"><ele>35.666666666666664</ele><time>2026-05-01T15:35:16.001Z</time></trkpt><trkpt lat="44.27115242867952" lon="11.865147759604891"><ele>36.0</ele><time>2026-05-01T15:35:17.001Z</time></trkpt><trkpt lat="44.27133807820409" lon="11.865216605670302"><ele>36.0</ele><time>2026-05-01T15:35:18.001Z</time></trkpt><trkpt lat="44.27150967931422" lon="11.865280385932689"><ele>36.0</ele><time>2026-05-01T15:35:19.001Z</time></trkpt><trkpt lat="44.271670085136435" lon="11.865350343871947"><ele>36.0</ele><time>2026-05-01T15:35:20.001Z</time></trkpt><trkpt lat="44.27183687493696" lon="11.865424218199555"><ele>36.0</ele><time>2026-05-01T15:35:21.001Z</time></trkpt><trkpt lat="44.27198131614527" lon="11.86558651994302"><ele>36.0</ele><time>2026-05-01T15:35:22.001Z</time></trkpt><trkpt lat="44.27212415628538" lon="11.865750054101765"><ele>36.0</ele><time>2026-05-01T15:35:23.001Z</time></trkpt><trkpt lat="44.27226906561642" lon="11.865923315921526"><ele>36.333333333333336</ele><time>2026-05-01T15:35:24.001Z</time></trkpt><trkpt lat="44.272417415629235" lon="11.86610308504973"><ele>36.66666666666667</ele><time>2026-05-01T15:35:25.001Z</time></trkpt><trkpt lat="44.27256943181046" lon="11.866283601366252"><ele>37.0</ele><time>2026-05-01T15:35:26.001Z</time></trkpt><trkpt lat="44.27272749471735" lon="11.866465339735965"><ele>37.0</ele><time>2026-05-01T15:35:27.001Z</time></trkpt><trkpt lat="44.272882731723634" lon="11.866640273935953"><ele>37.0</ele><time>2026-05-01T15:35:28.001Z</time></trkpt><trkpt lat="44.27302386276948" lon="11.866796774485454"><ele>37.0</ele><time>2026-05-01T15:35:29.001Z</time></trkpt><trkpt lat="44.273164583791015" lon="11.866949934163616"><ele>36.333333333333336</ele><time>2026-05-01T15:35:30.001Z</time></trkpt><trkpt lat="44.27329781042352" lon="11.86709504303368"><ele>35.666666666666664</ele><time>2026-05-01T15:35:31.001Z</time></trkpt><trkpt lat="44.273425240814404" lon="11.86724244260899"><ele>35.0</ele><time>2026-05-01T15:35:32.001Z</time></trkpt><trkpt lat="44.27354692414441" lon="11.867413306807876"><ele>35.0</ele><time>2026-05-01T15:35:33.001Z</time></trkpt><trkpt lat="44.273652857840496" lon="11.867592031366051"><ele>35.0</ele><time>2026-05-01T15:35:34.001Z</time></trkpt><trkpt lat="44.27374878214887" lon="11.867764496209656"><ele>35.0</ele><time>2026-05-01T15:35:35.001Z</time></trkpt><trkpt lat="44.27384075478493" lon="11.867929859641654"><ele>34.5</ele><time>2026-05-01T15:35:36.001Z</time></trkpt><trkpt lat="44.27392722361667" lon="11.868085324199345"><ele>34.0</ele><time>2026-05-01T15:35:37.001Z</time></trkpt><trkpt lat="44.27400589597331" lon="11.868227565339064"><ele>33.5</ele><time>2026-05-01T15:35:38.001Z</time></trkpt><trkpt lat="44.27407085403168" lon="11.868352453755355"><ele>33.0</ele><time>2026-05-01T15:35:39.001Z</time></trkpt><trkpt lat="44.274116423625614" lon="11.868469395309459"><ele>32.8</ele><time>2026-05-01T15:35:40.001Z</time></trkpt><trkpt lat="44.27414914130854" lon="11.868590513052148"><ele>32.599999999999994</ele><time>2026-05-01T15:35:41.001Z</time></trkpt><trkpt lat="44.27412694271575" lon="11.868731996715042"><ele>32.400000000000006</ele><time>2026-05-01T15:35:42.001Z</time></trkpt><trkpt lat="44.274042454390646" lon="11.868844494507549"><ele>32.2</ele><time>2026-05-01T15:35:43.001Z</time></trkpt><trkpt lat="44.273962113437804" lon="11.86899192919796"><ele>32.0</ele><time>2026-05-01T15:35:44.001Z</time></trkpt><trkpt lat="44.27387589307178" lon="11.869184576961981"><ele>32.0</ele><time>2026-05-01T15:35:45.001Z</time></trkpt><trkpt lat="44.27378633589364" lon="11.86934171074147"><ele>32.0</ele><time>2026-05-01T15:35:46.001Z</time></trkpt><trkpt lat="44.27368865032513" lon="11.869512282618201"><ele>32.0</ele><time>2026-05-01T15:35:47.001Z</time></trkpt><trkpt lat="44.27359275563058" lon="11.869700352145118"><ele>32.0</ele><time>2026-05-01T15:35:48.001Z</time></trkpt><trkpt lat="44.273497455978045" lon="11.86986343646076"><ele>32.0</ele><time>2026-05-01T15:35:49.001Z</time></trkpt><trkpt lat="44.27342928154464" lon="11.870069830762281"><ele>32.0</ele><time>2026-05-01T15:35:50.001Z</time></trkpt><trkpt lat="44.273350442855495" lon="11.870277771866181"><ele>31.666666666666664</ele><time>2026-05-01T15:35:51.001Z</time></trkpt><trkpt lat="44.27330184855272" lon="11.870513017344033"><ele>31.333333333333336</ele><time>2026-05-01T15:35:52.001Z</time></trkpt><trkpt lat="44.27326392241337" lon="11.870728673105754"><ele>31.0</ele><time>2026-05-01T15:35:53.001Z</time></trkpt><trkpt lat="44.2732216064594" lon="11.870928654205661"><ele>31.0</ele><time>2026-05-01T15:35:54.001Z</time></trkpt><trkpt lat="44.27316427228213" lon="11.871126686317789"><ele>31.0</ele><time>2026-05-01T15:35:55.001Z</time></trkpt><trkpt lat="44.2730350589876" lon="11.871278224854466"><ele>31.0</ele><time>2026-05-01T15:35:56.001Z</time></trkpt><trkpt lat="44.27290817751138" lon="11.87146263599958"><ele>32.0</ele><time>2026-05-01T15:35:57.001Z</time></trkpt><trkpt lat="44.27275849107446" lon="11.87161571835595"><ele>33.0</ele><time>2026-05-01T15:35:58.001Z</time></trkpt><trkpt lat="44.27263843715866" lon="11.87176721648428"><ele>34.0</ele><time>2026-05-01T15:35:59.001Z</time></trkpt><trkpt lat="44.27254255024528" lon="11.87191551178049"><ele>34.0</ele><time>2026-05-01T15:36:00.001Z</time></trkpt><trkpt lat="44.27244880200047" lon="11.872027512919582"><ele>34.0</ele><time>2026-05-01T15:36:01.001Z</time></trkpt><trkpt lat="44.272373917686636" lon="11.872128613855327"><ele>34.0</ele><time>2026-05-01T15:36:02.001Z</time></trkpt><trkpt lat="44.27233648661122" lon="11.872232099332322"><ele>34.0</ele><time>2026-05-01T15:36:03.001Z</time></trkpt><trkpt lat="44.27232635105994" lon="11.872357562688025"><ele>34.0</ele><time>2026-05-01T15:36:04.001Z</time></trkpt><trkpt lat="44.27239514797208" lon="11.872488851213784"><ele>34.25</ele><time>2026-05-01T15:36:05.001Z</time></trkpt><trkpt lat="44.27248419784404" lon="11.872619058290649"><ele>34.5</ele><time>2026-05-01T15:36:06.001Z</time></trkpt><trkpt lat="44.27258524609971" lon="11.87278182027135"><ele>34.75</ele><time>2026-05-01T15:36:07.001Z</time></trkpt><trkpt lat="44.27268929725447" lon="11.872935083966262"><ele>35.0</ele><time>2026-05-01T15:36:08.001Z</time></trkpt><trkpt lat="44.27281617729659" lon="11.873095537405586"><ele>35.0</ele><time>2026-05-01T15:36:09.001Z</time></trkpt><trkpt lat="44.272928075358394" lon="11.873273450097209"><ele>35.0</ele><time>2026-05-01T15:36:10.001Z</time></trkpt><trkpt lat="44.27304043244228" lon="11.873454248761448"><ele>35.0</ele><time>2026-05-01T15:36:11.001Z</time></trkpt><trkpt lat="44.27314526227952" lon="11.873642520246456"><ele>34.0</ele><time>2026-05-01T15:36:12.001Z</time></trkpt><trkpt lat="44.27323460764751" lon="11.873818860409719"><ele>33.0</ele><time>2026-05-01T15:36:13.002Z</time></trkpt><trkpt lat="44.273318770377664" lon="11.87398455248039"><ele>32.0</ele><time>2026-05-01T15:36:14.002Z</time></trkpt><trkpt lat="44.27339407834054" lon="11.874127415733719"><ele>31.0</ele><time>2026-05-01T15:36:15.002Z</time></trkpt><trkpt lat="44.27346645433968" lon="11.87425772927729"><ele>30.833333333333336</ele><time>2026-05-01T15:36:16.002Z</time></trkpt><trkpt lat="44.27352894809094" lon="11.874373068898516"><ele>30.666666666666668</ele><time>2026-05-01T15:36:17.002Z</time></trkpt><trkpt lat="44.273584123293645" lon="11.874473000249507"><ele>30.5</ele><time>2026-05-01T15:36:18.002Z</time></trkpt><trkpt lat="44.27362820934149" lon="11.874554565312144"><ele>30.333333333333336</ele><time>2026-05-01T15:36:19.002Z</time></trkpt><trkpt lat="44.27368954778157" lon="11.874680272819166"><ele>30.166666666666668</ele><time>2026-05-01T15:36:21.002Z</time></trkpt><trkpt lat="44.273697615786645" lon="11.874776116760291"><ele>30.0</ele><time>2026-05-01T15:36:24.002Z</time></trkpt><trkpt lat="44.27355924533342" lon="11.87482609964339"><ele>30.0</ele><time>2026-05-01T15:36:27.002Z</time></trkpt><trkpt lat="44.27348920362165" lon="11.874838624791442"><ele>30.0</ele><time>2026-05-01T15:36:28.002Z</time></trkpt><trkpt lat="44.273401590709305" lon="11.874877802658197"><ele>30.0</ele><time>2026-05-01T15:36:29.002Z</time></trkpt><trkpt lat="44.273298547321765" lon="11.874895635574822"><ele>30.0</ele><time>2026-05-01T15:36:30.002Z</time></trkpt><trkpt lat="44.27318800431383" lon="11.874916035137714"><ele>30.0</ele><time>2026-05-01T15:36:31.002Z</time></trkpt><trkpt lat="44.27306195227466" lon="11.874942933105913"><ele>31.25</ele><time>2026-05-01T15:36:32.002Z</time></trkpt><trkpt lat="44.27292099844736" lon="11.87497206394556"><ele>32.5</ele><time>2026-05-01T15:36:33.002Z</time></trkpt><trkpt lat="44.27277601171851" lon="11.874998723407801"><ele>33.75</ele><time>2026-05-01T15:36:34.002Z</time></trkpt><trkpt lat="44.27262077146918" lon="11.875028591433912"><ele>35.0</ele><time>2026-05-01T15:36:35.002Z</time></trkpt><trkpt lat="44.27245512278528" lon="11.87505868654455"><ele>35.0</ele><time>2026-05-01T15:36:36.002Z</time></trkpt><trkpt lat="44.272276338570116" lon="11.875071580602684"><ele>35.0</ele><time>2026-05-01T15:36:37.002Z</time></trkpt><trkpt lat="44.27208067019319" lon="11.875054025980134"><ele>35.0</ele><time>2026-05-01T15:36:38.002Z</time></trkpt><trkpt lat="44.27187063199958" lon="11.875008670252145"><ele>35.33333333333333</ele><time>2026-05-01T15:36:39Z</time></trkpt><trkpt lat="44.27165150653339" lon="11.87493235057024"><ele>35.666666666666664</ele><time>2026-05-01T15:36:40Z</time></trkpt><trkpt lat="44.27143792364246" lon="11.874842676055671"><ele>36.0</ele><time>2026-05-01T15:36:41Z</time></trkpt><trkpt lat="44.2712132406179" lon="11.874753432608324"><ele>36.0</ele><time>2026-05-01T15:36:42Z</time></trkpt><trkpt lat="44.270973287021924" lon="11.874661946908773"><ele>36.0</ele><time>2026-05-01T15:36:43Z</time></trkpt><trkpt lat="44.27073174267507" lon="11.8745607702761"><ele>37.5</ele><time>2026-05-01T15:36:44Z</time></trkpt><trkpt lat="44.27050074647915" lon="11.874460092161799"><ele>39.0</ele><time>2026-05-01T15:36:45Z</time></trkpt><trkpt lat="44.270282025262865" lon="11.874363351330029"><ele>39.0</ele><time>2026-05-01T15:36:46Z</time></trkpt><trkpt lat="44.27007921751691" lon="11.874265054377727"><ele>39.0</ele><time>2026-05-01T15:36:47Z</time></trkpt><trkpt lat="44.269883489088954" lon="11.874179523718421"><ele>39.0</ele><time>2026-05-01T15:36:48Z</time></trkpt><trkpt lat="44.269691960041804" lon="11.874091315090414"><ele>39.0</ele><time>2026-05-01T15:36:49Z</time></trkpt><trkpt lat="44.26949802832981" lon="11.874005728858755"><ele>39.0</ele><time>2026-05-01T15:36:50Z</time></trkpt><trkpt lat="44.26929963455093" lon="11.873920556604284"><ele>39.0</ele><time>2026-05-01T15:36:51Z</time></trkpt><trkpt lat="44.26909715136137" lon="11.87383466602884"><ele>39.333333333333336</ele><time>2026-05-01T15:36:52Z</time></trkpt><trkpt lat="44.26889629912626" lon="11.873743786809472"><ele>39.66666666666667</ele><time>2026-05-01T15:36:53Z</time></trkpt><trkpt lat="44.26869457304338" lon="11.873653186022775"><ele>40.0</ele><time>2026-05-01T15:36:54Z</time></trkpt><trkpt lat="44.26849507220264" lon="11.87356441901639"><ele>40.0</ele><time>2026-05-01T15:36:55Z</time></trkpt><trkpt lat="44.26829500206042" lon="11.873478171111152"><ele>40.0</ele><time>2026-05-01T15:36:56Z</time></trkpt><trkpt lat="44.268095668231354" lon="11.873399313798064"><ele>40.0</ele><time>2026-05-01T15:36:57Z</time></trkpt><trkpt lat="44.267895332133335" lon="11.873331462248169"><ele>41.0</ele><time>2026-05-01T15:36:58Z</time></trkpt><trkpt lat="44.267689561229616" lon="11.873285877304536"><ele>42.0</ele><time>2026-05-01T15:36:59Z</time></trkpt><trkpt lat="44.2674806365773" lon="11.873264361395407"><ele>43.0</ele><time>2026-05-01T15:37:00Z</time></trkpt><trkpt lat="44.267268637961" lon="11.873279773315572"><ele>44.0</ele><time>2026-05-01T15:37:01Z</time></trkpt><trkpt lat="44.2670535300532" lon="11.873326385944683"><ele>45.0</ele><time>2026-05-01T15:37:02Z</time></trkpt><trkpt lat="44.26683096911441" lon="11.873373312265155"><ele>46.0</ele><time>2026-05-01T15:37:03Z</time></trkpt><trkpt lat="44.26660530933446" lon="11.873423679381705"><ele>46.0</ele><time>2026-05-01T15:37:04Z</time></trkpt><trkpt lat="44.26638602174106" lon="11.87347158921709"><ele>46.0</ele><time>2026-05-01T15:37:05Z</time></trkpt><trkpt lat="44.266184119249" lon="11.873515278365359"><ele>46.0</ele><time>2026-05-01T15:37:06Z</time></trkpt><trkpt lat="44.265987312632326" lon="11.873560361446042"><ele>46.0</ele><time>2026-05-01T15:37:07Z</time></trkpt><trkpt lat="44.26580194463434" lon="11.873600664424181"><ele>46.0</ele><time>2026-05-01T15:37:08Z</time></trkpt><trkpt lat="44.26562043121703" lon="11.873647154735302"><ele>46.0</ele><time>2026-05-01T15:37:09Z</time></trkpt><trkpt lat="44.26543640537081" lon="11.87368849705045"><ele>45.0</ele><time>2026-05-01T15:37:10Z</time></trkpt><trkpt lat="44.2652462498847" lon="11.87372858245901"><ele>44.0</ele><time>2026-05-01T15:37:11Z</time></trkpt><trkpt lat="44.26505512245776" lon="11.873772664136334"><ele>43.0</ele><time>2026-05-01T15:37:12Z</time></trkpt><trkpt lat="44.26486080017172" lon="11.87381661029607"><ele>44.66666666666667</ele><time>2026-05-01T15:37:13Z</time></trkpt><trkpt lat="44.26466400411082" lon="11.873859934207745"><ele>46.333333333333336</ele><time>2026-05-01T15:37:14.001Z</time></trkpt><trkpt lat="44.264468189185486" lon="11.87390538607651"><ele>48.0</ele><time>2026-05-01T15:37:15.001Z</time></trkpt><trkpt lat="44.26427308948742" lon="11.873947497646196"><ele>48.0</ele><time>2026-05-01T15:37:16.001Z</time></trkpt><trkpt lat="44.26407855222917" lon="11.873983750349025"><ele>48.0</ele><time>2026-05-01T15:37:17.001Z</time></trkpt><trkpt lat="44.263884701840425" lon="11.874018196190276"><ele>48.0</ele><time>2026-05-01T15:37:18.001Z</time></trkpt><trkpt lat="44.263694416145654" lon="11.874059428308843"><ele>47.333333333333336</ele><time>2026-05-01T15:37:19.001Z</time></trkpt><trkpt lat="44.26350285870002" lon="11.874113402273622"><ele>46.66666666666667</ele><time>2026-05-01T15:37:20.001Z</time></trkpt><trkpt lat="44.263309235207906" lon="11.874175223472449"><ele>46.0</ele><time>2026-05-01T15:37:21.001Z</time></trkpt><trkpt lat="44.26311499876517" lon="11.874239083818887"><ele>46.333333333333336</ele><time>2026-05-01T15:37:22.001Z</time></trkpt><trkpt lat="44.2629241931607" lon="11.87430895788203"><ele>46.666666666666664</ele><time>2026-05-01T15:37:23.001Z</time></trkpt><trkpt lat="44.26273949257044" lon="11.874383794974579"><ele>47.0</ele><time>2026-05-01T15:37:24.001Z</time></trkpt><trkpt lat="44.2625628586319" lon="11.874479055934433"><ele>47.0</ele><time>2026-05-01T15:37:25.001Z</time></trkpt><trkpt lat="44.262394943583175" lon="11.874604740972813"><ele>47.0</ele><time>2026-05-01T15:37:26.001Z</time></trkpt><trkpt lat="44.26223891344977" lon="11.874764728140388"><ele>47.0</ele><time>2026-05-01T15:37:27.001Z</time></trkpt><trkpt lat="44.26208165884742" lon="11.874933256904338"><ele>47.666666666666664</ele><time>2026-05-01T15:37:28.001Z</time></trkpt><trkpt lat="44.261942795615084" lon="11.875136264992456"><ele>48.33333333333333</ele><time>2026-05-01T15:37:29.001Z</time></trkpt><trkpt lat="44.26180290715688" lon="11.875348022998946"><ele>49.0</ele><time>2026-05-01T15:37:30.001Z</time></trkpt><trkpt lat="44.2616668847779" lon="11.875565623771845"><ele>49.0</ele><time>2026-05-01T15:37:31.001Z</time></trkpt><trkpt lat="44.261511717930254" lon="11.875752471495414"><ele>49.0</ele><time>2026-05-01T15:37:32.001Z</time></trkpt><trkpt lat="44.26135194631667" lon="11.87592642649299"><ele>49.0</ele><time>2026-05-01T15:37:33.001Z</time></trkpt><trkpt lat="44.261179668112945" lon="11.876085982598857"><ele>50.33333333333333</ele><time>2026-05-01T15:37:34.001Z</time></trkpt><trkpt lat="44.261001243153366" lon="11.87623797700426"><ele>51.66666666666667</ele><time>2026-05-01T15:37:35.001Z</time></trkpt><trkpt lat="44.26081627631913" lon="11.876389421596526"><ele>53.0</ele><time>2026-05-01T15:37:36.001Z</time></trkpt><trkpt lat="44.26062608815027" lon="11.87653607495016"><ele>53.0</ele><time>2026-05-01T15:37:37.001Z</time></trkpt><trkpt lat="44.26043738383391" lon="11.876671434529463"><ele>53.0</ele><time>2026-05-01T15:37:38.001Z</time></trkpt><trkpt lat="44.26025283867353" lon="11.876800102392378"><ele>53.0</ele><time>2026-05-01T15:37:39.001Z</time></trkpt><trkpt lat="44.26006519023188" lon="11.876925821638046"><ele>52.66666666666667</ele><time>2026-05-01T15:37:40.001Z</time></trkpt><trkpt lat="44.25988873656472" lon="11.877035456659652"><ele>52.33333333333333</ele><time>2026-05-01T15:37:41.001Z</time></trkpt><trkpt lat="44.2597170724387" lon="11.877125628689633"><ele>52.0</ele><time>2026-05-01T15:37:42.001Z</time></trkpt><trkpt lat="44.25953629753217" lon="11.877191760026944"><ele>52.0</ele><time>2026-05-01T15:37:43.001Z</time></trkpt><trkpt lat="44.259353689716804" lon="11.87725211103378"><ele>52.0</ele><time>2026-05-01T15:37:44.001Z</time></trkpt><trkpt lat="44.25918557302893" lon="11.87729917762329"><ele>52.0</ele><time>2026-05-01T15:37:45.001Z</time></trkpt><trkpt lat="44.25902847093831" lon="11.877359090274947"><ele>52.33333333333333</ele><time>2026-05-01T15:37:46.001Z</time></trkpt><trkpt lat="44.25885603314739" lon="11.877429669534648"><ele>52.66666666666667</ele><time>2026-05-01T15:37:47.001Z</time></trkpt><trkpt lat="44.25868596067946" lon="11.87750594684276"><ele>53.0</ele><time>2026-05-01T15:37:48.001Z</time></trkpt><trkpt lat="44.25852512885072" lon="11.877601293315008"><ele>53.0</ele><time>2026-05-01T15:37:49.001Z</time></trkpt><trkpt lat="44.258375188921754" lon="11.877730445824255"><ele>53.0</ele><time>2026-05-01T15:37:50.001Z</time></trkpt><trkpt lat="44.25823071477082" lon="11.877872645851975"><ele>53.0</ele><time>2026-05-01T15:37:51.001Z</time></trkpt><trkpt lat="44.258081734355805" lon="11.877999826072275"><ele>53.0</ele><time>2026-05-01T15:37:52.001Z</time></trkpt><trkpt lat="44.257894415421745" lon="11.8780786825272"><ele>53.0</ele><time>2026-05-01T15:37:53.001Z</time></trkpt><trkpt lat="44.25772892080339" lon="11.878186234347492"><ele>53.0</ele><time>2026-05-01T15:37:54.001Z</time></trkpt><trkpt lat="44.25755320463717" lon="11.878260670410427"><ele>53.0</ele><time>2026-05-01T15:37:55.001Z</time></trkpt><trkpt lat="44.25736886402009" lon="11.878328303832784"><ele>53.0</ele><time>2026-05-01T15:37:56.001Z</time></trkpt><trkpt lat="44.257193683572964" lon="11.878404954741148"><ele>53.0</ele><time>2026-05-01T15:37:57.001Z</time></trkpt><trkpt lat="44.2570249914812" lon="11.878486034699966"><ele>53.66666666666667</ele><time>2026-05-01T15:37:58.001Z</time></trkpt><trkpt lat="44.25685490705775" lon="11.878572098465995"><ele>54.33333333333333</ele><time>2026-05-01T15:37:59.001Z</time></trkpt><trkpt lat="44.25669464741651" lon="11.878650127735462"><ele>55.0</ele><time>2026-05-01T15:38:00.001Z</time></trkpt><trkpt lat="44.25653689267869" lon="11.87873259000045"><ele>55.33333333333333</ele><time>2026-05-01T15:38:01.001Z</time></trkpt><trkpt lat="44.25638538255397" lon="11.878825384097064"><ele>55.66666666666667</ele><time>2026-05-01T15:38:02.001Z</time></trkpt><trkpt lat="44.256237516507795" lon="11.878924282454944"><ele>56.0</ele><time>2026-05-01T15:38:03.001Z</time></trkpt><trkpt lat="44.25609880849358" lon="11.87904803267191"><ele>56.0</ele><time>2026-05-01T15:38:04.001Z</time></trkpt><trkpt lat="44.25597208006527" lon="11.879193014249367"><ele>56.0</ele><time>2026-05-01T15:38:05.001Z</time></trkpt><trkpt lat="44.255849907214895" lon="11.87934726694954"><ele>56.0</ele><time>2026-05-01T15:38:06.001Z</time></trkpt><trkpt lat="44.25573568393775" lon="11.879499535433851"><ele>55.66666666666667</ele><time>2026-05-01T15:38:07.001Z</time></trkpt><trkpt lat="44.25562503661061" lon="11.879655533779664"><ele>55.33333333333333</ele><time>2026-05-01T15:38:08.001Z</time></trkpt><trkpt lat="44.255504223182314" lon="11.879806025062255"><ele>55.0</ele><time>2026-05-01T15:38:09.001Z</time></trkpt><trkpt lat="44.25537254077167" lon="11.879947512523765"><ele>55.33333333333333</ele><time>2026-05-01T15:38:10.001Z</time></trkpt><trkpt lat="44.25523529514494" lon="11.880070934086572"><ele>55.66666666666667</ele><time>2026-05-01T15:38:11.001Z</time></trkpt><trkpt lat="44.255085317525975" lon="11.880160534071399"><ele>56.0</ele><time>2026-05-01T15:38:12.001Z</time></trkpt><trkpt lat="44.25493610827843" lon="11.880226182378005"><ele>56.0</ele><time>2026-05-01T15:38:13.001Z</time></trkpt><trkpt lat="44.25478982540226" lon="11.880282173629473"><ele>56.0</ele><time>2026-05-01T15:38:14.001Z</time></trkpt><trkpt lat="44.25464032926971" lon="11.880351619233931"><ele>56.0</ele><time>2026-05-01T15:38:15.001Z</time></trkpt><trkpt lat="44.254508514865826" lon="11.880421691298753"><ele>56.75</ele><time>2026-05-01T15:38:16.001Z</time></trkpt><trkpt lat="44.254385571899306" lon="11.880507715209061"><ele>57.5</ele><time>2026-05-01T15:38:17.001Z</time></trkpt><trkpt lat="44.254261781586834" lon="11.880610836500875"><ele>58.25</ele><time>2026-05-01T15:38:18.001Z</time></trkpt><trkpt lat="44.25413637265756" lon="11.880723134153321"><ele>59.0</ele><time>2026-05-01T15:38:19.001Z</time></trkpt><trkpt lat="44.25399984895629" lon="11.880833788063494"><ele>59.66666666666667</ele><time>2026-05-01T15:38:20.001Z</time></trkpt><trkpt lat="44.25387171831433" lon="11.880958488485904"><ele>60.33333333333333</ele><time>2026-05-01T15:38:21.001Z</time></trkpt><trkpt lat="44.2537436211848" lon="11.88108878917432"><ele>61.0</ele><time>2026-05-01T15:38:22.001Z</time></trkpt><trkpt lat="44.25361679641637" lon="11.881218283999303"><ele>61.0</ele><time>2026-05-01T15:38:23.001Z</time></trkpt><trkpt lat="44.25348973576423" lon="11.881347255898783"><ele>61.0</ele><time>2026-05-01T15:38:24.001Z</time></trkpt><trkpt lat="44.25335728072482" lon="11.881461025646258"><ele>61.0</ele><time>2026-05-01T15:38:25.001Z</time></trkpt><trkpt lat="44.253197374572224" lon="11.881550013275685"><ele>61.0</ele><time>2026-05-01T15:38:26.001Z</time></trkpt><trkpt lat="44.25303315065843" lon="11.881632452109876"><ele>61.0</ele><time>2026-05-01T15:38:27.002Z</time></trkpt><trkpt lat="44.25287301811318" lon="11.881710595818785"><ele>61.0</ele><time>2026-05-01T15:38:28.002Z</time></trkpt><trkpt lat="44.25272118043539" lon="11.881783618927818"><ele>61.0</ele><time>2026-05-01T15:38:29.002Z</time></trkpt><trkpt lat="44.25256673135882" lon="11.881857152954312"><ele>61.0</ele><time>2026-05-01T15:38:30.002Z</time></trkpt><trkpt lat="44.252411023750106" lon="11.88193204094189"><ele>61.0</ele><time>2026-05-01T15:38:31.002Z</time></trkpt><trkpt lat="44.25226047773585" lon="11.882013729580265"><ele>61.0</ele><time>2026-05-01T15:38:32.002Z</time></trkpt><trkpt lat="44.252104059021036" lon="11.882090974918034"><ele>61.0</ele><time>2026-05-01T15:38:33.002Z</time></trkpt><trkpt lat="44.25194333001895" lon="11.88215010657022"><ele>61.0</ele><time>2026-05-01T15:38:34.002Z</time></trkpt><trkpt lat="44.251781364061436" lon="11.882218623454808"><ele>61.0</ele><time>2026-05-01T15:38:35.002Z</time></trkpt><trkpt lat="44.251623296626704" lon="11.882303786563165"><ele>61.0</ele><time>2026-05-01T15:38:36.002Z</time></trkpt><trkpt lat="44.25145425131686" lon="11.882344059626606"><ele>61.0</ele><time>2026-05-01T15:38:37.002Z</time></trkpt><trkpt lat="44.25129012182981" lon="11.88242666480335"><ele>62.0</ele><time>2026-05-01T15:38:38.002Z</time></trkpt><trkpt lat="44.251119739756895" lon="11.882490528809859"><ele>63.0</ele><time>2026-05-01T15:38:39.002Z</time></trkpt><trkpt lat="44.25095421320822" lon="11.882558379782225"><ele>64.0</ele><time>2026-05-01T15:38:40.002Z</time></trkpt><trkpt lat="44.250797312420225" lon="11.882628515623079"><ele>64.0</ele><time>2026-05-01T15:38:41.002Z</time></trkpt><trkpt lat="44.25063165708859" lon="11.88269821970887"><ele>64.0</ele><time>2026-05-01T15:38:42.002Z</time></trkpt><trkpt lat="44.25047195463618" lon="11.882771818432541"><ele>64.0</ele><time>2026-05-01T15:38:43.002Z</time></trkpt><trkpt lat="44.25031001103697" lon="11.88285030622994"><ele>65.0</ele><time>2026-05-01T15:38:44.002Z</time></trkpt><trkpt lat="44.250144482911864" lon="11.882912933245436"><ele>66.0</ele><time>2026-05-01T15:38:45Z</time></trkpt><trkpt lat="44.24999151523437" lon="11.882995329186322"><ele>67.0</ele><time>2026-05-01T15:38:46Z</time></trkpt><trkpt lat="44.24984986527362" lon="11.883080623510104"><ele>66.75</ele><time>2026-05-01T15:38:47Z</time></trkpt><trkpt lat="44.24971789044978" lon="11.883169191286365"><ele>66.5</ele><time>2026-05-01T15:38:48Z</time></trkpt><trkpt lat="44.24959590585522" lon="11.883274750024961"><ele>66.25</ele><time>2026-05-01T15:38:49Z</time></trkpt><trkpt lat="44.24948044894493" lon="11.88337155960564"><ele>66.0</ele><time>2026-05-01T15:38:50Z</time></trkpt><trkpt lat="44.24937838107228" lon="11.883465650467267"><ele>66.0</ele><time>2026-05-01T15:38:51Z</time></trkpt><trkpt lat="44.249285690572336" lon="11.88355586479948"><ele>66.0</ele><time>2026-05-01T15:38:52Z</time></trkpt><trkpt lat="44.2491915222197" lon="11.883636513579068"><ele>66.0</ele><time>2026-05-01T15:38:53Z</time></trkpt><trkpt lat="44.249094466434364" lon="11.88368443027194"><ele>66.0</ele><time>2026-05-01T15:38:54Z</time></trkpt><trkpt lat="44.249002094926475" lon="11.88373977042503"><ele>66.0</ele><time>2026-05-01T15:38:55Z</time></trkpt><trkpt lat="44.24891479561084" lon="11.883781735217115"><ele>66.0</ele><time>2026-05-01T15:38:56Z</time></trkpt><trkpt lat="44.248847171069784" lon="11.883806983295756"><ele>66.0</ele><time>2026-05-01T15:38:57Z</time></trkpt><trkpt lat="44.24878963279377" lon="11.883992894194165"><ele>66.0</ele><time>2026-05-01T15:38:59Z</time></trkpt><trkpt lat="44.248756306100404" lon="11.884095376796038"><ele>66.0</ele><time>2026-05-01T15:39:01Z</time></trkpt><trkpt lat="44.24872697630859" lon="11.884177064417875"><ele>66.0</ele><time>2026-05-01T15:39:04Z</time></trkpt></trkseg></trk></gpx>